ECMWFFLT1_250_spd_000.txt.gz
Wind_Speed
26 25 24 24 24 26 28 29 28 29 30 31 32 33 34 35 36 37 37 38 39 39 40 40 41 41 41 40 40 39 40 40 41 41 41 42 42 43 43 42 42 40 36 32 31 33 37 41 45 50 55 58 58 56 54 54 55 56 56 53 51 50 49
29 29 28 27 27 29 31 32 32 33 33 34 35 35 36 37 38 39 40 40 41 41 42 42 43 43 42 41 42 42 42 43 43 44 44 45 44 44 42 40 39 37 34 31 32 35 41 46 50 54 57 58 58 56 55 55 55 58 58 54 51 50 48
33 32 31 31 31 32 33 34 35 36 37 37 37 38 39 39 40 41 42 42 42 43 43 44 44 44 43 43 43 44 45 45 46 46 46 47 47 45 43 39 36 34 33 33 35 39 46 53 56 57 60 63 63 62 61 59 58 60 59 55 51 50 47
35 35 35 35 35 35 35 36 36 38 38 39 40 40 41 41 42 43 43 43 43 44 45 45 45 45 45 45 45 46 47 48 48 49 48 49 49 48 45 41 37 35 35 37 41 46 53 59 61 62 66 67 67 68 68 63 61 61 60 55 51 48 45
38 38 38 38 38 37 37 37 37 38 39 40 41 42 42 43 44 44 44 45 45 45 46 46 46 46 46 47 48 48 48 48 49 49 49 50 51 49 46 43 40 40 41 44 49 54 60 67 68 67 68 67 67 70 69 64 61 62 59 53 49 47 45
40 40 41 41 41 40 40 39 39 39 40 41 42 43 44 45 46 47 47 47 47 47 47 47 47 48 48 49 49 50 50 49 49 49 49 49 50 49 47 45 44 45 48 51 56 61 66 69 69 65 64 66 68 68 65 62 60 59 54 50 48 47 47
41 42 43 44 43 43 43 42 42 42 43 44 44 45 47 48 49 50 50 50 49 49 49 49 49 49 50 50 50 50 50 50 50 49 49 48 48 49 49 50 50 51 53 56 60 63 65 65 65 63 63 66 66 63 61 60 58 54 51 49 49 49 51
44 45 46 46 45 45 46 46 46 46 46 46 47 48 49 50 51 52 52 52 51 51 51 50 50 50 50 50 51 51 50 49 49 49 49 49 49 52 55 57 58 58 57 57 59 60 60 62 63 62 63 65 63 61 61 61 56 51 51 52 52 54 56
47 48 49 49 48 48 48 49 49 49 48 48 49 50 51 52 53 54 54 53 53 52 52 51 51 50 50 50 50 50 49 49 49 49 50 51 53 58 62 63 63 62 59 57 58 60 62 63 61 59 61 62 61 62 61 59 55 52 53 55 57 59 59
49 50 51 50 50 50 51 51 51 50 50 50 51 51 52 54 55 55 55 54 54 53 52 52 51 51 51 50 50 50 49 49 49 50 52 53 56 62 66 65 62 60 57 58 63 65 64 61 58 57 59 59 60 60 57 56 57 57 58 59 60 60 61
50 51 52 52 51 51 52 52 52 51 51 51 52 52 53 55 55 56 55 55 54 54 53 52 52 52 51 51 51 50 50 49 50 52 53 54 58 61 62 61 59 58 59 63 68 68 63 58 56 55 56 56 56 55 55 58 60 60 62 63 62 61 62
51 52 53 52 52 52 52 53 53 52 52 52 53 54 54 56 56 56 56 56 56 55 54 53 53 53 52 52 52 51 51 50 50 53 55 56 60 61 60 60 61 62 65 69 71 68 60 55 53 54 54 54 54 53 55 59 61 63 66 65 64 63 62
51 52 53 53 53 53 53 54 54 54 54 54 54 55 56 57 57 57 57 58 57 57 56 56 55 54 54 54 53 51 50 49 48 52 55 56 59 62 64 63 61 62 67 70 69 63 56 51 52 53 52 52 52 54 58 61 64 68 69 67 66 65 64
52 53 53 54 55 54 54 55 56 55 55 55 56 57 58 58 58 58 59 59 59 59 59 58 57 55 55 54 53 52 50 49 49 50 52 55 56 59 62 60 55 59 67 68 65 61 57 55 54 53 52 53 56 60 63 67 70 72 71 69 69 69 69
54 54 54 55 56 56 57 58 58 58 57 56 57 59 60 60 60 61 61 61 62 62 61 60 59 57 57 57 55 53 50 48 45 42 45 51 54 57 61 56 52 59 66 66 64 63 62 61 60 58 59 62 66 70 73 75 76 76 75 74 73 73 72
55 55 56 56 57 58 60 61 61 61 60 59 59 61 62 62 62 63 64 64 64 64 64 63 61 60 61 59 56 52 49 45 40 36 39 44 48 55 59 55 55 61 64 64 66 67 67 67 67 68 71 74 78 80 81 81 79 78 78 77 76 74 73
57 57 57 57 58 60 62 63 63 63 62 62 63 63 64 65 65 66 66 66 67 66 66 65 64 62 61 59 56 54 52 46 40 37 39 43 47 49 48 51 58 63 64 67 71 74 73 72 73 77 81 83 85 85 82 80 79 78 77 76 76 75 76
59 59 58 58 60 62 63 63 63 64 65 66 66 67 67 67 68 68 68 68 68 68 67 66 65 62 60 58 56 55 53 48 42 38 39 44 49 49 51 59 65 66 69 76 81 81 79 78 80 84 85 85 84 82 80 78 76 74 74 75 76 77 79
62 61 60 61 62 63 63 64 65 66 68 69 69 70 70 70 70 70 70 69 69 68 67 66 64 61 59 57 55 54 52 51 47 43 41 46 53 57 63 70 72 74 78 83 84 83 82 83 87 87 85 83 81 80 78 76 74 73 74 77 79 81 84
64 64 64 64 65 65 65 66 67 68 69 70 71 72 73 72 71 70 69 68 67 66 66 66 63 60 58 57 56 56 54 51 50 46 45 52 60 63 65 69 73 75 78 80 82 83 84 86 88 86 83 82 81 81 80 78 77 78 79 80 82 85 85
66 67 68 67 66 66 67 67 68 69 69 70 71 73 73 72 71 69 68 67 66 66 66 65 63 60 58 58 58 57 56 55 53 49 47 54 62 64 64 66 68 70 74 77 80 83 85 87 87 84 81 80 80 79 80 81 82 82 80 80 83 84 84
68 69 71 70 67 67 68 67 68 69 69 69 71 71 71 70 69 68 67 66 67 67 66 64 63 61 60 59 58 57 56 58 57 53 50 54 59 61 62 63 65 68 72 75 78 80 83 86 86 82 78 78 78 78 80 83 83 82 80 81 83 83 83
68 69 72 72 67 66 67 67 67 68 68 67 68 68 68 68 68 68 68 68 68 68 67 65 65 63 61 59 58 57 57 59 58 53 51 50 53 56 58 61 66 68 69 72 75 76 80 84 85 84 84 85 83 82 82 82 80 79 80 81 82 82 85
68 70 73 71 67 65 67 66 66 66 66 65 66 66 67 68 69 70 70 70 69 69 68 67 66 64 62 60 59 57 58 59 57 54 52 52 55 58 59 61 67 69 67 69 72 75 79 82 83 85 87 86 83 80 78 76 76 78 81 82 82 84 89
70 70 71 69 66 64 66 66 65 64 64 64 64 66 68 71 72 73 73 72 71 70 69 68 67 66 64 62 61 59 58 58 56 55 55 55 57 61 62 63 67 68 67 68 71 75 77 78 80 82 82 79 77 75 74 74 77 80 82 84 85 87 90
70 70 69 67 65 64 65 66 64 63 64 65 67 69 72 74 74 75 75 73 72 71 70 69 69 68 66 65 64 61 59 58 57 57 57 56 58 63 65 64 65 65 66 67 69 72 73 73 73 73 71 68 69 71 73 75 78 80 81 83 85 87 89
69 68 66 66 65 66 66 66 66 67 69 70 72 74 75 75 75 74 74 73 73 72 72 71 71 69 68 67 65 62 61 59 57 56 56 57 60 63 64 65 65 65 65 66 66 68 69 68 65 63 63 63 65 70 71 70 72 75 78 80 83 87 89
69 68 66 66 67 68 69 69 70 71 73 74 74 75 76 76 75 74 73 73 73 73 73 73 72 70 69 68 67 66 63 59 55 52 52 56 59 62 63 65 66 65 65 65 65 64 64 64 63 64 65 66 68 68 65 64 66 71 75 80 84 88 90
70 68 68 69 70 71 72 72 73 74 75 75 75 75 76 75 75 73 72 73 73 73 73 72 71 71 71 72 71 68 64 59 55 52 53 57 61 63 65 67 68 67 67 67 65 62 61 61 63 64 65 67 69 68 66 68 73 77 80 84 88 90 92
70 70 70 71 72 73 74 74 75 76 76 76 76 77 76 75 74 73 72 72 73 74 74 73 73 73 73 73 72 69 66 63 59 55 54 58 61 63 66 69 69 69 70 71 71 69 66 64 64 64 65 67 70 72 74 78 83 86 89 92 93 94 96
73 72 72 73 73 74 74 75 76 77 76 76 77 76 74 71 71 72 72 73 74 76 76 76 76 75 75 75 73 72 70 67 62 58 56 58 60 62 65 69 72 74 76 77 79 80 78 74 71 70 71 73 75 79 83 87 91 94 97 99 100 100 101
76 75 75 75 75 75 76 77 77 77 76 76 75 71 68 67 69 72 74 75 77 78 77 77 77 77 76 75 74 73 72 70 66 63 61 60 60 62 66 70 71 70 70 72 75 78 80 79 78 77 78 80 82 85 89 91 94 97 99 101 103 104 105
76 76 76 76 76 76 77 78 77 75 75 74 71 67 67 69 71 73 76 77 78 77 77 78 79 78 76 74 73 72 72 71 71 69 66 64 63 63 66 66 61 57 57 59 61 64 68 72 75 76 78 79 81 84 87 90 92 94 97 99 102 104 107
77 77 78 77 75 75 75 74 73 72 72 71 70 70 71 73 73 74 76 78 78 78 78 80 79 77 75 73 72 71 71 72 71 71 69 68 66 65 65 64 62 62 62 61 59 60 63 65 68 70 72 75 78 81 85 88 91 93 96 99 102 104 105
77 76 75 73 71 70 69 70 70 70 71 71 71 73 74 74 73 73 75 77 78 79 79 80 79 77 76 73 71 71 72 72 71 71 71 72 71 71 70 69 69 69 69 67 66 66 67 68 69 70 72 75 78 81 85 88 91 93 96 98 99 100 101
73 71 70 69 69 69 69 70 70 71 71 71 72 73 73 71 71 72 75 77 78 78 78 78 78 78 77 76 75 75 76 75 74 75 77 78 78 78 77 75 74 73 73 72 72 71 72 73 74 76 79 82 85 88 91 93 95 95 95 95 95 96 97
73 72 71 71 72 72 71 71 70 70 70 71 72 73 73 73 73 75 77 78 78 78 78 78 78 78 79 79 80 80 80 80 80 81 81 81 81 80 79 78 79 79 78 77 76 76 78 79 80 82 85 88 92 95 97 98 97 96 93 93 93 94 96
76 76 74 73 72 72 70 69 69 70 70 70 71 72 74 75 76 77 78 78 78 78 79 79 79 79 79 80 81 82 82 83 83 83 82 81 81 81 81 83 84 83 82 81 81 82 84 85 86 88 90 93 95 97 97 97 96 93 92 92 93 94 96

ECMWFFLT1_250_spd_003.txt.gz
Wind_Speed
24 24 24 24 25 26 27 27 28 30 30 31 31 31 32 32 33 33 34 34 35 35 35 35 36 36 36 36 37 38 38 38 38 38 39 38 38 39 40 39 39 38 37 37 36 36 35 35 36 37 39 41 43 46 48 51 53 52 50 47 47 48 46
27 27 27 28 28 29 30 31 32 33 33 33 33 34 34 34 35 35 35 36 36 36 36 36 37 37 38 38 39 40 40 40 40 40 40 39 39 40 40 41 40 40 39 38 38 38 39 41 42 42 43 44 46 48 48 49 51 51 49 46 45 45 42
29 30 30 30 31 31 32 33 35 35 35 35 35 36 36 36 36 37 37 37 37 37 38 38 38 39 40 41 41 42 42 42 42 42 41 40 40 41 42 43 43 43 42 41 42 43 46 48 49 47 46 47 49 48 45 48 51 50 47 45 43 42 40
32 33 33 33 33 32 34 36 37 37 37 37 37 37 37 37 38 38 38 38 38 39 40 40 41 41 42 43 43 44 44 44 44 44 43 42 42 42 44 45 46 46 46 45 46 46 48 52 51 49 48 48 48 47 47 52 55 51 46 43 41 40 38
35 35 35 35 35 35 36 37 39 39 39 39 38 38 38 39 39 40 40 40 40 41 42 42 42 43 44 44 45 46 46 46 45 45 45 44 44 45 46 47 47 47 48 49 49 49 50 52 51 50 50 48 48 48 50 55 58 53 46 43 42 42 39
37 37 37 37 37 37 37 38 40 41 40 40 40 40 41 41 41 41 41 41 42 42 43 44 44 44 45 45 46 46 46 46 46 46 47 47 47 47 47 47 47 47 48 50 51 52 52 52 52 52 52 49 46 48 51 56 57 51 45 44 46 44 40
40 39 39 39 39 38 38 40 41 41 41 42 42 42 43 43 43 43 43 44 44 44 44 45 45 45 45 46 46 46 46 47 47 48 49 49 48 48 48 48 49 49 50 51 53 53 52 53 54 55 53 48 45 47 51 54 54 50 48 48 49 46 42
42 41 41 41 40 40 40 42 42 42 43 43 44 44 45 45 45 45 45 46 45 45 45 45 46 46 46 47 47 47 47 48 49 51 51 49 49 50 51 54 55 53 52 52 53 53 53 55 56 57 55 52 51 52 53 55 54 52 51 51 48 45 43
44 43 44 44 43 42 43 44 44 44 44 45 45 46 46 46 46 47 47 47 47 46 46 46 46 46 47 47 47 47 48 49 51 52 50 49 52 53 55 58 57 55 54 54 55 56 57 58 59 58 57 57 58 57 56 56 56 54 51 48 47 47 49
47 46 46 46 46 45 46 46 46 46 46 46 47 47 47 48 48 48 48 48 48 47 47 46 47 47 48 48 48 48 49 51 52 53 53 53 53 53 55 57 56 55 55 56 59 59 58 58 59 60 58 57 59 59 57 56 56 54 51 49 51 56 59
49 48 48 49 49 48 49 49 49 48 48 49 49 49 49 49 49 49 49 49 49 48 48 48 48 49 49 49 49 50 51 51 53 54 54 52 51 53 56 58 58 57 56 57 58 58 58 58 59 60 60 59 61 60 58 58 58 56 54 56 62 65 67
51 51 52 52 51 51 51 51 51 51 51 51 51 51 51 51 51 50 50 50 50 50 50 50 50 51 51 51 50 51 51 51 54 55 52 50 53 56 57 58 59 57 56 59 59 57 57 56 56 57 59 61 63 62 61 62 62 62 63 67 70 70 71
54 54 54 53 52 52 52 53 52 52 53 53 53 53 52 52 52 52 52 52 52 53 52 52 52 52 53 52 51 52 52 51 52 54 54 55 57 57 55 55 56 54 52 56 59 59 59 59 59 59 60 62 64 64 64 65 66 67 70 73 75 75 75
55 56 55 54 54 53 53 54 54 54 54 54 54 54 54 54 54 54 55 55 55 55 54 54 54 54 54 53 52 51 51 49 49 50 53 56 57 55 54 53 52 50 49 53 58 59 59 61 64 63 60 60 61 62 65 68 70 73 76 77 78 79 79
57 57 56 55 56 55 55 55 56 56 56 56 56 56 56 56 56 57 57 57 57 56 56 56 57 57 56 54 52 50 50 49 47 46 49 52 53 52 52 52 50 48 49 53 56 57 59 61 62 59 57 58 60 62 66 71 75 77 79 79 81 82 82
57 57 57 57 57 57 56 57 57 58 58 58 57 57 57 58 58 59 59 59 59 58 58 59 60 59 57 55 53 50 50 48 46 45 46 47 47 46 48 50 48 45 47 52 55 56 58 60 60 58 59 60 62 67 71 77 81 82 82 83 84 84 82
58 58 58 58 59 59 58 58 59 60 60 60 59 58 58 59 60 60 61 61 61 61 61 62 62 60 59 57 54 51 49 47 46 46 46 46 45 44 46 48 46 45 48 53 55 57 58 60 62 65 67 68 69 73 78 83 85 86 85 85 85 83 80
59 59 59 59 60 60 60 60 60 62 62 60 59 59 59 61 62 62 62 63 63 63 63 63 63 62 60 57 55 52 50 47 46 46 47 47 46 43 43 47 49 50 50 51 53 56 57 58 61 66 72 75 76 79 83 86 87 86 84 84 82 80 79
60 60 60 60 61 61 61 62 62 63 62 61 60 60 61 63 64 65 65 66 66 65 65 64 63 63 61 58 55 53 50 49 47 45 44 45 44 43 46 51 53 55 55 54 54 56 57 57 61 68 75 79 80 82 85 87 86 85 83 81 79 78 78
61 61 61 62 62 61 62 64 65 64 62 60 60 62 63 64 66 67 68 69 69 67 66 64 64 63 62 58 56 55 52 51 49 47 45 45 47 50 53 56 58 59 59 60 63 65 67 67 70 75 80 82 84 85 86 86 86 85 84 82 80 80 80
63 62 64 65 63 61 64 67 67 65 62 60 62 64 65 66 67 69 69 70 70 68 66 64 63 63 61 58 58 58 56 55 54 52 51 52 52 54 57 59 60 61 62 64 68 70 72 74 76 79 81 84 85 86 86 86 86 86 85 84 84 84 85
64 65 67 66 63 63 67 69 68 66 64 63 64 66 67 68 69 69 69 69 70 68 66 64 63 62 60 60 60 61 61 61 60 59 58 58 59 58 59 60 62 64 65 68 69 70 71 73 76 79 82 84 85 86 86 86 86 86 85 84 86 87 87
67 68 68 66 65 67 69 69 68 68 67 67 68 68 69 71 70 70 69 68 67 66 65 63 63 62 62 62 64 65 66 66 66 65 64 64 64 63 62 62 63 64 66 67 68 69 70 72 74 78 81 83 85 85 85 85 85 84 84 84 86 86 84
70 71 70 68 68 70 71 70 70 70 70 70 70 71 72 72 72 70 69 67 66 64 64 63 63 64 64 66 68 69 70 70 70 70 69 68 66 64 63 62 62 62 64 66 68 70 71 72 74 76 79 81 83 84 84 83 83 82 81 81 81 81 79
73 74 73 72 71 72 72 72 71 71 71 71 71 72 73 73 72 71 69 67 65 63 63 64 64 65 67 69 71 72 73 74 73 72 72 70 67 64 61 60 59 61 63 64 66 68 70 70 71 74 77 79 81 82 82 81 80 79 77 76 75 75 75
75 76 76 75 73 72 72 72 72 72 72 72 72 72 73 73 72 70 68 66 64 63 64 65 66 67 69 71 73 74 75 75 75 75 74 71 67 63 59 58 59 61 63 63 63 65 66 68 69 71 73 76 79 80 80 80 80 80 79 78 78 78 77
77 77 77 75 73 72 72 73 73 73 72 72 72 72 72 72 72 70 67 65 65 65 66 67 68 70 72 74 75 76 77 77 77 76 74 70 66 62 60 60 61 62 62 63 63 64 65 66 66 68 70 73 76 79 80 80 81 81 83 84 86 86 85
77 78 77 75 73 72 73 73 73 72 72 72 72 72 71 71 70 68 67 66 66 67 68 70 71 72 74 76 77 77 77 76 75 73 71 68 66 64 64 65 65 64 62 61 61 61 62 64 65 66 68 71 74 76 78 80 82 84 86 87 88 88 86
78 77 76 74 73 74 74 74 73 72 71 71 71 71 70 69 69 68 68 68 68 69 71 72 74 76 77 77 77 75 75 74 73 71 70 69 67 67 67 67 68 68 68 65 61 58 58 61 64 66 67 69 71 74 76 79 80 80 79 79 79 79 79
78 77 74 74 74 74 74 74 72 71 70 70 70 69 68 68 68 69 70 71 71 72 74 75 76 78 78 77 75 74 73 73 73 72 71 70 69 68 68 68 68 69 70 70 67 62 58 58 61 63 66 67 68 70 72 73 72 71 70 71 73 74 75
77 75 74 74 74 74 74 73 71 70 70 70 69 69 68 68 69 71 73 74 74 75 76 77 77 77 76 75 74 74 74 73 74 73 72 71 71 70 70 70 70 70 70 71 71 69 64 61 60 60 61 63 64 65 67 67 67 68 69 71 71 72 74
76 74 74 74 73 73 73 72 71 70 71 71 70 69 70 70 72 73 75 76 76 77 78 77 75 75 75 75 75 74 74 74 74 74 73 72 71 71 72 73 73 73 73 73 73 72 71 69 66 63 63 65 68 69 69 69 69 71 73 74 76 76 77
75 74 73 73 73 73 72 72 72 71 71 71 71 71 72 73 74 75 77 77 77 77 76 74 74 75 75 75 74 74 74 74 73 73 73 72 71 72 74 76 76 76 76 76 75 74 73 72 72 71 71 72 74 75 75 76 77 78 80 82 82 82 82
74 73 73 73 73 73 73 73 73 73 72 72 72 73 74 75 76 76 77 77 76 75 74 74 74 75 74 74 74 74 74 73 72 72 72 72 72 74 76 77 78 78 78 77 76 75 74 74 74 75 75 76 77 78 79 80 81 83 83 83 84 85 86
74 73 73 74 74 74 74 74 74 74 73 73 74 74 75 77 77 77 77 77 75 75 75 74 74 74 73 73 74 74 73 73 73 73 74 74 75 77 78 78 79 79 79 79 77 76 75 74 74 74 75 77 78 79 80 81 81 82 83 85 87 89 90
75 74 74 74 75 76 76 76 76 76 75 74 74 75 76 77 77 77 76 76 76 75 75 74 74 73 73 73 73 73 73 74 74 75 76 77 78 78 79 80 81 82 81 80 79 77 76 75 75 76 76 77 78 79 80 81 82 84 87 89 91 92 92
75 74 74 75 76 77 78 78 77 76 75 74 74 75 76 77 77 76 76 75 75 75 74 74 73 73 72 72 72 73 74 75 77 77 78 78 79 80 81 82 84 84 83 81 79 78 77 77 77 77 77 78 78 80 81 83 86 88 91 92 93 93 91
76 76 75 76 77 78 78 78 78 76 76 75 75 75 75 75 75 74 74 75 75 75 74 73 72 72 72 71 72 73 74 75 77 78 79 79 80 81 83 85 85 85 83 82 81 80 79 79 79 80 80 80 81 82 85 87 89 91 92 92 90 87 85

ECMWFFLT1_250_spd_006.txt.gz
Wind_Speed
25 24 23 22 22 22 22 21 22 22 21 21 21 23 24 25 26 28 29 30 31 31 31 31 31 32 32 33 33 33 34 35 35 35 35 36 36 37 37 37 37 39 39 39 39 39 38 39 41 43 43 41 39 36 36 39 42 43 44 43 42 43 42
27 27 26 25 24 24 24 25 25 25 24 24 25 25 26 27 28 29 30 31 32 32 32 32 33 33 34 34 34 34 35 35 35 36 36 36 37 37 37 37 38 39 38 37 39 39 40 41 42 42 42 41 39 37 37 38 41 44 45 45 45 45 43
30 29 29 27 27 27 27 28 28 28 27 27 28 29 29 29 30 31 32 33 33 34 34 34 34 34 35 35 35 35 36 36 36 37 37 37 38 38 39 39 39 40 39 40 42 42 41 40 39 40 41 41 41 40 39 40 43 44 45 46 47 46 45
32 31 31 30 30 30 29 30 30 30 30 30 30 31 31 31 32 33 33 34 34 35 35 36 36 36 36 36 36 36 36 37 37 38 39 39 40 40 41 42 43 43 44 45 43 40 41 42 41 41 41 41 42 43 44 45 46 46 46 46 47 48 47
34 33 33 32 32 31 32 33 33 32 32 31 32 32 32 33 33 34 34 35 36 36 37 37 38 38 38 37 37 37 37 38 38 39 40 41 42 43 44 46 47 47 47 46 42 43 47 47 44 43 42 41 42 44 47 47 47 47 47 47 48 50 50
37 36 35 35 34 34 34 35 35 35 34 33 33 34 34 35 35 35 36 37 38 38 39 39 39 39 39 39 38 38 38 39 40 41 42 43 45 46 47 49 49 48 49 48 47 50 50 46 45 45 44 43 43 45 47 47 47 49 49 48 49 51 50
39 39 38 38 37 36 36 37 37 38 37 36 36 36 36 36 36 37 38 38 39 40 40 41 41 41 40 40 40 40 40 40 42 43 44 46 47 47 49 50 50 50 51 51 51 52 48 44 45 45 44 44 44 46 48 49 49 50 49 49 50 51 49
42 41 41 40 40 39 38 38 39 39 38 38 38 38 38 38 38 39 39 40 41 41 42 42 42 42 41 41 41 41 41 41 42 44 45 47 48 49 51 52 52 53 53 53 53 50 45 44 44 43 44 46 45 46 49 51 52 51 49 50 52 51 49
45 44 43 42 41 41 40 39 40 40 40 40 40 40 40 40 40 41 41 42 42 43 43 43 44 43 42 42 42 43 43 43 43 44 46 48 50 52 53 54 54 53 52 53 51 46 43 44 46 46 47 46 45 47 49 51 53 52 50 50 51 51 50
47 45 44 43 43 43 42 41 42 42 42 42 42 42 42 42 42 43 43 43 44 44 44 45 45 44 44 44 44 45 45 44 44 45 47 49 51 54 55 55 54 52 50 51 49 46 46 48 50 51 50 46 46 49 50 52 55 54 53 52 49 49 51
48 46 46 46 45 45 44 43 44 44 43 44 43 43 43 43 44 44 45 45 45 46 46 46 46 46 46 46 46 46 46 45 45 47 48 50 52 53 54 53 52 50 49 51 51 51 51 52 52 52 49 47 47 51 53 55 56 55 53 52 49 48 51
49 48 48 48 47 47 46 46 46 45 45 45 45 44 44 45 45 46 46 47 47 47 48 48 48 48 48 48 48 48 48 48 47 48 49 51 51 52 52 52 50 46 46 48 49 51 52 53 53 51 48 47 48 51 53 54 54 54 53 52 51 51 53
51 50 50 49 48 48 49 49 48 47 46 46 46 46 46 46 47 47 48 48 49 49 50 50 50 50 50 49 49 50 50 49 48 48 49 50 51 51 51 50 46 43 43 44 45 47 51 51 50 49 48 48 49 50 52 53 53 54 55 56 56 57 60
53 52 51 51 51 51 51 51 50 49 48 47 47 47 47 48 48 48 49 50 51 51 52 52 52 52 52 51 50 51 51 50 49 47 47 47 49 50 48 45 44 44 43 43 44 46 48 49 49 49 50 51 52 52 54 56 57 59 60 61 63 64 67
54 54 53 53 54 54 53 52 51 50 48 48 49 49 49 49 49 50 51 52 53 54 54 54 54 55 54 52 52 53 52 51 49 46 44 43 44 47 47 44 41 40 40 42 44 45 46 50 53 53 53 55 56 57 61 63 63 64 65 66 68 71 74
56 56 56 56 57 56 54 54 53 51 50 50 51 51 51 51 51 52 53 54 55 56 57 57 56 56 55 54 54 54 54 53 51 48 45 42 40 43 48 49 46 45 47 48 48 49 53 57 59 59 60 61 63 65 68 69 68 69 70 71 74 77 80
58 58 59 59 58 57 56 55 54 52 51 52 53 52 52 53 53 54 56 57 59 59 59 59 58 57 57 56 56 56 56 55 53 50 47 45 41 42 46 51 53 54 54 54 55 58 61 62 63 65 66 68 70 72 73 73 72 73 74 76 78 80 81
60 61 61 61 59 57 57 58 56 53 53 54 54 54 54 54 55 57 59 60 61 61 61 61 60 59 58 58 58 58 58 58 56 54 51 48 45 45 47 50 53 54 55 56 59 63 65 65 66 68 70 72 73 74 76 76 76 76 78 79 80 80 80
62 62 63 62 60 59 59 60 58 56 55 55 56 56 56 56 57 59 61 62 62 63 63 63 61 59 59 60 60 61 61 60 58 57 55 52 49 48 49 51 52 54 56 59 62 65 67 67 68 70 72 74 74 75 76 77 77 77 78 78 79 79 78
63 63 63 63 62 61 62 61 60 58 57 57 57 58 58 58 59 62 63 64 65 65 65 64 62 61 61 62 62 62 63 62 61 59 57 55 53 52 52 53 54 56 58 60 64 67 68 69 71 72 74 74 75 75 76 76 76 76 76 76 77 78 78
64 65 65 64 63 63 63 63 61 59 59 59 59 59 59 59 61 64 65 65 66 67 68 66 65 64 63 63 64 64 64 63 63 61 59 57 55 55 55 56 57 59 60 63 66 68 69 70 71 72 72 72 73 73 73 73 73 74 75 75 76 77 77
65 66 66 65 64 64 64 64 62 60 60 61 61 60 60 61 64 66 67 67 68 69 69 69 68 67 67 67 66 66 65 65 64 63 61 60 58 57 58 59 60 62 63 66 69 70 70 69 69 69 69 69 69 69 70 70 71 73 74 74 76 77 78
67 68 68 67 65 65 66 66 62 60 62 64 63 62 62 63 66 69 70 70 71 71 71 70 69 69 69 70 69 68 67 67 66 65 64 62 61 61 61 62 63 65 66 69 71 71 70 69 68 68 67 67 67 68 69 70 70 71 71 72 74 75 76
69 69 70 69 67 67 68 68 64 63 65 67 67 66 66 66 68 70 71 72 73 73 73 71 70 70 71 71 69 69 68 68 67 66 65 64 64 64 65 66 66 67 69 71 71 70 69 69 68 67 67 68 68 69 69 69 68 67 68 69 71 72 72
71 71 72 71 69 69 70 70 68 66 67 70 70 70 69 69 69 71 73 74 74 74 74 73 72 72 72 70 69 69 68 68 67 66 65 64 65 67 68 69 70 71 72 72 71 70 70 69 68 68 69 69 70 70 70 69 68 68 67 67 68 69 70
73 74 74 73 72 72 72 72 71 69 70 71 72 72 72 72 72 72 73 74 74 74 74 74 74 73 72 71 70 69 68 67 66 65 64 65 67 69 70 71 72 73 73 72 72 72 71 70 70 70 70 70 71 71 71 71 72 72 72 71 69 69 69
75 75 75 75 75 74 73 73 73 72 72 72 73 74 74 74 74 74 74 74 74 74 74 75 75 74 72 71 70 69 67 66 65 64 64 66 69 71 72 73 74 74 72 73 74 74 73 73 73 73 72 71 71 71 72 73 75 77 77 76 74 72 71
76 77 77 77 76 75 75 75 75 75 74 74 74 74 74 75 75 75 74 74 74 74 75 75 75 74 72 71 70 68 67 66 66 65 66 68 71 73 74 74 74 73 73 75 75 75 74 75 74 73 72 71 72 72 72 74 77 79 80 79 79 78 76
78 78 79 78 78 77 77 77 77 77 76 75 75 75 75 75 76 75 75 74 74 74 75 75 75 74 72 70 69 68 67 67 67 68 69 71 73 74 74 74 73 74 75 76 75 75 74 73 72 70 70 71 72 73 74 76 78 80 81 82 81 79 76
81 81 81 80 79 79 79 79 79 79 77 76 76 76 75 75 75 76 75 74 74 75 74 74 74 73 71 70 69 68 68 68 68 70 71 73 74 74 74 73 74 75 76 76 75 75 74 72 71 70 70 71 73 74 76 78 80 81 82 82 80 77 75
82 81 81 81 80 80 80 81 81 80 79 78 78 77 76 75 75 76 75 74 74 75 75 74 73 72 70 69 70 70 70 70 70 72 73 74 74 74 74 74 75 76 76 76 75 75 74 73 72 72 72 73 75 76 78 81 82 83 83 82 81 78 78
81 81 81 81 81 81 81 82 82 80 80 79 78 77 77 75 75 75 75 74 74 75 75 73 72 71 70 70 70 71 71 71 72 73 74 75 74 74 74 75 76 76 76 76 75 75 74 74 74 74 75 76 78 79 81 83 84 84 84 83 82 80 80
80 80 81 81 81 81 81 82 82 80 79 79 79 78 77 75 74 74 73 73 73 74 73 72 71 70 70 70 71 71 72 73 74 75 75 74 74 74 75 76 77 77 76 76 75 75 75 75 75 76 77 79 80 81 83 85 85 85 84 84 84 84 84
80 80 80 80 80 80 81 81 80 79 79 79 79 78 76 75 74 73 73 73 73 73 72 72 71 71 70 71 71 72 74 75 75 75 75 74 74 75 76 77 77 76 76 76 76 76 76 76 76 77 78 79 80 82 84 86 86 86 86 86 88 89 90
80 80 79 79 78 79 79 79 78 79 79 79 79 78 77 76 75 74 74 73 73 73 72 72 71 71 71 72 72 73 74 75 75 75 75 74 75 76 77 77 76 77 77 77 77 76 76 76 76 76 77 79 81 84 86 88 88 88 89 90 93 94 93
79 78 78 77 77 77 77 77 77 78 78 79 79 78 77 76 76 75 75 74 73 73 72 72 71 72 72 73 73 74 75 75 75 74 74 75 76 77 77 76 77 77 78 78 77 77 76 76 76 77 79 81 84 86 87 88 90 91 93 95 96 96 94
78 78 77 76 76 76 76 76 77 78 78 79 78 78 77 77 76 75 75 74 73 73 72 72 72 72 73 73 74 74 75 75 75 75 75 76 77 77 76 76 77 78 78 78 78 78 77 77 78 80 81 84 86 87 88 90 92 94 96 97 97 94 91
77 78 77 77 77 77 76 77 78 79 80 80 79 78 77 77 76 76 75 74 74 73 73 73 73 74 74 74 74 74 75 75 75 75 76 76 76 76 76 77 77 77 77 78 78 78 79 80 82 83 84 86 88 89 90 92 94 96 97 96 94 91 88

ECMWFFLT1_250_spd_009.txt.gz
Wind_Speed
26 25 24 26 27 27 27 27 26 26 25 24 23 22 23 23 23 23 23 23 23 24 25 26 27 27 27 28 27 27 28 28 28 29 29 29 29 29 30 31 32 33 34 36 36 37 37 37 38 38 37 38 39 39 38 37 37 35 34 35 36 36 36
27 26 26 27 28 27 28 28 27 27 26 25 25 25 25 26 26 26 26 26 26 26 27 28 28 29 29 29 28 28 29 30 30 30 30 30 31 31 31 32 34 35 37 38 39 39 39 40 40 39 38 38 39 38 37 37 38 37 36 37 37 37 36
29 28 28 29 29 29 29 30 29 29 28 27 27 27 28 28 28 28 28 28 28 29 29 29 30 30 30 30 30 30 30 31 31 31 32 32 32 32 33 34 36 37 38 39 40 41 41 41 40 39 38 37 36 35 35 36 37 37 38 39 39 39 39
31 29 29 32 32 32 32 32 31 31 31 30 29 30 30 30 30 30 30 30 30 31 31 31 31 31 31 31 31 31 32 32 32 33 34 34 34 34 34 35 37 39 40 41 42 42 42 41 40 38 37 36 34 34 34 36 37 37 38 39 39 40 40
33 30 31 35 37 36 34 34 34 34 34 33 32 32 33 32 32 32 32 32 32 32 32 32 32 32 32 32 33 33 33 33 33 34 35 36 36 36 36 37 39 40 41 42 42 43 42 40 39 38 36 35 35 36 37 38 39 39 39 40 41 41 41
37 34 34 37 39 38 37 37 36 36 36 35 35 35 35 34 34 34 34 34 34 34 33 33 33 33 34 34 35 35 35 34 34 35 37 37 37 38 38 39 40 41 42 43 43 43 41 41 40 39 37 36 36 37 38 40 41 41 41 41 42 42 42
41 39 38 39 40 40 40 39 39 39 38 37 37 37 37 37 36 36 36 36 35 35 34 34 34 35 36 36 37 37 36 36 36 37 39 39 39 40 41 42 43 43 43 44 44 44 43 43 41 38 37 37 38 39 39 41 42 42 42 42 44 45 45
43 42 41 40 41 41 41 41 42 42 40 39 40 39 39 39 38 38 37 37 36 36 36 36 37 37 38 38 39 38 38 38 39 40 40 41 41 42 44 45 45 44 46 46 46 47 47 45 41 38 38 40 42 42 42 43 42 41 42 45 47 48 47
47 44 41 41 41 42 42 43 44 43 42 41 41 40 40 40 39 39 38 38 37 37 37 37 38 40 40 41 41 40 40 41 41 42 42 43 43 45 46 46 45 46 48 49 49 50 49 46 44 43 43 44 45 45 45 44 43 44 46 49 50 50 49
50 45 42 42 43 44 45 45 46 45 43 42 42 41 41 40 40 40 39 39 38 38 38 37 38 41 43 43 43 42 42 43 43 43 43 44 46 47 46 46 46 48 50 51 52 52 50 48 49 48 47 47 46 46 46 46 47 49 52 54 54 53 52
50 46 45 46 45 46 46 46 46 46 45 44 43 43 42 41 42 41 40 40 38 38 39 38 39 42 45 45 45 45 45 45 45 45 45 46 49 49 47 47 48 50 52 53 54 53 52 50 49 48 49 49 48 49 49 50 51 53 56 57 58 58 58
52 49 48 48 47 47 47 45 46 46 46 46 45 44 43 43 43 43 42 41 40 38 39 39 40 44 47 48 48 48 47 46 47 47 48 49 50 49 49 49 49 50 52 54 54 54 54 52 49 48 49 49 50 51 50 51 53 55 57 59 61 62 62
55 52 50 49 48 48 48 47 47 47 47 47 47 46 45 45 45 44 44 43 42 41 40 42 45 48 50 50 50 50 49 47 49 50 51 51 51 51 50 50 51 52 53 54 54 55 54 53 52 51 49 48 48 49 50 52 55 57 59 61 62 63 64
57 54 52 51 49 48 48 47 47 48 48 48 48 48 48 47 47 46 46 45 44 44 45 46 49 51 52 52 52 52 51 49 51 54 53 52 52 53 53 53 53 54 54 55 55 55 54 53 53 52 50 49 49 51 53 56 58 60 62 63 64 65 65
59 56 54 52 50 49 48 47 48 48 49 48 49 50 50 49 48 48 48 47 47 48 49 51 52 53 54 54 54 54 53 51 53 55 55 54 53 54 54 55 56 56 56 56 55 55 54 53 52 52 52 52 53 55 57 59 61 63 64 65 66 67 67
60 59 57 56 53 51 50 50 50 50 50 50 51 51 51 51 50 50 49 49 50 52 53 54 55 56 56 56 56 56 55 54 55 56 56 55 55 54 54 56 57 58 57 57 56 55 54 54 53 53 53 54 56 57 59 61 63 65 66 66 67 67 68
62 62 61 59 55 52 52 52 52 52 53 53 52 52 52 52 52 51 51 52 54 55 56 58 58 58 57 57 57 57 57 57 58 58 58 57 56 56 55 56 57 58 58 57 56 55 54 54 54 53 54 55 57 59 61 63 65 66 67 67 67 67 67
67 66 63 61 58 53 53 55 55 55 55 55 54 53 54 54 54 53 53 55 57 58 59 61 61 60 59 58 58 58 59 59 59 60 60 59 58 58 57 57 58 58 58 57 57 56 55 54 55 55 55 56 58 60 62 64 66 67 67 67 67 67 67
70 67 64 64 61 55 54 56 58 58 58 57 56 55 56 56 55 56 56 57 59 61 62 63 62 62 61 60 60 60 60 60 61 61 61 60 60 60 60 60 59 59 58 57 57 57 56 55 55 55 56 57 59 61 63 65 66 66 66 67 67 68 68
71 68 66 66 63 58 57 58 60 60 61 59 58 57 57 57 57 58 59 60 61 63 65 64 64 64 64 63 62 62 62 62 62 62 62 61 62 62 62 62 61 60 60 59 58 58 58 57 57 57 58 59 61 62 64 65 65 65 66 67 68 69 69
73 70 69 67 64 61 61 63 62 61 63 63 60 58 58 59 60 61 61 62 63 65 66 66 65 66 66 65 65 64 63 63 63 63 64 63 64 64 64 63 63 62 62 61 60 60 59 59 59 59 60 61 63 65 66 66 65 66 67 69 70 69 68
74 72 71 69 67 65 66 67 64 62 64 65 62 60 59 60 62 63 63 64 65 66 68 68 67 68 68 68 67 66 64 64 64 65 66 66 66 65 65 65 65 65 64 64 63 62 61 60 61 62 63 64 65 67 67 66 66 67 69 70 71 70 70
77 74 72 70 69 69 69 69 67 65 67 68 65 62 61 62 64 65 66 66 66 68 70 70 70 70 70 70 69 68 66 66 65 65 67 68 68 67 66 66 67 67 66 65 64 63 63 62 63 64 65 66 67 69 68 67 67 69 71 71 71 71 71
81 78 75 73 73 72 72 72 69 68 70 71 68 64 63 64 65 67 68 67 68 70 71 73 73 72 72 71 71 70 69 69 68 67 68 69 70 68 67 68 69 68 68 67 66 65 64 64 65 66 67 68 69 70 70 69 69 71 72 73 72 72 71
85 82 79 78 77 75 74 74 72 71 73 73 70 67 66 66 67 69 69 70 71 72 73 74 75 75 74 73 72 72 72 71 71 70 70 71 70 69 68 69 69 69 68 68 66 66 65 66 67 67 69 70 71 71 71 70 71 73 74 74 74 73 73
89 86 82 80 78 76 76 76 74 74 75 74 72 70 69 70 71 71 72 72 73 73 73 74 75 75 75 74 73 73 74 74 73 73 72 72 71 69 67 68 69 70 69 68 67 66 67 67 68 69 70 72 71 71 71 72 73 74 75 75 75 74 75
93 89 85 82 80 78 78 79 78 76 76 75 75 74 73 73 74 74 74 75 75 75 74 75 75 76 76 75 74 74 74 75 75 75 74 74 72 70 68 68 70 70 70 69 68 68 68 69 70 70 71 72 72 72 72 73 74 75 75 76 75 75 76
96 91 87 84 82 81 81 81 80 77 76 77 79 78 77 76 76 76 76 76 76 76 75 76 76 77 77 76 75 74 75 76 76 75 76 75 74 72 70 70 71 71 71 70 69 69 70 70 71 71 72 72 73 73 73 74 75 76 76 76 77 77 77
96 92 89 87 86 84 83 82 81 79 79 80 81 81 80 79 78 78 78 77 77 77 77 78 78 78 78 77 76 75 76 76 76 76 76 76 75 73 72 72 72 71 71 71 70 71 71 72 72 73 73 73 73 74 74 75 76 77 77 77 78 79 79
96 93 91 90 88 85 82 82 82 83 82 82 82 83 82 80 79 79 79 78 78 78 79 79 79 79 79 79 77 77 76 75 76 76 76 76 75 73 73 73 73 72 71 71 72 72 73 73 74 74 74 74 75 75 76 76 77 77 77 78 79 80 80
95 94 92 90 87 84 83 83 84 84 84 83 83 83 82 82 81 80 80 80 80 80 80 80 80 80 80 79 79 78 76 75 75 75 75 75 74 74 74 73 73 72 71 72 73 73 74 75 75 76 76 76 77 77 77 77 77 77 78 78 79 80 81
93 92 91 89 87 86 85 84 84 84 84 84 83 83 82 82 81 81 81 81 81 81 81 81 80 80 79 79 79 78 76 75 75 74 75 75 74 74 74 73 72 72 72 73 74 74 75 76 77 77 78 78 78 78 77 77 77 77 78 79 79 80 81
93 92 91 90 89 87 86 84 84 84 84 83 83 83 82 82 82 82 82 81 81 81 82 81 80 79 78 78 78 77 76 75 75 74 74 74 74 73 73 73 73 73 73 74 75 76 77 78 78 79 79 79 78 78 77 77 77 77 78 78 78 80 82
94 93 91 89 88 87 86 85 84 84 83 83 82 82 81 81 81 81 81 81 81 82 82 81 80 79 78 78 77 77 76 76 75 75 75 74 74 74 74 74 74 74 75 76 77 77 78 79 79 80 80 79 79 78 78 77 77 77 79 80 81 83 85
94 93 91 89 88 87 86 85 84 84 83 83 82 82 81 81 81 80 80 80 81 81 81 81 79 78 78 78 78 77 77 76 76 76 76 75 75 75 75 75 76 76 77 77 78 78 79 80 80 80 80 79 79 79 78 78 79 80 81 83 85 86 88
94 93 91 89 88 87 85 84 84 83 83 82 82 82 82 81 81 80 78 76 76 78 80 81 81 80 79 78 78 78 78 77 77 77 76 76 76 76 76 77 78 78 78 78 78 79 80 80 80 80 79 79 80 79 79 80 82 84 85 86 88 89 91
92 92 91 89 88 86 84 83 82 82 82 82 83 82 82 82 81 79 78 77 77 79 81 83 82 80 79 78 78 78 78 78 77 77 76 76 76 77 78 79 79 79 79 79 79 80 80 80 80 80 79 80 81 81 82 83 85 87 88 89 90 91 92
89 90 89 88 87 85 83 82 81 81 82 82 82 81 81 81 79 79 78 78 79 79 79 80 80 80 78 77 77 77 77 77 77 78 78 77 78 78 79 80 80 80 79 79 79 79 80 80 80 80 80 81 83 83 85 86 88 89 89 90 91 91 92

ECMWFFLT1_250_spd_012.txt.gz
Wind_Speed
31 30 31 31 30 29 29 27 25 26 27 25 23 21 21 21 21 21 21 21 21 22 23 24 25 25 26 26 26 26 26 25 24 24 24 24 24 25 25 27 28 30 31 32 32 32 33 35 36 37 38 38 39 39 39 39 37 35 33 32 32 35 36
32 32 32 31 30 29 27 26 26 28 28 26 23 22 23 23 23 23 23 23 24 24 25 26 26 27 28 28 28 28 27 26 26 25 25 25 26 26 27 28 30 31 33 33 33 33 34 35 37 39 39 39 40 40 40 39 38 37 35 34 35 37 36
33 34 33 31 30 28 27 27 28 30 29 26 24 24 25 25 26 26 25 25 26 26 27 28 28 29 30 30 30 30 28 27 27 27 27 27 27 28 29 30 31 33 34 35 36 35 35 36 37 39 41 42 42 41 41 40 40 39 38 38 38 37 35
34 35 33 32 32 30 30 30 30 31 31 29 27 26 26 27 28 28 27 27 28 29 29 30 30 31 32 31 32 31 30 29 29 29 29 29 29 30 31 32 33 34 35 36 37 37 36 37 38 40 42 43 44 44 43 43 43 42 41 40 40 39 39
35 36 35 34 34 33 32 33 32 33 34 33 31 29 29 29 30 30 30 29 30 31 32 32 32 33 33 32 32 32 31 31 31 31 31 31 31 32 33 34 34 35 36 38 39 39 39 39 39 41 43 44 46 46 45 44 43 41 41 41 41 42 43
38 38 39 38 36 36 35 34 34 34 36 36 34 31 30 31 32 32 32 31 32 33 33 34 34 34 34 33 34 34 33 33 33 32 32 33 33 35 35 36 36 36 37 38 40 41 41 41 41 42 44 45 45 46 46 45 43 42 41 42 43 43 44
41 39 43 42 39 38 37 35 36 37 36 37 36 33 32 33 34 34 34 33 33 34 35 36 35 35 35 35 35 35 35 34 34 34 34 35 35 36 37 38 38 38 38 39 40 42 42 43 43 44 45 46 46 47 47 47 45 44 44 44 44 44 44
44 42 46 45 41 40 40 38 38 38 37 35 36 35 33 34 35 35 35 34 35 36 37 36 36 36 37 37 37 37 37 37 37 36 36 37 38 39 39 40 40 40 41 41 42 42 43 44 45 45 46 47 47 47 48 48 47 46 46 46 45 45 46
49 45 48 47 43 42 43 41 40 39 37 36 37 37 35 35 36 36 36 36 37 37 37 37 38 38 39 39 39 39 39 39 40 39 38 39 40 41 41 42 42 43 44 44 44 44 45 45 46 47 47 48 49 50 49 48 48 48 48 48 47 47 47
52 47 49 49 45 45 45 42 41 41 40 40 41 40 38 37 36 36 37 38 38 38 38 38 39 41 41 41 41 41 41 41 42 43 43 43 43 43 44 44 44 45 46 46 46 46 46 46 47 48 49 49 51 51 51 50 49 49 49 49 48 47 48
53 49 50 51 47 46 46 44 43 44 43 44 44 43 42 40 39 39 39 39 40 39 39 40 42 43 43 42 43 44 44 44 45 46 46 45 45 46 46 47 47 47 47 47 48 48 48 48 49 50 51 51 52 52 52 52 51 50 50 49 48 49 50
57 52 51 52 49 47 47 47 45 45 46 47 46 45 45 44 43 43 42 41 41 41 41 42 44 46 46 45 46 46 46 47 48 48 47 47 48 48 48 49 49 50 50 49 49 50 50 49 50 51 52 53 54 54 53 53 53 52 50 49 49 50 52
59 54 53 53 51 49 50 49 47 47 48 50 49 47 46 47 47 45 44 43 42 43 43 45 47 48 48 48 48 48 48 49 50 49 49 49 50 50 51 51 51 52 52 52 51 52 52 51 51 52 53 55 55 55 55 54 54 53 51 49 50 51 54
60 56 56 56 53 51 51 51 49 49 50 51 51 49 47 48 48 47 46 46 45 44 46 48 49 51 51 50 51 51 51 51 51 51 51 51 52 52 53 53 53 53 54 54 54 54 53 53 52 53 54 55 56 56 56 56 55 54 52 51 51 53 55
61 60 60 58 55 53 53 53 53 53 53 53 53 52 50 49 50 49 48 48 47 46 47 50 52 53 53 53 53 54 54 53 53 53 53 54 54 54 54 55 55 55 55 55 56 56 56 56 55 55 56 57 57 57 57 58 57 56 55 53 52 54 56
64 63 62 59 57 57 56 56 56 55 54 54 54 54 54 52 52 51 50 50 49 47 47 51 54 55 55 55 56 56 55 55 54 54 55 56 56 56 56 56 56 57 57 57 57 58 58 58 58 58 59 59 59 59 59 59 59 58 57 55 54 55 57
66 64 63 63 62 61 59 58 58 57 57 57 56 56 56 55 54 54 52 51 51 50 49 53 57 58 57 58 59 58 57 57 56 56 57 58 58 58 58 58 58 59 58 58 59 59 60 60 60 60 61 61 61 60 59 59 60 59 59 58 57 57 59
69 66 66 68 66 62 60 61 61 61 60 59 58 57 57 57 57 56 55 54 54 53 52 54 58 60 60 61 61 60 59 59 58 58 59 59 59 59 59 59 60 60 60 60 60 60 61 62 62 62 62 62 62 61 61 60 60 61 61 61 60 59 61
72 70 69 70 69 64 64 65 63 63 62 60 59 58 58 58 58 58 58 57 57 56 55 57 60 62 63 63 62 61 62 62 61 60 60 60 60 60 60 60 61 62 62 61 60 61 62 62 63 63 63 63 64 63 62 61 62 62 62 63 63 62 63
76 74 72 72 71 68 68 68 66 64 63 61 59 60 60 59 59 60 60 59 59 59 59 61 62 65 66 64 62 63 64 64 63 62 62 62 62 62 62 62 63 64 65 64 62 62 63 63 64 65 65 64 64 64 63 62 63 63 64 65 65 65 66
79 77 74 73 74 71 71 72 70 66 64 63 62 62 62 62 62 62 62 61 61 62 63 64 65 68 69 66 63 64 65 65 65 64 63 64 64 64 64 64 66 67 68 67 66 65 65 65 65 66 66 66 65 65 65 64 64 64 66 67 68 68 68
81 80 77 76 77 75 75 75 74 71 68 66 64 64 64 65 66 65 64 63 64 65 66 66 67 70 70 68 66 66 66 66 65 65 65 66 66 66 66 66 68 70 70 70 69 68 68 67 66 67 67 68 67 67 67 66 65 66 67 68 70 70 71
83 83 82 81 80 79 77 77 77 75 71 68 66 66 67 69 69 69 67 65 65 68 69 68 70 71 71 69 67 68 68 67 67 67 67 68 68 68 68 68 70 71 72 72 72 70 69 68 68 68 68 69 69 69 69 69 68 68 69 69 71 72 73
87 87 85 83 84 83 80 79 79 77 74 72 69 68 70 71 71 72 70 67 67 69 71 72 73 73 72 70 69 70 70 69 69 69 69 70 70 70 69 70 71 73 74 75 75 73 72 70 69 68 69 70 71 71 72 71 70 70 70 71 72 73 74
91 91 87 85 89 88 82 80 82 79 77 76 73 70 71 73 74 75 73 69 68 71 74 75 74 73 72 72 72 72 72 72 71 71 72 73 73 73 72 72 73 75 77 78 78 76 74 72 71 70 71 72 72 73 73 72 72 72 72 72 73 74 75
95 94 88 87 93 91 82 81 85 82 79 79 76 73 73 74 75 76 73 70 70 73 76 76 74 73 73 73 73 74 74 73 73 74 75 76 76 76 74 73 75 78 79 80 81 79 76 73 73 72 72 73 74 74 74 73 73 73 73 74 75 75 76
97 95 89 89 96 92 82 83 89 86 81 80 78 75 75 76 77 77 75 73 72 74 76 76 75 75 75 74 75 75 75 74 75 76 78 79 80 78 76 76 77 79 80 81 81 80 77 75 74 74 74 74 74 74 75 74 73 73 74 75 76 77 77
98 95 90 93 97 91 80 81 88 88 84 81 78 77 76 76 76 77 77 76 75 75 77 78 78 78 77 76 76 76 75 75 76 78 80 82 82 80 79 78 79 79 80 80 80 78 77 76 76 75 75 75 75 75 75 74 74 74 75 76 77 78 78
97 94 92 94 96 88 79 79 84 86 84 81 79 80 80 75 73 74 75 76 76 77 78 80 80 80 79 78 77 77 76 77 78 81 83 84 84 82 81 81 80 80 80 79 79 78 78 78 77 77 76 75 75 75 75 75 75 75 76 77 78 79 79
97 95 94 94 93 89 85 85 87 87 85 82 81 82 81 78 77 78 80 80 79 78 79 80 81 81 80 79 78 78 77 79 81 84 86 86 85 83 83 82 81 80 80 80 79 79 78 78 78 77 76 75 75 75 75 76 76 77 78 79 80 80 80
95 94 94 93 92 92 91 90 90 89 87 85 84 84 84 84 84 85 85 84 83 82 82 82 81 81 80 80 79 79 79 81 83 86 87 87 85 84 84 82 80 81 81 81 80 79 78 77 77 76 75 74 75 75 76 77 78 79 80 80 80 81 81
88 91 92 91 91 94 96 94 92 91 89 87 85 86 88 90 89 88 88 87 87 86 84 83 82 82 81 81 80 80 81 83 84 86 87 86 85 84 84 82 81 81 81 80 79 78 78 77 76 75 74 75 75 77 78 79 80 80 81 81 81 82 83
79 82 83 83 89 98 101 100 99 97 94 91 87 85 87 88 88 89 90 90 89 88 86 85 84 83 82 82 82 82 83 84 84 86 86 86 85 84 82 81 81 81 80 79 79 78 78 77 76 76 76 76 77 78 79 80 81 81 81 82 83 84 85
67 71 73 76 86 97 102 101 100 98 95 94 92 89 88 87 86 87 89 90 89 88 87 86 85 85 84 83 83 83 84 84 84 84 84 84 83 81 80 80 80 80 79 79 78 78 77 77 77 77 77 77 78 79 80 80 81 82 83 84 84 85 85
51 56 65 75 84 91 96 97 97 97 96 95 95 94 91 89 86 85 86 88 89 88 87 86 86 86 85 83 83 83 83 82 81 81 80 80 80 78 78 80 80 79 79 79 78 77 77 78 78 79 79 79 80 80 80 80 81 83 84 85 85 85 85
46 52 64 74 80 84 88 90 90 91 93 94 94 94 93 92 90 88 86 86 87 87 86 86 86 85 84 82 82 82 81 80 79 78 78 79 79 79 79 80 80 80 80 79 77 77 78 79 80 80 81 81 81 81 81 81 82 83 84 85 85 85 86
48 59 69 75 77 78 78 79 80 82 84 87 88 89 89 89 89 89 87 85 85 86 86 86 85 84 82 81 81 81 81 80 78 77 76 76 78 80 82 82 82 81 80 77 76 77 78 79 80 80 80 81 81 81 81 82 82 83 83 84 84 86 87
46 57 67 72 74 74 71 70 71 73 74 77 80 82 84 86 88 89 88 86 86 86 85 85 84 83 82 80 79 77 77 76 75 75 75 75 77 81 83 82 79 78 76 74 74 75 77 78 79 79 80 80 81 81 81 82 82 82 83 84 85 86 87

ECMWFFLT1_250_spd_015.txt.gz
Wind_Speed
30 31 32 33 33 32 31 30 28 28 27 27 26 26 26 23 18 16 17 16 15 16 17 19 20 21 21 21 21 20 20 22 22 22 21 21 22 23 24 24 25 26 27 28 29 30 31 32 33 34 35 35 36 36 37 38 38 40 41 41 41 41 40
31 32 33 34 34 33 32 30 29 30 30 30 29 29 29 27 22 19 19 19 17 17 17 19 21 22 23 23 23 23 23 23 23 23 22 23 24 25 25 26 26 26 27 29 30 31 32 33 34 35 36 37 37 38 39 40 40 41 41 41 42 42 42
34 34 35 36 35 34 32 30 30 31 31 30 29 29 29 28 25 22 21 21 20 19 18 20 22 24 25 25 25 25 25 25 25 24 24 25 26 27 27 26 27 27 28 29 31 32 33 34 35 36 37 38 39 40 41 41 42 43 43 43 44 44 44
37 37 37 36 35 34 33 32 31 31 30 29 28 27 28 28 27 25 23 23 23 22 21 21 23 25 26 27 27 27 27 27 27 26 26 27 28 29 28 28 28 29 29 30 32 34 35 36 37 38 39 40 40 41 42 43 44 45 45 46 47 47 46
40 40 38 37 37 36 34 33 33 32 31 29 28 27 28 29 29 28 26 25 25 25 23 23 25 27 28 29 29 29 29 29 29 28 28 29 30 30 30 30 30 30 31 32 33 35 36 37 38 40 41 42 42 42 43 44 45 46 47 48 49 49 49
41 40 39 39 40 39 37 36 35 33 32 31 31 31 30 30 30 31 30 29 29 27 26 25 26 28 29 30 31 31 31 31 31 30 31 31 32 32 32 32 32 32 34 35 35 35 37 38 39 40 42 44 44 45 45 46 47 48 49 50 51 51 51
41 41 41 42 42 41 40 38 36 35 34 34 34 33 31 31 31 33 33 33 33 31 28 26 27 28 30 32 32 33 33 33 33 33 33 33 33 33 34 34 35 35 36 37 38 38 38 39 40 42 44 45 46 47 48 48 49 49 50 52 52 52 52
44 43 44 45 45 43 41 39 38 37 37 37 36 34 33 33 33 33 34 35 36 34 30 27 27 29 31 33 34 34 35 35 35 35 35 35 35 36 36 36 37 38 38 39 40 41 41 41 42 43 45 47 48 49 50 50 51 51 51 53 53 54 54
48 47 47 48 48 46 42 41 41 40 39 39 37 35 35 35 34 34 34 35 36 35 32 29 28 30 32 34 35 36 37 38 38 37 37 37 37 38 38 39 39 40 41 41 43 43 44 44 44 45 47 48 49 51 51 52 53 53 53 54 55 55 55
51 50 50 50 50 49 45 44 44 42 41 41 38 37 37 38 36 35 35 34 35 35 34 32 30 31 33 35 37 38 39 40 40 40 39 39 39 40 40 41 42 42 43 44 45 45 46 46 46 47 48 49 50 52 53 54 54 55 55 55 56 56 56
54 52 52 50 51 52 49 47 47 46 44 42 41 40 41 41 40 38 37 36 35 36 36 35 33 33 35 37 39 41 42 42 42 42 41 41 41 41 42 43 44 44 44 45 47 47 47 47 48 49 50 51 52 53 54 55 56 56 57 57 57 57 57
57 55 54 53 53 54 53 50 50 50 47 46 45 44 44 45 43 41 40 39 39 40 40 39 37 37 38 40 42 44 45 45 44 44 44 43 43 43 44 45 45 45 46 47 48 48 49 49 49 50 51 52 53 54 54 55 56 57 58 58 58 58 58
60 58 58 57 55 54 54 53 53 53 51 49 48 47 47 48 47 45 43 42 43 43 43 42 41 41 42 43 45 47 48 47 47 46 46 45 45 45 46 46 46 46 47 49 50 50 50 50 50 51 52 53 54 55 55 56 57 58 58 58 58 59 59
63 61 61 60 58 56 57 57 56 54 54 53 50 49 50 50 50 47 45 45 45 45 45 43 43 44 45 46 49 50 50 50 50 49 48 47 47 47 48 48 47 47 49 50 51 52 52 52 52 52 53 55 56 56 56 58 59 60 60 59 59 59 60
66 65 63 62 61 60 60 60 57 55 56 55 53 51 51 52 52 50 48 47 47 47 46 45 45 47 48 49 51 53 52 52 52 51 49 49 49 49 50 50 49 49 50 51 52 53 54 54 54 53 54 56 57 57 58 60 61 62 62 61 60 60 60
69 68 66 64 63 62 62 61 59 58 58 57 56 54 53 54 54 52 50 49 48 48 48 47 48 50 51 52 54 55 55 54 53 52 51 51 52 52 52 51 51 52 52 53 54 55 56 57 56 56 57 58 59 59 60 61 62 62 63 63 62 61 61
72 71 68 66 65 63 63 63 61 60 60 59 58 57 55 55 55 54 52 51 50 50 49 49 50 53 55 55 57 58 58 56 55 54 54 54 54 54 53 53 53 54 54 55 56 57 58 59 59 58 59 60 61 61 61 62 63 63 63 64 63 62 62
75 74 72 70 68 67 65 64 63 61 61 62 61 59 58 57 56 55 54 53 53 52 51 51 52 55 57 58 60 61 61 59 57 56 56 56 56 56 55 55 56 56 56 57 58 59 61 62 62 61 61 62 62 62 62 63 64 65 64 65 65 64 63
79 77 75 73 73 71 68 66 64 63 64 64 62 61 61 60 59 57 56 56 55 54 54 54 55 58 59 61 62 64 64 63 60 59 58 58 58 58 57 58 58 58 58 59 60 61 63 65 65 65 64 65 65 64 64 65 66 67 67 67 66 66 65
82 80 78 76 76 75 71 69 67 66 66 66 65 64 64 63 62 60 58 57 56 56 57 58 58 60 61 63 65 67 67 65 63 61 60 60 60 60 59 59 59 60 60 61 61 63 65 67 68 68 68 68 67 66 66 67 68 69 69 69 69 68 68
84 83 80 78 78 77 74 73 72 69 67 67 67 66 65 64 63 61 59 58 58 59 60 61 61 62 64 65 67 69 69 68 66 64 63 62 62 62 62 61 61 62 63 63 63 64 66 68 69 71 71 70 70 69 69 69 70 71 72 72 71 71 70
86 85 84 82 81 80 78 77 75 74 72 71 70 69 67 65 63 61 60 60 60 61 62 62 62 63 66 67 68 70 72 71 70 67 65 65 65 65 64 63 64 65 65 65 65 66 67 69 71 73 73 73 72 72 71 72 73 73 74 74 74 73 73
88 88 88 87 86 84 82 80 78 78 79 78 76 74 71 67 65 64 63 62 62 63 64 64 63 64 66 68 70 72 74 75 73 70 68 67 67 67 66 66 67 67 67 66 67 68 69 70 72 75 75 75 75 75 74 74 75 75 75 76 76 75 74
90 92 92 91 90 88 85 83 81 81 82 82 81 78 74 71 69 68 66 64 64 65 65 64 63 64 67 70 72 74 76 77 76 73 71 70 70 70 69 68 69 69 69 69 70 71 71 73 75 76 77 77 78 78 77 77 77 76 76 76 76 76 76
89 93 94 93 92 92 89 85 83 83 84 84 84 82 78 75 72 71 69 67 67 67 66 64 65 67 69 71 73 75 76 78 78 76 74 73 73 73 71 70 70 71 71 73 73 73 74 75 76 78 79 79 80 80 79 78 78 78 77 76 76 76 76
86 89 93 95 94 94 92 89 86 86 85 83 83 84 82 78 75 72 72 71 70 68 67 67 69 70 71 72 73 75 77 79 79 77 75 75 75 75 74 73 72 73 75 76 76 76 76 77 78 80 81 81 81 81 80 79 79 79 77 76 76 76 76
82 84 88 92 93 94 95 93 90 89 86 83 82 84 84 80 75 71 70 72 71 70 71 72 73 72 72 73 75 77 79 81 80 79 77 77 77 78 77 75 74 76 77 78 78 78 78 79 80 81 82 82 82 81 80 80 79 79 77 76 75 75 76
76 79 82 86 90 93 96 96 94 90 86 83 83 85 86 84 80 77 75 74 72 72 74 76 75 74 73 76 78 80 82 83 82 80 79 78 78 77 75 73 74 77 79 79 79 79 80 81 82 82 82 82 82 80 80 80 79 77 76 75 75 75 77
71 75 78 82 85 89 93 95 95 91 88 86 85 86 87 87 86 85 82 77 74 75 76 78 78 77 77 79 81 83 85 85 84 82 81 80 79 76 74 73 76 78 80 80 80 81 82 83 83 83 82 83 82 81 81 79 77 75 74 74 75 76 78
66 70 74 78 81 85 89 91 91 91 90 88 86 85 86 88 89 87 83 78 77 77 78 79 81 81 82 83 84 86 87 87 86 86 85 83 81 79 77 77 79 80 82 82 82 83 84 84 84 84 83 83 83 81 80 79 76 73 73 75 77 78 79
62 64 68 73 77 80 82 84 85 86 87 86 85 84 84 86 89 88 84 80 79 79 79 81 84 86 87 87 88 89 89 89 90 91 90 87 84 82 82 82 82 83 84 84 84 84 84 84 84 83 81 80 80 80 80 79 75 73 75 78 79 80 80
61 60 64 69 73 74 75 75 75 77 79 79 79 78 77 81 87 89 85 81 78 77 77 79 83 86 88 89 91 92 93 94 96 95 92 88 85 84 84 85 85 86 86 85 85 84 85 85 83 80 78 77 78 80 80 78 75 75 78 79 80 80 80
57 56 59 64 67 67 66 65 65 66 68 69 67 66 69 74 81 85 84 79 74 73 73 74 77 80 82 85 89 90 91 93 95 93 89 87 86 85 85 85 86 87 87 86 85 84 84 83 81 79 78 78 80 80 79 77 76 77 79 80 80 79 78
48 50 53 56 57 57 56 55 55 54 55 56 55 57 63 68 71 75 78 73 67 65 67 72 76 77 78 79 81 80 79 81 84 82 80 80 81 82 83 84 85 86 85 85 84 83 82 81 80 79 79 80 79 79 78 77 77 78 79 79 78 77 77
40 42 44 46 46 46 45 45 45 43 44 46 48 52 58 62 61 63 68 66 58 53 57 63 67 68 69 70 71 72 73 76 77 75 72 73 77 80 82 82 82 83 83 82 82 81 80 79 79 79 79 79 78 78 78 78 77 77 77 76 75 75 77
36 36 36 37 37 35 35 35 34 34 35 39 42 46 50 54 53 53 58 61 58 55 58 62 64 65 68 70 72 75 76 77 77 75 75 78 81 82 83 82 82 82 81 78 75 74 74 75 76 77 78 77 77 77 78 78 76 75 74 73 73 75 77
34 29 25 24 23 22 22 25 28 29 31 34 38 41 43 45 46 51 59 65 67 67 67 66 67 70 74 77 78 79 80 79 79 79 81 83 85 85 84 83 80 79 77 74 71 71 72 74 76 77 77 76 76 77 77 76 74 72 71 71 73 75 76
31 25 19 12 14 17 17 20 25 30 32 34 36 37 36 38 43 53 64 71 73 74 74 72 71 72 75 78 78 77 76 78 81 84 87 89 90 89 85 82 79 76 75 75 74 73 73 74 75 75 75 75 75 75 75 74 72 70 70 72 74 75 76

ECMWFFLT1_250_spd_018.txt.gz
Wind_Speed
29 30 31 31 31 30 30 28 25 24 23 22 22 21 21 21 21 19 19 18 17 16 17 17 17 17 17 17 16 17 17 18 20 22 24 25 24 24 23 22 22 22 22 23 24 25 26 26 26 28 31 32 34 35 36 37 37 37 38 38 39 39 39
31 32 34 35 35 34 33 31 28 27 27 26 25 26 26 26 25 23 23 24 23 21 19 19 18 18 18 19 19 19 19 19 21 23 25 26 25 25 24 23 23 23 24 25 26 26 27 27 28 30 31 33 34 36 37 38 39 39 40 40 40 41 41
34 34 36 37 37 38 36 34 32 31 31 30 29 29 29 29 28 27 26 28 28 26 24 22 21 20 20 21 22 22 21 21 22 24 26 27 26 27 26 25 25 25 26 27 28 28 28 29 30 31 32 34 35 36 37 39 40 41 41 42 42 42 42
38 38 38 38 38 38 37 36 35 34 33 32 31 31 31 32 30 29 28 30 31 30 28 26 24 22 22 23 24 24 24 23 23 25 27 27 27 27 27 27 27 28 29 29 30 30 31 31 32 33 33 35 36 37 38 39 41 42 42 43 43 43 43
41 40 39 38 39 38 37 37 36 35 33 33 33 32 32 32 31 29 28 29 31 31 29 28 27 26 25 25 26 27 26 25 25 26 28 28 28 28 28 28 29 30 32 32 32 33 34 34 34 34 35 36 37 38 40 40 41 43 44 44 45 45 45
43 43 40 39 40 39 38 37 36 35 34 33 33 32 32 32 32 30 29 29 29 30 29 29 29 29 28 28 28 29 29 28 27 28 28 28 28 29 29 30 31 33 34 34 35 36 36 36 36 36 36 37 38 39 41 42 42 43 44 46 46 47 47
45 44 43 42 41 40 40 39 38 36 35 34 33 33 34 34 33 31 31 31 30 30 30 30 31 32 31 31 31 31 31 30 30 30 28 28 28 29 30 32 33 34 36 36 37 38 39 38 38 38 38 38 38 40 41 42 43 44 45 46 47 48 49
46 46 44 44 44 44 43 41 40 39 37 36 36 36 36 35 34 34 34 33 32 31 31 31 32 33 34 33 33 33 33 33 33 32 29 28 29 30 31 33 34 36 37 38 40 41 41 41 40 40 40 40 40 41 42 43 44 44 45 47 48 49 51
49 48 47 46 46 46 46 44 42 41 40 40 40 39 39 38 36 36 35 34 34 34 33 33 32 33 34 35 35 35 35 35 35 34 31 30 30 31 33 34 36 37 38 39 41 43 43 42 42 42 42 42 42 43 44 44 44 45 46 47 49 50 51
53 52 51 51 50 49 48 46 44 44 43 44 43 42 42 40 38 37 36 36 36 36 36 35 34 34 35 35 36 36 37 37 37 36 34 33 33 33 35 36 38 39 40 41 43 45 45 44 44 45 45 45 45 45 46 47 46 46 47 48 49 51 52
56 56 56 55 53 52 51 49 47 47 47 47 46 45 44 42 40 39 39 39 39 39 38 37 37 36 36 36 36 37 37 37 38 38 37 37 37 37 38 39 40 41 42 43 45 46 46 45 46 47 46 47 47 48 49 50 49 49 49 49 50 51 53
58 58 58 58 56 55 54 53 51 50 50 49 48 47 46 44 43 42 42 42 41 41 40 39 39 39 39 39 39 39 38 39 40 40 41 41 41 41 40 41 42 43 44 45 47 47 47 48 49 48 48 50 51 51 51 52 53 52 51 51 51 52 54
60 60 60 59 59 58 57 57 56 54 53 52 52 50 48 46 46 45 45 44 44 43 42 41 40 41 41 42 42 42 42 42 43 43 43 43 43 43 43 43 44 44 45 47 48 49 49 50 51 51 51 53 53 53 54 55 56 56 56 55 54 54 55
63 62 60 60 60 60 59 59 59 58 56 55 55 54 50 48 49 48 48 47 46 44 43 42 42 43 44 44 44 45 45 44 45 45 46 45 45 45 45 45 45 45 46 48 49 50 51 52 52 53 54 55 55 55 56 57 58 59 60 59 58 57 57
67 64 62 60 61 61 61 61 61 60 59 58 57 56 54 51 51 51 51 50 49 47 45 45 45 47 47 47 46 47 47 47 47 48 48 47 47 47 47 47 47 47 48 49 51 52 52 53 54 55 56 57 57 57 58 59 60 61 61 62 61 60 61
71 68 65 63 62 62 62 62 62 62 61 60 59 58 57 56 54 53 54 53 51 49 47 47 48 49 50 50 48 49 49 49 50 50 50 49 50 49 49 49 49 49 49 51 53 54 54 55 56 58 59 59 60 60 60 60 61 61 62 63 64 64 64
74 72 69 67 66 65 65 64 64 63 62 61 61 59 59 59 57 56 55 55 54 52 50 49 50 51 52 52 51 50 52 52 52 52 52 52 52 51 51 50 50 51 51 52 54 55 56 57 59 60 61 62 63 63 63 63 63 63 64 65 66 67 67
76 74 73 72 70 69 69 68 66 64 63 63 63 62 61 60 59 58 58 57 57 55 53 51 52 53 54 55 54 53 54 55 54 54 54 54 53 52 52 52 53 53 53 53 54 56 57 59 61 62 63 64 65 66 66 66 66 65 66 67 68 69 70
76 76 76 76 74 74 73 72 69 67 66 66 66 65 62 61 60 61 61 61 60 58 55 54 54 55 56 57 56 55 56 57 56 56 56 56 55 54 53 54 55 55 55 55 56 57 59 61 62 63 65 65 67 68 69 69 69 69 69 70 71 71 72
72 76 79 79 78 77 77 76 74 71 70 69 68 66 64 63 63 63 63 63 61 59 58 57 57 57 58 59 59 58 58 58 58 58 58 57 56 55 55 56 57 57 57 58 59 60 61 62 64 65 66 66 68 69 71 72 72 72 72 72 73 73 74
64 70 75 78 80 80 79 78 77 75 74 73 71 69 68 66 65 65 64 63 62 62 61 59 57 57 59 60 61 60 60 60 60 59 59 58 57 57 57 58 58 59 59 60 61 62 63 64 65 66 67 68 69 70 72 73 74 74 74 74 74 74 75
58 62 67 73 78 80 80 80 79 78 78 78 77 74 72 70 68 67 66 65 64 64 63 60 58 58 59 60 62 62 62 61 61 60 59 59 58 58 59 60 61 61 62 63 64 64 65 66 67 68 69 69 70 71 73 73 73 73 74 75 75 76 78
56 58 60 66 72 77 80 80 80 81 81 81 81 78 75 74 73 72 70 68 66 66 65 62 59 59 60 62 63 64 63 62 61 60 60 59 59 61 62 63 63 64 64 65 66 66 66 67 69 70 71 71 71 72 73 73 72 72 74 76 77 78 80
57 58 58 61 66 71 76 78 80 82 84 85 83 81 79 79 78 76 74 72 70 69 68 65 61 60 61 62 62 63 63 63 63 62 61 62 63 64 65 66 66 67 67 67 67 68 68 69 70 72 73 72 72 73 73 73 72 73 75 77 79 80 81
56 58 58 59 60 64 69 73 76 79 83 85 84 83 82 82 81 79 78 76 74 73 70 66 64 62 61 61 62 63 64 65 65 64 65 66 67 68 69 70 69 69 69 69 70 70 71 71 72 74 74 74 73 74 74 74 74 76 78 80 81 82 81
56 58 59 59 58 58 61 67 71 75 78 81 83 84 85 85 84 83 82 81 79 76 72 68 66 65 64 64 66 66 66 66 67 68 69 70 72 73 74 73 72 72 72 71 71 72 73 74 75 76 76 76 75 75 75 75 76 78 79 81 81 81 80
56 58 60 60 59 58 59 62 66 69 73 76 79 83 86 87 86 86 86 85 81 76 72 70 69 68 68 69 69 68 67 68 69 72 74 76 77 77 76 76 75 75 74 73 74 75 76 77 77 78 78 78 77 77 76 77 78 78 79 80 80 80 80
56 58 61 62 61 60 59 60 61 63 66 70 75 79 83 86 87 87 88 88 83 75 70 69 70 72 72 72 70 70 71 72 74 75 76 78 78 78 78 79 78 77 76 76 76 77 79 80 80 80 81 81 80 78 78 78 78 78 78 79 78 76 76
57 57 59 61 62 62 60 59 59 59 61 65 69 74 78 82 84 86 87 87 85 80 75 73 74 75 75 74 73 74 75 77 78 78 78 77 78 81 82 82 80 78 78 79 81 82 83 83 83 82 83 83 80 78 77 78 77 76 76 76 73 70 72
57 57 58 59 61 62 61 60 59 58 59 61 63 66 69 73 77 80 83 85 86 86 84 81 79 79 78 77 76 78 79 79 79 79 79 79 81 84 86 85 82 80 80 82 84 85 86 86 85 84 84 82 78 76 76 75 74 73 72 72 71 70 73
58 59 59 60 61 61 61 61 60 58 57 57 58 59 61 64 68 71 75 80 84 86 85 83 82 81 80 79 80 80 79 79 79 80 81 82 84 85 86 85 81 81 83 85 88 91 91 88 84 81 78 74 71 70 70 69 69 69 70 70 70 71 74
61 61 60 60 62 62 61 60 60 58 57 55 54 56 58 59 61 64 67 71 77 81 82 82 83 83 82 81 80 79 78 78 78 80 81 83 84 85 86 83 79 79 83 86 87 85 79 72 68 67 65 63 63 64 65 66 66 66 64 64 66 70 73
62 62 62 61 60 61 60 59 58 57 55 53 53 54 56 56 57 60 62 65 70 74 76 77 79 81 82 81 79 78 79 79 78 79 80 82 84 85 84 78 73 73 75 73 69 63 58 55 56 58 58 58 60 62 64 65 64 63 63 63 67 72 75
61 61 62 60 59 59 59 57 55 54 53 53 54 54 55 55 55 56 57 60 64 68 70 70 72 75 77 77 76 74 74 74 74 74 78 80 81 81 79 72 67 66 63 58 55 55 55 55 56 57 58 59 61 64 64 63 63 65 67 69 71 74 74
60 60 60 59 58 57 56 54 53 52 51 52 53 52 52 53 54 54 54 56 60 64 67 66 64 65 67 68 66 64 64 66 67 68 73 77 77 77 76 68 59 57 58 56 55 55 54 55 58 61 63 64 66 65 63 62 64 67 70 71 73 74 73
59 59 58 57 56 55 54 53 51 50 49 48 48 47 47 48 49 50 52 54 57 61 65 63 59 57 56 58 60 61 61 61 60 61 67 72 72 71 72 66 57 55 57 55 52 51 53 58 64 67 69 71 69 65 61 61 65 68 71 73 74 73 73
57 57 56 54 53 53 53 52 49 46 44 41 38 35 35 35 36 39 44 50 54 57 59 59 59 56 50 50 56 61 61 58 56 56 63 71 70 66 67 68 65 62 61 59 58 59 64 67 69 73 75 72 66 61 60 63 66 69 72 74 73 72 73
56 56 54 51 51 51 51 49 45 40 33 27 22 19 19 20 23 28 34 40 47 50 50 51 54 53 50 49 52 56 60 64 64 63 66 71 68 62 63 66 68 69 70 71 72 75 75 74 75 78 76 67 60 61 65 67 69 72 73 73 73 74 75

ECMWFFLT1_250_spd_021.txt.gz
Wind_Speed
26 27 27 27 28 28 27 26 25 23 23 23 21 20 20 19 18 17 16 16 15 15 15 14 15 16 17 18 19 20 19 19 19 19 18 17 17 15 12 12 13 15 18 20 22 22 23 25 26 26 26 27 28 29 31 32 33 34 34 35 35 35 35
29 30 30 30 31 31 30 28 27 26 25 24 23 23 23 22 20 19 19 18 18 18 18 18 18 19 19 20 20 21 21 21 20 20 20 19 19 18 15 13 14 15 18 21 22 22 24 26 27 27 28 28 29 30 31 32 33 34 35 36 36 37 37
33 33 33 33 34 34 32 31 29 29 28 27 26 26 26 24 23 22 22 23 22 22 22 22 23 24 24 24 24 23 23 23 23 22 21 21 21 20 17 16 15 15 18 22 23 23 25 27 29 29 29 29 30 31 32 33 34 35 36 36 37 38 38
36 36 36 35 35 35 34 33 32 32 32 31 30 29 28 26 26 26 26 26 26 25 25 26 27 27 27 28 27 27 26 25 25 25 24 23 23 23 21 19 17 17 19 22 24 24 25 28 30 30 30 31 32 32 32 34 35 36 37 38 39 40 40
38 38 37 37 37 37 37 36 36 35 34 34 33 32 31 29 29 30 29 29 28 28 27 28 29 29 30 30 30 30 30 28 27 27 26 24 24 25 23 22 20 19 20 23 25 25 26 29 31 31 31 32 33 33 33 35 36 37 38 40 41 42 42
39 39 39 39 39 39 39 39 38 38 37 37 36 35 34 33 33 33 32 31 31 30 30 30 30 31 32 32 33 32 32 31 30 29 29 27 26 25 25 24 23 22 22 25 26 26 27 30 32 33 33 33 34 34 35 36 37 38 40 42 43 43 44
42 41 40 40 40 41 41 40 40 40 40 39 38 38 38 37 37 36 35 34 33 32 31 31 31 32 32 33 33 33 33 32 31 31 31 30 28 27 26 26 26 25 26 28 28 28 30 32 33 34 34 34 35 36 36 37 38 39 41 43 44 45 46
45 43 42 41 41 42 43 42 42 41 40 40 40 40 40 40 39 39 38 36 34 34 33 32 32 32 33 33 33 33 33 33 33 33 33 32 31 29 28 27 27 28 30 31 32 32 33 35 36 36 35 36 36 37 38 38 39 41 42 44 45 47 48
47 45 45 44 43 43 44 45 43 42 41 41 41 41 41 41 41 41 39 37 35 35 34 33 33 34 34 34 34 34 34 35 34 34 34 34 32 31 30 28 28 29 32 34 35 35 37 38 38 37 37 37 37 38 39 40 40 42 43 45 47 48 50
49 48 48 48 47 46 46 46 45 43 42 42 42 42 42 42 42 42 40 38 37 36 35 35 35 36 36 36 35 35 35 35 34 34 34 34 33 32 31 31 30 31 33 35 36 37 39 40 40 39 38 39 39 40 41 42 42 43 45 47 48 50 51
52 51 51 51 51 50 48 47 46 45 44 45 45 45 44 44 44 43 42 41 39 38 37 37 37 38 38 38 37 37 37 36 36 35 34 33 32 32 32 32 33 33 35 37 37 39 41 42 42 41 40 40 41 42 43 43 43 44 46 47 49 52 53
56 55 54 53 54 54 52 50 49 48 48 48 48 47 47 47 46 45 44 43 42 40 40 39 39 40 40 39 38 38 38 38 38 37 36 34 34 33 34 35 35 36 38 39 39 41 43 44 44 43 42 42 42 44 44 44 44 45 47 48 50 52 54
59 58 57 56 55 55 55 54 52 52 51 51 51 50 49 49 48 47 46 45 44 43 42 41 41 42 41 40 40 40 40 40 40 40 38 37 36 36 37 38 38 39 40 40 41 43 44 45 45 45 44 44 44 45 46 46 46 47 48 49 51 53 55
62 61 60 59 58 57 57 56 55 56 55 54 54 52 52 51 50 49 48 47 45 45 45 45 44 44 43 43 43 43 42 42 43 42 41 40 39 39 40 41 41 42 42 42 43 45 46 47 47 47 46 46 47 47 48 48 49 50 50 52 53 54 56
65 65 64 63 61 60 60 59 58 58 58 57 56 55 54 53 53 52 50 49 48 48 48 48 47 47 46 46 46 45 45 45 45 45 44 43 42 43 44 44 44 44 44 45 46 46 48 49 50 49 48 48 49 50 50 51 52 53 53 54 55 57 58
64 67 67 66 65 64 63 63 61 61 60 59 58 58 57 57 56 55 54 53 52 51 50 50 50 50 49 49 49 48 48 48 49 49 48 46 45 45 46 47 46 46 46 48 48 47 49 51 52 51 50 51 51 52 53 54 55 56 56 57 58 59 60
57 64 67 68 68 67 66 66 65 64 63 62 60 60 60 60 60 59 58 56 55 55 54 53 53 52 52 53 52 51 51 51 52 52 51 49 48 47 48 49 48 48 49 50 50 49 50 52 53 53 52 53 53 54 55 56 58 58 59 60 61 62 63
46 54 61 66 69 69 68 68 67 67 67 65 63 62 62 62 63 62 61 60 59 59 58 57 57 56 55 55 55 53 53 53 54 54 53 52 50 50 50 51 51 50 51 52 52 51 52 54 55 54 54 54 55 56 57 58 59 60 61 63 64 64 65
40 45 50 57 63 67 69 70 70 70 70 69 66 65 65 65 65 64 64 64 63 62 61 60 61 60 58 58 58 56 56 55 55 56 56 55 53 52 52 53 53 53 53 54 54 53 54 56 56 56 56 56 56 57 58 60 61 62 64 65 66 66 67
41 42 43 47 52 59 65 70 72 73 73 72 71 69 69 68 67 66 67 66 65 63 62 63 63 63 62 61 61 60 59 58 58 59 60 59 57 55 55 55 56 56 56 56 56 55 55 57 57 57 57 57 58 59 61 62 63 64 65 66 67 68 69
44 44 43 44 46 50 56 63 69 74 76 76 75 74 73 71 70 70 70 69 66 65 65 65 65 65 64 63 62 63 62 61 62 62 63 62 60 58 57 58 58 58 58 57 57 57 57 58 58 58 59 59 59 61 63 64 65 65 66 67 68 70 71
46 46 46 46 47 49 51 55 61 68 73 77 78 77 76 75 75 74 74 72 70 69 69 68 67 66 65 64 64 64 64 64 65 65 65 64 62 60 59 59 59 59 59 58 58 58 58 58 59 60 60 60 61 63 65 66 67 67 68 69 70 72 73
47 47 48 48 50 52 52 52 55 61 67 72 76 78 78 79 78 78 77 76 74 73 73 71 70 68 67 66 66 67 67 67 67 68 68 66 64 62 61 61 60 60 60 60 60 60 59 60 61 62 62 62 63 65 67 69 69 69 70 71 72 74 74
47 48 49 49 51 53 53 53 53 56 59 63 68 73 77 80 80 80 79 78 77 77 77 75 73 71 71 70 70 70 70 70 69 70 71 69 67 65 63 62 62 62 61 62 62 62 61 62 63 64 65 65 65 67 69 71 71 71 72 73 75 75 74
49 50 50 50 50 51 52 53 53 53 55 56 58 63 69 75 79 81 81 80 80 80 79 78 76 76 76 75 74 74 74 73 72 72 73 73 71 69 67 65 64 64 64 64 64 64 64 64 66 67 68 66 66 68 70 70 71 73 74 75 76 76 74
52 52 51 51 50 50 51 52 53 53 54 55 56 59 62 66 71 75 78 81 82 82 81 80 80 80 80 80 79 78 79 78 75 74 75 75 75 73 71 68 67 67 67 67 67 66 66 67 69 71 70 68 68 69 70 71 74 75 76 77 77 76 73
55 55 54 53 52 51 51 51 52 53 54 56 57 58 60 61 63 65 69 75 78 80 81 82 83 84 84 83 82 83 83 82 79 78 77 77 78 78 76 73 71 71 71 72 71 69 69 70 72 73 72 70 69 70 72 73 74 77 79 78 74 69 65
57 57 57 56 55 55 53 52 52 52 53 55 57 58 59 59 59 60 62 66 70 73 77 82 85 86 86 85 84 86 87 85 83 82 80 79 80 80 79 78 76 75 76 75 73 71 71 72 75 75 73 71 71 72 73 74 78 81 78 69 60 54 52
60 59 58 57 57 56 55 54 53 53 53 55 57 58 59 59 58 59 59 60 62 65 70 76 80 84 86 86 86 88 89 89 87 85 83 83 83 83 82 81 80 79 79 78 76 74 73 75 77 76 73 72 72 72 74 77 78 73 61 50 47 48 49
62 61 60 58 57 56 56 56 55 55 56 57 57 58 59 59 59 59 58 58 58 60 63 68 73 77 81 83 84 86 88 89 89 88 88 88 88 86 85 82 80 80 81 80 77 75 75 76 77 75 73 73 72 72 74 73 67 55 45 44 49 51 51
64 63 61 59 58 58 57 56 56 57 58 58 59 59 58 58 58 59 58 58 58 58 60 63 67 71 74 77 80 82 85 87 87 88 90 90 90 90 88 84 81 81 82 80 77 76 76 77 76 75 74 73 69 65 62 59 55 52 49 50 53 54 53
66 64 62 61 60 59 57 57 57 57 59 59 59 59 58 57 56 57 57 58 57 57 59 60 63 66 69 72 75 78 81 83 84 85 88 90 91 91 89 86 82 82 82 80 78 78 77 76 77 76 74 71 65 58 55 53 54 57 56 54 55 57 55
68 66 64 63 62 60 58 58 58 58 59 60 60 59 59 57 56 55 55 55 56 56 57 59 61 63 66 69 71 74 76 78 79 81 84 86 89 89 89 86 83 81 80 79 78 78 76 75 75 74 72 71 68 62 58 56 55 57 59 58 59 60 58
69 67 66 65 63 61 60 59 59 59 59 60 60 60 60 59 57 55 54 53 53 53 55 57 59 62 64 66 68 70 72 73 74 76 78 80 83 84 84 83 81 78 78 78 78 77 75 73 72 70 68 68 66 61 58 57 56 60 66 67 67 65 64
69 68 67 66 65 63 61 61 61 60 60 60 61 61 60 60 59 57 54 52 51 51 51 53 55 57 60 62 64 65 67 68 70 72 74 75 76 76 76 77 77 75 75 75 76 74 72 69 66 65 63 63 62 63 66 65 63 65 70 72 70 68 67
72 70 69 67 65 63 62 62 62 61 60 60 59 60 60 60 59 58 55 51 49 47 47 46 46 48 49 52 54 58 60 63 66 69 71 70 67 67 68 69 68 67 66 66 67 67 66 67 66 64 62 62 62 66 69 69 66 66 67 67 67 67 68
72 71 69 67 64 63 63 63 62 61 60 58 58 59 60 60 59 58 55 51 47 42 37 32 28 25 25 27 32 39 46 53 59 64 66 63 58 57 58 59 61 62 61 61 62 61 61 66 71 68 63 62 64 66 67 69 69 67 65 65 66 68 70
69 69 68 66 64 64 63 62 62 61 59 57 57 58 60 60 59 57 55 51 44 35 28 23 20 16 15 16 20 26 32 40 49 55 58 54 49 49 50 51 53 55 54 53 56 60 63 71 79 78 73 70 69 67 67 68 68 66 65 66 68 70 71

ECMWFFLT1_250_spd_024.txt.gz
Wind_Speed
24 24 25 26 26 27 27 27 27 26 26 27 27 27 27 26 25 25 24 23 22 21 21 19 18 18 17 17 17 17 17 17 17 17 17 16 15 13 13 13 13 14 15 17 19 18 15 16 17 17 16 16 17 19 20 20 21 22 24 25 27 28 30
27 27 27 27 28 28 28 28 27 27 27 27 27 27 27 27 26 24 24 23 23 22 21 19 18 17 17 17 17 16 15 16 16 17 17 18 17 16 15 15 15 17 18 19 21 21 19 19 20 20 19 19 19 21 21 22 22 23 24 25 27 29 30
29 28 28 28 28 28 28 28 27 27 27 27 27 28 27 26 25 24 23 23 23 22 21 19 19 19 19 19 19 18 18 18 19 18 18 19 19 19 18 17 17 19 20 21 23 23 23 22 22 22 23 23 23 23 24 24 24 24 25 26 28 30 31
32 31 30 29 29 29 29 29 28 28 28 28 29 29 28 27 25 24 24 24 23 22 21 20 21 22 22 22 22 22 22 22 22 21 20 20 21 21 20 19 19 20 22 23 24 25 24 24 25 25 26 27 27 26 26 26 26 26 26 27 29 31 32
34 34 32 31 30 31 31 31 31 30 29 30 30 30 29 27 26 26 26 26 25 24 24 24 24 25 25 25 25 25 26 25 25 24 23 23 23 23 22 21 21 22 24 25 26 26 26 26 27 28 29 29 28 28 28 28 28 28 28 29 31 33 34
36 35 34 34 33 32 33 33 34 33 32 32 32 31 30 29 29 30 29 29 28 27 27 27 27 27 27 28 27 28 28 28 27 27 25 25 25 25 24 23 24 25 25 26 27 27 27 27 29 30 31 31 30 29 29 30 30 30 31 31 33 34 35
38 37 36 36 35 35 35 35 36 35 34 34 33 33 32 32 33 33 33 33 32 31 31 31 30 30 30 30 30 30 30 30 29 28 27 26 26 26 25 25 26 27 28 29 30 30 29 29 30 32 33 33 32 31 31 31 32 32 33 34 35 36 37
41 39 38 37 36 37 37 37 38 37 36 36 35 35 35 36 36 36 36 36 35 35 35 34 33 33 33 33 32 32 32 31 30 29 28 27 27 27 26 26 27 28 29 31 32 32 32 31 32 34 35 35 34 33 33 33 33 34 35 36 37 38 39
43 41 40 39 38 38 38 39 40 39 38 38 37 37 38 39 39 39 39 39 38 38 38 37 36 36 37 36 35 34 34 33 31 30 30 29 29 28 27 27 27 28 29 31 33 33 33 33 35 36 37 37 36 35 35 35 35 36 37 38 39 40 41
46 44 44 43 42 41 40 40 41 41 41 40 39 40 41 41 41 41 42 41 41 41 41 40 39 39 40 39 37 36 36 35 33 32 32 31 31 30 29 29 29 29 30 31 32 34 33 34 36 37 38 38 38 38 38 37 37 38 39 40 41 42 43
49 48 48 47 45 44 44 43 43 43 42 42 42 42 42 43 43 43 43 43 43 43 42 42 42 41 41 40 39 38 37 36 36 34 34 33 33 32 31 31 32 32 32 33 34 35 35 35 36 38 39 39 40 40 40 39 40 40 41 42 43 44 46
52 52 50 49 48 47 47 47 46 45 44 43 43 43 43 44 44 44 44 44 44 44 43 42 43 42 42 42 40 40 39 39 38 37 36 35 35 35 34 34 34 34 34 35 36 37 37 36 37 39 40 41 42 41 41 42 42 42 43 44 45 46 48
54 54 53 52 51 50 50 49 48 48 47 46 45 45 45 45 45 45 45 45 45 44 43 43 43 43 44 43 43 42 42 42 41 40 39 38 38 37 37 37 37 37 37 37 38 39 39 38 39 41 42 43 43 43 43 44 44 44 45 46 47 48 49
56 56 56 55 55 54 53 51 50 50 50 49 48 48 47 47 47 46 46 46 46 45 45 44 44 45 46 46 46 46 45 44 44 43 42 41 41 41 41 40 40 39 39 40 41 42 42 41 41 43 44 46 46 44 44 45 46 46 47 48 49 49 50
52 56 57 58 58 58 57 55 55 54 53 53 52 51 51 50 49 49 48 48 48 47 47 47 47 47 48 49 49 49 47 46 46 45 45 44 44 44 43 43 43 42 42 43 44 45 45 45 44 45 47 48 48 46 46 48 48 48 49 51 51 51 51
42 49 53 57 59 60 60 59 59 58 57 56 55 54 54 53 53 53 52 52 51 51 51 50 49 49 50 51 52 51 50 49 48 48 47 47 47 46 46 46 45 45 46 46 47 48 49 48 47 48 50 50 49 48 49 50 50 50 51 52 52 52 53
33 38 44 49 53 57 60 61 61 61 61 60 58 57 57 57 56 56 56 56 55 55 54 53 52 52 53 54 55 54 52 51 51 51 51 51 50 49 49 48 49 49 49 49 50 51 52 51 50 51 52 52 51 50 51 52 52 52 53 54 54 53 54
29 31 36 40 43 46 51 57 60 62 63 63 62 62 61 60 60 59 59 59 59 59 58 56 56 56 56 57 57 57 56 55 54 54 55 54 53 52 51 51 52 53 53 52 52 53 53 53 53 52 53 53 52 53 53 54 53 54 55 55 55 55 56
29 30 32 35 37 38 41 46 52 57 62 65 66 66 65 64 63 63 63 63 63 62 60 59 59 59 60 60 60 60 60 59 58 58 58 58 57 56 55 54 55 56 56 55 54 53 54 56 55 54 55 55 55 55 55 55 55 56 57 57 57 56 58
31 31 32 34 36 36 37 39 43 47 54 59 64 68 68 67 67 67 67 67 66 64 63 62 62 62 62 62 62 63 63 63 62 62 62 61 60 58 58 58 58 58 58 58 57 55 56 57 57 56 56 57 57 57 56 56 56 57 59 59 59 58 59
33 33 33 34 36 37 37 38 39 41 45 50 55 61 65 68 70 71 70 70 68 67 67 66 65 65 64 64 64 65 65 65 65 65 65 64 63 62 61 61 62 62 61 60 59 59 58 58 58 58 58 58 58 58 57 57 58 60 61 61 60 60 60
36 36 36 36 37 38 39 40 40 41 42 44 47 51 56 62 66 70 72 72 71 71 70 70 69 68 67 66 67 67 67 68 68 68 67 67 65 64 64 64 65 65 63 62 61 61 60 59 60 60 59 59 59 59 59 60 60 62 63 62 62 62 62
38 39 39 39 39 40 41 42 43 43 43 44 45 47 50 54 57 62 66 69 71 72 73 73 72 71 70 70 71 71 71 71 70 70 70 69 68 67 68 68 68 67 66 64 63 62 62 61 61 61 60 60 61 62 62 62 63 64 65 65 64 63 64
40 40 40 41 41 41 42 42 43 44 45 46 47 49 50 50 50 52 56 59 63 67 70 72 73 74 74 74 75 76 75 74 73 73 73 72 70 71 72 72 71 70 68 67 65 64 65 64 63 63 63 63 64 64 64 64 65 67 68 68 67 66 67
43 43 42 42 42 42 43 43 43 45 47 49 50 51 51 50 49 49 50 52 55 57 60 64 69 73 75 76 78 78 78 77 76 76 76 75 74 75 76 76 76 74 72 70 68 68 68 68 67 66 66 67 67 67 67 66 68 70 71 70 68 68 69
47 46 45 45 44 43 43 44 45 47 48 49 52 53 52 51 51 50 50 51 51 51 53 57 63 68 71 74 77 78 79 79 79 79 79 78 78 78 79 80 80 78 76 74 73 72 72 71 70 70 70 70 70 70 69 69 70 73 73 71 69 70 71
50 49 48 47 46 46 45 45 48 49 50 51 53 53 53 53 53 52 52 52 50 50 52 55 59 63 65 68 71 73 76 78 79 79 80 80 81 81 82 84 84 82 81 80 78 77 76 75 74 74 74 74 74 73 72 72 74 76 75 72 71 71 72
53 52 50 49 49 48 48 48 49 51 51 52 53 53 53 53 53 54 54 53 52 52 54 56 57 59 60 62 64 66 69 72 73 75 77 79 81 82 83 85 85 85 85 84 84 82 80 78 77 77 76 76 76 75 74 74 76 78 77 74 72 72 71
56 55 54 53 52 51 51 51 52 52 52 52 53 54 54 54 54 55 54 53 53 55 57 57 57 57 57 58 59 60 63 65 66 68 71 74 77 79 81 83 84 84 85 86 86 86 83 81 80 79 78 78 78 77 76 76 79 81 79 75 72 71 70
58 58 57 56 56 55 55 54 54 54 54 54 54 54 54 55 55 56 55 55 56 57 58 58 58 58 57 57 57 58 59 61 62 61 63 66 69 71 74 77 78 80 81 83 84 84 84 83 81 80 79 79 79 78 77 78 81 83 80 75 73 72 70
60 59 59 58 58 59 58 57 57 56 56 56 55 55 55 56 56 57 57 57 58 58 58 59 59 59 59 59 59 59 59 61 60 59 60 61 63 66 68 70 72 74 75 76 77 78 79 79 79 79 78 78 77 76 77 79 82 82 78 74 72 72 70
62 62 61 61 61 61 61 61 61 60 59 58 57 57 56 56 57 58 59 59 59 59 60 60 61 61 61 62 62 61 61 61 60 59 60 60 61 63 64 66 67 68 69 70 70 71 72 72 73 74 74 73 73 72 74 77 80 79 75 71 70 70 69
66 64 64 63 63 63 64 64 64 64 63 61 60 59 59 58 58 59 59 60 60 61 62 62 62 62 63 63 63 63 62 60 59 59 60 60 60 61 63 64 64 65 65 66 66 66 67 67 67 67 67 67 68 68 70 74 74 72 70 67 67 68 68
69 68 66 65 65 66 66 67 68 67 66 65 64 63 62 61 60 60 60 60 61 61 62 63 63 63 64 64 64 63 62 60 59 59 59 59 60 60 61 62 62 62 62 64 65 65 63 62 61 61 61 62 61 62 65 65 62 60 60 61 62 63 61
71 70 70 69 69 69 70 70 70 70 68 67 67 66 65 64 62 62 62 61 62 62 63 64 64 65 65 65 64 63 61 60 58 58 58 58 59 58 58 58 58 57 57 58 60 60 60 59 56 56 57 56 54 56 59 57 53 52 54 57 60 57 53
75 74 75 75 74 73 73 73 72 71 70 70 69 69 68 67 65 64 64 63 63 63 64 65 66 66 65 65 64 62 60 58 57 56 56 54 53 53 53 53 52 50 50 52 52 52 52 51 48 48 50 48 44 44 45 44 46 53 61 66 66 59 55
77 79 80 80 79 78 77 76 75 74 73 72 72 72 71 69 68 66 65 64 64 64 66 67 67 66 66 65 62 60 59 57 55 54 52 49 48 48 47 48 46 41 40 42 44 44 43 41 41 43 43 38 34 35 38 40 44 50 58 64 67 63 61
72 75 79 81 83 82 80 78 77 77 76 76 75 74 73 71 70 68 67 67 66 66 67 68 67 66 66 64 61 58 56 54 53 52 49 48 46 42 38 38 35 29 27 30 33 35 36 37 37 35 31 28 29 34 43 52 55 56 58 62 64 62 60

ECMWFFLT1_250_spd_027.txt.gz
Wind_Speed
19 19 22 24 27 29 31 29 28 29 30 30 30 30 31 31 31 31 29 27 25 24 23 22 21 20 19 19 19 17 15 14 13 13 14 13 13 13 13 13 14 14 15 15 14 14 14 14 14 14 14 14 15 17 19 20 20 20 19 20 20 21 22
22 21 23 25 28 30 31 30 30 30 30 30 31 31 31 31 31 30 28 27 27 26 25 24 23 21 21 21 20 18 16 15 14 14 13 13 13 13 14 14 14 15 17 18 17 16 15 15 16 16 16 16 17 18 20 22 22 22 22 22 23 24 25
24 24 24 25 28 29 29 29 29 30 30 30 31 31 31 30 29 27 27 28 27 27 27 26 24 23 22 22 20 18 17 15 15 14 13 13 14 15 15 15 15 16 18 19 20 19 17 17 18 18 19 19 19 20 21 23 24 24 24 25 25 26 27
28 27 26 26 28 29 29 29 29 30 31 31 32 31 30 29 27 27 27 28 28 27 26 25 24 23 22 21 19 18 17 16 16 16 16 16 17 18 18 18 17 18 19 21 22 22 20 19 20 20 21 21 21 22 23 25 26 26 26 27 28 28 29
30 29 28 28 29 30 31 31 31 31 31 31 32 31 30 29 28 28 29 28 28 27 25 24 24 23 22 20 20 19 18 18 18 18 19 19 20 21 21 20 20 21 21 22 24 24 23 22 21 22 23 24 24 24 25 26 27 28 28 29 30 30 31
32 30 30 30 30 31 33 33 32 32 31 31 31 31 30 29 29 30 30 29 29 28 27 26 25 24 23 22 21 21 20 20 20 21 21 22 22 23 23 22 23 24 24 25 26 26 25 23 23 23 24 25 25 26 26 27 28 29 30 30 31 32 33
34 32 32 32 32 33 33 33 33 32 32 32 31 30 30 30 31 32 32 32 32 31 30 29 27 26 25 24 24 23 23 22 22 23 23 24 25 25 24 23 24 24 25 26 27 27 27 25 24 24 24 25 26 27 27 28 29 30 31 32 33 34 34
36 35 34 34 33 34 33 33 33 33 33 32 31 30 30 31 32 33 34 35 34 33 32 31 30 29 28 28 27 26 25 25 25 25 26 26 27 27 26 25 25 24 26 28 28 28 28 27 26 25 26 26 27 28 28 30 31 31 32 33 35 36 36
41 39 38 37 35 35 34 34 34 34 34 33 32 32 32 33 34 34 35 35 34 34 35 34 33 31 31 31 31 29 29 29 29 28 29 29 29 29 29 28 27 27 27 29 29 30 29 29 28 28 28 28 29 29 30 32 33 34 34 35 36 37 38
45 44 43 41 39 38 37 36 36 37 36 36 36 36 36 36 37 37 37 36 36 37 37 36 35 34 34 35 34 33 34 33 32 32 32 31 31 31 31 30 30 30 30 31 31 31 31 31 31 31 30 30 31 31 32 34 36 36 36 37 39 40 40
48 46 45 43 42 41 40 39 38 39 39 39 39 39 39 39 39 39 39 39 39 40 40 38 37 37 38 38 38 38 38 37 36 36 35 34 33 32 32 32 32 32 33 33 33 33 33 33 33 33 33 33 33 34 35 37 38 39 39 40 41 42 43
50 49 47 45 44 43 42 41 41 41 40 40 40 40 41 42 42 42 42 42 42 42 42 41 41 41 41 41 41 41 41 40 39 39 37 36 35 34 34 33 34 34 35 35 35 35 35 36 36 35 35 35 36 36 37 39 40 41 41 42 43 44 45
51 50 49 49 47 46 44 44 44 43 42 42 41 41 42 42 43 44 44 45 45 44 44 43 43 44 44 44 44 44 43 42 41 40 39 38 37 37 36 35 35 36 37 38 38 37 37 38 38 38 37 38 38 39 40 41 42 42 43 44 45 46 47
52 52 52 51 50 49 48 47 46 45 44 44 44 43 43 43 44 44 45 46 46 46 45 45 45 45 45 45 45 46 45 43 42 41 41 40 40 39 39 38 38 39 39 40 40 40 40 40 40 40 40 40 41 41 42 44 44 44 45 45 46 48 49
48 51 52 53 53 53 52 51 50 48 47 47 47 47 46 46 46 46 46 47 47 46 46 46 45 46 46 46 46 47 46 44 43 43 43 42 42 42 41 41 41 41 42 42 43 42 42 42 43 43 42 42 43 44 44 46 47 47 47 47 48 49 50
39 43 47 51 53 54 54 54 53 52 51 51 50 50 50 49 49 49 49 49 48 48 47 47 46 47 47 47 48 48 47 46 45 45 45 45 45 44 44 43 43 44 44 44 45 45 45 45 46 46 45 45 45 46 47 48 49 49 49 49 50 51 52
34 37 40 45 49 52 54 55 56 56 55 55 54 54 53 53 52 52 52 52 51 51 50 49 49 48 48 49 49 49 49 48 47 47 47 47 47 47 46 46 46 46 47 47 48 48 48 48 48 49 49 48 48 49 50 50 50 51 51 51 52 53 53
32 34 35 38 41 45 48 52 54 56 57 57 57 56 56 56 56 55 55 54 54 54 53 52 52 51 51 51 51 51 52 52 51 51 51 51 50 50 49 49 49 49 50 50 50 50 51 51 51 51 52 52 51 51 52 53 53 53 53 53 54 54 54
30 30 32 34 36 38 40 43 47 51 54 56 58 59 59 58 58 58 58 57 56 55 55 55 55 54 54 54 54 55 56 56 55 55 55 54 54 52 52 52 52 53 53 53 53 53 54 55 54 54 55 55 54 54 55 55 55 55 54 55 55 55 55
29 29 30 32 33 35 36 38 40 44 47 51 54 57 58 59 59 60 59 59 58 58 58 58 58 58 57 57 57 57 59 59 59 59 59 58 57 56 55 55 56 56 56 56 56 56 57 58 57 57 57 57 57 57 57 58 58 57 56 56 56 56 56
30 30 30 30 32 33 34 35 37 39 42 45 47 50 53 56 57 58 59 60 60 61 61 61 61 61 61 61 60 60 61 61 62 62 62 61 60 58 57 58 59 60 59 58 58 58 59 59 60 60 60 59 59 59 59 60 60 59 59 58 58 58 58
33 32 31 31 32 33 34 34 35 36 38 40 41 44 47 49 51 52 54 56 58 60 61 62 63 64 64 64 64 64 64 64 65 65 65 64 63 62 61 61 62 62 62 61 60 60 61 61 62 62 61 61 61 61 62 63 63 62 62 61 61 60 60
36 36 35 34 34 34 34 35 35 36 36 38 38 39 41 42 43 45 47 49 52 54 56 58 60 63 65 66 66 67 67 67 67 67 68 68 67 66 66 65 65 65 66 65 63 63 63 64 64 64 63 63 64 64 65 65 65 65 65 65 65 64 64
39 38 38 37 36 36 36 36 36 36 37 38 39 39 39 39 40 40 41 43 45 47 48 51 54 58 60 62 63 64 66 67 67 68 70 70 70 70 70 69 69 69 69 69 68 67 67 67 67 67 66 66 67 68 69 69 68 68 69 69 69 68 68
42 40 39 39 38 38 38 37 37 38 39 40 40 40 40 40 40 40 40 41 42 43 44 47 51 53 53 54 55 56 57 59 61 63 66 67 69 70 71 71 71 71 71 71 71 72 71 70 69 70 69 70 71 72 72 72 72 72 73 74 73 72 71
45 43 41 40 40 40 40 40 39 39 40 40 40 40 41 42 42 42 42 42 42 42 44 47 49 49 48 48 49 49 50 51 53 55 58 60 62 64 65 66 68 69 69 70 71 72 72 71 71 71 72 72 73 74 75 75 75 75 76 77 76 75 73
49 47 45 44 43 43 42 42 41 41 42 42 41 41 42 43 44 44 44 44 44 45 46 48 48 47 46 46 47 47 48 49 50 51 53 54 55 56 57 59 62 63 63 64 66 67 67 68 69 69 69 71 71 72 73 74 75 76 77 77 77 76 74
52 50 49 47 46 45 45 44 44 44 44 44 44 44 44 45 45 46 46 46 46 47 47 47 47 48 48 48 48 48 48 48 48 49 51 52 53 53 54 56 57 58 58 59 60 62 62 63 64 65 65 65 66 67 68 69 70 71 72 73 73 72 70
54 53 52 50 49 48 48 48 47 47 47 47 47 47 47 47 48 48 48 48 48 47 47 47 48 49 50 50 50 50 50 50 49 49 51 53 52 52 53 55 56 56 56 56 57 58 58 59 61 61 61 61 62 63 63 65 66 66 67 69 69 68 66
56 55 54 53 52 52 51 51 51 50 50 50 49 49 49 49 50 50 50 50 50 50 50 50 50 50 51 51 51 51 51 51 51 50 52 54 54 53 52 53 55 55 54 54 54 55 56 57 57 58 58 60 60 60 61 62 63 62 63 64 65 63 59
59 58 57 57 56 56 55 55 54 54 54 53 53 52 51 51 51 52 52 52 52 52 52 52 52 52 53 53 52 52 53 53 53 53 53 55 57 56 54 54 54 54 55 54 52 52 53 55 55 56 56 58 58 59 60 60 59 59 60 61 61 59 54
62 61 61 60 59 59 58 58 57 57 56 56 56 55 54 54 54 54 54 54 55 55 55 55 55 55 55 55 55 54 54 54 54 55 56 57 58 58 58 57 56 55 56 55 53 51 50 52 53 54 55 56 57 58 58 57 56 55 55 56 57 55 50
65 64 63 63 62 61 61 60 60 59 59 59 59 58 57 57 56 56 56 57 57 57 57 57 57 58 58 58 58 57 56 55 56 57 57 58 59 60 60 60 59 57 56 55 54 52 50 50 52 53 54 55 55 55 55 53 50 49 50 52 51 47 43
67 66 66 65 64 64 63 63 62 62 61 62 62 61 61 61 60 60 60 60 60 60 59 59 60 60 61 61 60 60 58 58 57 58 58 59 60 60 61 61 61 59 56 54 54 52 51 51 51 52 53 54 54 52 49 44 41 42 45 45 41 36 32
69 68 68 67 67 66 66 66 65 65 64 64 64 65 65 65 65 65 64 63 63 62 62 62 62 62 63 62 62 61 60 60 59 59 59 60 60 61 62 62 61 59 57 55 52 50 50 50 50 51 51 49 46 44 41 37 36 37 39 39 34 29 26
72 71 70 69 69 68 68 68 68 67 67 67 68 69 69 69 69 68 68 67 67 66 66 65 65 65 65 65 64 63 62 62 61 61 61 61 61 62 63 63 61 59 57 55 53 50 48 48 50 50 46 39 35 33 31 30 31 32 34 36 34 31 34
73 72 72 71 70 70 70 70 70 70 70 71 72 73 73 73 72 72 71 71 71 70 70 70 69 69 68 67 66 65 65 64 63 62 62 61 62 63 63 63 62 60 57 55 53 50 48 48 48 45 38 32 27 22 19 20 23 27 31 34 37 44 53
74 73 73 73 73 73 73 73 73 73 73 74 75 76 77 77 76 76 75 75 75 74 74 73 73 72 71 70 69 68 68 67 65 64 63 62 63 64 64 64 63 61 57 54 51 50 50 50 47 41 37 33 28 20 15 16 20 26 29 30 29 32 38

ECMWFFLT1_250_spd_030.txt.gz
Wind_Speed
18 19 20 22 26 27 28 30 32 34 35 34 34 34 34 35 35 34 32 30 28 26 24 22 20 19 19 18 18 18 18 17 16 16 15 14 13 12 12 13 13 12 11 11 11 10 10 10 10 11 11 11 11 12 14 15 16 17 18 20 20 21 21
21 20 20 22 25 27 29 31 34 36 37 36 35 35 34 35 36 35 33 31 29 27 25 24 23 22 20 20 19 19 19 18 18 17 16 16 15 15 15 14 13 12 12 13 13 13 13 12 12 13 15 15 15 15 16 17 18 19 20 21 21 22 23
23 22 21 23 26 27 28 31 34 37 38 38 37 36 35 35 35 34 33 31 30 29 27 26 25 24 23 22 21 20 20 19 19 18 17 17 17 16 15 14 13 13 13 14 15 15 15 15 15 15 16 18 18 18 18 19 20 20 21 22 22 23 24
26 25 23 23 25 27 29 32 34 36 38 39 39 37 36 34 33 32 31 31 30 30 29 27 25 24 25 25 24 22 21 20 19 19 18 18 17 16 14 13 13 14 15 16 17 18 18 19 19 18 18 19 20 20 19 20 21 22 22 23 23 24 25
29 27 25 24 25 27 30 33 34 36 37 38 38 38 37 35 33 32 31 31 32 31 30 28 27 27 27 26 25 23 21 21 21 20 19 18 17 16 15 14 15 16 17 18 20 21 22 22 22 22 21 21 22 22 21 22 23 23 24 24 25 25 26
31 29 27 26 25 28 31 33 34 36 36 36 35 35 34 34 33 33 32 32 32 32 30 30 30 29 28 27 25 23 23 22 21 20 19 18 18 18 17 17 17 17 18 20 22 23 24 24 24 24 24 23 23 24 24 24 24 25 26 26 27 27 28
33 31 30 28 27 28 30 32 34 35 35 35 33 32 31 31 32 32 32 32 32 31 31 31 31 30 28 27 26 25 24 23 22 21 21 20 20 19 19 19 19 19 20 22 23 25 25 26 25 25 25 25 25 25 25 26 26 27 28 29 29 30 30
35 33 32 31 30 29 30 31 33 34 33 33 32 31 30 31 32 32 32 33 32 32 32 33 32 31 29 28 28 27 26 26 26 25 24 22 22 21 20 21 21 22 23 24 25 26 26 26 26 26 26 26 26 26 27 28 28 29 30 31 31 32 32
39 37 35 33 32 31 31 31 31 32 32 32 32 31 31 32 33 33 34 34 33 33 34 33 32 31 30 30 30 30 30 30 29 28 26 25 24 23 23 24 24 25 26 26 27 27 28 28 28 28 28 27 27 27 28 29 30 31 32 33 33 34 34
45 43 40 37 36 35 34 32 31 32 34 35 35 34 34 35 35 35 35 34 34 35 35 34 32 31 31 32 32 32 32 32 31 30 29 28 27 27 27 27 28 29 29 29 29 29 29 29 30 30 30 29 29 29 30 31 33 33 34 34 35 36 37
48 46 44 42 40 39 37 36 35 37 38 38 39 38 38 39 39 38 37 37 37 37 36 34 34 34 34 34 34 34 34 34 33 32 32 30 30 31 31 31 32 32 32 32 31 31 31 31 31 31 31 31 31 31 32 34 35 36 36 36 37 37 38
50 49 47 45 42 41 41 40 39 39 39 39 40 41 41 42 42 41 40 40 39 39 37 36 36 36 36 36 36 36 37 36 36 35 34 34 34 34 35 35 35 35 35 34 34 34 33 33 33 33 34 34 34 34 35 36 37 38 38 38 38 39 40
53 51 50 47 44 43 43 42 42 41 40 40 40 41 42 42 42 42 42 42 41 40 39 38 38 38 38 38 39 39 40 39 39 38 37 37 37 37 38 38 38 38 37 37 36 36 35 36 36 36 36 36 36 36 37 38 39 40 40 40 40 41 42
53 52 51 48 46 45 45 44 44 43 42 42 41 42 42 42 42 42 42 42 42 41 40 40 40 41 41 41 42 42 43 42 42 41 40 39 39 40 40 41 40 40 39 38 38 38 38 38 38 38 38 38 38 38 38 40 41 42 42 42 42 43 44
51 51 51 50 49 49 48 46 46 46 45 44 43 43 43 43 43 43 43 43 42 42 42 42 42 43 43 44 45 45 45 44 44 43 42 42 42 43 43 43 42 42 41 41 40 40 40 40 40 40 40 40 40 39 40 41 43 44 44 44 44 45 46
50 51 51 52 52 52 51 49 48 47 46 46 46 47 47 46 46 45 45 45 44 44 44 44 44 44 45 46 47 47 46 45 46 46 44 44 44 44 44 44 44 43 43 42 42 42 42 42 42 42 42 42 42 42 42 43 45 46 46 46 47 47 48
46 49 50 52 53 54 53 52 51 50 49 49 49 49 49 49 49 48 47 46 46 46 46 46 46 46 47 49 49 48 47 48 48 47 46 45 45 45 45 45 45 44 44 44 44 44 44 43 44 44 44 45 45 45 45 46 48 49 49 49 50 50 50
40 43 46 49 51 53 54 54 54 53 53 52 52 51 50 50 49 49 48 48 48 47 46 47 47 48 49 50 50 49 49 49 49 49 48 47 46 46 46 46 46 46 46 46 46 46 46 46 46 46 46 47 48 48 49 50 51 52 52 52 52 52 52
35 38 40 43 46 49 52 53 54 55 55 54 54 53 52 52 51 51 51 50 49 49 48 49 50 50 51 51 51 51 51 50 50 50 50 49 48 47 47 47 48 49 49 49 49 49 49 49 49 49 50 50 51 51 52 53 54 54 54 54 54 54 54
34 35 36 38 41 43 46 49 52 53 54 54 54 54 54 54 54 54 53 52 52 51 51 52 52 53 53 53 53 53 53 53 53 53 53 52 51 50 50 51 51 52 52 52 52 52 52 52 52 53 53 52 53 54 54 55 56 57 57 57 56 56 56
35 35 36 36 38 40 42 44 46 48 50 51 52 52 53 54 54 54 54 54 54 55 55 55 55 55 55 55 55 55 55 55 56 55 55 55 54 54 54 54 55 56 56 55 54 54 54 54 55 56 56 55 55 56 57 58 59 60 60 60 60 60 60
35 37 38 38 39 39 40 40 41 42 43 44 45 47 48 49 51 51 52 53 54 55 56 57 57 57 57 57 58 58 58 58 58 58 58 58 58 58 59 59 59 59 59 58 58 57 57 57 58 58 59 59 59 59 60 61 62 63 64 63 63 63 63
37 38 39 40 40 39 39 39 38 38 38 39 40 41 42 43 44 45 46 47 49 51 52 53 54 55 55 56 57 58 58 59 59 60 60 60 61 62 62 62 62 62 62 62 61 61 61 61 61 61 61 62 62 63 63 64 65 65 66 66 65 65 65
38 39 39 39 38 38 37 36 36 35 35 36 37 37 37 38 39 39 40 41 42 43 44 46 47 48 49 50 51 51 52 53 53 54 55 56 57 58 59 59 60 60 60 60 60 61 61 61 61 61 61 61 61 61 61 62 62 63 63 64 63 62 62
38 39 39 38 37 36 34 33 33 33 33 33 34 34 35 35 36 36 37 37 37 38 39 41 41 42 43 43 44 45 46 46 47 48 50 51 51 52 53 53 53 53 53 54 54 55 55 55 55 55 55 54 53 53 54 54 55 56 57 58 58 57 57
41 41 41 41 40 38 36 35 34 35 35 34 34 34 34 34 35 35 35 35 36 37 38 38 38 38 39 40 41 42 43 42 43 44 46 46 46 47 47 48 47 47 47 48 48 47 47 47 48 49 49 48 47 47 48 49 50 51 53 54 55 54 54
44 44 44 44 44 42 40 39 38 37 37 37 37 36 36 36 36 36 36 36 38 39 39 38 38 38 39 40 40 41 41 41 41 42 43 43 43 43 43 44 44 43 44 44 44 44 44 44 44 45 46 46 46 45 46 47 48 50 52 53 54 54 54
48 48 47 47 47 46 44 43 42 40 40 39 38 38 38 38 38 39 39 39 41 41 41 40 40 40 41 41 41 41 42 41 41 41 41 42 42 42 42 42 42 42 43 43 43 43 43 43 43 44 44 45 45 45 45 46 47 49 51 53 54 55 55
52 51 51 50 49 48 47 46 45 44 42 42 41 41 40 40 41 41 41 42 43 44 43 43 43 43 43 44 44 43 43 43 43 43 43 43 43 43 43 43 43 43 43 43 43 43 43 43 45 45 44 45 46 46 46 46 46 48 50 52 54 55 55
56 55 54 53 52 51 50 49 48 47 46 45 44 44 44 44 44 43 44 45 45 45 46 46 46 46 47 47 47 46 45 45 45 45 45 45 45 45 45 46 45 45 45 45 45 44 44 45 46 46 46 47 48 49 49 47 46 47 48 51 54 56 56
59 58 57 56 55 54 53 52 51 50 49 48 47 47 47 47 47 46 47 47 47 48 49 49 49 49 50 50 50 50 49 47 47 47 47 47 47 47 48 48 47 47 47 47 47 47 47 48 48 48 49 49 50 51 52 50 48 48 49 52 55 56 57
63 61 59 58 57 56 56 55 54 53 53 51 51 50 50 50 50 50 50 50 50 50 51 51 52 52 52 53 53 53 53 51 50 50 50 49 49 49 50 50 49 49 49 50 49 49 49 50 50 51 51 52 52 52 52 51 51 52 54 55 56 58 58
66 64 62 61 60 59 59 58 58 57 56 55 54 53 53 53 52 52 53 53 53 54 54 54 55 55 55 56 56 56 56 55 54 54 53 52 52 52 52 52 52 51 52 52 52 52 51 51 52 53 53 54 54 53 51 49 52 54 56 57 59 59 57
69 67 66 64 63 62 62 61 61 60 59 58 58 57 56 56 55 55 56 56 56 57 57 58 58 58 59 59 58 58 58 57 57 57 56 56 56 55 54 55 55 54 54 54 55 55 54 54 55 56 56 56 54 51 48 48 51 54 55 57 59 59 57
71 70 68 67 66 65 64 64 64 63 63 62 61 61 60 60 59 59 59 59 59 59 60 60 61 61 61 61 61 60 60 60 60 60 59 59 59 58 58 58 57 57 57 57 58 58 58 58 58 58 59 58 54 50 47 47 50 54 54 53 55 56 56
73 72 71 70 69 68 67 67 67 66 65 65 64 64 64 63 63 63 63 62 62 62 63 63 63 63 63 64 63 63 63 63 63 62 62 62 62 62 61 61 61 61 60 60 61 61 61 61 61 60 62 60 54 49 47 47 51 54 53 50 50 52 51
75 74 73 73 72 71 70 70 69 69 68 67 67 67 66 66 66 66 66 66 66 66 65 66 66 65 66 66 66 66 66 66 66 66 66 66 65 65 64 64 64 65 64 64 65 65 64 65 64 63 65 62 54 47 47 50 52 53 52 49 47 46 44
77 76 75 75 74 74 73 72 72 71 71 70 69 69 69 69 69 69 69 69 70 69 69 69 69 68 68 68 68 69 69 69 70 70 69 69 68 68 68 67 67 68 68 68 69 68 68 67 66 66 67 65 55 47 48 52 53 53 52 49 45 42 40

ECMWFFLT1_250_spd_033.txt.gz
Wind_Speed
26 25 24 26 29 32 32 32 31 30 31 33 36 38 37 36 36 36 34 32 32 31 30 29 27 24 22 21 20 19 18 17 15 14 13 12 11 10 10 10 10 10 9 9 9 9 9 9 8 7 8 8 9 11 12 13 14 15 17 17 18 18 18
27 27 25 25 29 33 33 32 32 32 33 35 38 39 40 39 39 38 36 34 34 33 31 28 25 23 22 22 22 21 20 18 17 17 15 14 13 12 13 12 12 12 12 11 11 12 11 11 11 11 11 12 13 14 14 15 15 15 17 18 19 19 19
30 29 27 25 27 31 32 32 32 32 34 37 40 42 43 42 41 40 38 36 34 32 30 27 24 22 21 22 22 21 20 20 19 18 17 16 15 15 15 14 13 12 12 12 13 13 13 14 14 14 14 15 16 16 17 17 17 17 18 19 19 20 20
33 31 29 26 27 29 29 30 31 32 34 39 43 45 45 45 43 41 39 36 34 31 30 28 25 23 23 23 22 21 21 20 19 19 19 18 17 17 16 14 14 12 11 12 13 14 15 16 17 17 18 18 18 18 18 19 19 19 19 19 20 21 22
36 33 30 27 26 27 29 30 31 32 35 39 44 46 46 45 44 42 40 37 35 33 31 28 26 26 26 26 25 24 22 20 19 19 19 19 19 18 17 16 15 14 13 14 15 15 16 17 18 19 20 20 20 19 19 19 20 20 20 21 22 22 23
38 35 31 27 25 27 30 31 31 32 34 38 43 45 45 44 44 43 41 39 38 36 33 31 30 30 29 28 27 25 23 22 20 20 20 20 21 20 18 17 17 16 16 17 17 18 18 18 19 19 21 22 21 20 20 20 20 21 21 22 23 24 25
40 36 31 28 26 27 30 32 32 32 32 36 41 42 42 42 43 42 42 41 40 38 37 35 34 33 31 30 28 26 24 23 22 22 22 22 22 21 20 19 20 19 20 20 20 20 20 20 20 21 21 23 23 23 22 22 22 22 23 24 25 26 27
41 38 33 31 30 30 32 32 32 31 31 34 38 40 40 40 40 40 40 41 41 39 39 38 37 35 34 32 31 29 27 26 25 25 25 24 24 23 22 23 23 23 24 24 23 23 23 23 23 23 23 24 25 26 25 25 24 24 25 26 27 28 29
46 42 38 35 34 34 32 30 31 31 32 34 37 39 40 39 38 38 38 39 39 39 39 38 37 36 34 34 33 32 31 30 30 29 28 27 26 26 26 26 27 27 27 26 26 26 26 26 26 26 25 25 26 27 28 28 27 27 27 28 29 29 30
49 46 44 41 39 37 32 28 29 32 32 33 36 38 40 40 40 39 38 38 38 38 38 37 36 35 34 35 34 33 33 33 33 32 31 30 29 28 28 29 29 29 29 29 28 28 28 28 29 29 29 28 28 29 30 30 30 30 30 30 30 31 32
51 50 50 47 44 41 38 35 33 33 33 35 36 38 41 42 42 41 40 39 39 39 37 36 35 35 35 35 34 34 35 35 34 34 33 31 31 30 31 31 31 32 31 31 31 31 31 31 31 32 32 31 31 31 31 32 33 33 33 32 32 33 33
54 54 52 49 47 45 44 41 38 35 35 37 39 39 41 42 43 43 43 42 42 41 39 38 37 37 37 36 35 36 37 37 36 35 34 33 32 33 33 33 34 34 33 33 33 33 33 34 34 34 34 34 34 34 33 34 36 36 36 35 34 34 35
56 56 53 51 49 47 44 42 40 38 38 39 41 42 43 44 44 45 45 45 44 43 42 41 40 39 39 38 37 38 39 39 38 37 35 34 34 34 35 36 37 36 35 35 35 36 36 36 36 36 37 36 36 36 36 37 38 38 38 37 37 37 37
57 57 56 53 50 48 45 43 41 40 39 39 40 43 45 46 46 47 46 45 44 43 42 41 41 41 41 40 39 40 41 40 39 37 36 35 36 36 37 38 38 38 37 38 38 38 39 39 39 39 39 39 38 39 39 39 40 40 40 40 39 39 39
57 58 58 55 52 49 47 45 44 42 40 39 39 40 42 44 46 46 46 44 43 43 42 41 41 41 41 40 40 41 41 39 37 37 36 36 36 37 38 39 39 39 40 40 40 41 41 41 41 41 41 40 40 40 41 41 42 42 42 42 42 42 42
56 57 56 55 53 52 50 48 46 45 43 41 40 40 41 42 43 44 44 43 43 43 43 42 42 42 42 41 41 41 39 38 37 37 37 37 37 38 38 40 41 41 42 42 42 43 43 43 42 42 42 42 42 42 43 43 44 44 44 44 44 45 46
55 56 56 56 55 53 53 52 49 47 46 44 44 43 42 42 42 43 44 44 44 44 44 44 44 44 43 43 42 41 40 40 39 39 39 39 40 40 41 41 42 43 43 44 44 44 44 44 43 44 43 43 44 44 45 46 46 47 47 47 47 48 49
52 54 56 57 56 55 55 54 52 50 48 47 46 46 45 45 44 44 45 45 45 44 44 45 45 45 45 44 43 43 42 42 42 41 42 42 43 43 43 44 44 45 45 46 46 46 45 45 45 45 45 45 46 47 47 49 50 50 50 51 51 51 52
49 52 55 56 58 58 56 54 54 52 51 49 48 48 48 47 47 46 46 45 44 43 44 45 45 45 45 45 45 45 45 44 43 43 44 44 45 45 45 46 46 46 47 47 47 47 47 47 47 47 47 48 48 49 50 51 52 53 54 54 54 55 55
46 50 53 54 57 58 57 56 55 55 53 52 51 50 50 49 49 49 47 45 45 44 45 45 45 45 45 45 45 46 46 45 45 45 45 45 46 46 46 47 47 47 48 48 48 49 49 49 49 49 50 50 51 53 53 54 55 56 57 57 58 58 59
45 48 51 53 55 56 57 57 57 56 55 54 53 52 52 51 51 49 48 48 47 47 47 47 47 47 47 47 47 47 47 47 46 46 46 46 47 47 48 48 49 49 49 49 50 51 51 51 52 52 53 53 55 56 58 58 59 60 60 61 61 61 61
43 44 46 50 52 54 56 57 57 57 57 56 55 54 54 53 52 51 50 50 50 49 49 49 49 49 49 49 49 49 49 49 48 48 48 48 49 50 51 51 52 52 51 51 52 53 54 54 54 55 56 57 58 59 61 61 61 61 61 61 61 60 59
39 40 42 44 47 49 51 54 56 57 57 57 56 56 55 54 53 53 53 52 52 52 51 52 52 52 52 52 51 51 51 50 50 50 51 51 52 53 54 55 54 54 54 55 55 56 57 57 57 57 58 58 58 57 58 58 57 57 57 57 57 55 53
40 41 41 41 42 43 46 48 51 54 55 56 56 55 55 54 54 54 54 54 54 54 54 55 55 55 55 54 53 53 53 53 53 54 54 55 56 56 57 56 56 56 56 56 56 55 55 55 54 54 54 53 53 52 51 51 51 51 52 52 52 51 49
42 41 41 40 40 40 42 43 44 46 48 50 52 52 53 53 52 52 53 53 53 53 54 55 55 55 55 54 54 53 53 53 53 53 53 53 54 54 53 52 51 51 51 50 50 49 48 48 48 48 48 48 48 48 48 48 47 48 48 49 49 48 47
42 41 41 40 40 40 41 40 40 40 41 42 43 44 45 46 46 47 47 47 47 47 48 48 48 48 48 48 48 47 47 47 47 46 46 47 47 47 46 45 44 44 44 43 43 43 44 44 44 44 45 45 45 46 47 47 46 46 46 47 47 47 47
42 42 41 41 41 41 40 40 40 39 39 38 38 37 38 39 39 39 39 39 39 40 40 38 39 40 40 41 41 40 41 41 41 40 40 41 41 41 41 41 41 41 41 40 40 41 42 42 42 42 42 43 44 44 46 47 47 46 46 46 46 47 47
44 43 42 42 42 42 41 41 41 40 40 39 37 36 35 35 34 34 34 34 35 36 35 35 36 37 38 38 38 38 39 39 39 39 38 39 39 40 40 39 39 40 40 39 39 39 40 40 40 40 41 41 42 43 44 45 46 46 46 46 46 46 46
50 47 45 44 43 43 43 43 42 41 40 39 37 36 35 34 34 34 34 35 35 36 36 36 37 37 38 38 38 38 38 39 39 39 38 38 39 39 39 39 39 39 39 39 38 38 38 39 40 40 40 40 41 43 44 44 45 46 47 48 48 47 46
54 51 48 47 45 45 45 44 43 43 42 41 40 38 37 37 37 37 37 38 38 38 38 38 39 39 40 40 40 40 39 40 39 39 39 40 39 40 40 40 40 40 40 40 40 39 39 40 40 40 41 41 42 44 45 46 47 47 49 51 52 51 50
57 54 52 50 48 47 46 45 45 45 44 44 43 42 41 41 41 40 40 41 41 40 40 41 41 42 42 42 42 42 42 42 42 42 42 42 42 42 43 42 41 41 42 43 42 41 41 42 42 42 43 43 44 45 47 48 49 50 51 53 54 55 54
60 57 55 54 53 52 49 48 48 47 47 47 47 46 46 46 45 45 44 44 43 43 43 43 43 44 44 45 45 45 45 45 45 45 45 44 44 45 45 45 44 44 44 45 45 45 45 45 45 45 46 46 46 47 48 49 50 52 54 55 56 57 57
63 61 59 58 57 56 54 53 52 51 50 50 50 50 50 49 49 49 48 47 47 46 46 46 46 46 47 47 47 47 47 47 48 48 48 48 47 48 48 48 48 47 47 48 48 48 48 48 48 48 48 49 49 49 50 50 51 54 56 56 56 58 59
65 64 63 61 60 59 57 56 55 54 53 53 53 53 53 53 53 52 52 51 51 50 50 49 49 49 50 50 50 50 50 50 51 51 51 51 51 51 51 51 51 51 51 52 52 51 51 51 51 51 51 51 52 52 52 53 54 56 58 57 56 57 59
69 68 66 65 64 62 60 59 58 57 56 56 56 56 56 56 56 55 55 55 54 53 53 53 52 52 52 52 53 53 53 54 54 54 54 54 55 55 55 55 55 55 55 55 55 55 55 54 54 54 55 54 54 55 56 56 57 59 60 60 58 57 59
71 70 69 68 67 65 64 62 61 60 59 59 58 58 58 58 58 58 58 57 57 57 56 56 56 55 55 56 56 56 56 57 57 57 57 58 58 58 58 58 58 58 58 59 59 58 58 58 58 58 58 57 57 57 58 58 59 61 62 63 62 60 60
74 73 72 72 71 69 68 66 64 63 62 62 61 61 61 60 60 60 60 60 60 60 59 59 59 59 59 59 59 59 60 60 60 60 61 62 62 62 62 62 62 61 61 61 61 61 61 61 61 61 61 61 60 60 60 60 61 63 64 66 67 65 64
76 75 75 74 74 73 71 70 68 67 66 65 64 64 64 64 63 63 63 63 63 62 62 62 62 62 62 63 63 63 63 63 63 64 64 65 65 65 65 65 65 64 64 64 64 64 64 64 64 64 64 64 63 62 62 62 64 65 66 67 67 66 65

ECMWFFLT1_250_spd_036.txt.gz
Wind_Speed
29 26 24 24 25 23 22 23 23 24 26 26 25 25 28 33 35 34 35 35 34 32 31 29 28 25 23 22 20 19 17 16 15 14 13 13 12 10 10 10 9 8 7 7 7 7 7 6 6 6 7 7 8 9 10 11 12 13 13 14 14 15 16
33 30 27 27 28 26 23 23 24 26 27 27 27 28 29 33 36 36 36 37 35 34 32 31 29 28 25 24 23 21 19 17 16 16 15 14 13 12 12 12 10 9 9 8 8 8 8 7 7 7 8 9 9 10 12 13 13 14 15 15 15 15 17
37 33 30 30 30 27 24 22 23 25 26 26 29 31 30 32 36 37 38 38 37 35 34 33 32 30 28 27 26 23 21 20 19 19 17 16 15 15 14 13 12 11 11 10 10 9 9 8 8 8 9 10 11 11 13 14 14 14 15 16 16 16 17
40 37 33 32 31 28 24 24 24 24 26 27 30 32 30 30 34 38 39 40 39 38 37 36 34 33 31 29 27 25 23 23 22 21 20 19 19 18 16 14 14 14 14 13 12 11 10 9 9 10 11 11 12 12 13 14 14 14 15 16 17 18 18
42 40 35 34 33 29 27 27 26 25 27 31 33 33 31 30 33 40 42 43 42 41 40 38 36 34 32 30 28 26 26 25 24 23 23 22 21 19 18 17 17 17 16 15 14 13 12 11 11 11 12 13 13 14 14 14 15 15 16 17 18 19 20
45 42 38 37 36 33 30 29 28 27 28 31 34 34 33 31 33 40 45 45 45 44 42 40 38 36 34 32 30 29 27 26 24 23 22 22 22 21 21 20 20 19 18 18 17 15 14 14 14 14 14 14 15 15 15 15 16 17 18 19 20 21 22
47 44 42 41 39 36 33 30 28 27 26 29 32 33 33 34 34 39 46 47 47 45 43 41 39 38 36 34 33 31 28 25 24 23 23 23 23 23 22 22 21 21 21 21 20 19 18 17 17 16 16 16 17 17 18 18 18 19 20 21 22 23 25
49 46 44 43 42 38 34 30 28 26 24 26 29 31 33 35 35 38 45 48 48 46 44 42 40 38 37 37 35 32 29 27 26 26 26 26 25 25 24 23 23 24 25 24 23 23 22 20 20 19 19 19 19 20 20 21 21 22 22 23 24 25 27
51 49 47 45 42 40 36 32 30 27 26 26 28 30 32 34 34 37 44 47 47 47 45 43 41 40 39 38 35 33 31 30 30 29 29 29 28 26 25 24 25 26 26 26 26 26 24 23 22 22 22 21 21 22 23 24 24 25 25 26 26 27 29
53 51 50 47 43 41 38 35 32 30 29 29 29 29 30 32 34 37 42 46 47 48 46 43 42 41 40 39 36 34 32 32 32 31 30 30 28 27 26 26 27 28 28 28 28 27 26 26 25 25 24 24 24 24 25 27 28 28 29 29 29 29 31
54 53 52 48 44 42 41 39 36 34 32 30 29 29 31 33 36 39 43 46 48 48 46 44 44 42 41 40 37 36 35 34 33 33 32 31 30 29 28 29 29 30 30 30 30 29 28 28 28 27 27 27 27 28 28 30 31 32 32 32 32 32 32
55 54 53 49 46 45 45 44 42 38 35 32 30 31 33 35 38 41 45 47 48 48 47 46 45 44 43 41 39 38 37 36 36 35 35 33 32 32 31 31 32 32 32 32 32 32 31 31 30 30 30 30 31 31 31 33 34 35 35 35 35 34 34
57 57 55 52 50 48 48 48 45 40 38 35 32 33 36 38 39 42 46 47 48 47 48 48 47 46 45 43 41 40 39 39 38 37 36 36 35 34 34 34 34 34 33 34 34 34 33 33 33 33 33 33 34 34 35 35 36 37 37 37 37 37 37
58 59 58 55 52 50 51 50 46 42 40 37 35 34 37 40 41 43 45 47 47 47 48 48 48 48 46 44 43 42 42 41 39 39 38 37 36 35 35 35 35 35 34 35 35 35 35 35 35 35 35 36 36 37 38 38 39 39 39 39 39 40 40
57 58 58 56 53 52 53 51 47 43 41 39 38 36 38 41 42 43 45 46 47 48 49 48 48 47 46 44 43 43 42 41 40 39 39 37 37 36 36 35 36 36 35 35 35 35 36 36 36 37 37 38 39 39 40 41 41 41 41 41 41 42 43
54 55 57 56 54 54 54 49 46 46 44 42 40 37 38 41 43 44 45 46 47 48 48 48 47 46 45 44 43 43 42 42 41 40 39 38 37 36 36 36 36 37 37 36 37 37 37 38 38 38 39 40 41 42 42 43 43 43 43 42 42 43 44
52 53 54 56 55 56 54 50 47 48 48 46 42 38 37 39 41 43 45 46 47 48 48 48 47 47 46 45 45 44 43 43 42 41 40 38 38 37 37 37 38 39 39 39 39 39 39 39 40 40 41 42 43 44 44 44 44 44 44 44 44 45 46
49 50 52 55 57 58 59 56 53 52 52 51 48 44 41 40 41 42 43 45 46 47 48 48 48 48 48 47 46 45 44 43 43 42 41 40 40 39 39 39 39 40 40 40 40 40 40 40 41 41 42 43 44 44 45 45 45 46 46 46 47 48 49
46 49 52 55 58 60 62 60 57 56 55 54 53 50 46 43 43 43 42 43 44 45 47 48 48 49 48 48 47 46 45 44 44 43 42 42 41 41 40 40 40 41 41 40 40 40 41 41 42 43 44 44 45 45 46 47 48 49 49 49 49 50 52
42 45 49 54 57 59 61 61 61 60 59 57 55 53 50 47 46 45 44 43 44 45 46 47 48 49 48 48 47 46 46 45 44 44 43 43 42 42 42 42 42 41 41 41 41 41 42 43 44 44 45 45 46 47 48 49 50 51 52 52 53 53 55
40 43 46 51 56 58 60 62 62 61 60 60 58 55 53 51 49 48 47 46 46 45 45 46 47 48 48 48 47 47 46 46 45 44 44 43 43 43 43 44 43 42 42 42 42 43 44 45 45 45 45 46 47 49 50 51 52 54 55 55 56 56 57
41 41 41 46 52 58 60 62 61 58 57 59 60 58 56 54 52 50 49 48 47 46 45 45 45 46 47 47 47 47 47 46 46 45 44 44 44 44 44 45 44 43 43 43 44 45 45 45 46 46 47 48 49 51 53 54 56 57 58 57 56 55 53
38 36 38 43 50 55 59 62 63 60 56 56 57 58 58 57 54 52 51 50 49 49 47 46 45 45 45 46 46 46 46 46 45 44 44 45 45 45 45 45 45 44 44 44 45 46 46 47 48 49 50 51 52 53 55 56 56 57 56 55 53 49 47
37 37 40 44 46 50 55 60 63 63 61 58 56 57 58 58 57 56 54 53 52 51 50 49 48 47 46 46 46 45 45 45 45 45 45 46 46 46 45 45 46 45 46 46 47 48 48 49 50 51 52 53 53 54 53 53 52 51 50 48 46 44 42
39 40 43 43 42 45 50 55 58 61 62 61 60 59 59 58 57 56 56 55 54 53 52 51 50 49 48 48 47 46 46 47 47 47 47 47 47 47 47 47 47 48 48 49 49 50 50 51 52 52 52 51 50 49 48 46 45 44 43 42 41 41 40
43 44 44 42 42 44 46 48 52 56 59 60 61 61 60 59 57 56 56 56 55 55 55 53 52 51 50 50 49 49 49 49 49 49 48 48 48 48 49 49 49 50 50 50 50 50 50 50 49 48 47 45 43 42 42 41 40 40 40 40 39 39 39
46 46 45 43 44 45 44 45 48 51 54 57 59 59 59 59 59 58 57 56 56 56 56 55 54 53 53 52 52 51 51 51 51 51 50 49 49 49 50 50 49 49 49 48 48 47 46 45 43 42 41 40 39 39 39 39 39 39 40 40 39 38 38
48 47 46 45 46 45 43 44 46 47 50 52 54 55 56 57 57 57 57 57 57 56 56 55 55 55 55 54 54 53 53 52 52 51 50 49 48 47 47 46 45 44 43 43 42 40 39 39 37 37 37 37 38 38 38 38 38 39 40 40 40 39 39
49 47 46 46 46 45 45 45 44 45 45 46 48 49 51 52 52 53 53 53 53 54 53 54 54 54 54 54 53 52 51 51 50 48 46 44 43 42 42 41 40 40 39 38 37 36 36 35 35 35 36 36 37 38 38 38 38 39 41 42 42 42 42
50 49 47 46 46 47 47 45 45 44 44 44 44 45 45 46 47 47 47 47 47 47 47 47 47 47 47 46 45 45 43 43 42 41 40 39 39 38 38 38 38 37 37 37 36 35 35 35 35 35 36 36 37 38 38 39 39 40 42 43 44 44 45
53 50 49 48 47 48 48 46 46 46 45 44 44 43 43 43 43 43 43 43 43 42 41 41 40 39 39 38 37 37 37 38 38 39 38 38 37 38 38 38 37 37 37 37 37 37 37 37 37 37 37 38 38 39 39 40 40 42 43 43 44 46 47
55 52 51 51 51 51 50 48 47 47 47 46 46 45 44 43 43 42 42 42 41 40 39 39 38 38 38 37 37 38 38 38 39 40 39 39 38 39 39 39 39 39 39 39 39 39 39 39 38 38 39 39 39 40 41 41 42 43 43 44 45 48 49
59 55 54 55 55 54 52 49 48 48 48 48 47 46 45 44 44 43 42 42 41 41 40 40 39 39 40 40 40 40 40 40 40 41 40 40 40 41 41 41 41 41 41 42 42 42 42 42 41 41 41 41 41 42 43 44 45 46 45 45 47 50 52
63 58 56 57 57 57 54 52 50 49 49 49 49 48 47 46 45 44 43 43 43 43 42 42 42 42 42 42 41 41 41 41 42 42 42 42 42 43 43 44 44 44 44 45 45 45 44 44 44 44 44 44 45 46 46 48 49 49 49 49 49 51 53
66 63 60 58 59 59 58 56 54 53 52 52 51 50 49 48 47 46 45 45 45 45 45 44 44 45 44 43 42 42 43 44 44 44 44 44 45 46 46 46 47 47 47 47 47 47 47 47 47 47 47 48 48 49 50 51 52 52 52 53 52 53 54
69 67 65 62 61 61 61 60 59 58 57 55 54 52 51 51 50 49 49 48 47 47 47 47 48 47 46 46 46 46 47 48 47 46 47 47 48 49 49 49 49 49 49 49 50 50 50 50 50 50 51 51 52 52 53 54 55 55 56 56 56 55 55
70 70 69 66 64 63 63 63 62 61 60 59 57 55 54 53 52 52 51 50 50 50 50 50 50 49 49 50 51 50 51 51 50 49 51 52 52 52 52 52 52 52 52 52 53 53 54 54 53 54 54 54 55 56 56 57 57 58 58 58 58 58 58
72 71 70 69 68 66 65 65 65 64 63 61 60 59 58 56 56 55 54 54 53 53 53 53 53 53 54 54 54 54 54 54 53 53 55 56 55 55 56 55 55 56 56 56 56 57 57 57 57 57 57 57 58 58 59 59 60 61 61 61 61 60 60

ECMWFFLT1_250_spd_039.txt.gz
Wind_Speed
38 35 30 30 29 26 24 22 20 20 21 22 23 24 24 25 27 27 27 27 29 33 33 31 30 27 26 26 25 24 23 21 20 20 19 18 17 16 15 14 13 12 10 9 8 8 8 7 7 6 6 6 7 7 7 7 8 10 11 12 13 13 14
39 37 34 33 33 30 27 24 22 21 22 22 24 26 26 26 26 28 28 28 30 33 34 33 31 29 28 27 26 25 24 23 22 21 20 19 18 17 17 15 14 12 11 10 10 10 10 10 9 9 9 8 8 8 8 8 9 10 10 11 12 13 14
39 39 39 38 36 32 28 26 24 22 22 23 24 27 27 26 25 26 27 28 30 33 35 34 33 31 31 30 29 27 26 26 24 22 21 20 19 19 17 15 14 13 13 12 12 11 11 12 11 11 10 10 9 9 9 10 11 11 11 12 13 14 15
40 41 43 40 37 34 31 29 27 24 23 23 24 25 26 26 25 26 27 28 30 34 36 36 35 34 34 33 32 30 29 27 25 23 22 22 21 19 18 16 16 16 15 14 13 13 13 13 13 12 12 11 11 10 11 11 12 12 13 13 14 15 17
41 45 46 43 39 37 34 32 29 27 25 24 24 24 25 26 26 26 27 29 31 34 37 38 38 37 37 36 35 33 31 28 26 25 24 23 22 21 19 19 19 18 17 17 15 15 15 15 14 14 14 13 12 12 12 12 12 13 14 14 15 16 18
45 49 49 46 43 40 38 36 32 30 27 24 22 21 23 26 27 27 26 28 31 35 39 40 41 41 40 39 37 34 32 29 28 27 26 24 23 23 22 22 21 20 19 18 17 17 17 16 16 16 15 15 14 14 14 14 14 14 14 15 16 18 19
47 51 51 49 46 43 42 39 35 31 27 24 22 21 23 27 29 29 27 27 30 35 39 42 43 43 43 41 39 35 33 31 29 28 27 26 25 25 24 23 22 21 20 20 20 19 19 18 18 18 17 17 16 16 16 15 15 15 15 17 18 20 21
50 51 52 52 50 47 45 41 37 33 29 29 27 25 26 28 31 33 31 29 30 34 39 43 45 45 44 42 40 37 34 32 31 30 29 29 28 26 25 24 23 22 22 22 22 22 21 21 20 20 20 19 19 18 18 17 17 17 17 19 21 23 24
52 51 51 53 52 50 48 45 40 36 34 33 31 29 28 28 32 35 34 31 31 34 39 42 45 46 46 44 41 38 36 35 33 32 31 30 28 27 26 25 24 23 22 23 23 23 23 23 23 23 22 22 22 21 20 20 20 19 20 22 24 26 27
53 50 50 53 53 52 50 47 44 41 39 36 34 32 29 28 31 36 37 36 34 36 39 42 45 47 48 46 43 41 40 38 36 34 32 30 29 27 26 25 24 24 24 24 24 24 25 25 26 25 25 25 25 24 24 23 23 23 23 25 27 29 30
53 51 51 53 54 53 51 49 47 45 42 39 36 34 31 28 30 35 39 39 38 38 40 44 47 49 49 47 45 44 42 40 38 35 33 32 29 28 27 26 26 26 26 26 26 26 26 27 27 28 28 28 27 27 27 26 26 26 27 28 29 31 33
53 52 52 53 55 55 53 50 49 48 44 40 37 35 33 30 30 34 38 40 41 41 42 45 48 49 50 49 47 46 44 42 40 38 35 33 31 29 29 29 29 29 28 28 28 28 28 28 29 29 30 30 30 29 29 29 28 29 30 31 32 33 35
52 53 53 54 55 56 54 52 51 50 47 42 39 37 34 31 30 34 37 40 42 44 44 45 48 50 50 49 49 47 46 44 42 39 37 34 32 31 31 31 31 30 30 30 30 30 30 30 30 30 31 31 31 31 31 31 31 32 33 34 34 35 37
51 53 53 54 55 57 57 56 53 51 48 44 41 39 36 32 31 33 37 40 43 45 46 46 47 49 50 50 50 49 47 45 43 40 38 36 34 33 33 33 33 32 32 33 33 32 32 32 32 32 32 32 33 33 33 34 34 34 35 35 36 37 39
50 52 52 54 56 58 58 57 54 51 49 47 44 42 39 35 34 34 37 41 44 46 47 47 47 48 49 50 51 50 48 45 44 42 40 38 37 36 35 35 34 34 35 35 35 35 34 34 34 33 33 34 35 35 35 36 36 36 36 37 38 39 40
48 49 52 54 55 56 57 56 54 53 51 49 47 45 42 39 37 36 36 39 43 45 46 47 48 48 49 50 51 50 49 46 45 44 42 41 39 38 37 37 37 37 36 37 37 36 36 36 35 34 34 35 36 36 37 37 36 36 37 38 39 41 42
46 48 50 53 53 53 54 55 55 54 53 52 50 48 45 42 40 39 37 37 40 43 45 46 48 49 49 50 50 51 50 48 47 45 44 43 41 40 39 38 38 38 38 38 38 37 37 37 36 36 36 36 37 37 37 37 37 38 38 40 41 42 43
45 48 50 52 53 54 55 56 56 55 54 54 53 51 48 45 42 41 39 37 37 40 43 45 47 48 49 50 50 51 51 50 48 46 46 45 43 41 40 39 40 40 40 39 38 37 38 38 37 37 37 37 37 37 37 38 38 39 40 40 41 41 43
45 47 49 50 52 55 57 58 57 56 55 55 54 53 51 47 45 43 41 38 36 37 41 44 46 47 49 49 50 51 51 50 49 48 47 46 44 42 41 40 41 41 41 39 38 38 38 38 37 37 37 38 38 38 38 39 40 40 41 41 41 41 44
41 43 44 46 49 52 55 57 58 58 57 56 56 55 53 50 48 46 42 39 37 37 39 42 44 46 48 49 50 50 50 50 50 49 48 46 44 42 41 41 42 42 41 40 39 39 38 38 38 39 39 39 39 39 40 40 40 41 41 41 41 43 45
37 39 40 42 44 48 51 55 57 59 59 58 58 57 55 53 50 47 43 40 38 36 36 39 42 44 46 48 50 51 51 50 49 48 47 45 44 43 42 43 43 43 42 40 40 40 39 39 40 40 40 40 40 41 41 41 41 42 42 42 43 45 47
38 38 38 40 41 43 47 51 54 57 58 58 57 56 56 54 50 48 45 41 39 37 35 36 38 41 44 46 48 49 50 50 48 47 47 45 44 44 44 44 43 42 42 41 40 40 40 41 41 41 41 41 41 42 42 41 42 43 44 45 46 47 49
38 38 38 39 40 41 44 47 51 54 56 57 57 56 56 54 51 48 46 44 44 42 40 39 39 39 40 42 44 46 48 48 48 47 46 46 45 45 44 44 43 42 41 41 42 42 42 42 42 41 41 41 42 43 43 43 44 45 46 47 48 49 49
39 39 39 39 39 39 41 43 47 50 53 55 56 57 56 55 53 51 49 48 48 47 45 43 42 41 40 41 42 43 45 46 46 47 46 45 45 45 44 44 43 42 42 42 42 42 42 42 42 42 42 42 43 44 45 46 47 48 49 50 49 48 46
40 39 39 40 39 39 39 40 43 47 50 53 55 57 57 56 55 54 53 52 50 49 48 47 45 44 43 42 41 42 43 44 45 45 45 45 45 45 44 44 43 43 42 42 42 42 42 42 42 43 43 44 45 46 47 48 49 49 49 48 46 44 40
43 41 40 40 40 39 38 39 41 44 47 51 53 56 57 57 56 56 55 54 53 51 51 50 48 46 45 44 44 43 43 43 44 44 44 44 44 44 44 44 43 43 43 42 42 42 42 43 44 44 45 46 47 48 49 49 49 48 46 44 41 37 34
46 44 41 40 40 40 38 38 40 42 44 47 50 53 55 56 56 56 56 55 54 54 54 53 51 49 48 47 47 46 45 45 44 44 44 44 44 44 44 44 44 43 43 43 43 43 44 45 46 47 48 48 49 49 49 48 46 44 41 38 35 33 31
50 47 44 42 41 41 39 38 39 41 42 44 47 49 52 54 56 56 55 54 52 52 53 54 54 52 51 51 50 50 49 48 47 46 45 45 45 45 45 45 45 45 45 45 45 46 47 48 48 49 49 49 49 48 46 44 42 39 36 34 32 31 32
54 50 47 44 43 42 41 39 39 39 40 42 44 46 48 50 53 54 55 55 54 52 51 52 53 54 53 53 53 52 51 50 49 48 48 47 46 46 46 47 47 47 47 47 48 48 49 49 49 49 49 48 46 44 42 39 37 35 34 33 32 33 34
57 54 50 47 46 45 42 40 40 39 39 40 41 43 44 46 48 50 52 54 56 57 56 55 54 54 53 53 53 52 52 51 50 50 50 49 48 48 48 48 48 48 48 48 48 48 48 48 47 46 44 42 40 39 37 36 35 34 34 34 34 35 36
59 56 52 49 48 47 44 42 41 40 40 41 41 41 42 43 44 46 47 49 52 54 56 56 56 55 54 53 53 52 51 51 51 51 50 50 50 49 49 48 48 48 47 47 47 46 45 44 42 40 39 37 37 36 36 35 35 35 35 35 36 37 37
61 59 56 53 51 48 45 44 43 42 43 43 43 43 42 42 42 43 43 44 46 48 50 51 52 53 54 54 53 53 52 52 51 51 50 49 49 48 47 47 46 46 45 45 44 42 40 39 38 37 37 37 37 37 36 37 37 36 36 37 39 40 40
63 62 60 57 54 51 48 45 45 46 46 47 46 45 43 43 42 42 42 42 42 43 45 46 47 48 50 51 52 52 52 52 51 51 50 49 47 45 44 44 44 43 42 41 40 39 38 38 38 37 37 37 37 38 38 38 38 37 37 39 41 42 42
65 63 62 59 57 55 51 48 47 48 50 49 48 47 46 45 44 44 43 42 42 42 42 43 43 44 46 47 48 49 49 49 49 49 48 47 45 44 43 42 42 41 40 39 39 39 39 39 39 39 39 39 39 40 40 39 39 39 39 41 42 43 44
66 64 63 61 59 57 54 51 50 50 51 51 50 50 49 48 47 47 46 44 44 43 42 42 42 42 43 44 44 45 46 46 45 44 44 44 44 43 42 41 40 40 39 39 40 40 41 41 40 40 41 41 41 41 41 41 41 41 42 42 43 44 46
68 66 64 63 61 60 57 55 53 52 52 52 52 52 51 50 50 49 49 47 46 45 44 44 43 43 43 43 44 44 45 45 44 43 43 43 43 42 41 41 41 40 39 40 41 41 42 42 42 42 42 42 42 43 43 43 44 44 44 45 45 46 47
69 68 66 64 63 61 59 57 56 54 54 53 53 53 53 52 51 51 51 50 49 48 47 46 45 45 45 45 45 45 45 45 44 44 44 44 43 42 42 42 42 41 41 42 43 43 43 44 44 44 44 44 45 46 46 46 47 47 47 47 48 48 50
69 69 67 66 65 63 61 59 58 57 56 55 55 55 54 53 53 53 52 52 52 51 50 49 48 47 47 46 46 46 46 46 45 45 46 45 45 44 44 44 44 44 44 45 45 45 45 45 46 47 47 48 48 49 49 49 49 50 50 50 51 52 53

ECMWFFLT1_250_spd_042.txt.gz
Wind_Speed
33 32 32 31 31 30 31 31 28 25 23 22 23 25 26 26 24 24 25 26 27 27 29 30 29 28 27 26 26 27 27 26 26 25 23 22 22 21 20 19 18 18 17 16 16 15 14 13 12 12 12 11 10 9 7 7 7 8 9 10 11 12 13
35 33 33 33 34 33 33 33 31 27 25 24 24 26 28 28 26 25 25 27 28 29 30 31 31 29 28 27 27 27 27 27 26 25 24 23 23 22 21 20 19 19 18 18 17 16 15 14 13 13 13 12 11 10 9 9 8 8 9 10 11 12 14
38 35 33 34 36 35 34 35 33 29 27 26 26 27 28 28 27 26 26 27 29 30 32 33 32 31 29 28 28 28 27 27 27 26 25 24 24 23 22 21 20 20 20 19 18 16 16 15 15 14 14 13 13 12 12 11 10 10 9 10 11 12 14
42 37 35 36 37 36 35 36 35 32 30 28 27 28 28 28 29 28 28 29 30 33 34 35 34 33 31 30 29 29 28 28 27 27 26 26 25 24 23 22 22 21 21 19 18 17 16 16 16 15 15 15 15 15 14 13 12 11 10 10 11 12 14
45 41 37 36 37 37 37 38 37 35 33 30 29 28 29 30 31 31 30 31 32 34 35 35 35 35 33 32 31 31 30 30 29 28 27 26 25 24 24 24 23 22 21 19 18 18 17 16 16 16 16 17 17 17 16 15 13 12 12 11 11 12 13
47 44 39 38 39 39 39 40 39 38 35 32 30 29 30 31 32 33 33 33 33 34 35 37 37 37 37 35 34 33 32 32 31 30 28 27 26 26 26 25 24 23 21 20 19 18 18 17 17 17 17 17 18 18 17 16 15 14 14 13 13 13 14
47 47 44 42 40 40 40 41 42 40 36 34 32 31 31 32 32 33 34 34 34 35 37 38 39 39 39 37 36 35 34 33 32 31 29 28 28 28 28 27 25 24 22 22 21 20 19 19 18 18 18 19 19 18 18 18 17 17 16 16 15 16 16
49 50 48 45 42 41 41 42 43 42 38 36 36 33 31 32 33 34 36 36 36 36 38 39 39 40 39 38 37 37 36 34 33 32 31 30 30 30 30 28 26 25 25 24 23 22 21 21 20 20 20 20 20 20 20 20 19 19 19 19 18 19 19
50 51 49 47 43 41 43 44 44 44 42 40 39 35 32 33 35 36 36 37 37 37 38 39 40 40 40 40 39 38 37 36 35 35 33 33 33 33 31 30 29 28 27 26 25 24 24 23 22 22 21 21 21 21 21 21 22 22 21 21 21 22 23
51 52 50 48 45 43 44 44 44 45 46 44 41 38 35 34 34 36 37 39 39 38 38 39 40 41 42 42 42 41 40 39 38 37 36 36 36 35 33 32 31 30 29 28 27 26 26 25 24 23 22 22 22 22 23 23 24 24 24 24 24 25 26
51 52 50 48 46 45 44 43 45 48 48 47 44 41 38 36 34 35 37 39 40 39 40 40 41 42 43 44 44 43 42 41 39 38 38 38 37 36 35 35 34 32 31 30 29 28 27 26 25 23 22 22 22 22 23 25 26 26 27 27 27 28 28
50 51 50 47 46 46 46 45 47 50 50 48 47 44 41 39 36 35 36 38 40 40 40 41 42 43 44 44 46 46 44 42 41 40 39 39 38 38 38 37 35 34 33 32 31 30 29 27 26 25 24 23 23 23 24 25 27 28 29 30 30 31 30
49 50 49 47 47 47 47 48 49 50 50 49 49 47 44 42 40 37 36 38 40 41 41 42 43 44 44 45 46 46 46 44 43 41 41 40 40 40 39 38 37 35 34 33 33 31 30 29 27 26 25 25 24 25 25 26 27 29 29 31 32 32 32
47 48 47 47 47 46 46 48 48 49 51 51 51 49 46 43 42 40 37 37 39 41 43 43 43 44 45 46 46 47 47 46 45 43 42 42 43 42 41 40 39 37 36 35 34 33 31 30 29 28 27 26 26 27 27 28 29 30 30 31 32 33 33
45 47 46 46 46 45 45 48 51 52 53 53 52 50 48 45 43 41 40 38 38 40 44 46 45 45 46 47 47 47 47 47 46 45 44 45 45 45 44 42 41 39 38 36 35 33 33 32 31 30 29 29 29 29 30 30 31 31 31 31 32 33 34
45 47 47 46 46 45 45 49 53 53 53 54 53 51 49 47 45 43 42 41 39 39 41 45 47 47 48 48 48 48 47 47 46 46 46 47 47 47 46 45 43 41 39 37 36 34 34 33 32 32 32 32 31 32 32 32 32 31 31 32 32 33 34
46 48 48 46 44 44 45 47 50 51 52 53 53 52 51 49 47 45 44 42 41 38 38 41 45 47 49 49 49 49 49 49 48 47 47 47 48 48 48 46 45 43 42 40 38 36 35 34 34 34 34 34 33 33 33 33 32 32 32 32 33 33 33
45 46 46 44 42 43 44 46 48 50 52 54 54 54 53 51 49 47 46 45 43 40 37 38 40 44 47 48 49 50 50 50 50 49 48 48 48 49 48 47 47 46 44 42 40 38 37 36 35 35 36 36 35 34 34 33 32 32 32 33 33 34 34
44 44 44 42 41 42 44 46 48 49 52 54 55 55 54 52 50 49 48 46 44 42 39 37 37 39 42 45 48 49 50 51 51 50 50 50 49 49 48 48 48 48 46 44 42 41 40 38 37 37 38 37 36 35 35 34 33 32 32 33 34 35 36
42 41 41 40 39 40 43 46 48 49 51 54 56 57 55 53 51 50 49 48 46 45 43 40 37 36 38 41 44 47 49 50 51 51 51 51 50 50 49 49 48 48 47 46 45 44 42 40 39 39 39 39 38 37 36 34 33 32 33 33 35 36 37
41 39 38 38 37 39 42 45 48 51 53 56 58 59 58 56 55 52 51 50 48 47 45 43 40 37 36 38 41 44 46 49 51 52 52 52 51 51 51 50 49 48 48 47 46 45 43 42 41 41 41 40 39 39 37 34 33 34 34 34 35 36 38
41 40 39 38 37 39 41 44 47 49 52 55 57 59 59 59 57 55 53 52 50 49 47 44 41 39 36 37 39 42 44 47 49 51 51 52 51 51 51 51 50 49 49 48 47 46 45 44 44 43 41 41 41 40 37 35 34 35 35 35 35 36 38
42 40 40 39 38 38 40 42 44 46 49 52 54 56 58 58 57 56 54 53 51 49 47 45 42 40 37 36 37 39 42 44 46 48 49 50 51 51 51 50 50 50 49 49 48 48 47 46 45 43 42 42 41 40 38 36 36 37 36 36 36 37 38
43 42 41 40 38 37 38 39 41 43 45 48 51 54 56 57 57 56 54 53 51 50 48 47 44 42 40 38 37 37 38 41 42 44 46 47 49 50 50 50 49 49 49 50 50 49 48 46 45 44 44 43 42 40 39 37 37 38 37 37 38 38 39
45 43 43 41 39 38 38 38 39 40 42 45 48 51 54 56 57 57 56 54 53 51 50 49 47 45 43 41 38 35 33 35 37 39 41 44 46 48 49 49 49 49 49 50 50 50 49 47 46 45 44 43 42 41 40 39 38 38 39 39 39 40 41
46 45 45 43 42 41 40 39 39 39 40 43 45 48 50 53 55 57 57 56 55 53 52 50 49 47 44 43 40 36 33 32 34 35 37 40 43 45 47 48 49 49 50 50 50 50 49 47 46 45 43 43 42 42 41 40 39 40 40 40 41 41 42
48 48 47 46 44 43 42 40 39 38 39 40 43 45 47 50 52 54 56 56 56 56 54 52 50 48 46 45 43 40 37 36 36 36 36 38 40 42 44 46 47 48 48 49 48 48 47 46 45 44 43 42 41 41 41 41 41 41 42 42 42 43 43
50 50 49 47 46 44 43 42 40 38 38 38 40 43 44 47 49 52 54 56 57 57 57 55 53 50 48 47 46 44 42 40 39 39 38 38 38 40 41 43 44 45 46 46 46 45 45 45 44 43 42 42 42 42 42 42 42 43 43 43 44 44 43
54 53 51 49 48 47 45 43 41 39 38 38 38 39 41 43 45 48 51 53 55 57 58 57 56 53 52 50 49 48 45 44 43 42 41 41 40 40 41 42 43 43 44 44 44 43 43 43 43 43 43 43 43 44 44 44 44 44 44 44 44 43 41
57 55 53 52 51 49 47 45 42 41 39 38 38 38 38 39 41 44 47 49 51 53 55 56 57 56 54 53 52 50 48 47 46 45 44 44 44 43 44 43 43 44 43 43 43 43 44 44 44 44 45 45 45 46 46 46 45 45 45 45 44 42 41
59 57 56 54 53 51 49 46 44 42 41 39 38 38 38 38 39 40 42 45 47 48 50 52 53 53 53 53 52 51 50 49 49 48 48 48 47 46 46 46 46 45 45 45 45 45 46 46 46 46 47 47 48 48 48 47 46 45 45 45 43 42 40
61 59 57 56 55 54 52 48 46 44 42 40 39 38 39 39 38 39 39 41 42 44 46 48 49 50 51 51 51 50 50 49 49 50 51 51 50 49 49 48 48 48 47 47 48 48 48 48 48 48 49 49 50 50 49 48 47 46 45 44 42 40 38
64 61 58 57 56 55 54 51 49 46 44 42 41 40 39 39 39 39 39 39 40 41 42 44 46 48 49 50 50 50 50 49 49 49 49 50 51 51 51 51 50 50 50 50 50 49 49 49 49 50 51 51 51 51 50 48 46 45 44 42 40 38 37
66 63 60 58 57 56 54 53 52 49 46 44 43 42 40 40 40 40 39 39 39 39 39 40 42 44 47 49 51 52 52 52 52 51 51 50 50 50 51 52 52 52 52 51 51 51 51 51 51 52 52 51 51 49 47 45 43 42 41 40 39 39 38
69 65 63 61 60 58 57 56 55 53 50 48 46 44 43 42 42 42 41 41 40 40 39 39 39 41 43 46 48 50 52 53 54 54 54 54 53 53 53 54 53 53 53 53 53 53 53 53 52 52 51 50 48 47 45 43 42 42 41 41 41 41 41
70 67 65 63 62 61 61 60 58 56 54 52 49 47 46 45 45 44 44 43 43 41 40 39 39 39 41 43 45 47 48 50 51 52 53 53 54 54 54 54 54 54 54 54 54 53 53 52 51 50 49 48 47 46 45 43 43 42 42 42 43 43 43
71 68 65 64 64 63 62 62 60 59 57 56 54 51 50 48 47 47 47 46 45 44 43 42 41 41 41 41 42 43 44 46 47 48 49 50 51 51 52 52 52 52 52 52 52 51 51 51 50 50 49 48 47 46 44 43 43 43 44 44 45 45 45
72 70 69 67 66 65 64 63 62 61 60 59 58 56 53 52 50 50 50 50 49 47 46 45 44 44 43 43 43 43 43 43 43 44 45 46 46 47 48 49 49 49 49 49 49 49 50 49 48 47 47 46 46 46 45 45 45 45 46 46 47 47 47

ECMWFFLT1_250_spd_045.txt.gz
Wind_Speed
28 28 29 29 28 27 26 24 24 23 23 23 21 22 25 27 26 26 25 23 22 24 27 29 29 28 27 26 25 25 26 26 25 24 22 22 21 21 20 19 18 18 18 18 18 17 17 16 15 14 13 12 12 12 11 10 9 9 9 9 10 10 11
30 30 30 30 30 29 28 27 26 25 24 25 24 24 26 28 29 28 28 26 24 25 28 29 30 29 28 27 26 26 27 27 26 24 23 23 22 22 21 20 19 20 20 19 19 18 17 16 15 14 14 13 13 12 12 12 12 11 10 10 11 11 12
32 32 32 32 33 32 30 30 29 26 25 26 27 27 27 29 30 30 29 28 26 26 28 31 31 30 29 29 28 27 28 28 26 25 24 23 23 22 21 20 20 21 21 20 20 19 18 17 16 15 15 14 13 13 13 13 12 12 13 13 12 12 12
35 35 35 34 34 34 32 32 31 28 28 29 29 29 29 30 31 31 30 30 29 28 29 32 32 32 31 31 29 29 29 28 27 25 24 24 24 24 23 22 21 22 22 21 20 19 19 18 17 16 16 15 14 14 14 14 13 13 14 14 14 13 13
39 38 38 37 35 35 34 33 33 32 30 31 32 32 31 32 33 33 33 32 32 31 30 31 32 32 32 32 31 30 30 29 28 26 26 26 26 25 23 22 22 23 23 22 21 20 20 20 19 17 17 16 15 15 15 15 15 15 15 15 14 14 14
42 41 40 39 37 37 37 36 35 35 33 33 34 34 34 34 34 34 34 34 34 33 31 31 33 34 34 34 33 32 32 31 30 28 28 28 27 25 25 24 24 25 24 23 22 22 22 21 19 18 17 17 16 16 15 15 16 16 16 15 15 15 15
45 43 42 40 39 40 40 39 37 37 35 35 36 37 37 36 35 35 35 35 35 34 34 34 35 36 36 35 34 34 34 33 31 29 29 29 28 27 27 27 27 26 25 24 23 23 23 21 20 19 18 18 17 17 16 16 16 16 16 16 16 16 16
48 46 44 42 41 42 42 40 39 38 37 37 39 40 39 38 37 37 37 37 36 37 37 36 36 37 36 35 34 34 35 34 32 30 30 30 29 29 29 29 28 28 27 26 25 24 23 22 21 20 20 19 19 18 18 17 17 17 17 18 18 18 18
51 49 47 44 43 43 42 41 40 40 40 41 42 42 41 40 39 38 37 38 38 38 39 38 38 37 36 35 34 34 34 34 33 32 32 31 31 31 31 30 30 29 28 27 27 26 24 24 23 22 21 20 20 20 20 20 20 19 19 19 20 21 21
52 51 49 46 45 44 42 41 40 40 41 44 44 43 42 42 40 39 38 39 40 40 40 40 39 38 37 36 35 35 36 36 36 35 34 33 33 33 33 32 32 31 30 29 28 27 26 25 25 24 23 23 22 22 22 22 21 21 20 21 21 22 23
54 53 51 48 47 45 42 40 39 40 44 46 45 44 44 43 42 40 40 40 40 40 40 41 41 40 39 37 36 36 38 39 39 38 36 35 35 35 35 34 33 32 31 31 29 28 28 27 27 26 26 25 25 24 24 23 22 22 22 22 22 22 23
55 54 52 49 47 46 43 41 40 42 44 46 46 45 45 45 43 42 41 39 39 40 40 42 43 42 41 39 38 39 40 41 41 40 38 37 37 37 37 36 35 34 33 32 31 30 29 29 29 28 28 28 27 26 25 24 24 23 23 23 23 23 23
55 54 52 49 47 45 43 42 42 43 45 45 46 46 47 46 45 43 41 40 40 40 41 42 43 44 43 41 40 41 41 42 43 42 40 39 39 39 39 38 37 36 35 34 33 32 31 31 31 30 30 30 29 28 27 26 25 25 24 24 24 24 24
55 54 51 48 46 44 43 42 42 43 44 45 47 48 48 48 46 44 43 41 40 40 41 42 43 43 43 43 42 42 42 42 42 42 42 41 41 41 41 40 39 38 37 37 36 34 33 33 32 31 31 31 30 29 28 27 27 27 26 26 25 25 25
55 53 50 47 45 44 42 42 42 43 44 45 47 48 49 49 48 46 44 43 41 41 41 42 43 44 44 44 44 43 42 42 42 42 43 43 43 44 43 42 41 40 39 39 37 36 35 35 33 32 32 31 31 30 30 29 29 29 29 28 28 27 27
54 52 48 46 45 44 43 42 42 43 43 44 46 48 50 50 50 48 47 45 44 42 42 42 43 45 45 45 44 43 42 42 42 42 43 45 46 46 45 44 43 42 42 40 39 38 37 36 34 33 32 32 32 31 31 30 30 30 30 30 30 30 29
52 50 47 46 45 44 43 41 41 42 43 44 46 48 50 51 51 50 49 48 46 44 43 42 43 44 45 45 44 43 43 43 43 43 44 46 47 47 46 45 45 44 43 42 41 40 39 37 36 34 33 33 33 32 31 31 31 31 32 32 32 32 31
51 49 47 46 45 43 41 40 41 42 43 45 47 48 50 52 52 52 51 50 48 46 44 43 42 42 43 44 44 44 43 44 44 44 45 46 47 47 47 47 47 46 45 44 43 41 40 39 37 36 35 35 34 33 32 32 32 32 33 33 33 33 32
51 50 48 47 45 42 41 41 42 44 45 46 48 49 50 51 53 53 53 52 50 48 47 45 44 42 42 42 43 44 45 44 44 45 46 46 47 47 47 48 48 48 47 46 45 43 42 41 40 38 38 37 36 34 34 34 34 34 35 35 35 34 34
50 49 47 45 43 41 40 41 42 44 45 46 48 49 50 51 53 53 53 52 51 50 49 47 46 44 42 41 42 43 44 45 46 46 46 46 46 47 48 49 50 50 49 48 46 45 44 42 41 41 40 39 38 37 37 37 36 37 37 36 36 36 36
50 48 46 43 42 41 41 41 43 44 45 46 47 48 49 51 52 52 52 52 52 51 51 50 48 46 44 42 41 41 41 43 45 46 46 46 47 47 49 50 50 50 50 49 48 47 45 43 41 42 42 41 41 40 40 40 39 39 39 38 37 38 37
50 49 46 44 43 42 42 42 43 44 46 46 47 48 50 52 53 53 53 53 53 52 52 51 50 48 46 44 42 40 38 38 40 43 45 46 47 48 49 50 51 51 51 50 50 48 46 44 43 42 42 42 42 43 43 42 41 41 40 39 39 40 39
52 50 48 46 44 43 42 43 43 45 46 47 48 49 51 53 53 54 55 55 55 54 53 52 52 51 48 46 44 41 38 37 37 38 40 43 45 47 48 50 51 51 52 52 51 50 49 46 44 43 43 43 43 44 44 43 42 42 41 40 40 41 40
54 52 50 48 45 43 43 44 44 44 45 47 48 50 52 53 53 55 56 57 57 56 55 54 53 52 50 48 45 43 40 38 37 36 37 39 41 44 46 48 49 50 52 53 53 52 51 49 46 45 45 45 46 46 45 44 43 42 42 41 41 41 41
56 54 52 49 47 45 45 45 45 44 45 46 48 49 50 50 50 53 54 56 57 57 57 56 54 53 52 49 47 45 43 41 39 38 37 38 39 41 43 45 47 48 50 52 53 53 52 50 48 47 48 48 48 47 46 45 43 43 43 42 41 41 41
57 56 54 51 48 46 45 45 45 45 44 45 46 48 47 46 48 50 52 54 55 56 56 56 54 53 51 50 48 47 46 44 43 41 39 38 37 39 41 43 44 45 47 49 51 52 52 51 50 49 49 48 48 47 47 46 44 44 44 43 42 41 40
58 57 55 52 49 47 46 45 45 44 44 43 44 44 44 44 45 47 48 50 52 54 55 55 54 53 52 50 49 49 47 46 45 43 41 37 36 37 39 41 42 43 44 46 48 49 50 50 49 49 49 48 47 47 47 46 45 44 44 43 42 41 40
58 57 55 53 51 48 46 45 45 44 43 42 41 40 40 41 42 43 44 45 47 50 52 53 53 53 53 52 51 49 49 48 47 46 43 39 36 37 38 40 41 42 43 44 46 47 48 48 49 49 49 48 47 47 47 46 45 44 43 43 42 41 40
59 58 56 54 52 49 47 46 45 44 43 42 41 39 38 38 39 41 43 44 46 48 50 52 53 54 54 54 53 52 50 50 48 47 45 41 38 37 37 38 40 42 43 44 44 45 46 47 47 48 48 47 46 46 46 46 45 43 42 42 42 41 41
59 58 57 55 53 51 49 47 46 45 44 43 41 40 38 37 37 38 40 42 45 47 49 50 52 53 54 54 54 53 52 51 50 49 47 44 41 40 38 38 39 41 42 42 43 43 44 45 45 46 46 45 44 45 44 44 43 42 42 42 42 42 43
60 59 58 57 55 53 51 49 48 47 46 44 42 40 38 37 37 37 38 39 41 44 46 48 50 52 53 54 55 55 54 53 52 51 49 47 45 44 43 40 39 41 41 41 41 42 43 43 43 43 43 43 42 42 42 42 42 42 43 43 44 44 45
62 60 59 58 57 56 53 51 50 48 47 46 43 41 39 37 37 37 38 38 39 41 43 45 48 50 51 53 54 55 55 54 53 52 51 49 48 48 47 45 43 43 43 43 43 43 43 43 43 43 43 42 42 42 42 42 43 44 45 46 46 47 47
63 62 60 59 59 58 56 53 52 50 48 47 45 43 41 39 38 38 39 39 39 40 41 42 45 47 49 51 53 54 54 54 54 53 52 51 50 51 51 49 47 46 46 46 45 45 45 45 45 45 44 44 44 44 44 44 46 47 48 49 49 49 49
65 63 62 61 60 61 59 56 54 52 49 48 47 46 45 43 42 41 40 40 40 40 40 41 42 44 46 48 51 52 53 54 54 54 53 53 52 53 54 53 52 50 49 49 48 48 48 48 48 48 48 48 47 47 47 48 50 51 51 51 51 51 51
66 65 63 62 62 63 62 59 57 54 52 50 50 49 48 47 46 44 43 42 41 40 40 41 41 42 43 45 47 50 52 53 54 54 54 55 55 56 56 56 55 54 53 52 52 51 51 51 51 51 50 51 51 51 51 52 53 53 53 53 53 53 52
68 66 64 63 62 63 63 62 59 57 55 53 52 52 51 49 48 47 45 44 43 41 41 40 40 40 41 42 43 45 48 49 51 52 53 54 55 56 56 56 56 55 55 54 54 54 54 54 54 54 54 53 53 53 54 54 55 55 55 55 55 54 53
69 68 66 64 63 63 64 64 62 60 58 57 55 54 53 51 50 48 47 46 45 44 43 42 41 40 40 40 40 41 42 44 45 47 49 51 52 53 54 54 55 54 54 54 54 54 54 55 55 55 55 55 55 55 55 56 56 56 56 56 56 55 54
70 70 69 67 65 64 64 65 65 63 61 59 58 56 55 53 52 51 50 49 48 46 45 43 43 42 41 40 40 40 40 40 41 43 45 47 48 50 51 52 53 53 54 54 54 54 54 55 55 56 55 56 56 56 57 57 57 56 57 57 56 55 54

ECMWFFLT1_250_spd_048.txt.gz
Wind_Speed
26 25 26 25 23 23 22 21 20 19 18 19 19 18 18 18 17 20 22 21 19 20 21 23 23 23 23 24 24 23 24 24 23 23 22 22 21 20 18 17 16 15 14 13 13 12 12 11 10 10 10 10 9 9 8 7 7 6 6 7 8 9 9
28 27 27 27 26 25 24 23 23 22 21 20 20 21 20 20 19 19 21 22 22 22 23 24 24 23 23 24 24 24 24 25 24 24 23 23 22 21 20 18 17 16 15 14 14 13 13 12 12 11 11 11 10 9 9 8 8 8 8 9 9 10 10
30 30 29 29 29 27 26 25 25 24 24 23 22 22 22 22 22 20 20 22 23 24 24 25 26 24 24 24 25 25 26 26 26 25 24 23 23 22 20 19 18 18 17 15 15 15 14 14 13 12 12 11 10 9 9 9 9 9 10 10 11 11 11
33 32 31 31 30 28 27 27 26 26 26 26 24 24 24 24 24 22 21 22 24 26 26 27 27 26 25 26 26 26 27 27 27 25 24 24 24 23 22 21 20 19 18 17 17 16 15 15 14 14 13 12 11 10 10 10 10 11 11 12 12 13 12
35 34 32 31 30 30 30 29 28 28 29 29 27 27 26 26 26 25 24 23 25 26 27 27 27 27 27 27 27 27 28 28 27 26 25 26 26 25 24 23 21 20 20 19 18 17 17 16 15 15 14 13 12 12 11 11 11 11 12 12 13 13 13
36 35 34 33 32 32 32 32 31 31 31 31 30 29 28 28 28 28 26 25 25 26 27 29 29 29 29 28 28 28 29 29 29 27 27 27 28 27 26 24 23 22 22 21 20 19 18 18 17 16 15 15 13 13 12 11 11 11 11 12 12 13 14
38 37 36 36 35 34 35 34 34 33 32 32 32 31 30 30 30 30 29 27 26 26 29 31 32 32 32 31 30 29 31 31 30 29 27 28 28 28 27 26 25 24 24 24 22 21 20 19 18 17 17 16 15 13 12 12 12 11 11 12 13 14 15
40 39 39 38 37 37 36 36 36 34 33 34 34 34 33 33 32 32 32 30 28 28 30 33 33 34 33 32 31 31 32 32 31 30 28 28 28 28 28 27 26 27 26 25 24 22 21 21 20 19 18 17 16 14 13 13 13 12 13 14 14 16 17
42 41 41 40 40 38 37 38 37 36 35 35 36 36 35 34 34 34 34 32 31 30 31 33 35 35 34 33 32 31 31 32 32 31 30 29 28 29 29 28 28 28 27 26 25 24 23 22 21 20 19 18 17 15 15 14 14 14 14 15 16 17 17
44 43 42 41 41 40 39 39 38 36 36 37 38 37 37 36 36 36 35 34 33 33 32 32 34 36 36 35 33 31 31 32 33 32 32 30 29 30 30 30 30 29 28 28 27 26 24 23 23 22 21 19 18 17 16 16 16 16 16 16 16 17 17
46 44 43 42 41 40 40 40 39 37 37 39 39 38 38 38 37 37 37 37 36 35 34 33 34 36 37 36 34 33 33 33 34 35 34 32 31 31 31 31 31 31 30 30 28 27 26 25 24 23 22 21 20 19 18 18 17 17 17 17 17 17 17
48 47 45 43 42 41 41 41 41 40 40 41 40 39 39 38 38 38 38 39 38 36 35 35 35 36 38 37 35 35 35 36 37 38 37 34 33 33 33 33 33 32 31 31 29 29 28 27 26 25 24 23 22 21 20 19 19 19 19 19 18 18 18
51 49 47 45 43 42 42 43 43 42 43 43 42 41 40 39 39 39 40 40 39 38 37 37 37 37 38 38 38 37 37 38 39 39 38 36 35 34 34 35 34 33 32 32 31 31 30 29 27 27 26 25 24 23 22 21 21 21 20 20 19 19 19
54 51 49 47 44 44 44 45 44 44 44 44 43 42 41 40 39 39 40 40 40 40 39 39 38 38 38 39 40 40 40 40 40 39 38 36 35 36 36 36 36 34 34 34 34 33 32 30 30 29 28 27 26 25 24 23 23 22 21 21 20 20 20
56 53 50 48 46 45 46 46 46 45 45 45 44 43 41 40 40 40 41 41 42 42 41 40 40 39 39 39 41 41 41 40 40 39 39 38 37 37 38 38 37 36 36 36 36 35 33 32 32 31 30 29 28 27 26 25 24 23 22 21 21 21 21
57 55 51 49 47 47 47 48 47 46 46 46 45 43 41 41 42 42 42 43 44 44 44 43 42 41 40 40 41 41 40 40 40 40 40 39 39 39 39 39 39 38 38 38 37 36 35 35 35 34 32 31 30 30 29 28 26 25 23 22 22 22 22
58 55 52 50 49 48 48 48 47 47 47 47 45 43 41 41 42 43 44 45 46 46 46 45 43 42 42 41 40 40 39 40 40 40 40 40 40 40 40 40 40 40 39 39 38 38 38 38 38 36 34 33 33 32 31 30 28 26 25 24 24 24 23
58 56 53 51 50 48 48 47 47 47 47 46 45 43 42 42 42 43 44 46 47 47 47 46 45 44 43 41 40 39 40 40 40 40 41 41 42 42 42 41 41 41 41 41 40 40 40 40 40 38 37 36 36 35 34 33 31 29 28 27 27 26 25
58 56 53 51 50 49 47 46 46 47 46 46 45 44 43 43 43 44 46 47 48 48 48 48 47 45 43 42 41 40 40 40 41 41 42 42 42 42 42 42 43 43 43 42 41 41 42 42 41 40 40 39 39 38 36 35 34 33 31 30 30 29 29
58 56 53 51 50 49 47 45 46 47 46 46 46 45 45 44 45 45 46 47 47 48 49 49 48 47 45 43 42 41 40 39 40 42 43 43 42 42 42 43 44 44 44 43 43 43 44 43 42 42 42 42 41 40 39 38 37 36 34 33 33 33 32
58 56 53 51 49 48 46 46 46 46 46 46 46 46 45 45 45 45 46 47 47 48 48 48 48 48 46 45 44 43 41 40 40 41 42 43 43 43 43 43 44 44 44 44 44 45 45 44 44 43 43 43 43 42 42 41 39 38 37 35 35 35 35
58 56 53 51 50 48 48 48 47 47 47 47 46 45 45 44 44 44 46 47 47 47 48 48 48 48 48 47 47 45 43 42 41 41 41 42 43 43 43 43 43 43 43 44 45 46 46 45 45 45 44 44 44 44 44 43 41 39 38 37 37 37 36
58 56 54 51 50 49 49 49 47 47 48 47 45 45 45 44 43 44 45 45 46 47 47 48 49 50 50 50 49 47 45 43 42 42 41 42 42 43 43 43 43 43 43 44 45 45 46 46 46 45 45 45 45 45 45 44 42 41 39 38 38 38 38
58 56 53 51 49 49 48 47 47 47 47 46 45 45 45 44 44 44 44 45 46 47 48 49 50 51 51 51 50 49 48 45 44 43 43 42 42 42 42 42 42 43 44 45 46 46 46 46 46 46 46 46 46 46 46 44 43 42 41 40 39 39 39
58 56 54 51 50 49 49 47 47 47 47 46 45 45 45 44 43 44 45 46 47 47 49 50 51 52 52 52 52 51 50 48 47 46 45 44 43 42 40 39 39 41 43 45 46 46 46 46 47 47 47 47 47 47 46 45 44 44 43 42 41 41 42
58 56 54 52 50 50 49 48 48 47 47 46 45 45 44 43 43 44 45 45 46 47 49 51 51 52 52 52 53 53 52 51 50 48 47 46 45 43 41 39 38 38 40 42 44 45 45 46 47 47 47 48 47 47 46 46 45 45 46 45 43 43 43
58 57 55 53 51 51 50 49 49 48 47 46 45 44 43 42 43 43 44 43 44 46 47 49 50 51 52 52 53 53 53 52 51 50 49 48 46 45 43 40 39 38 39 39 41 42 43 45 46 46 46 46 46 46 45 45 45 45 46 46 45 44 44
59 58 56 54 52 51 51 50 49 48 47 46 45 43 42 42 42 42 42 42 43 45 46 47 48 49 51 52 52 52 52 51 51 51 50 49 47 46 45 43 42 41 40 40 40 41 42 43 44 44 44 44 44 44 43 43 44 44 44 45 45 45 44
60 59 57 55 54 52 51 50 49 48 47 46 45 43 43 42 42 42 42 42 44 45 45 46 47 48 49 50 50 50 50 50 50 50 50 49 48 47 46 44 43 43 42 41 41 41 41 42 42 43 43 43 43 42 42 42 42 42 42 43 44 44 44
61 60 58 56 55 53 51 49 48 48 48 47 45 44 43 43 43 43 43 43 44 45 46 46 47 48 49 50 50 50 50 51 51 51 51 51 50 49 48 46 45 45 45 44 43 42 42 42 42 43 43 43 42 42 42 41 41 41 42 42 43 44 44
61 61 59 57 55 54 51 50 49 49 48 48 46 45 44 43 44 44 43 43 44 45 46 46 47 49 49 50 51 51 52 52 53 54 54 54 53 53 51 50 48 48 48 48 47 46 45 44 43 44 44 43 43 42 41 41 41 42 42 42 42 43 44
62 61 60 58 56 54 52 51 50 49 49 48 47 46 45 44 44 44 43 43 43 43 43 44 46 48 49 50 51 52 52 53 54 55 56 56 56 55 54 52 52 51 51 51 51 49 48 46 44 44 44 43 42 42 41 41 41 42 43 42 41 42 42
63 62 60 59 57 55 54 52 51 51 50 49 48 47 46 45 45 45 44 43 42 41 41 41 43 45 46 47 49 50 52 53 54 55 56 56 56 56 55 54 54 54 53 53 52 51 49 47 44 43 43 42 42 41 40 41 42 42 43 42 41 41 41
63 62 61 60 58 57 55 54 53 52 51 49 49 47 47 47 46 46 44 43 41 40 39 39 40 42 43 44 46 47 49 50 51 52 53 55 55 55 55 56 56 55 55 54 53 52 50 48 46 45 44 43 42 42 42 42 43 43 43 42 42 42 42
64 63 62 61 60 58 57 56 55 53 51 50 49 49 48 48 48 47 46 44 42 40 39 38 39 40 41 43 45 46 47 48 48 49 50 52 53 54 55 55 56 56 56 55 55 54 53 51 50 49 48 47 46 45 45 45 45 45 45 45 44 44 45
67 65 63 62 62 60 58 57 56 55 53 52 51 50 49 49 49 49 48 46 44 43 41 40 39 39 40 41 43 45 46 48 49 49 49 50 51 52 54 55 56 56 56 56 56 55 54 54 54 53 52 52 50 49 48 48 48 47 47 47 48 48 48
68 67 65 64 63 62 60 58 57 56 55 53 53 52 51 51 51 51 50 48 47 46 44 42 41 41 40 40 41 42 44 45 47 48 49 49 50 52 53 54 55 56 56 56 56 55 56 56 55 55 55 55 54 53 52 51 51 50 50 51 52 52 52
69 68 66 65 63 62 61 60 58 58 57 55 54 54 52 52 52 52 52 51 50 49 48 46 44 43 42 41 41 41 42 44 45 46 47 48 49 51 52 53 54 55 55 55 55 56 56 57 57 57 57 57 56 56 55 55 55 55 55 55 55 55 56

ECMWFFLT1_250_spd_051.txt.gz
Wind_Speed
26 24 22 22 21 20 17 16 16 15 15 15 14 14 13 12 12 12 13 14 15 16 17 20 21 21 21 21 21 22 23 23 23 22 21 20 20 18 17 16 15 13 12 11 11 10 10 9 9 9 8 8 7 6 5 4 4 5 5 6 7 8 9
29 27 27 26 26 24 21 19 19 18 17 17 16 16 15 14 14 13 13 13 15 16 18 19 21 21 20 20 21 22 23 23 22 21 21 21 20 19 19 18 17 15 15 14 13 11 11 10 10 10 9 9 8 7 6 5 5 5 6 7 8 9 10
32 31 30 30 29 28 25 23 22 20 19 19 18 17 16 16 16 15 14 14 14 16 18 20 21 21 21 21 21 21 22 23 23 22 21 20 20 19 20 19 18 18 17 15 14 13 12 11 11 11 10 9 9 8 7 6 6 6 6 7 8 9 10
34 33 32 32 31 29 27 25 24 22 21 21 20 19 18 17 17 17 17 16 16 17 19 21 21 21 21 22 22 22 23 23 23 22 21 20 21 21 21 21 20 19 18 17 16 16 14 13 12 12 11 11 10 9 8 7 7 6 6 7 7 8 9
37 35 34 34 32 30 28 28 27 25 24 23 22 21 20 19 19 19 19 18 18 19 19 20 21 21 22 23 24 23 23 24 24 22 22 22 22 23 22 22 21 20 20 19 19 18 16 15 14 13 12 12 11 10 9 8 8 7 6 6 6 7 8
39 38 36 36 34 32 30 30 29 28 26 24 23 22 21 20 20 20 20 20 20 19 19 20 22 23 24 25 25 25 24 25 25 24 24 24 24 24 23 22 22 22 22 21 20 19 18 17 15 14 14 13 12 11 10 9 8 7 6 6 6 7 9
40 39 38 37 36 34 32 31 31 29 28 25 24 23 23 22 21 21 22 22 22 21 21 22 23 25 26 26 26 26 26 27 26 26 26 25 26 25 24 24 23 23 23 23 22 21 20 18 17 16 15 14 13 12 11 10 9 8 7 7 8 9 10
41 40 39 38 36 35 34 33 32 31 29 27 26 25 25 23 23 22 23 23 23 23 23 24 24 26 27 27 26 27 28 28 28 27 27 26 26 26 26 25 24 24 24 24 23 23 21 20 19 18 16 16 15 14 12 12 11 9 8 8 9 10 11
42 42 41 39 38 37 36 34 34 31 30 29 28 26 25 24 24 23 23 23 24 25 25 25 25 26 27 27 27 27 27 28 29 29 28 28 27 26 27 26 25 26 25 24 24 24 23 21 20 19 18 17 16 15 15 14 12 11 10 9 10 11 12
44 43 42 40 40 39 37 36 34 32 30 30 29 27 26 25 25 24 24 25 26 26 26 27 27 27 27 28 28 27 27 29 30 30 30 29 28 27 27 26 26 27 26 25 25 24 23 23 22 21 20 19 18 18 17 16 14 13 11 11 11 12 13
45 44 43 42 42 41 39 37 35 33 32 32 30 29 28 27 26 25 25 26 27 27 27 28 28 28 29 29 28 27 28 29 31 32 31 30 28 27 27 27 27 27 26 26 26 25 24 24 23 22 21 21 20 20 19 17 16 15 14 13 13 13 13
46 45 44 43 43 42 40 37 35 34 34 33 32 31 29 28 27 27 27 27 27 27 28 29 30 30 30 30 29 28 29 30 32 33 33 31 29 28 27 27 28 27 27 27 26 25 25 25 25 24 23 23 23 22 20 19 18 17 16 15 15 15 15
47 45 44 44 43 42 40 38 37 35 35 35 33 32 31 30 29 28 28 28 28 28 29 30 31 31 32 31 31 30 30 31 32 33 33 32 30 29 29 29 29 28 28 27 27 27 26 26 26 25 25 25 25 23 22 21 20 19 18 17 16 16 17
47 46 46 45 44 43 41 39 38 37 37 36 34 33 32 31 30 30 30 30 29 29 30 31 32 33 33 33 33 33 32 33 33 33 33 32 31 31 32 32 31 30 29 29 29 28 28 27 27 27 27 28 27 25 24 24 22 22 21 20 18 18 18
48 47 47 46 45 44 43 41 40 39 39 38 36 34 34 33 32 31 31 31 31 31 32 32 33 34 35 35 35 35 35 34 33 32 33 33 32 33 34 35 33 32 31 30 30 30 29 28 28 29 30 29 28 27 27 26 25 24 24 22 21 20 20
49 49 48 47 45 44 43 42 42 41 40 39 37 35 35 35 34 33 33 33 33 34 34 35 36 36 37 37 37 37 36 34 33 32 32 33 33 34 35 36 36 34 33 33 32 31 30 30 30 31 31 31 30 29 29 28 27 27 26 25 23 22 22
51 51 49 47 46 45 44 43 43 42 42 40 38 37 37 36 35 34 35 35 35 36 36 37 38 38 39 39 39 38 36 35 34 33 33 33 33 34 35 37 37 37 36 35 34 33 32 32 33 33 32 32 32 32 31 30 29 29 28 27 26 25 25
53 52 51 49 47 46 45 44 44 44 43 42 39 38 38 38 36 35 36 37 37 38 38 39 40 40 40 40 39 38 37 36 36 35 34 34 34 34 35 37 38 39 39 38 36 35 34 34 35 34 34 34 34 34 33 32 31 32 31 29 29 29 28
55 54 53 50 48 47 46 45 45 45 44 43 41 39 39 39 37 37 38 39 40 40 40 40 41 41 41 40 39 39 39 38 37 37 36 35 34 35 35 36 37 40 41 40 39 37 37 37 37 36 36 36 36 35 35 34 34 34 33 32 32 32 32
56 55 53 51 49 48 47 46 46 46 45 44 42 41 41 39 38 38 39 40 40 41 41 41 41 41 41 41 41 41 41 40 39 38 37 36 35 35 36 36 37 39 41 41 40 40 40 39 39 38 38 38 37 37 36 36 36 36 35 34 34 34 35
57 55 55 53 51 50 49 47 47 46 45 44 42 42 41 39 39 39 40 40 41 41 41 41 41 41 41 41 41 41 41 41 41 39 38 37 36 36 37 38 38 38 39 40 41 41 41 40 40 39 39 40 39 39 38 38 37 37 37 36 36 37 37
58 57 56 54 52 51 50 48 48 47 46 44 43 43 42 41 41 41 41 42 42 42 42 41 41 41 42 42 42 41 42 42 42 41 39 38 38 38 38 38 38 37 37 38 39 40 40 41 41 41 41 41 41 41 41 40 39 39 39 38 38 39 40
59 58 57 55 53 52 51 50 49 47 46 45 45 44 44 43 43 43 43 43 43 42 42 41 41 41 42 42 42 42 43 43 44 43 42 40 40 40 40 39 38 37 37 37 39 39 40 40 40 41 41 42 42 43 42 42 41 42 42 41 41 41 42
61 59 58 56 54 53 52 50 49 47 46 46 45 45 44 44 44 43 43 42 42 42 42 41 41 42 42 44 44 44 45 45 45 45 44 43 43 42 42 41 39 37 37 38 39 39 40 39 39 39 40 42 43 44 44 43 43 43 43 43 43 43 43
62 60 58 56 56 54 53 51 49 47 47 47 45 44 44 45 44 43 42 42 42 42 42 41 42 42 44 45 46 46 46 46 46 46 46 46 46 45 43 42 41 39 38 37 38 39 39 39 39 40 40 41 42 43 43 43 43 43 44 43 43 44 44
64 61 59 58 57 55 53 51 49 48 48 46 45 45 45 45 44 43 42 42 41 42 42 42 42 43 44 45 46 46 46 46 47 47 48 49 48 47 45 44 43 41 39 38 38 38 39 40 40 41 41 42 43 44 44 43 42 43 43 43 43 44 44
66 64 62 60 58 57 54 52 50 49 48 46 45 46 46 45 44 43 42 41 42 43 44 43 43 43 44 45 45 46 46 47 47 48 49 50 49 48 47 46 45 43 41 39 39 39 39 40 40 41 41 42 43 44 44 44 43 43 43 43 43 43 44
68 66 64 62 60 58 55 53 52 50 47 46 47 47 46 45 44 43 42 43 44 45 44 43 42 43 44 44 45 45 46 46 47 48 49 49 49 49 49 48 47 45 44 42 41 41 41 41 41 41 40 40 41 42 42 42 42 41 42 43 42 42 43
68 67 66 64 62 60 57 55 52 49 47 47 48 48 46 45 44 43 43 44 45 44 43 42 42 43 43 44 44 44 44 44 45 46 48 49 49 50 50 49 48 47 45 44 44 44 43 43 43 42 41 40 40 39 39 39 38 38 40 41 41 41 42
69 68 67 66 64 62 59 56 52 49 47 48 49 48 47 46 45 45 45 45 45 44 42 41 42 43 43 43 43 42 43 43 43 44 46 48 49 50 50 50 49 48 47 46 47 47 47 46 46 45 44 42 41 40 39 38 37 37 37 38 39 40 41
70 69 68 67 65 63 60 57 53 50 49 50 50 49 48 47 46 46 46 45 44 43 42 41 42 43 43 43 43 43 43 44 44 45 46 47 48 49 50 50 50 50 50 49 49 50 50 49 48 48 47 46 45 44 42 41 39 38 38 38 39 40 41
72 70 68 67 66 64 61 58 55 51 50 51 52 50 49 48 47 46 46 45 44 43 42 42 43 43 44 44 44 44 44 44 45 46 46 46 47 48 49 50 51 51 52 52 52 53 52 52 51 51 50 49 48 46 45 43 42 41 40 39 40 41 42
72 71 69 68 67 65 63 60 56 53 52 52 52 51 50 49 48 47 46 45 45 44 42 42 43 44 44 44 44 44 44 45 45 46 46 47 48 48 49 50 52 53 54 55 55 55 54 54 53 52 52 50 49 48 46 45 44 43 43 42 41 42 42
73 71 70 68 67 66 63 61 58 55 53 53 53 52 51 50 48 47 46 46 45 43 43 43 43 43 43 43 43 43 44 44 45 45 46 48 49 49 50 52 53 54 55 55 55 55 55 54 54 53 53 52 50 50 49 48 47 46 45 44 43 43 42
72 71 69 68 67 66 64 62 60 57 54 54 54 54 53 51 49 47 46 46 45 43 42 43 43 43 43 42 42 42 42 43 44 45 46 48 49 50 51 53 54 54 55 55 55 55 56 56 55 55 54 53 53 52 50 49 48 47 47 45 44 44 44
70 69 68 67 66 65 63 62 61 59 57 56 55 54 53 52 50 48 47 46 44 43 43 43 43 42 42 42 41 41 42 42 43 45 46 48 50 51 52 54 55 55 55 55 55 56 56 56 57 57 56 55 55 54 52 51 50 49 48 47 46 45 45
70 68 67 67 65 64 63 62 61 60 59 58 57 55 54 53 51 49 48 46 45 44 43 43 43 42 42 42 42 42 41 42 42 43 44 46 48 50 52 53 54 55 55 55 56 56 57 57 57 57 56 56 56 55 55 54 52 51 50 49 48 47 47
70 69 68 67 66 64 63 63 62 60 60 59 58 57 55 54 52 50 48 47 46 45 45 44 44 44 43 43 42 42 41 41 42 42 41 42 44 46 47 49 50 51 52 53 55 56 56 56 56 56 56 56 56 55 55 54 53 53 52 51 51 50 50

ECMWFFLT1_250_spd_054.txt.gz
Wind_Speed
24 22 22 21 21 19 18 18 19 18 18 18 17 16 15 14 13 13 14 15 15 15 17 19 20 21 22 23 23 23 24 24 24 23 21 19 18 16 15 14 13 12 10 8 8 7 7 6 6 6 6 5 5 5 5 5 5 5 6 7 7 8 9
28 27 26 25 24 23 22 22 22 21 21 20 19 19 17 15 14 13 13 14 15 15 16 17 19 20 20 20 21 23 24 25 25 24 22 21 20 18 17 16 16 15 13 12 10 9 8 8 8 8 8 7 7 6 6 6 5 5 7 7 8 8 9
32 31 30 29 28 27 25 25 25 23 22 22 21 20 18 17 15 14 14 14 15 16 16 17 18 19 20 20 20 22 24 25 25 24 23 21 19 18 19 18 17 17 16 14 12 11 10 10 9 10 10 10 9 8 7 7 6 6 7 8 8 8 8
35 34 33 33 32 29 28 27 26 25 24 23 22 21 20 19 18 16 16 16 16 17 17 18 17 17 19 21 21 21 23 24 25 24 23 21 20 20 20 20 19 18 17 16 15 14 13 12 11 11 11 11 11 10 9 8 7 6 7 8 8 7 7
39 38 37 35 34 32 30 29 28 27 26 24 23 23 22 21 20 19 18 18 18 18 18 18 17 16 18 20 22 23 23 24 24 23 22 22 22 22 21 21 20 19 18 18 17 16 15 14 13 13 13 13 13 12 11 10 9 8 8 8 7 6 6
42 41 40 38 37 35 33 32 30 29 27 26 24 23 22 22 21 21 20 20 19 19 18 18 19 19 19 20 22 24 25 25 25 24 23 24 24 24 23 22 21 20 20 20 19 18 17 16 15 14 14 14 14 14 13 12 11 10 9 9 8 7 7
46 44 43 41 39 37 35 34 32 31 29 26 25 24 24 23 22 22 21 21 20 19 19 20 20 21 22 22 22 24 26 27 27 26 25 25 26 25 24 23 22 22 21 21 20 19 18 17 17 16 16 16 16 16 15 14 12 11 11 10 9 8 7
48 46 45 43 41 39 37 35 34 32 30 28 26 26 26 25 23 23 22 21 21 20 21 21 22 22 22 23 23 24 26 27 28 27 27 27 27 26 26 25 24 24 23 22 22 20 19 19 19 18 18 17 17 17 16 16 14 13 12 12 11 10 9
50 48 47 44 42 41 39 37 36 34 32 30 29 28 26 25 25 24 22 21 21 21 21 22 22 22 22 23 23 23 24 26 27 28 28 28 28 27 27 26 26 25 25 24 23 22 21 20 20 19 19 19 18 18 18 18 17 15 14 14 13 12 11
52 49 48 46 44 43 41 39 36 34 33 32 31 29 28 27 26 25 24 22 22 21 21 21 21 22 23 23 23 22 23 24 26 27 28 29 29 28 28 28 27 27 26 25 25 24 23 22 22 21 20 20 20 20 20 20 19 17 16 16 15 14 13
53 50 49 47 46 44 42 40 37 35 35 34 33 32 31 29 28 27 26 25 23 21 20 21 22 23 24 24 23 23 24 25 26 27 28 29 28 29 29 28 28 28 27 26 26 25 24 24 23 22 21 21 21 21 22 22 20 19 18 18 17 17 16
54 52 51 49 46 44 42 41 39 37 37 36 35 34 33 32 30 28 27 26 24 22 21 21 22 23 23 24 24 24 25 26 27 28 29 29 28 28 28 29 29 28 28 27 27 26 25 25 24 23 22 22 22 23 23 23 22 21 20 20 19 19 18
55 53 51 49 47 45 43 42 41 40 40 39 37 36 35 33 31 29 28 27 25 23 22 22 22 23 23 24 25 26 26 27 28 30 30 29 28 27 28 29 30 29 28 28 28 27 26 26 25 24 23 23 24 24 24 24 23 23 22 22 22 22 21
55 53 51 49 48 46 45 45 44 43 42 41 39 38 36 34 32 30 29 27 25 24 23 23 23 23 24 24 26 27 28 28 29 30 31 30 29 28 28 29 30 30 30 30 30 29 28 28 26 25 25 25 25 26 25 24 24 24 24 24 24 24 23
57 54 52 50 49 47 46 46 45 44 43 42 40 39 37 35 33 32 30 29 28 26 25 25 25 24 25 25 27 28 29 29 29 30 30 30 30 29 29 29 30 30 31 32 32 31 30 29 28 27 27 27 27 27 26 25 25 25 26 26 26 26 25
58 56 54 51 50 48 47 47 45 44 43 43 42 41 39 37 35 34 33 31 29 28 27 26 26 26 26 27 29 29 29 30 30 31 31 31 31 30 30 30 30 31 32 33 33 33 33 32 31 30 29 28 28 28 28 26 26 27 28 28 28 28 27
59 57 55 53 51 50 49 48 47 46 45 45 44 43 41 39 38 37 35 32 31 29 28 28 28 28 28 29 29 29 29 31 31 31 31 32 32 31 31 31 32 32 33 33 34 34 35 34 33 32 31 30 30 30 29 28 27 28 29 30 30 29 29
61 58 56 54 53 51 51 50 50 49 48 48 47 45 43 41 39 38 36 34 33 31 30 30 30 29 29 30 30 29 30 31 32 32 33 33 33 33 33 32 32 33 34 34 34 34 35 35 35 35 33 32 32 32 31 29 28 29 31 31 31 31 31
64 61 58 56 55 54 54 54 52 51 50 49 48 46 44 42 40 40 38 36 35 33 32 31 30 30 30 30 30 30 31 32 33 34 34 35 35 35 34 34 34 34 35 35 34 34 35 36 36 36 35 35 34 33 32 30 29 30 32 32 32 33 33
65 63 61 59 58 58 58 56 54 52 51 50 48 47 45 43 42 41 39 37 35 33 32 32 31 31 31 31 31 31 32 33 34 36 36 36 36 36 36 36 35 35 35 35 35 36 36 37 37 37 37 37 36 35 34 33 31 32 32 33 33 34 34
67 65 64 63 62 61 59 56 55 55 54 52 50 48 46 44 43 42 39 37 36 34 34 33 33 33 33 32 33 33 33 35 36 37 38 38 38 38 38 38 38 37 36 36 37 37 37 37 37 38 38 38 38 37 36 35 33 33 34 34 34 35 36
69 67 66 66 65 62 59 58 59 58 56 53 51 49 47 45 44 43 41 39 37 36 35 35 35 35 34 34 34 35 35 36 38 38 39 39 39 39 39 40 40 40 39 38 37 37 37 37 38 38 38 38 38 38 37 36 35 35 35 36 36 37 38
71 70 70 68 66 64 62 62 61 58 55 54 52 50 49 47 45 44 42 40 38 37 37 37 37 36 35 36 36 37 37 37 39 40 40 40 40 41 41 42 42 41 40 39 38 38 37 37 37 37 37 37 38 39 38 37 37 37 37 37 39 39 40
74 73 72 70 67 66 66 64 61 58 56 56 54 52 51 48 45 44 43 40 39 39 38 39 38 37 37 38 38 38 38 39 40 41 42 42 42 43 43 43 43 42 41 41 40 39 38 36 35 35 35 36 38 39 39 38 38 38 39 39 40 41 41
75 74 72 71 70 69 67 64 60 58 58 57 55 54 52 48 45 45 43 42 41 40 40 40 39 39 39 39 39 39 39 40 41 42 43 44 44 44 44 44 43 43 43 43 42 40 39 37 36 35 35 36 37 39 39 39 38 39 40 41 42 43 44
75 74 73 72 71 69 66 63 61 60 59 57 56 54 52 49 46 45 44 43 42 41 41 41 41 41 41 40 39 39 40 40 42 43 44 45 45 45 45 44 44 44 44 44 44 43 41 39 38 37 36 36 37 38 39 38 38 39 40 41 43 45 45
75 74 73 73 71 69 66 64 62 61 60 58 57 55 52 49 47 47 46 44 43 42 43 44 43 42 41 40 40 41 41 42 43 44 45 45 45 45 45 45 45 45 46 46 45 45 43 42 40 39 38 37 37 38 39 39 39 40 40 41 43 45 46
77 75 74 73 71 69 67 66 64 62 61 59 57 55 51 48 48 48 47 45 45 45 45 45 43 42 42 42 42 42 42 43 43 44 45 45 45 45 45 45 46 46 46 47 46 46 46 44 43 42 41 40 39 39 40 40 39 39 40 41 43 44 46
78 76 74 73 71 69 68 67 65 63 61 60 58 55 51 50 49 49 47 47 46 46 46 45 43 43 43 44 44 43 42 42 42 42 43 44 45 45 45 45 45 46 46 47 47 47 47 47 46 45 44 43 42 41 40 39 38 38 38 40 42 43 45
79 77 75 73 71 70 69 68 66 65 63 61 59 56 53 52 52 50 49 49 47 47 46 45 45 45 45 44 44 42 41 40 40 41 42 43 43 44 44 44 45 46 46 47 47 49 49 49 49 48 47 46 45 44 42 40 39 38 38 39 40 42 43
80 77 75 74 72 70 70 69 67 65 63 61 59 57 56 55 54 53 52 51 49 48 47 46 46 46 45 44 42 41 40 40 40 41 42 43 43 43 43 43 44 45 46 47 48 49 51 51 51 51 50 49 49 48 46 44 42 41 40 40 40 41 41
81 79 76 75 73 72 70 69 68 65 64 62 60 59 59 57 55 55 54 52 51 50 48 47 46 46 44 42 41 40 40 40 41 42 43 44 44 43 43 43 44 44 45 46 48 50 51 52 53 53 53 53 52 51 50 49 47 45 44 43 43 42 42
81 79 78 75 74 73 72 70 68 66 65 63 62 61 60 59 58 58 57 54 52 51 50 48 47 45 43 41 41 41 41 42 43 43 44 44 45 45 44 44 45 45 45 46 48 49 50 51 53 54 54 54 54 53 52 51 50 49 48 47 46 45 44
83 80 79 77 75 74 73 71 69 68 66 64 63 62 61 60 60 60 58 56 54 53 51 49 46 44 43 43 43 43 44 44 44 43 44 44 45 44 45 45 45 46 47 47 47 48 49 51 52 53 54 54 54 53 52 51 52 51 50 49 48 47 46
85 81 79 78 76 74 73 72 70 68 67 65 64 64 63 62 62 61 59 57 56 54 52 49 47 45 45 45 45 45 45 45 44 44 44 44 44 44 45 45 45 46 46 47 47 48 50 51 52 53 54 54 54 54 53 52 52 52 51 50 49 49 48
85 83 80 78 77 75 74 73 71 69 67 66 65 64 64 63 63 62 61 60 58 55 53 50 49 47 46 46 47 47 47 46 45 45 45 45 45 45 45 45 45 45 46 46 48 49 50 51 52 53 54 54 54 54 55 54 53 52 52 51 50 50 50
87 84 82 81 79 77 76 74 73 71 69 67 66 64 64 64 64 63 63 62 59 56 54 52 50 49 48 47 48 48 48 47 46 46 46 46 45 45 45 45 45 45 45 46 47 48 49 50 51 52 53 54 54 55 55 55 55 54 53 52 52 52 52
90 87 84 82 80 78 78 76 74 73 71 69 67 65 64 65 65 65 64 63 60 57 56 54 53 51 50 49 48 48 49 48 47 47 47 46 46 45 45 44 44 44 45 46 47 48 49 49 50 51 52 53 54 55 55 55 55 55 54 54 54 54 54

ECMWFFLT1_250_spd_057.txt.gz
Wind_Speed
31 30 27 27 28 28 27 25 23 22 21 19 19 18 18 20 21 21 21 19 18 20 22 23 24 25 24 24 24 23 22 21 21 20 19 18 17 16 14 13 12 11 8 6 5 5 5 5 4 4 5 5 5 5 5 5 6 7 7 7 8 9 9
34 32 31 33 34 32 30 27 25 23 22 21 20 19 18 18 19 21 22 21 20 20 22 22 22 23 22 22 22 22 22 23 23 23 22 20 19 17 16 15 14 13 12 10 9 7 7 6 6 6 6 7 7 6 6 6 7 8 8 8 8 9 8
37 35 35 37 37 33 30 28 28 26 23 23 22 20 18 17 18 19 21 22 21 21 21 22 22 21 21 20 20 20 22 23 24 24 23 22 21 19 18 18 17 15 14 13 12 10 9 8 8 8 8 8 8 8 7 7 8 9 9 9 9 9 7
39 38 38 38 36 32 29 29 29 28 26 26 24 21 20 19 19 19 21 22 23 22 22 23 22 21 21 21 20 19 21 23 24 24 24 23 22 21 21 20 19 18 16 15 15 14 12 10 10 10 10 10 9 9 9 9 9 9 10 9 9 9 7
42 41 40 39 36 33 31 31 31 30 28 27 25 23 22 21 21 21 22 23 24 25 24 22 21 20 21 21 21 20 21 22 23 23 24 24 24 24 23 22 21 19 17 17 17 16 14 13 12 12 11 11 11 11 11 10 11 11 11 10 10 10 9
45 43 41 40 38 36 35 35 34 32 30 28 26 25 24 23 22 22 22 22 24 25 25 24 22 22 22 22 22 22 22 23 23 23 24 24 25 25 24 23 22 20 19 19 19 18 17 15 14 13 13 12 12 12 12 12 12 12 12 12 11 11 10
47 46 43 41 39 39 39 38 38 36 32 29 27 26 26 26 24 23 23 23 23 24 25 25 25 25 25 24 24 24 25 25 25 24 24 24 25 25 25 25 24 23 21 21 21 19 18 17 16 16 15 14 14 14 14 14 14 14 14 13 13 12 12
50 48 45 43 41 40 40 39 39 38 35 32 30 29 29 27 26 25 24 23 23 24 24 25 25 26 26 26 25 25 26 27 27 26 25 25 25 25 25 26 25 24 23 23 22 21 20 19 18 18 17 16 16 15 15 15 16 16 15 15 14 13 13
53 51 49 46 44 42 41 41 40 39 37 34 32 32 30 28 27 26 24 23 23 23 24 25 25 25 25 26 25 25 25 26 27 28 27 27 27 26 26 26 26 25 24 24 23 23 22 21 20 19 18 18 17 17 16 17 18 18 17 17 16 15 15
56 54 52 50 48 44 42 42 42 40 38 36 35 34 32 30 29 27 25 25 24 23 24 24 24 24 24 24 25 25 25 25 27 28 27 27 28 27 27 27 27 26 26 25 25 24 23 22 22 21 20 19 19 18 18 18 19 19 19 19 18 17 17
59 57 55 54 52 50 47 44 42 42 41 40 38 36 34 33 31 29 28 27 25 24 24 24 24 24 24 24 24 24 25 26 26 27 28 27 27 27 28 28 28 27 27 26 26 26 25 24 24 23 22 21 20 20 20 20 20 20 20 20 20 20 19
60 58 57 56 53 52 50 47 43 43 43 43 40 37 36 35 33 31 30 28 26 25 24 24 24 24 24 24 23 24 25 26 27 28 28 27 27 27 27 28 28 28 27 27 27 27 26 25 25 25 24 23 22 22 22 22 22 21 21 21 22 22 21
61 59 59 59 56 53 51 49 46 45 45 44 42 38 37 36 34 33 32 30 27 26 25 25 25 25 24 24 24 25 26 27 28 29 29 28 27 26 26 27 28 28 28 27 27 27 27 26 26 26 25 24 24 24 24 24 24 23 22 22 23 24 23
66 64 64 63 61 57 54 51 49 47 45 44 42 39 38 37 36 34 33 31 29 27 26 26 26 26 25 25 25 26 27 28 29 29 29 28 27 26 26 27 28 28 28 28 29 28 28 27 27 26 26 26 26 26 26 26 25 24 23 24 24 25 25
70 68 68 65 61 58 55 53 51 49 47 45 43 41 39 38 37 36 35 34 32 30 29 28 28 28 27 26 27 27 27 28 28 28 29 29 28 28 27 27 27 28 29 29 29 29 29 29 28 28 27 27 27 27 28 28 27 26 25 25 26 26 26
71 69 67 64 59 56 54 53 52 50 49 47 45 43 41 40 40 39 38 36 34 33 31 30 30 29 29 28 28 28 27 27 27 28 29 29 29 29 29 28 28 28 29 30 30 30 31 31 31 30 30 29 29 29 29 29 29 27 26 27 28 28 27
70 68 67 64 60 57 55 55 54 53 50 48 46 45 44 43 43 42 40 38 36 35 33 32 32 31 30 30 29 29 28 27 28 28 28 30 30 30 30 30 30 30 30 30 31 31 31 32 33 33 32 31 31 31 31 31 30 29 28 29 30 30 29
70 68 67 65 62 59 58 57 57 55 53 51 49 47 46 46 46 44 42 41 39 38 36 35 35 34 32 31 30 30 29 29 28 28 28 29 30 31 32 32 32 32 32 32 32 32 32 33 34 34 34 34 34 34 34 33 32 31 31 31 32 32 31
71 69 66 63 61 61 59 58 58 57 55 54 52 50 50 50 49 47 46 44 42 40 38 38 37 35 33 32 32 32 31 30 29 29 28 29 30 31 32 33 33 34 34 34 33 33 33 33 35 35 35 35 35 36 35 34 34 34 33 33 33 33 33
70 70 68 63 61 62 62 61 61 60 58 57 55 54 54 53 52 50 49 45 42 40 39 39 37 36 35 34 34 34 32 31 30 30 29 29 30 31 32 34 35 35 36 35 35 35 35 35 35 35 36 36 37 37 36 36 36 36 36 35 35 36 35
71 70 69 65 61 63 65 64 63 62 60 59 59 57 57 56 55 52 49 46 44 42 41 40 39 38 37 36 36 36 34 33 32 31 31 31 32 32 33 34 35 36 37 37 37 37 37 37 36 36 36 37 37 38 37 37 37 37 37 37 37 38 38
76 73 71 67 62 64 66 65 64 63 61 60 61 60 59 58 57 54 51 48 46 44 43 41 40 39 39 38 38 38 37 35 34 33 33 33 33 34 34 35 36 37 38 38 38 39 39 39 39 38 37 37 37 38 38 38 39 39 39 39 39 40 40
80 76 74 70 66 65 66 65 64 63 62 62 63 62 61 60 59 56 52 50 48 46 44 42 41 41 41 40 41 40 39 37 36 36 36 35 35 36 36 36 37 38 38 39 39 40 40 40 40 40 39 37 37 37 37 38 40 40 40 40 41 42 43
81 78 75 73 69 68 68 66 64 63 63 65 65 64 63 62 59 56 53 51 49 48 45 44 44 44 43 43 43 42 41 39 39 39 38 37 37 37 37 38 39 39 40 40 40 41 41 42 41 41 40 39 38 38 37 37 39 41 41 41 42 43 44
84 80 76 74 71 70 70 69 67 66 66 67 67 66 64 62 59 56 54 52 51 49 48 46 46 46 46 46 45 44 42 41 40 40 39 39 39 38 39 39 40 41 41 41 41 41 42 42 43 43 42 41 41 40 38 37 38 41 41 42 43 45 46
87 83 79 75 72 71 71 70 69 69 69 69 69 67 65 62 59 56 54 53 52 51 50 49 49 48 48 47 46 45 44 43 42 41 41 40 40 39 39 40 41 41 42 42 42 42 43 43 44 44 44 43 42 42 40 39 38 40 41 42 44 46 48
89 87 83 78 74 73 71 71 71 71 71 71 70 68 65 62 58 57 57 56 54 52 53 52 51 50 49 48 47 46 46 46 44 44 43 42 41 40 40 40 41 41 42 42 42 43 43 44 44 45 45 45 44 43 43 42 41 40 41 42 44 47 48
89 87 85 81 77 75 73 72 72 73 74 73 71 68 65 61 60 59 59 57 56 55 56 55 53 51 50 50 49 49 49 48 46 45 45 43 42 41 41 41 41 41 42 43 43 43 44 44 44 44 45 45 45 45 45 45 44 44 43 42 43 44 46
90 87 85 83 80 77 75 73 74 75 75 74 72 69 65 63 62 62 61 60 59 58 58 57 54 52 53 52 51 52 51 49 47 47 46 44 43 42 41 41 41 41 42 43 43 43 44 44 44 44 45 46 46 47 47 47 47 47 47 45 43 43 43
91 88 86 84 82 79 76 75 76 77 77 75 72 69 66 66 65 64 64 64 61 58 60 59 56 55 55 54 53 53 53 50 48 48 47 45 43 42 41 41 41 41 42 43 43 43 43 43 43 44 45 46 47 48 49 49 49 49 49 48 47 45 44
92 89 87 85 83 81 78 77 77 78 77 74 72 70 69 68 68 67 67 65 61 59 61 60 58 57 57 55 54 55 53 51 49 48 46 45 43 42 42 42 42 42 43 43 43 43 44 43 44 45 45 46 48 49 50 51 50 50 50 50 49 48 47
92 90 88 86 85 83 81 79 79 79 76 73 72 72 71 70 70 70 69 65 62 62 63 61 59 59 58 56 56 56 54 52 50 49 47 45 44 43 43 43 43 43 43 43 44 44 44 44 44 45 46 47 48 49 50 51 52 52 52 51 51 50 50
93 91 89 87 85 83 82 81 80 78 76 74 73 72 72 72 72 71 69 66 64 65 65 62 61 60 59 57 57 57 54 53 51 49 47 46 45 44 44 44 44 45 45 45 46 46 45 45 45 45 46 47 48 49 49 51 52 52 52 53 53 53 52
93 91 89 87 85 84 83 82 80 78 76 74 73 73 74 73 73 72 70 68 68 67 65 64 63 62 60 59 58 57 55 53 51 49 48 47 46 46 46 46 46 47 47 47 47 46 46 46 46 46 47 47 48 48 49 50 51 52 53 54 55 55 54
93 91 89 86 84 84 83 82 80 79 77 75 75 75 75 74 73 73 71 70 69 68 66 65 64 63 62 61 59 57 56 54 52 50 49 49 48 48 48 48 48 48 47 47 46 46 47 46 47 47 48 48 48 48 49 50 51 52 53 54 55 55 55
92 90 88 87 85 84 83 82 80 79 78 78 78 77 76 75 74 73 72 71 69 68 67 66 65 65 63 62 60 58 56 54 52 51 51 50 50 50 50 49 49 48 47 46 46 46 46 46 46 47 47 48 49 50 50 50 51 51 52 53 54 54 55
92 90 87 87 87 85 84 83 81 80 79 79 79 77 76 75 74 73 72 71 69 68 67 66 66 65 64 62 60 58 56 54 53 53 53 52 52 52 51 50 50 48 47 47 46 46 46 46 47 47 47 48 50 51 50 50 50 51 51 52 53 54 54
87 92 90 88 87 86 85 84 82 81 80 79 78 77 76 75 75 74 73 71 70 69 69 68 67 66 64 63 61 58 57 55 55 55 55 54 53 53 52 51 50 49 48 48 48 47 47 47 48 48 48 49 50 51 50 49 50 50 51 52 53 54 55

ECMWFFLT1_250_spd_060.txt.gz
Wind_Speed
37 35 33 31 31 31 30 27 25 23 22 21 20 18 17 17 18 19 20 21 22 23 24 25 26 27 26 26 24 22 20 18 18 17 17 16 16 15 13 12 11 9 7 6 5 5 5 5 5 5 5 5 5 5 5 5 5 5 6 6 7 8 8
39 37 36 34 34 33 32 29 27 26 24 24 22 19 17 16 17 18 19 20 21 23 24 24 24 25 25 25 24 23 22 21 20 20 19 18 16 15 14 14 13 12 10 9 7 7 6 5 5 6 6 6 6 6 6 6 6 6 5 5 6 7 7
42 41 40 38 37 35 33 31 30 28 27 26 24 20 17 16 16 18 19 20 21 22 23 24 24 24 24 24 24 23 23 23 23 23 21 20 18 17 16 16 15 15 13 11 10 10 9 8 7 7 7 7 7 7 7 7 7 7 6 5 5 6 6
45 44 43 40 38 36 34 33 31 29 29 28 25 21 19 17 16 17 19 20 21 22 23 23 24 24 24 24 23 23 23 24 25 24 23 22 21 21 20 19 18 17 15 14 14 13 12 11 10 9 9 9 8 8 9 9 8 8 7 7 6 6 6
47 47 45 42 39 37 36 35 34 33 33 30 26 23 22 20 17 17 19 20 21 22 23 22 22 24 24 24 23 23 23 23 24 24 24 24 24 24 23 22 21 20 18 16 17 16 15 14 13 12 11 10 10 10 10 10 10 10 9 8 8 7 6
49 48 47 43 41 40 39 39 38 37 35 31 28 26 24 23 22 19 20 20 21 22 23 23 23 24 25 25 25 24 24 24 24 25 25 25 25 26 25 24 24 22 20 19 20 19 18 17 16 14 13 12 11 11 12 12 12 12 11 10 10 9 8
51 48 46 44 43 43 42 41 40 38 35 32 30 28 27 26 26 24 22 22 22 22 23 24 24 24 25 26 26 26 26 27 26 26 26 25 25 25 26 26 26 25 23 22 22 22 20 19 18 17 16 15 13 13 13 13 13 13 13 12 12 11 10
54 50 46 45 45 44 43 41 39 37 36 33 32 31 30 29 28 27 26 23 23 23 23 24 24 24 25 25 26 27 27 28 28 28 27 27 26 26 26 26 26 26 25 24 24 23 23 22 20 20 19 17 15 15 15 15 15 14 14 14 14 13 13
56 53 49 48 47 45 44 43 40 38 37 35 34 34 33 32 29 29 28 26 24 24 23 23 23 23 24 25 25 25 26 27 28 28 28 28 28 27 27 27 26 27 26 25 25 25 25 24 22 22 21 19 18 17 16 16 16 16 16 15 15 15 15
59 56 53 52 50 47 46 44 41 40 39 37 37 37 36 34 31 29 28 28 27 25 23 22 22 23 24 25 24 24 24 26 28 28 28 28 28 28 27 27 27 27 26 25 25 25 26 25 24 23 22 21 20 19 18 18 18 18 17 16 17 16 16
61 58 56 55 52 50 49 46 43 42 42 41 40 39 37 35 33 31 30 30 28 25 24 23 23 23 23 23 23 23 24 26 27 28 28 28 27 27 27 27 27 27 26 26 26 26 26 26 25 24 23 22 21 21 20 20 20 20 19 18 18 18 18
62 59 57 56 54 53 53 49 45 45 45 44 43 41 39 37 34 33 32 30 29 26 25 25 24 23 22 22 23 24 25 26 27 28 29 28 27 26 27 27 27 27 26 26 26 26 27 26 25 24 24 23 22 22 22 23 23 22 21 20 19 19 19
64 62 60 59 58 57 56 52 48 46 46 45 43 41 40 38 36 34 33 31 30 28 27 26 25 25 23 23 23 24 24 26 27 29 29 28 26 26 26 27 27 27 27 26 26 27 27 26 26 25 24 24 24 24 24 24 25 24 23 22 21 21 21
69 67 65 64 62 60 58 54 50 48 46 44 43 43 41 39 37 35 33 32 30 30 30 29 28 27 25 24 25 24 24 25 27 28 29 28 27 26 26 27 27 27 27 26 26 27 27 27 26 26 25 25 25 25 26 26 26 26 25 24 23 23 23
73 71 68 66 63 61 59 56 53 51 48 45 43 43 41 39 38 36 34 33 32 33 33 32 31 29 28 27 27 26 25 25 26 28 28 29 28 28 27 28 28 29 28 27 27 27 27 27 27 27 27 27 27 27 27 28 28 27 26 26 25 25 25
75 73 71 69 66 63 60 58 56 52 48 43 40 39 39 38 39 39 37 35 35 35 35 34 33 32 31 30 29 28 26 26 27 28 28 29 29 29 28 28 29 30 30 29 29 28 28 28 28 29 29 29 29 29 30 30 30 29 28 27 27 27 27
77 75 74 71 69 66 63 61 58 53 46 41 38 37 38 40 41 42 41 38 37 37 37 36 36 35 33 32 31 30 28 28 28 28 29 29 29 29 29 29 30 31 31 31 31 31 30 30 30 31 30 30 30 31 32 33 32 31 30 30 29 29 29
80 78 77 75 72 69 66 64 61 54 49 47 45 42 40 42 44 44 43 41 39 38 38 38 37 36 35 34 33 33 31 30 30 30 29 29 29 30 30 29 30 31 32 33 33 32 32 32 32 32 32 32 32 33 34 34 34 33 32 32 32 31 31
83 82 80 78 75 72 69 66 64 59 56 54 53 49 45 45 47 48 46 45 42 40 40 40 40 38 37 36 36 35 34 33 32 31 31 30 30 30 30 30 30 31 32 33 33 33 33 34 34 33 33 34 34 34 35 35 35 35 34 33 34 34 34
84 85 82 79 76 74 71 68 66 64 61 58 56 55 53 51 51 52 50 46 44 42 42 42 42 40 39 39 38 38 37 35 34 33 33 32 31 31 31 32 32 31 32 32 32 33 34 34 34 34 34 35 35 35 35 36 36 36 35 35 35 35 36
85 85 82 79 77 76 73 71 69 67 65 62 59 58 57 54 53 53 51 48 46 46 46 47 46 43 42 41 40 40 40 38 37 36 35 34 33 33 33 33 33 32 32 32 33 33 33 33 34 34 35 36 36 37 37 37 38 38 37 36 36 37 38
89 86 84 81 79 78 76 73 71 69 68 65 62 59 58 57 54 52 51 51 51 51 51 51 49 47 45 44 43 43 42 41 40 38 37 37 36 36 35 34 34 34 33 33 34 33 33 33 34 35 35 35 37 38 38 39 39 39 38 36 36 38 40
91 89 87 85 82 80 78 76 74 71 69 67 64 61 60 61 58 55 55 57 57 56 55 53 51 50 49 47 46 45 44 43 42 40 39 39 38 38 36 35 35 35 34 34 35 35 34 34 34 35 35 35 36 38 40 40 41 41 40 37 36 38 41
94 91 89 87 85 83 81 78 76 73 71 69 67 63 62 63 62 59 61 61 59 58 57 54 52 53 52 50 49 47 46 45 43 42 41 40 40 39 38 36 36 36 35 35 35 36 36 35 35 36 36 37 37 38 40 40 41 43 42 40 38 39 40
97 93 90 87 87 85 83 81 79 76 73 70 69 67 65 65 64 62 63 63 62 60 58 55 54 55 54 52 50 49 47 46 44 43 43 43 42 41 39 38 38 37 37 37 36 36 37 36 36 37 38 38 39 39 40 40 41 43 43 42 41 41 40
99 97 93 88 87 86 84 83 81 77 75 73 72 71 69 68 67 65 64 64 62 61 60 59 57 56 55 53 51 49 49 47 46 46 45 45 44 42 40 40 39 39 39 38 37 36 37 37 37 38 39 39 39 40 40 41 42 43 43 43 43 43 43
101 99 95 91 88 86 84 84 82 78 76 75 74 75 74 72 71 70 68 66 62 60 60 60 59 56 55 53 52 51 51 50 48 48 48 47 45 43 42 42 41 41 41 39 38 37 37 38 38 38 39 39 40 40 41 41 43 43 44 43 44 44 45
101 99 96 91 88 86 84 83 81 79 76 75 75 76 76 74 73 73 72 68 65 63 63 63 60 57 56 55 53 52 52 51 50 50 49 48 47 45 44 44 43 42 42 40 38 38 38 39 39 39 39 39 40 41 41 42 43 43 44 43 44 44 45
102 100 98 93 88 85 84 81 80 79 77 75 74 76 77 76 75 74 73 70 69 69 67 65 61 57 56 56 55 53 53 52 52 52 52 51 50 48 46 46 45 44 43 41 40 39 39 40 40 40 40 40 40 41 42 42 43 44 44 43 43 44 46
104 102 101 97 91 86 84 82 79 78 78 76 74 74 75 76 75 74 72 71 71 71 67 64 62 59 58 58 57 54 54 55 55 55 55 54 52 49 47 47 46 45 44 42 41 41 41 41 41 41 40 40 41 42 43 43 43 44 45 44 43 44 45
106 104 102 100 96 89 85 84 81 77 76 77 77 76 75 74 74 73 72 72 72 70 66 64 63 62 61 61 59 57 57 58 58 57 56 56 54 50 48 47 46 44 44 43 42 42 43 42 42 42 41 42 42 43 44 44 44 45 45 44 43 44 46
107 106 104 102 99 93 87 84 82 79 76 75 76 76 74 73 72 72 71 72 72 69 65 64 64 64 63 63 62 59 57 58 59 58 58 57 55 51 48 48 47 45 45 45 44 44 45 45 44 43 43 43 44 44 45 45 45 45 45 44 44 45 46
107 106 105 103 101 97 92 87 85 83 79 77 76 75 73 72 72 72 71 71 70 67 65 64 65 64 63 63 62 60 58 59 59 59 59 58 55 51 49 49 48 47 46 46 46 46 47 46 46 45 44 44 44 45 45 46 46 46 46 46 46 46 46
108 106 105 105 103 100 96 91 88 85 83 81 79 78 77 75 74 73 72 71 70 68 66 65 65 64 63 63 63 61 59 59 60 60 60 59 55 51 50 50 49 49 48 48 48 48 48 48 47 46 45 44 44 44 45 46 46 47 47 47 47 47 47
109 106 106 106 104 101 97 93 89 87 84 82 81 80 81 80 79 76 74 72 71 70 69 66 65 65 64 64 64 62 61 61 61 61 61 58 55 53 52 52 51 51 51 51 51 50 50 48 47 46 45 44 44 45 46 47 47 47 47 47 47 47 47
110 107 106 106 104 101 97 94 91 88 86 84 81 79 79 80 80 77 74 73 72 71 69 67 66 66 65 64 64 63 62 62 62 62 61 58 56 55 55 54 54 54 54 54 53 51 50 48 47 46 45 45 45 46 46 47 48 47 47 48 48 47 47
112 109 106 105 103 101 98 95 92 90 88 86 83 81 79 78 77 75 74 73 72 71 69 67 67 66 65 63 63 63 62 62 63 62 61 59 58 58 58 57 57 57 57 56 54 52 50 48 47 46 46 46 46 47 47 48 48 48 48 49 49 47 46
113 110 107 104 101 99 96 95 93 91 89 87 86 85 83 81 77 76 75 74 72 71 69 67 67 66 63 62 63 63 63 63 64 64 62 61 61 61 61 60 60 59 58 57 55 52 50 49 48 47 47 47 47 47 47 48 49 49 49 49 49 48 47

ECMWFFLT1_250_spd_063.txt.gz
Wind_Speed
40 40 39 37 36 37 36 34 31 28 27 24 23 23 23 21 20 20 22 24 26 27 28 29 29 28 27 26 24 23 22 21 20 19 18 17 16 14 13 12 10 9 7 6 5 4 4 3 3 3 4 4 4 5 5 5 6 6 6 6 8 9 9
43 43 42 40 38 39 37 35 32 30 27 25 25 24 23 22 20 19 21 23 25 27 28 29 28 28 27 25 23 22 22 21 20 20 19 18 16 15 14 13 12 10 9 7 6 5 5 4 4 4 4 5 5 5 5 5 6 6 5 5 6 7 7
46 46 45 42 40 41 39 36 33 31 29 27 26 25 23 22 21 20 20 22 24 26 28 29 29 28 28 27 25 23 22 22 21 20 19 18 17 16 15 14 13 12 11 9 9 8 8 6 6 6 6 6 6 6 6 6 6 6 6 5 5 5 6
48 49 47 43 41 41 39 37 35 33 31 29 28 26 24 23 22 21 21 22 24 25 26 28 29 30 30 29 27 25 24 23 22 21 20 19 18 17 17 16 15 14 12 12 11 11 11 10 9 9 8 7 7 7 7 7 7 6 6 6 5 5 5
50 50 49 45 43 42 40 39 37 35 33 31 30 29 26 25 24 23 22 23 24 24 24 25 26 28 30 30 29 28 26 25 24 23 22 21 21 20 19 18 17 16 15 14 14 13 13 13 12 12 11 10 9 10 9 9 9 8 8 7 7 6 6
52 52 52 48 45 42 41 40 39 37 35 34 32 30 27 27 25 23 22 22 23 23 23 24 25 26 28 29 29 29 28 28 27 27 26 25 24 23 21 20 19 18 17 17 16 16 15 15 15 15 14 13 12 12 12 12 11 10 9 9 8 8 8
55 53 53 50 46 44 43 41 40 39 37 35 32 30 29 28 25 23 22 22 22 23 21 19 21 23 25 26 27 28 28 29 29 29 28 28 26 25 24 23 22 21 21 20 19 18 18 18 18 17 17 16 15 15 15 15 14 13 12 11 10 10 9
57 55 55 52 47 46 45 43 42 40 38 36 33 31 30 28 26 24 23 22 22 24 21 16 15 17 21 23 24 26 27 29 30 30 30 30 29 28 27 26 25 24 24 23 22 21 21 21 20 20 19 19 18 18 17 17 17 16 15 13 13 12 12
59 57 57 53 49 48 47 45 43 41 38 36 34 33 30 28 27 26 24 23 24 25 24 20 14 13 16 19 21 23 25 28 29 30 30 30 30 30 29 28 27 27 26 25 25 24 23 23 23 22 21 21 20 20 19 19 19 18 17 16 15 15 14
59 58 57 54 51 49 48 45 43 41 39 38 36 35 33 31 29 27 26 26 24 23 24 23 19 15 15 16 17 20 23 26 28 29 29 29 29 29 29 29 28 28 27 26 26 25 25 25 25 24 23 22 21 21 21 21 21 20 19 18 17 17 16
58 57 57 55 53 51 48 46 44 42 41 40 39 37 35 33 30 28 27 25 24 22 22 22 21 17 15 14 16 18 21 24 26 28 28 26 26 27 27 28 28 28 27 26 26 26 26 26 25 24 23 22 22 22 22 22 22 22 21 20 19 19 19
59 56 56 57 56 52 50 48 47 45 43 41 40 38 36 34 31 29 27 25 23 22 22 22 22 20 17 15 16 17 18 21 24 26 26 24 23 24 25 26 26 27 26 26 26 26 26 26 25 24 23 23 23 23 23 23 24 23 22 21 20 20 20
62 59 58 59 58 55 53 51 49 47 45 42 40 39 37 35 32 31 29 27 25 24 23 23 22 21 20 18 17 17 17 19 22 24 25 24 22 22 23 24 25 26 26 25 25 26 26 26 25 24 23 23 23 23 24 25 24 24 23 22 22 22 22
63 61 59 60 59 56 54 53 50 48 45 42 40 39 37 35 34 32 30 28 26 25 24 24 23 22 22 21 20 18 18 19 20 21 23 23 22 22 22 23 24 25 25 25 25 25 26 26 25 24 24 24 24 24 25 26 25 25 24 23 23 24 24
65 65 63 62 60 57 56 54 50 47 44 42 40 39 38 36 35 33 31 29 28 26 25 24 24 24 23 23 23 21 20 20 20 22 22 23 23 22 22 22 23 24 25 26 26 25 25 26 26 25 25 25 25 26 26 27 27 26 25 25 25 25 26
68 68 68 65 61 59 59 56 51 46 45 44 42 41 39 37 36 33 30 28 27 25 24 24 25 25 25 25 25 24 23 23 23 23 23 23 23 23 22 22 22 23 25 26 26 26 26 26 27 27 27 26 27 27 28 28 29 28 27 26 26 27 28
73 72 71 68 64 63 60 56 51 47 45 48 47 45 43 41 39 36 32 29 28 25 24 26 26 27 27 27 27 28 27 27 26 26 25 25 25 24 23 23 22 22 24 25 26 26 26 26 27 28 28 28 29 29 30 30 30 30 29 28 28 28 29
78 75 73 70 67 65 61 57 54 48 45 51 52 47 44 43 41 38 35 34 35 33 30 30 31 31 30 30 30 31 31 30 29 29 28 28 27 26 25 24 23 23 23 24 25 26 26 26 27 27 28 29 30 31 31 31 31 32 31 30 30 31 30
81 77 75 74 71 67 65 62 59 51 45 50 54 49 45 43 41 40 37 36 40 41 38 37 37 36 34 34 34 34 33 33 32 32 32 30 29 29 27 26 26 25 24 24 24 24 26 26 26 26 27 28 30 31 32 32 32 32 32 32 32 33 33
84 80 77 77 75 73 70 69 67 61 53 53 56 54 50 46 44 43 40 38 42 45 42 40 40 38 36 38 39 38 35 34 34 34 34 33 32 31 30 29 28 27 27 25 24 24 25 26 26 25 25 26 28 30 31 32 32 32 32 32 33 34 34
88 85 81 79 78 77 75 74 73 70 64 60 57 54 53 52 49 46 44 43 46 47 44 42 41 39 38 39 41 40 38 36 36 36 36 36 35 34 33 32 31 30 29 28 26 25 25 26 26 27 26 26 27 28 30 31 32 32 32 32 32 33 35
92 90 86 82 81 80 78 77 76 73 69 65 59 55 54 57 57 54 50 48 49 48 46 45 45 44 43 41 39 39 39 38 37 37 38 37 37 37 36 35 33 32 31 30 29 27 26 26 27 28 28 27 27 28 30 31 32 32 33 33 33 33 35
95 94 90 86 84 83 81 80 78 73 71 71 67 61 58 59 61 59 55 52 51 50 48 48 50 49 47 44 40 39 40 40 39 39 39 39 39 38 37 37 35 33 32 31 30 29 27 27 28 28 28 29 29 29 30 31 32 33 34 34 34 34 35
98 97 94 90 87 85 84 83 81 77 75 74 71 68 65 63 62 61 58 55 53 51 51 51 52 52 51 49 44 40 39 40 40 40 40 40 40 39 38 37 36 35 33 32 31 31 30 29 29 29 29 29 29 29 30 31 32 33 34 35 35 36 36
101 100 98 94 90 89 87 86 84 82 80 77 73 71 69 68 66 63 60 58 55 54 55 55 54 55 55 53 49 44 41 40 41 41 42 42 41 40 39 38 37 35 34 34 33 32 32 31 30 30 30 30 30 30 30 31 32 33 34 35 35 36 37
104 103 101 97 94 92 90 88 87 85 83 80 77 75 72 70 68 65 63 61 59 58 58 59 60 60 57 55 53 50 48 46 44 43 43 43 43 41 39 38 38 37 36 36 35 34 34 33 33 32 32 31 31 31 31 32 32 33 34 35 36 36 38
105 104 103 100 98 95 92 90 89 89 87 84 81 79 77 73 70 68 66 65 63 62 62 62 63 61 58 56 55 54 53 51 48 45 45 45 44 42 41 40 39 38 38 38 37 36 36 35 34 33 33 33 33 33 32 33 33 34 34 35 36 37 38
105 105 105 104 102 99 95 92 90 91 90 87 84 82 80 77 73 71 70 68 66 67 67 65 63 60 58 57 56 55 55 53 49 46 46 46 45 44 42 41 40 40 40 40 39 39 38 37 36 35 35 35 35 35 34 34 35 35 35 35 36 37 39
107 106 107 106 104 102 99 95 93 92 92 90 87 85 83 80 77 75 72 71 70 71 71 69 66 62 61 60 58 55 53 52 50 47 46 46 46 45 43 42 41 41 41 41 41 41 40 39 38 37 37 37 37 37 37 37 37 37 37 36 37 38 39
108 108 108 108 106 103 101 98 95 93 92 91 89 88 85 82 80 77 75 74 74 74 72 71 68 66 64 63 61 58 54 52 51 49 47 46 46 46 44 43 43 43 43 43 43 42 41 40 40 39 39 39 39 40 40 39 39 39 38 37 37 38 39
108 108 108 109 108 105 103 101 98 95 93 91 90 89 87 84 81 80 78 78 77 76 74 72 70 68 67 65 64 61 57 54 53 51 49 48 47 47 46 45 45 46 46 45 43 42 42 41 41 42 41 41 41 42 42 42 41 40 39 38 38 39 39
110 110 111 111 110 108 105 103 101 98 95 92 89 89 88 85 82 81 81 81 80 77 75 73 71 71 69 67 65 62 58 55 53 52 51 50 49 49 48 47 47 47 46 45 44 44 44 43 43 43 44 44 44 44 44 43 42 40 39 39 40 40 40
114 115 115 114 111 109 106 104 103 101 99 95 90 88 87 85 83 83 83 84 82 79 77 75 73 73 71 67 64 62 58 55 54 53 52 51 51 51 50 49 48 48 47 46 46 46 46 46 45 45 46 46 46 45 44 43 43 42 41 40 41 41 41
119 119 117 113 110 109 107 105 104 102 101 99 95 90 86 85 84 83 84 85 84 82 79 77 75 74 72 68 65 62 60 57 56 55 54 53 52 53 52 51 50 49 48 47 47 48 49 48 48 48 48 48 47 46 44 43 43 43 42 41 41 41 42
123 121 118 112 109 108 107 106 104 102 101 101 99 95 90 87 85 84 85 85 85 83 81 79 77 75 73 71 67 63 62 61 60 58 56 54 54 54 54 53 51 51 50 49 49 50 51 51 51 51 51 50 48 46 45 44 44 44 43 41 41 42 42
124 123 119 114 110 109 108 107 105 103 101 100 100 97 93 89 87 86 86 86 85 84 82 80 78 76 74 72 69 66 63 63 62 60 58 55 54 53 52 52 51 51 51 51 52 53 53 54 54 55 53 51 49 47 46 45 44 43 43 42 41 41 42
125 124 121 116 112 110 110 108 106 104 103 101 99 97 94 90 86 85 86 86 85 84 83 82 80 77 75 73 70 68 66 64 63 59 55 51 50 49 50 52 54 55 55 55 56 56 56 57 58 57 55 53 50 48 47 46 44 43 44 43 42 41 41
124 123 121 117 114 113 112 111 108 106 104 102 99 98 96 93 88 85 83 84 84 84 84 83 81 78 75 73 70 68 66 63 58 53 48 47 46 48 52 55 57 59 60 60 60 59 59 60 60 59 56 54 52 50 48 47 45 44 44 44 42 40 40

ECMWFFLT1_250_spd_066.txt.gz
Wind_Speed
39 39 37 37 37 38 39 37 34 32 30 28 26 24 21 18 17 17 19 23 25 27 28 28 26 25 24 24 24 24 23 22 20 19 17 16 15 14 13 12 11 9 8 7 6 5 4 3 2 1 1 2 3 4 5 5 6 6 5 5 6 6 6
43 41 39 38 39 40 40 38 35 33 31 29 27 25 22 20 18 18 19 23 26 27 28 28 27 26 24 23 23 23 23 22 21 19 18 17 16 15 14 13 12 11 10 9 8 6 5 4 3 2 2 2 3 4 4 5 5 5 5 5 5 5 5
45 44 42 39 39 40 40 39 37 34 31 31 29 26 23 21 20 20 21 23 26 28 29 29 29 28 26 24 23 22 22 22 21 20 18 17 17 16 15 14 14 13 12 11 10 8 7 6 5 4 3 3 4 4 5 5 5 6 5 5 5 5 5
45 46 44 41 39 39 40 40 38 35 33 32 30 26 24 23 23 22 22 24 26 28 30 30 30 29 28 26 24 23 23 22 21 20 19 18 18 18 17 16 15 14 14 13 12 11 9 8 8 7 6 6 6 7 7 7 7 7 7 6 6 6 6
45 46 45 43 40 39 40 40 38 35 32 32 31 28 26 26 25 24 23 24 26 28 29 30 31 31 30 29 27 25 24 23 21 20 20 20 19 19 18 17 16 16 16 15 15 13 12 11 10 10 9 9 9 10 10 10 10 9 8 8 8 7 7
44 46 47 45 42 40 40 40 38 34 32 33 32 29 28 27 26 24 24 25 26 27 28 30 32 33 32 31 30 29 27 26 24 23 22 21 21 20 19 19 18 18 18 17 17 16 15 14 13 13 12 12 12 12 13 13 13 12 11 10 10 9 9
44 46 48 48 45 42 41 42 40 36 33 34 33 31 30 29 27 25 25 25 26 27 28 30 31 32 32 31 30 30 30 29 28 26 25 24 23 22 21 21 20 19 19 19 18 18 18 17 17 16 15 15 15 15 15 15 15 14 13 13 12 11 11
43 46 49 50 48 44 43 44 42 38 35 35 35 34 32 30 28 27 26 26 27 28 28 29 29 30 31 31 30 30 30 30 30 29 28 27 26 25 25 24 23 22 22 21 20 20 20 20 20 19 18 17 17 17 17 17 17 16 15 14 14 13 13
44 46 50 51 50 48 46 46 45 41 38 38 37 36 33 31 29 28 27 27 27 28 29 28 28 28 29 30 31 30 30 30 30 30 30 29 28 28 28 27 27 26 25 24 24 23 24 24 23 22 21 20 19 19 19 19 18 17 16 16 16 15 15
49 48 51 53 52 51 50 48 47 43 40 40 40 38 35 33 32 30 29 28 27 28 29 28 27 27 28 29 29 29 30 32 32 32 31 30 29 28 28 28 28 28 27 27 26 26 26 26 25 24 22 21 21 21 21 21 20 19 17 17 17 16 16
55 51 52 54 55 54 52 51 50 46 43 41 41 40 37 35 34 32 31 29 27 27 28 28 27 26 26 26 26 26 28 30 31 32 31 29 28 27 27 28 28 28 28 28 28 27 27 27 26 24 23 22 21 21 21 21 21 20 18 18 18 18 17
59 53 50 51 53 54 52 51 51 49 44 42 42 41 39 37 35 34 32 30 28 28 28 27 26 24 24 24 24 25 26 27 28 29 28 26 25 24 25 26 26 26 27 27 27 26 26 26 25 24 22 21 21 21 22 22 21 20 19 19 19 19 19
63 58 52 50 51 52 52 50 49 49 45 42 42 42 39 38 36 34 33 31 30 29 28 27 25 23 23 22 22 23 24 25 26 26 25 23 22 22 22 23 23 24 24 25 25 25 25 25 24 23 22 21 21 21 21 22 21 21 20 20 20 20 21
66 64 56 51 51 52 53 52 51 50 47 43 42 41 38 37 36 34 33 32 31 30 28 27 25 23 22 21 21 22 23 24 24 23 23 22 21 21 21 21 21 22 22 23 23 23 23 23 23 22 22 21 20 21 21 22 22 22 22 21 21 22 23
69 67 60 54 52 52 53 54 53 52 49 46 44 41 39 37 35 34 33 31 30 29 28 27 26 24 23 23 22 21 21 22 23 23 24 23 22 21 21 20 19 19 20 21 21 21 21 21 22 22 21 21 20 21 22 22 22 22 23 23 23 24 24
71 68 64 58 54 54 54 54 54 53 51 48 46 44 42 40 37 35 33 31 30 30 29 28 27 26 26 26 23 21 20 20 21 23 25 25 24 22 20 18 18 18 19 19 19 19 20 20 20 20 20 20 20 21 21 22 22 23 23 24 25 25 25
75 70 66 63 59 56 55 55 56 56 54 51 50 48 46 44 41 37 34 32 32 32 32 31 31 30 31 31 30 27 25 25 25 24 25 26 25 23 20 18 17 17 18 18 18 19 19 19 19 19 19 19 20 20 20 20 21 22 23 24 25 25 26
78 74 69 67 65 61 57 57 59 59 57 54 52 51 49 45 42 40 37 33 33 35 34 34 33 33 33 34 35 35 34 33 31 28 25 25 25 24 23 20 18 17 17 17 17 17 17 18 18 18 18 19 19 19 19 19 19 20 21 22 23 24 25
80 78 74 71 70 65 56 55 60 62 60 57 55 54 51 46 41 40 40 38 36 36 37 37 37 37 37 36 36 38 37 36 34 32 28 27 26 26 25 24 21 18 17 17 17 17 17 17 17 17 17 18 18 19 18 18 18 19 20 21 21 23 24
84 81 79 76 74 69 59 53 58 64 64 62 61 57 53 47 44 44 44 43 42 40 39 40 42 42 42 41 39 40 39 37 35 35 32 29 28 28 28 27 24 20 17 17 17 18 18 17 16 17 17 17 18 19 19 18 18 18 19 20 21 22 23
89 85 83 81 78 76 69 61 60 64 65 65 64 60 55 52 51 51 50 48 47 46 44 43 46 48 48 46 42 41 40 38 37 36 34 31 29 29 29 28 26 22 19 18 18 19 18 18 17 17 17 17 17 18 19 19 18 18 18 19 20 22 23
91 90 87 86 84 81 77 72 67 65 66 66 66 63 58 55 55 55 54 51 50 50 50 49 51 52 52 49 45 42 42 40 40 38 35 31 29 29 28 28 27 24 21 20 20 20 19 19 19 18 18 18 18 19 19 19 19 19 19 19 20 21 22
89 92 91 90 88 84 81 78 74 70 67 67 68 66 62 57 56 57 56 53 53 53 52 50 51 52 52 50 47 45 44 43 42 40 35 31 30 30 29 28 27 25 22 21 21 21 21 20 19 19 18 18 19 19 19 19 19 19 19 19 20 21 23
88 93 94 92 90 87 84 82 79 75 71 69 68 69 67 61 59 60 59 57 56 55 54 51 50 50 51 50 48 47 46 45 43 42 38 34 33 32 30 29 27 25 23 22 21 22 22 22 21 21 20 20 20 21 20 20 20 20 20 20 21 22 24
90 92 95 94 92 91 87 85 83 81 77 72 69 70 70 66 62 61 61 61 60 57 56 56 54 51 50 51 50 47 46 46 44 43 42 38 35 33 32 31 28 26 24 22 22 22 22 23 24 24 24 23 22 22 22 22 22 22 22 22 22 23 25
95 93 95 96 95 93 90 88 87 86 82 78 74 73 73 70 66 62 60 62 64 62 60 59 58 55 53 53 50 48 47 46 45 45 45 42 36 33 33 32 29 27 25 23 23 23 23 25 25 26 26 26 25 24 24 23 23 23 23 23 23 24 25
101 98 97 98 98 96 93 89 89 89 87 83 79 77 75 74 72 67 62 63 67 66 63 62 62 60 57 54 51 49 48 46 46 46 46 43 37 34 34 34 30 27 25 24 24 24 25 26 27 28 29 29 28 27 26 26 25 26 25 25 25 26 26
104 102 100 100 101 101 98 92 90 91 90 87 83 80 79 78 77 73 66 65 70 70 66 65 66 64 59 55 53 51 49 47 46 46 47 45 39 35 33 33 30 27 26 26 26 27 28 29 29 30 31 31 31 30 29 28 28 28 28 28 28 28 28
107 105 102 101 103 104 101 96 93 92 91 91 88 85 83 83 82 79 72 68 71 72 68 67 68 66 61 56 54 52 50 48 47 47 47 46 44 39 35 32 30 30 29 28 29 30 30 31 32 33 33 33 33 32 31 30 30 31 31 30 30 30 29
110 108 105 104 105 106 104 100 97 95 93 92 90 88 87 87 86 85 81 75 73 73 71 69 69 68 64 60 57 55 53 50 49 48 48 49 48 47 43 39 36 34 32 31 31 33 34 34 35 35 35 35 34 34 33 33 33 34 33 33 32 32 31
113 111 109 106 105 107 106 104 103 101 97 95 93 92 91 90 88 87 84 79 74 73 72 71 69 68 66 64 60 57 56 54 52 51 50 50 49 48 47 44 41 38 36 34 34 35 37 37 38 38 37 36 36 36 36 35 35 36 36 35 34 34 33
117 115 113 110 107 108 109 108 107 106 103 100 98 96 94 93 91 89 87 82 77 75 74 73 69 65 64 65 63 60 58 56 54 53 53 53 52 50 48 45 43 41 39 38 37 38 40 40 40 39 38 38 38 39 38 37 37 38 38 38 37 36 34
120 118 116 114 111 111 111 111 110 110 107 104 101 100 97 96 95 94 91 87 83 80 78 77 73 67 64 64 64 63 61 59 57 56 56 54 54 53 49 46 44 43 42 41 41 42 42 42 41 40 40 40 40 41 40 39 39 40 41 40 39 37 35
121 121 119 117 115 113 113 113 113 112 110 107 104 102 100 98 98 97 95 92 88 85 82 80 77 73 70 67 66 65 64 62 61 60 58 56 55 54 51 48 47 46 45 45 45 44 44 43 42 42 42 42 43 43 43 42 42 44 44 42 40 38 36
123 123 122 120 118 116 114 113 113 114 113 110 107 105 103 101 100 99 97 95 91 88 86 84 81 77 75 72 70 68 67 66 64 63 61 60 58 57 54 52 51 49 48 48 47 46 45 44 44 45 45 44 45 47 46 45 46 48 46 43 40 39 38
124 124 123 122 121 119 116 114 115 116 116 113 111 108 106 104 102 100 99 97 94 91 88 87 85 81 78 75 73 71 70 69 67 66 64 63 62 61 57 54 52 52 51 51 49 48 47 47 47 48 48 48 50 51 50 49 49 49 48 45 43 41 40
125 125 124 123 123 121 119 116 116 117 117 116 113 111 109 107 104 102 100 98 97 94 92 90 88 84 82 79 76 73 72 71 69 68 66 65 63 61 57 55 54 53 53 52 51 50 50 50 51 52 52 52 53 54 54 53 52 52 52 49 46 43 42
126 126 125 124 124 123 121 119 118 117 117 117 114 112 111 109 107 104 101 100 99 97 96 94 92 88 86 84 82 79 76 74 72 70 68 66 64 62 60 58 58 57 55 53 53 54 53 52 53 55 55 54 55 57 58 58 57 56 56 53 49 46 44

ECMWFFLT1_250_spd_069.txt.gz
Wind_Speed
34 32 31 31 31 32 33 34 33 32 31 30 28 27 25 23 20 17 16 19 23 27 29 29 27 26 25 24 24 25 25 23 21 19 17 16 15 14 13 12 11 10 9 9 8 7 6 5 4 3 2 2 2 3 4 5 6 6 6 6 6 7 8
34 32 31 30 31 33 33 34 35 34 33 30 28 27 26 24 21 18 18 19 24 28 29 29 28 27 26 24 24 26 27 25 23 21 19 18 16 15 14 13 12 12 11 10 9 8 7 6 5 3 2 1 1 3 4 5 6 7 7 7 6 6 6
35 34 32 30 30 32 34 35 36 36 34 31 29 28 27 25 22 20 20 21 24 28 30 29 29 29 27 26 25 26 28 27 25 23 21 19 17 16 14 14 13 13 12 11 10 9 8 7 5 4 2 1 2 4 5 6 7 8 8 8 7 7 7
37 35 33 31 30 31 34 36 36 37 36 33 30 29 27 26 24 22 21 22 24 28 31 31 30 30 29 28 27 27 28 29 26 24 22 20 19 18 16 15 14 14 14 13 12 10 9 8 7 5 4 4 4 5 6 7 8 9 9 9 8 8 8
39 36 34 32 32 33 35 36 37 37 37 35 32 30 28 28 27 25 23 23 24 27 30 31 31 31 31 30 29 28 29 29 28 25 24 22 22 20 18 17 15 15 15 15 13 12 12 11 10 8 7 6 6 7 8 9 9 9 9 9 9 9 8
42 39 37 36 35 36 37 36 37 37 36 34 33 31 29 30 29 26 24 24 24 25 28 31 33 33 33 32 31 30 30 30 29 28 26 25 24 22 20 18 17 17 17 16 15 15 14 13 13 12 11 10 9 9 10 10 10 11 10 10 9 9 9
45 41 39 38 37 39 39 37 37 37 36 34 33 32 31 31 30 28 26 25 25 26 29 32 34 34 33 32 32 32 31 30 30 29 28 27 26 24 22 20 19 19 18 18 17 17 17 16 15 14 14 13 12 12 12 12 12 12 12 11 10 10 9
48 45 43 41 39 39 40 39 38 37 37 36 35 35 34 32 31 30 29 27 27 28 29 31 33 33 32 32 32 32 31 31 30 30 29 29 27 25 24 22 21 20 20 19 18 18 18 18 17 16 16 16 16 15 15 14 13 13 12 12 11 10 10
51 49 46 43 40 38 39 40 39 38 37 36 36 36 34 33 32 32 30 28 28 29 30 30 31 32 32 32 32 32 32 31 31 30 30 29 28 27 26 24 22 21 21 20 20 19 19 19 19 18 18 18 18 18 18 16 15 14 13 12 12 11 10
54 52 49 46 42 38 38 39 40 38 37 36 36 36 34 33 33 32 30 29 29 29 30 30 30 30 31 33 33 33 33 33 32 31 31 29 28 27 26 24 24 23 22 22 22 21 21 21 21 21 20 20 20 20 19 18 16 14 13 13 13 12 12
58 54 51 49 45 40 38 40 42 40 38 37 37 36 33 32 33 33 32 30 29 29 30 30 29 29 29 30 31 33 34 34 33 33 32 31 28 27 26 25 25 25 24 24 24 23 23 22 22 22 21 21 21 20 20 19 17 15 14 13 13 13 13
61 56 54 52 49 44 41 42 45 45 42 40 38 37 34 32 33 34 33 31 29 29 29 29 28 27 27 27 28 30 33 33 33 34 33 31 29 28 28 28 27 27 26 27 26 26 25 24 23 22 21 20 20 19 19 18 17 16 14 14 14 14 14
64 59 56 55 52 48 44 45 47 48 47 44 42 40 37 34 33 34 33 31 29 29 28 27 27 25 24 24 24 26 29 31 33 33 32 30 29 29 29 29 29 29 28 27 27 27 26 25 22 20 19 19 19 18 18 18 17 16 15 15 15 15 15
67 63 60 57 56 53 49 47 48 50 51 49 46 43 40 38 37 36 35 32 29 28 27 26 25 24 22 22 23 24 26 27 29 30 30 29 28 29 30 30 31 30 28 27 27 26 26 24 21 20 19 18 17 17 17 17 17 16 16 16 15 15 15
69 67 65 62 59 56 53 49 48 50 53 52 49 45 42 41 40 39 38 34 31 29 27 25 23 22 21 21 22 23 24 25 26 27 28 28 28 28 29 30 30 29 28 27 27 25 25 23 21 20 19 17 16 16 17 16 16 17 16 16 16 15 15
73 71 69 66 63 59 56 53 50 50 52 54 52 48 45 43 41 41 40 36 33 30 28 27 25 23 23 23 24 25 27 28 28 29 29 29 29 29 29 29 28 28 27 27 26 24 23 22 21 20 18 17 16 16 16 16 16 16 16 16 16 15 14
76 74 72 69 67 63 60 57 54 52 52 54 54 51 48 46 44 43 41 38 36 33 31 30 31 30 30 28 26 27 29 30 30 30 30 30 29 28 27 27 27 27 27 26 25 24 23 23 22 20 18 17 16 16 16 16 16 16 17 17 16 15 14
75 76 75 72 70 68 64 60 57 55 53 54 55 53 50 48 46 44 42 41 39 36 32 33 35 36 36 34 31 32 32 30 28 27 28 28 27 25 23 23 24 26 26 26 26 25 24 24 23 21 19 18 17 17 16 15 15 16 16 16 15 15 14
75 77 77 75 73 71 69 65 61 58 55 55 55 54 52 50 49 47 44 43 42 38 36 38 40 41 42 40 39 38 35 31 29 28 27 28 27 25 23 22 23 24 24 24 24 24 25 25 24 22 21 19 18 16 15 15 16 16 15 15 14 14 14
75 78 79 78 76 75 73 69 64 60 57 55 56 56 55 53 52 50 48 47 47 46 46 46 44 45 47 45 42 41 38 34 33 31 30 29 28 27 26 26 25 23 21 21 22 23 25 25 24 22 21 20 17 16 15 14 15 14 14 13 14 14 14
74 77 81 81 79 77 76 74 69 63 59 57 58 60 59 57 54 51 51 52 53 52 52 51 47 47 49 49 46 43 41 38 37 35 34 32 31 30 29 28 27 25 22 21 21 22 22 22 22 22 21 19 17 16 14 13 13 13 13 13 13 14 15
77 75 79 82 81 79 78 77 74 69 64 61 61 62 61 59 56 54 54 56 56 55 54 53 51 49 50 51 50 46 43 41 39 38 36 35 35 34 32 30 29 26 23 22 22 21 21 21 21 20 19 17 16 16 14 12 12 12 13 13 14 15 16
83 76 75 81 83 82 81 79 78 75 70 66 64 63 61 61 60 56 55 56 57 56 56 55 54 53 52 52 51 47 43 41 40 39 37 36 36 38 36 32 30 27 24 24 24 23 22 22 21 19 17 17 17 17 16 14 13 14 14 14 15 17 18
88 82 78 78 82 85 84 82 81 81 77 71 68 65 63 62 62 58 54 55 56 57 58 57 55 55 54 53 51 47 43 41 40 40 39 37 37 39 38 35 32 29 27 26 25 24 23 22 21 20 19 18 18 18 17 16 16 16 16 15 16 18 20
92 91 87 81 81 85 87 86 85 84 82 77 71 68 65 64 65 62 58 56 58 60 62 60 56 55 56 55 53 49 46 44 43 43 42 40 38 39 40 38 35 32 29 28 27 26 25 24 23 23 22 20 20 19 19 19 19 18 18 17 17 19 21
95 96 94 89 86 85 87 89 89 86 85 82 76 71 70 69 69 68 63 61 60 62 64 63 59 57 57 57 55 52 50 48 46 45 43 42 40 40 40 39 37 34 32 31 30 28 27 26 26 25 24 22 21 21 21 21 21 20 20 19 18 20 21
98 98 97 95 92 90 88 90 92 90 88 86 81 75 73 73 75 74 70 66 64 64 65 65 62 59 58 58 57 55 53 51 49 46 45 44 43 41 41 41 39 37 34 32 31 30 29 29 28 27 26 25 23 23 23 23 22 22 22 21 21 22 22
101 101 100 97 96 94 91 90 93 94 91 89 87 80 75 75 78 78 76 71 67 65 67 67 65 62 61 60 59 58 55 53 50 47 46 46 45 44 43 43 42 40 37 34 33 32 31 30 30 29 28 27 26 25 24 23 22 22 23 23 23 23 24
105 104 103 100 98 98 95 91 92 96 95 92 91 86 79 76 78 80 79 75 69 66 68 69 68 66 63 62 61 60 58 55 51 48 49 49 48 47 47 45 44 44 42 38 35 34 34 33 32 31 30 30 29 27 26 24 23 24 24 25 25 25 25
109 107 105 103 102 102 100 94 92 95 98 96 93 90 85 80 79 81 81 79 74 69 70 71 71 68 66 65 64 62 60 58 54 52 53 52 50 49 49 47 46 46 46 43 38 35 35 36 34 32 32 32 31 30 28 26 25 25 26 27 27 27 27
113 111 108 106 106 106 105 100 95 95 100 100 97 94 90 85 82 82 82 83 80 75 72 72 73 71 69 68 67 65 63 61 60 59 57 55 52 51 50 49 48 47 48 47 43 38 37 38 36 34 34 34 33 32 30 28 26 26 27 28 29 29 29
116 115 112 110 109 109 108 105 100 96 99 102 101 98 94 90 86 84 83 84 84 80 75 73 74 73 72 70 69 67 65 64 64 64 61 57 54 52 52 51 49 48 48 48 47 43 40 40 39 37 36 37 37 35 32 30 28 27 28 29 30 31 31
119 118 116 114 112 111 110 109 106 100 98 102 103 101 98 95 91 87 85 85 85 84 81 78 76 74 73 72 71 69 68 67 67 67 65 62 58 55 54 52 51 49 48 49 49 47 45 45 43 41 40 40 40 38 35 32 31 29 30 31 32 32 31
120 121 120 118 116 115 113 112 110 105 100 101 105 105 102 100 97 92 88 86 86 86 85 83 80 76 74 74 74 72 71 70 70 69 68 66 63 59 57 55 53 50 49 50 51 51 50 49 48 47 45 43 41 39 37 35 34 33 32 33 33 32 31
121 122 122 121 120 118 116 115 113 109 103 101 104 107 106 103 101 99 94 90 88 87 87 87 86 82 78 77 76 76 75 74 73 73 71 69 66 63 60 57 55 53 51 51 51 52 52 53 52 51 48 45 41 39 38 39 39 38 35 34 35 34 33
123 123 123 124 123 122 120 118 115 112 108 105 104 106 109 108 105 103 100 96 92 89 89 90 89 87 84 81 80 79 78 76 75 75 74 71 68 66 62 58 57 56 55 53 53 54 55 55 54 53 50 46 43 42 41 42 43 40 36 36 38 38 36
125 124 125 125 126 125 124 122 119 116 113 111 108 107 108 110 109 106 103 100 97 93 92 91 91 91 89 86 83 81 79 77 77 77 77 73 70 67 64 61 60 60 59 58 56 56 57 57 56 55 52 50 49 47 46 45 44 40 38 39 40 40 40
126 126 126 126 127 127 127 125 123 120 116 115 114 111 109 110 111 109 105 102 100 98 96 94 94 94 93 91 88 85 81 77 77 79 79 76 71 67 65 65 65 64 62 61 59 58 58 58 58 57 55 54 52 49 47 46 44 41 39 40 40 41 42

ECMWFFLT1_250_spd_072.txt.gz
Wind_Speed
35 34 32 31 30 30 29 28 28 27 26 26 28 29 28 26 23 20 19 19 18 18 21 25 26 27 27 26 24 22 20 18 17 16 14 14 13 12 11 10 8 7 6 5 4 3 3 2 1 3 5 6 7 8 9 10 11 11 12 12 12 12 12
35 33 31 30 30 29 28 28 27 27 27 28 30 31 30 28 24 21 19 20 20 19 21 24 27 27 28 27 26 24 22 20 19 18 17 16 14 13 12 11 10 8 7 6 5 5 4 3 1 1 3 5 7 8 9 10 11 11 12 12 12 12 12
36 34 32 30 29 28 27 27 27 27 27 29 32 33 31 28 25 22 20 21 22 21 21 24 27 28 29 29 27 26 23 22 21 20 18 16 15 14 13 12 11 9 8 7 6 6 5 4 3 1 2 4 6 7 9 10 11 11 11 12 12 12 12
39 36 33 31 30 29 27 27 27 27 27 29 32 32 31 29 26 24 22 22 24 23 22 24 27 28 29 29 29 28 26 24 22 21 20 18 17 16 15 14 12 10 10 9 8 7 6 5 4 3 2 4 5 7 8 9 10 11 11 12 12 12 12
41 38 35 34 33 31 29 27 27 27 28 29 31 32 32 30 29 26 24 24 25 24 23 24 27 29 30 30 30 29 28 26 24 23 22 21 19 18 17 15 14 12 11 10 9 8 8 7 6 5 4 5 6 7 8 9 10 11 11 12 11 12 12
43 41 39 36 34 33 30 27 26 26 28 29 30 33 32 31 31 28 25 25 25 24 23 24 27 31 31 31 30 29 28 27 26 26 25 24 22 20 18 17 15 14 13 12 11 10 9 8 8 8 7 6 7 7 8 9 10 11 11 12 12 11 11
45 43 41 39 36 33 31 28 25 24 26 28 30 32 33 33 32 29 26 26 26 25 25 25 27 30 32 32 31 31 30 28 28 28 28 27 25 22 20 19 17 17 16 14 13 12 11 10 10 10 9 9 8 8 9 10 11 11 12 12 12 12 12
48 45 43 41 38 35 32 29 25 22 22 27 30 33 34 34 32 30 28 27 27 27 27 26 26 28 30 32 32 32 31 29 28 29 29 29 27 25 23 21 20 19 18 16 15 14 13 12 12 12 11 11 10 9 10 10 11 12 12 12 12 12 12
52 48 46 44 41 38 35 31 28 23 22 25 30 33 34 34 33 31 28 27 28 28 27 27 26 26 28 31 32 32 31 30 29 29 30 31 30 28 26 24 22 22 20 19 17 16 15 15 14 13 13 13 13 12 12 12 12 12 12 12 12 12 12
55 52 49 47 45 41 38 34 31 27 25 26 29 31 33 34 33 32 29 28 29 28 27 26 25 25 26 29 31 32 33 32 31 30 31 31 30 29 28 26 25 24 23 21 20 19 18 17 16 15 15 15 15 15 14 13 12 12 11 11 11 11 12
59 56 53 50 48 45 42 38 34 32 30 29 30 31 32 32 33 32 30 29 29 28 27 26 26 25 24 26 29 32 34 34 33 33 32 31 30 29 28 27 26 25 24 23 22 21 20 19 18 17 17 17 17 17 16 14 13 12 11 10 10 11 11
62 60 57 54 51 48 45 42 39 35 33 33 34 34 33 33 33 33 32 30 29 28 27 27 27 26 24 24 26 31 34 34 35 34 32 30 29 29 28 28 27 26 24 24 23 22 22 21 20 19 19 19 20 19 17 15 13 11 10 10 10 10 10
65 63 60 57 54 52 49 46 43 39 36 35 36 37 36 35 34 34 33 31 30 29 29 28 27 27 26 24 25 28 32 34 35 34 32 30 28 28 28 28 28 27 25 24 24 23 24 24 23 22 21 21 21 20 18 15 13 11 10 9 9 9 9
67 66 63 61 58 55 53 50 47 43 40 37 37 40 40 37 36 36 36 34 32 32 31 29 28 28 28 26 25 26 29 32 33 33 31 29 28 28 29 29 29 28 27 26 26 25 25 24 23 23 22 22 20 19 18 16 13 11 9 9 9 9 9
69 68 66 64 62 59 56 54 51 47 44 40 39 41 42 40 38 37 38 36 33 33 33 31 29 29 29 28 27 26 27 29 30 31 31 30 29 30 30 31 30 29 28 28 28 26 25 23 22 22 21 21 19 17 17 16 13 12 10 9 9 9 9
71 70 69 67 65 63 60 58 55 51 47 44 41 41 43 44 40 38 38 37 34 33 34 32 31 30 30 30 29 27 26 27 29 30 30 30 30 31 31 32 31 30 30 29 29 27 25 23 21 21 20 19 18 17 16 15 14 13 11 10 10 9 9
73 72 72 70 68 66 64 61 58 55 52 48 45 43 44 45 43 41 39 38 35 33 34 34 33 32 31 31 29 27 26 28 29 29 29 30 30 31 31 31 31 30 30 29 28 27 26 24 23 21 19 18 17 17 16 14 14 14 12 11 10 9 8
76 75 74 73 71 69 68 65 62 59 56 52 48 46 45 46 45 43 40 39 36 33 34 35 34 33 33 32 30 28 28 29 30 30 30 29 29 29 30 30 29 29 28 27 27 26 25 25 24 21 19 19 18 16 15 13 13 14 13 11 9 8 8
79 77 76 74 73 72 71 69 66 63 60 56 52 49 48 47 47 44 41 38 35 34 35 36 36 36 35 33 30 28 28 28 29 30 29 28 27 27 27 27 28 28 27 27 26 25 24 25 24 22 20 19 17 15 13 13 13 13 12 10 9 8 7
81 80 78 76 75 74 73 71 69 67 63 59 55 52 50 49 48 46 42 37 36 39 40 39 39 38 36 34 31 30 29 27 28 29 28 27 26 25 25 25 26 26 26 25 25 25 25 25 23 22 21 19 17 15 13 13 13 13 11 10 9 8 8
83 82 80 79 77 76 75 73 71 69 66 63 60 56 53 51 50 50 47 43 44 47 46 43 42 40 37 35 34 33 33 32 31 30 29 28 26 26 26 27 26 25 24 24 25 25 25 24 23 22 21 19 18 16 14 13 13 13 12 10 10 10 10
84 83 82 81 79 78 77 75 73 71 69 67 65 60 57 55 53 54 53 50 48 48 48 46 44 42 40 39 38 37 37 36 36 35 33 30 28 29 31 32 30 27 25 24 24 24 24 24 24 22 20 18 17 17 16 13 13 14 13 12 12 12 12
85 84 83 83 81 80 79 78 76 74 72 70 68 65 61 58 57 58 58 55 52 50 48 47 46 45 45 44 41 40 40 41 41 39 37 34 32 33 35 36 34 32 28 26 25 24 24 24 23 22 20 19 19 19 17 15 14 15 15 14 14 15 14
86 86 85 85 83 82 81 80 79 77 75 73 71 69 66 62 60 61 61 60 57 53 48 47 48 49 50 50 46 43 43 45 45 44 41 38 37 38 38 38 37 35 32 29 28 26 26 24 23 21 21 21 21 20 19 17 16 17 17 17 16 17 16
88 87 87 86 85 84 83 82 82 81 79 77 74 72 70 67 64 63 63 63 62 55 48 47 49 51 53 52 48 44 44 48 50 48 46 44 42 42 41 39 38 37 34 32 31 29 27 25 24 23 23 23 22 22 22 20 18 18 19 18 18 18 17
91 89 88 88 87 86 85 84 85 84 82 80 78 75 73 71 68 66 65 66 66 62 54 49 47 49 52 51 47 44 44 49 52 51 49 48 47 44 42 39 38 38 37 36 34 32 29 27 26 26 25 24 24 23 24 23 21 20 21 20 19 19 18
95 92 90 89 89 88 87 86 87 85 83 82 82 79 76 74 72 70 68 68 69 69 65 57 50 47 47 46 44 43 44 47 52 54 51 49 49 46 43 41 40 40 39 39 38 36 33 31 30 28 27 26 25 25 25 25 24 23 22 21 20 20 19
99 96 93 91 91 90 89 89 89 87 84 83 83 83 81 78 75 73 71 70 71 72 71 67 58 50 45 41 37 41 46 49 52 53 48 46 47 48 47 45 43 42 41 40 39 38 37 36 34 32 29 28 27 26 27 27 26 24 23 22 21 20 20
103 101 97 94 93 92 91 91 91 90 88 86 84 84 84 82 79 77 75 73 73 74 74 73 67 58 52 48 43 43 47 49 48 47 46 47 49 50 49 48 47 45 43 41 40 39 38 39 38 36 32 30 29 29 28 28 26 25 24 23 22 22 22
107 105 102 99 96 95 93 93 94 93 93 91 88 87 87 86 83 80 79 77 76 76 76 76 74 67 62 59 54 50 47 46 46 47 49 52 55 54 52 50 50 47 45 43 41 39 38 39 40 39 36 33 31 30 30 29 27 24 23 23 23 24 24
110 108 106 103 101 98 96 96 96 96 95 94 91 89 89 90 88 84 83 81 79 78 77 77 77 74 70 67 63 58 52 49 49 52 53 53 55 58 57 55 53 51 48 45 43 42 40 39 40 41 40 37 34 33 32 31 28 25 23 23 24 25 26
112 111 109 107 105 102 100 98 98 98 98 96 94 91 90 90 91 89 87 85 83 81 79 79 79 78 76 73 69 66 62 55 54 57 58 55 56 60 61 60 58 55 51 48 46 45 44 42 41 43 44 42 40 37 35 33 32 28 25 25 26 27 28
115 113 112 110 109 106 104 102 101 101 101 99 98 96 93 91 92 93 91 89 87 85 83 81 81 82 81 78 74 72 70 66 62 62 62 60 59 61 63 62 60 58 55 51 49 48 48 47 45 45 46 47 46 43 39 36 35 33 30 29 29 29 29
117 116 114 113 112 110 107 106 105 104 103 101 100 100 97 94 94 95 96 94 91 89 87 85 84 83 84 83 80 76 75 74 71 69 68 66 65 64 64 62 60 59 58 55 51 48 48 49 48 47 47 49 49 47 44 40 38 39 37 34 32 31 31
119 118 116 115 114 113 111 109 109 108 106 104 102 102 101 98 96 96 97 97 95 92 91 89 86 85 85 86 85 81 79 78 76 75 74 72 69 68 67 65 62 61 60 59 55 50 48 49 49 48 49 50 49 49 47 45 45 45 43 39 36 34 33
121 120 119 117 116 115 114 112 112 112 110 107 105 104 103 102 100 98 97 99 99 97 94 92 90 87 85 86 86 85 83 81 79 78 78 76 73 72 71 68 64 62 61 59 56 51 49 49 50 49 49 50 50 50 50 49 49 49 46 43 41 39 35
123 122 121 120 118 117 116 115 115 115 114 111 108 106 106 105 104 102 99 99 100 100 98 95 93 90 88 87 87 87 86 83 82 81 81 79 76 74 74 71 67 63 61 61 58 53 48 47 48 50 50 50 52 53 53 52 52 52 51 48 45 40 37
124 123 123 122 121 119 118 118 118 117 117 115 111 109 109 108 107 105 103 100 100 101 101 99 96 94 92 90 89 89 88 86 84 83 83 82 80 78 76 75 71 68 67 67 66 61 55 50 50 51 52 53 54 55 55 55 55 55 54 50 46 42 40

ECMWFFLT1_250_spd_075.txt.gz
Wind_Speed
39 39 37 35 32 30 27 24 23 23 25 25 24 25 25 26 26 26 25 23 20 17 16 16 18 20 21 22 22 21 20 18 16 14 13 12 11 10 9 7 6 4 2 2 2 3 4 5 6 8 11 12 13 15 15 15 15 15 15 15 15 15 15
38 37 35 34 33 31 28 25 22 22 23 24 25 26 27 27 28 28 27 25 22 19 17 18 19 21 22 23 23 22 21 19 17 15 14 14 12 11 10 9 7 5 3 2 2 3 3 4 5 6 9 10 11 13 13 14 14 14 14 14 14 14 14
39 36 33 31 29 29 28 26 24 22 22 23 25 26 26 27 27 28 28 26 24 21 19 19 20 22 24 25 25 24 23 22 19 17 15 15 14 12 11 10 8 6 5 4 3 3 3 3 3 4 6 8 9 10 11 12 12 13 13 13 13 13 13
39 37 34 31 28 28 28 27 26 24 22 23 24 24 24 25 26 27 28 27 26 23 21 19 20 23 25 26 26 26 25 24 21 18 17 17 17 15 13 11 9 8 7 5 4 4 4 3 3 3 3 5 7 8 9 10 11 11 12 12 12 12 12
40 38 35 33 31 29 29 28 26 24 22 21 21 21 22 24 26 27 28 28 27 24 22 20 22 24 25 26 27 27 26 25 23 21 20 19 19 17 15 12 11 10 8 7 6 5 5 4 4 3 1 3 5 6 8 9 9 10 10 11 11 12 12
42 40 38 35 33 31 29 27 25 23 20 19 18 18 20 24 27 27 28 28 27 25 23 22 23 24 25 26 27 28 28 27 25 24 22 22 20 19 17 14 13 12 10 8 8 7 6 5 4 3 2 1 3 5 6 7 8 9 10 10 10 11 11
46 44 41 38 35 33 30 28 26 25 22 19 17 17 20 24 27 28 27 27 26 25 24 22 22 23 24 26 28 28 29 28 27 26 25 23 22 20 19 17 15 14 12 10 9 8 7 6 5 4 3 3 3 4 5 6 7 9 9 9 9 9 10
49 47 44 41 38 35 32 30 28 27 25 22 20 20 22 24 26 27 26 25 25 26 25 23 23 23 23 24 27 28 29 28 28 27 26 25 23 22 21 19 17 16 13 11 9 9 8 7 6 5 4 4 4 5 6 7 8 8 9 9 8 8 8
52 50 48 45 41 38 35 33 31 29 27 25 23 24 26 27 27 28 26 25 26 28 27 25 24 24 24 24 26 28 29 29 29 28 27 26 25 24 23 21 19 17 15 12 10 10 9 8 7 5 5 5 6 7 9 10 10 10 9 9 8 7 7
54 53 51 48 45 41 38 36 34 32 29 27 25 26 30 32 31 31 31 31 31 30 29 27 26 25 25 25 26 27 29 30 30 29 28 26 25 23 22 21 19 18 16 13 12 10 10 9 8 7 6 7 8 10 11 12 12 12 11 10 8 7 6
57 55 53 52 49 45 42 39 37 35 32 29 28 28 31 35 35 35 35 35 35 32 30 29 28 26 25 25 26 28 30 31 32 31 30 27 25 23 22 21 20 19 17 16 14 12 11 11 10 9 9 9 10 11 12 13 13 13 12 11 9 8 7
60 58 56 54 52 49 46 43 40 38 35 32 30 30 32 36 37 37 38 38 35 33 31 30 29 28 26 25 26 28 31 32 33 33 32 29 26 24 23 22 22 21 20 19 17 16 15 14 12 11 11 11 12 13 14 14 13 13 12 11 10 9 8
63 61 59 57 55 53 50 47 44 41 38 36 34 32 33 36 39 40 40 39 36 34 33 32 31 30 29 27 26 28 30 33 34 34 33 31 29 26 25 25 24 24 23 22 21 20 20 18 16 14 14 14 15 15 15 14 13 12 11 10 10 10 9
66 64 62 60 58 56 54 51 48 45 42 40 37 35 34 36 40 42 41 40 38 36 35 33 33 33 32 30 28 28 30 32 34 34 33 33 32 30 29 28 27 26 25 25 24 24 23 21 19 17 16 17 17 17 16 14 12 11 11 10 10 10 10
69 67 65 63 61 59 57 55 52 50 47 44 41 39 37 36 39 42 43 42 40 37 35 34 34 34 34 33 31 31 31 31 32 32 33 33 34 34 33 32 30 28 27 27 27 26 24 23 21 20 19 19 18 18 17 14 12 11 11 11 11 11 11
72 70 68 66 64 62 60 58 56 53 51 48 45 43 40 38 38 41 43 43 41 38 36 35 35 35 35 35 34 33 32 31 31 31 31 32 34 35 35 34 33 31 30 29 28 27 26 25 24 23 21 20 19 18 17 15 13 12 12 12 12 12 11
75 73 71 69 67 65 63 61 59 57 55 52 49 46 44 42 40 40 42 43 42 40 38 36 35 36 37 37 36 33 32 32 32 32 31 32 33 34 35 35 34 33 32 30 28 27 26 25 24 23 22 20 19 18 16 14 12 12 13 13 13 12 11
78 76 73 71 70 67 65 63 62 60 59 57 54 51 48 46 43 42 42 43 42 41 39 38 37 37 37 38 37 34 32 32 32 32 32 31 31 32 33 34 34 33 32 31 29 27 25 24 23 21 20 19 19 18 16 13 11 12 14 15 14 12 12
80 78 76 74 72 70 68 66 64 63 62 60 58 55 52 49 47 44 43 44 44 42 40 39 38 38 38 38 38 37 35 34 34 34 34 33 32 31 31 31 32 32 32 32 30 28 26 24 23 20 18 18 18 18 16 14 12 12 14 15 15 13 12
83 81 79 77 75 73 71 69 67 65 64 63 61 59 56 53 50 47 45 45 46 45 42 40 40 41 41 41 40 39 37 36 36 36 36 34 32 32 31 31 32 31 30 29 28 28 27 26 24 22 19 18 18 18 17 15 13 13 14 15 16 14 13
86 84 82 80 79 76 74 72 70 68 67 66 64 62 60 56 53 51 48 46 47 49 47 45 44 45 45 43 42 41 39 37 36 36 34 33 31 30 31 32 32 31 29 27 26 26 27 26 25 24 22 21 20 19 18 16 14 14 15 15 16 15 14
89 87 85 83 81 79 77 75 73 71 70 68 67 65 63 60 57 54 52 49 50 53 53 51 47 46 46 44 42 42 40 37 35 34 34 32 30 30 30 31 31 31 29 28 26 26 25 25 25 25 23 22 21 20 19 17 15 15 16 16 16 15 16
91 90 88 86 84 82 80 78 76 74 72 71 69 68 66 63 61 58 56 54 53 54 55 54 50 48 47 45 43 43 43 40 37 36 34 33 32 32 31 31 30 29 29 28 28 28 27 26 26 24 23 22 22 22 21 18 16 16 17 17 17 17 18
92 92 91 89 87 85 83 81 79 77 75 73 72 71 69 67 65 62 60 58 57 55 55 55 54 51 49 47 47 46 45 42 41 39 37 35 34 33 32 31 29 28 28 28 29 29 29 28 27 25 24 24 24 23 22 20 18 18 18 18 18 18 19
94 93 93 91 90 88 86 84 82 80 78 76 75 73 72 70 68 66 64 62 61 59 56 55 56 54 52 51 49 48 46 44 43 42 40 37 35 34 32 30 29 28 28 28 28 29 29 29 28 26 25 25 25 24 23 22 21 21 21 21 20 20 19
96 95 94 93 92 90 89 87 84 83 81 79 77 76 75 73 71 70 68 66 64 63 61 58 57 57 56 53 51 50 48 46 45 43 41 38 35 34 33 33 32 32 32 31 30 29 29 29 29 28 28 27 26 25 24 23 22 23 23 22 21 21 20
98 97 96 95 94 93 91 90 87 85 84 82 80 79 77 76 75 73 71 69 68 67 65 63 61 59 57 55 54 51 49 48 46 45 42 37 33 33 35 36 36 36 35 33 32 30 30 30 29 29 29 28 27 26 25 24 23 24 24 23 23 23 21
101 100 98 97 96 95 93 92 90 88 86 84 83 81 80 79 78 76 74 73 72 70 68 67 65 62 60 58 56 54 52 50 49 47 43 38 35 38 41 41 39 38 36 34 34 34 33 33 32 32 31 30 29 28 28 26 24 24 24 24 24 24 23
104 103 101 99 98 97 95 94 93 91 88 87 85 83 82 81 80 79 78 76 75 73 71 70 68 66 64 61 58 57 55 53 51 49 47 44 41 44 46 46 43 41 38 37 37 39 39 37 36 36 34 33 32 31 30 28 26 25 25 25 25 24 24
108 106 105 103 101 99 97 96 95 93 91 89 88 86 84 83 82 82 81 79 78 76 74 73 71 69 69 66 62 60 59 56 53 52 53 51 49 47 47 47 44 41 40 41 42 42 42 41 40 39 38 37 36 35 33 31 29 27 25 26 26 26 26
112 111 109 106 104 102 100 98 97 95 93 92 90 89 87 86 85 84 83 82 81 79 78 77 74 72 72 71 67 64 62 60 56 55 56 56 54 50 48 46 43 41 43 48 48 46 45 44 43 43 42 41 40 39 38 36 33 30 27 27 28 28 27
116 114 113 111 108 106 103 101 99 97 96 94 93 91 90 88 87 86 85 84 84 83 82 80 78 76 74 74 72 68 65 63 61 58 58 59 58 54 49 47 48 48 47 49 52 51 50 48 47 47 46 45 43 42 41 39 37 34 31 29 29 30 29
118 117 116 114 113 110 107 104 102 100 98 97 96 94 93 91 90 88 87 87 86 85 84 83 82 79 77 76 76 73 69 67 65 62 62 63 61 57 52 49 51 53 53 53 55 56 54 52 51 50 49 48 47 44 42 41 40 38 35 32 31 31 30
119 119 119 118 116 114 111 108 106 104 102 100 98 97 95 94 92 91 90 89 88 87 86 85 85 83 80 79 79 78 75 72 69 66 66 66 66 62 57 53 52 54 57 59 60 59 58 56 55 53 51 50 49 47 44 43 42 42 41 38 34 31 31
121 121 121 120 120 118 115 112 110 108 105 103 102 100 98 96 95 94 92 91 90 89 88 87 87 86 84 82 81 81 81 78 73 69 68 69 68 66 62 58 55 54 56 61 63 62 61 59 57 56 54 52 51 49 47 47 46 45 44 41 37 35 34
123 122 122 122 121 121 119 116 114 112 110 107 106 103 100 98 98 96 95 93 92 91 90 90 89 88 88 86 84 84 84 82 77 71 69 69 67 67 65 62 58 56 57 60 63 63 61 59 58 57 56 53 52 51 50 50 49 48 45 43 42 42 40
124 124 124 123 123 122 121 120 117 115 113 112 110 107 104 102 100 99 98 96 95 93 93 92 91 90 90 89 88 86 86 86 81 75 72 71 68 67 68 66 63 60 60 61 63 63 62 61 60 60 58 56 54 53 52 52 52 51 49 48 46 46 45
125 125 125 125 124 124 123 122 121 118 116 115 113 111 108 105 103 102 101 100 98 97 96 95 94 93 92 92 91 89 88 89 87 80 77 77 74 71 71 71 68 65 64 64 64 64 63 63 62 62 62 60 58 57 56 54 53 52 53 52 50 48 48

ECMWFFLT1_250_spd_078.txt.gz
Wind_Speed
46 45 45 43 42 41 39 37 35 34 32 29 27 25 23 22 22 23 23 22 22 23 21 18 17 16 16 18 19 19 18 18 16 14 11 10 9 8 7 6 5 5 6 7 9 11 11 11 12 12 13 13 14 14 14 14 14 14 14 14 14 14 14
46 46 45 43 43 41 38 34 32 31 31 30 29 28 25 23 23 24 24 23 24 24 23 20 18 18 18 19 21 21 20 19 18 15 12 10 10 9 8 7 6 5 6 7 8 10 10 10 10 10 11 11 12 12 12 12 13 13 13 13 13 12 12
47 46 44 41 38 38 36 33 30 29 28 28 29 28 26 24 23 23 24 24 24 25 24 22 20 19 20 20 22 22 22 21 20 17 14 11 11 10 9 8 7 6 5 6 7 9 10 9 9 8 8 9 9 10 10 11 11 11 12 11 11 11 11
48 46 44 42 39 37 34 32 30 30 29 29 28 28 27 25 23 23 23 24 25 25 25 23 21 20 20 20 22 23 24 23 21 18 16 14 13 12 11 10 8 7 5 5 5 7 9 9 8 6 6 6 7 7 8 9 9 9 10 10 10 9 10
48 46 44 42 40 37 35 32 30 30 30 30 30 29 29 27 25 25 24 25 26 26 25 24 23 21 20 20 21 23 24 24 23 21 19 17 15 13 12 11 9 8 6 5 5 6 7 8 8 6 4 3 4 5 6 7 7 8 8 8 8 8 8
48 46 44 42 39 37 35 32 31 30 29 29 30 31 30 30 28 27 27 27 28 27 26 25 25 23 21 21 22 23 25 25 24 23 22 20 17 15 14 13 12 10 8 7 5 5 6 8 8 7 4 2 2 3 4 5 6 7 7 6 7 7 7
50 47 45 42 40 37 35 33 32 31 28 27 29 30 30 30 28 27 28 28 29 29 28 27 26 24 22 22 22 23 25 25 25 25 24 23 20 17 16 15 14 12 10 9 7 6 7 7 8 7 5 3 1 1 2 4 5 6 6 6 6 6 6
51 49 47 44 41 39 37 35 34 32 29 28 29 30 30 30 29 29 29 30 31 31 30 28 27 26 24 23 23 24 24 25 26 26 25 24 22 20 18 17 16 14 12 10 9 8 8 8 8 7 6 4 2 1 1 3 5 5 6 6 5 5 5
53 51 49 46 43 41 39 37 36 35 33 31 31 30 29 31 32 31 30 32 34 33 32 30 29 28 26 25 24 25 26 26 26 27 26 25 23 22 21 20 19 17 15 13 12 11 10 9 8 8 6 5 3 2 1 3 4 5 5 5 5 5 5
56 54 51 48 46 44 42 40 38 36 35 33 31 30 30 31 33 33 34 35 35 34 32 31 29 28 28 26 25 26 27 28 28 28 28 26 24 22 21 21 21 20 18 17 15 14 12 11 10 9 7 6 5 4 3 4 5 6 6 6 5 5 5
58 56 54 51 49 47 45 42 40 38 36 34 33 32 32 31 32 34 37 37 37 35 33 30 29 28 28 28 27 27 28 29 30 30 30 28 26 24 22 21 21 22 21 20 18 16 14 13 11 10 8 7 6 5 5 5 6 7 7 7 6 6 6
61 59 57 54 52 50 48 46 43 41 39 37 35 34 33 32 32 34 37 39 38 36 34 33 32 31 31 30 29 29 29 30 31 32 31 30 28 27 25 23 22 22 22 21 19 18 16 14 12 11 9 9 8 8 8 8 7 8 8 7 7 7 7
64 62 60 57 55 52 51 49 47 44 42 40 38 37 35 34 33 34 38 39 38 37 37 36 35 35 34 33 32 31 31 31 32 33 33 32 31 29 28 27 25 23 23 23 22 20 18 16 14 12 11 11 11 11 11 10 9 8 8 8 7 7 8
67 65 63 60 58 56 54 52 51 48 46 43 41 39 38 36 35 35 38 40 40 40 39 37 36 36 35 33 33 33 32 32 33 33 34 34 33 32 31 30 28 26 25 25 24 23 21 19 17 15 14 14 13 13 13 13 11 10 8 8 7 7 8
70 68 66 63 61 59 57 55 54 52 50 47 44 42 40 39 38 36 38 41 43 43 42 39 37 37 36 35 34 33 32 32 31 32 34 35 35 35 34 33 32 30 28 27 26 25 24 22 20 18 17 16 14 14 13 13 12 10 9 8 8 8 8
73 70 68 66 64 62 60 58 56 55 53 51 48 46 43 42 41 39 38 41 44 45 44 42 39 37 38 38 37 34 33 32 32 32 32 33 35 36 36 36 35 33 32 30 28 27 26 25 23 21 20 18 17 15 15 14 12 10 10 9 9 9 9
76 74 72 69 67 65 63 61 59 58 56 54 52 50 47 45 43 42 40 41 44 46 45 45 43 40 39 39 37 35 33 34 34 33 32 33 34 36 36 37 36 36 35 33 31 30 28 26 25 23 22 21 19 18 17 15 12 10 10 10 10 10 10
79 77 75 73 70 69 67 64 62 61 59 57 55 54 51 49 47 45 43 42 43 46 48 47 44 42 40 38 35 33 34 35 35 35 34 34 34 35 37 38 38 38 37 36 34 33 31 29 27 26 24 22 22 21 20 18 15 13 12 12 12 12 12
82 80 78 76 74 72 70 67 65 63 62 60 59 57 55 53 50 48 47 44 44 46 49 48 45 42 39 37 35 34 35 36 37 37 37 35 35 36 37 38 39 39 38 37 35 35 34 33 31 29 27 25 24 23 22 21 18 16 16 15 14 14 14
85 83 81 79 77 75 73 71 68 66 64 63 61 60 59 56 54 52 50 48 46 46 48 49 46 42 39 38 39 40 40 39 39 39 39 38 37 36 37 38 39 39 38 37 36 35 35 34 33 31 29 27 26 25 24 23 21 19 19 18 17 16 16
89 87 85 82 80 78 76 74 72 69 67 66 64 63 61 60 58 56 54 52 50 48 48 50 48 44 43 46 47 47 45 43 42 41 41 40 39 37 37 37 37 38 38 37 36 35 34 33 32 32 30 29 27 25 25 25 23 22 21 21 20 19 18
92 90 89 86 84 82 80 78 75 72 70 69 67 65 64 63 62 60 58 55 53 51 50 52 53 50 50 52 52 49 46 44 43 43 43 42 41 38 37 36 35 36 36 35 35 34 34 33 32 32 31 29 27 26 26 26 25 24 24 23 22 21 21
95 94 92 90 88 86 84 82 79 76 74 72 70 68 67 66 65 63 61 59 57 55 53 54 56 57 55 54 51 49 47 45 45 45 44 43 42 39 35 33 31 31 32 33 34 34 33 33 32 32 31 29 29 28 28 28 27 26 26 25 24 23 24
98 96 95 93 92 90 88 86 83 80 77 75 73 72 70 69 68 66 65 63 61 59 57 56 57 60 61 58 53 51 50 50 49 49 47 45 43 39 35 33 31 30 30 32 34 34 34 34 33 32 31 31 31 30 29 28 27 27 27 27 25 25 25
100 99 97 96 94 93 91 89 87 84 81 79 77 75 73 72 71 69 68 66 64 63 61 59 59 60 63 63 57 53 53 53 53 51 49 46 43 40 37 35 35 37 37 37 37 36 35 34 33 32 32 31 31 31 30 29 27 26 27 26 26 26 26
101 100 99 97 96 95 93 92 90 87 84 82 80 78 77 75 74 72 71 70 68 67 65 64 62 61 63 65 62 56 54 54 54 53 50 47 44 42 40 39 40 43 44 43 40 36 34 33 32 32 31 31 31 31 30 29 27 27 27 26 26 26 26
102 102 101 99 98 97 95 94 92 90 87 85 83 82 80 78 77 75 74 73 71 70 69 67 66 63 62 64 63 59 56 56 56 55 51 49 46 45 45 46 47 47 45 41 38 37 35 33 32 31 31 30 30 30 30 29 28 27 27 27 26 27 27
104 103 102 101 100 99 97 95 94 93 90 88 86 84 83 81 80 78 77 76 75 73 72 71 69 67 64 64 65 63 59 57 57 56 53 51 49 48 48 49 50 48 45 42 41 40 38 36 35 33 31 31 31 31 30 29 28 28 27 28 28 28 28
106 105 104 103 102 101 99 98 96 95 93 91 89 87 85 84 83 81 80 79 78 76 75 74 73 70 68 67 67 67 65 61 58 57 55 53 52 52 51 50 50 49 49 48 46 43 41 39 37 35 34 33 32 31 30 30 29 28 28 28 29 29 29
110 109 108 106 105 103 102 100 99 97 95 94 92 90 88 87 85 84 83 82 81 79 78 77 76 74 72 70 69 69 69 66 62 60 59 57 55 54 53 52 51 50 50 49 47 45 43 41 39 37 35 34 34 33 31 30 29 28 27 28 28 28 28
113 112 111 110 108 107 105 104 102 100 98 97 95 93 91 89 87 86 85 84 83 82 81 80 78 77 76 74 72 70 70 69 66 64 62 60 58 57 56 56 54 52 50 47 46 46 46 44 42 39 37 35 35 34 31 30 29 28 27 27 28 28 28
115 115 114 113 112 110 108 107 105 104 102 100 98 96 94 92 90 88 87 86 85 85 83 82 81 80 79 78 75 73 71 70 69 66 65 64 62 60 59 59 58 56 52 49 48 49 49 46 43 41 39 37 36 34 32 30 28 28 28 27 28 29 29
116 116 116 116 115 114 112 110 109 107 106 104 102 99 97 95 94 92 90 89 87 87 86 84 83 82 81 80 79 76 73 72 71 69 68 67 65 63 62 61 61 59 57 55 53 51 49 48 45 43 41 40 37 33 29 29 30 31 30 29 30 32 31
118 117 117 118 118 117 116 114 112 111 109 107 106 103 101 99 97 95 93 92 90 89 88 87 86 85 84 83 82 80 77 75 73 71 70 70 68 66 64 63 62 61 59 58 56 54 52 51 49 47 45 43 39 35 35 38 40 37 33 32 35 37 37
120 119 119 119 119 119 118 117 116 114 113 111 109 107 104 102 100 98 96 95 93 91 90 89 88 87 86 85 84 83 81 78 76 74 73 72 71 70 68 66 64 63 62 61 60 57 54 54 54 52 50 47 45 45 47 49 45 39 37 38 37 38 41
123 122 121 121 120 120 119 119 119 118 116 115 113 111 108 106 104 102 100 98 96 94 93 92 91 90 89 87 86 86 84 83 80 78 76 75 74 74 72 69 67 66 65 65 64 60 57 57 58 57 55 53 53 54 54 52 48 45 45 43 38 37 43
125 124 124 124 123 122 121 121 120 120 119 118 117 115 112 110 108 106 104 101 99 97 95 95 94 93 92 90 89 88 88 86 85 82 80 79 78 77 75 73 71 70 70 70 68 65 61 60 61 61 60 59 59 58 56 54 53 53 52 48 42 42 46
125 126 126 126 126 125 124 123 122 121 121 121 120 119 116 114 112 110 108 106 103 101 99 97 96 95 94 93 92 91 90 89 88 86 84 82 81 80 79 77 74 73 72 72 71 68 66 64 63 63 63 63 63 61 59 58 57 56 55 54 53 52 52

ECMWFFLT1_250_spd_081.txt.gz
Wind_Speed
51 51 49 48 45 38 34 31 25 23 26 28 28 27 24 23 23 22 22 22 21 20 18 16 17 17 15 15 16 17 17 15 13 11 9 7 6 5 6 6 6 6 8 8 8 8 8 8 9 10 10 10 10 10 10 10 11 11 12 12 12 12 13
52 51 49 47 44 37 32 29 27 29 32 31 28 26 23 23 24 23 21 22 22 21 20 18 18 19 18 16 17 18 18 17 15 13 11 9 7 6 6 7 6 6 7 8 9 8 8 8 8 9 8 8 8 8 9 9 9 10 10 10 10 11 11
52 52 50 47 44 40 37 35 32 32 33 32 29 26 23 23 24 23 21 21 22 22 22 19 18 20 20 18 18 19 19 19 17 14 13 11 10 8 7 8 7 6 7 8 9 9 9 8 7 8 7 7 6 7 7 8 8 8 8 8 8 8 9
53 53 51 49 46 41 39 36 33 32 31 29 27 24 23 23 23 22 21 21 23 24 24 21 20 21 22 20 19 20 20 20 18 16 15 14 11 10 9 9 9 8 7 8 9 9 9 9 7 7 6 6 5 5 5 6 6 7 7 7 6 7 7
56 55 53 51 48 44 40 35 31 30 28 27 26 24 23 23 24 24 23 25 27 27 25 23 23 24 24 23 22 21 21 21 20 19 18 16 13 11 11 10 10 10 8 8 9 10 10 10 8 7 5 5 4 4 4 5 6 6 6 6 6 6 5
58 57 56 54 50 45 39 34 32 30 29 29 27 24 23 24 23 23 25 27 28 28 27 26 26 27 27 26 25 24 23 23 23 22 20 18 16 14 13 12 12 12 10 9 9 10 10 10 9 7 5 4 3 2 2 3 4 5 6 6 6 5 5
57 57 56 56 53 47 39 32 31 32 32 32 28 23 24 25 24 25 27 27 26 24 26 29 31 30 28 28 28 26 25 25 25 24 23 21 19 17 15 15 14 13 12 11 10 10 10 10 10 9 6 5 4 2 1 2 3 4 5 5 5 5 5
58 57 56 56 55 53 48 42 39 36 34 34 32 30 32 32 30 28 25 22 20 20 26 32 34 32 29 29 29 28 26 26 26 27 26 24 22 20 18 17 16 16 14 13 12 11 11 11 10 10 8 6 5 4 2 1 1 2 4 4 5 5 5
59 57 57 57 56 56 55 54 51 47 45 44 40 38 39 39 33 27 23 20 18 22 29 34 35 33 31 31 30 28 27 26 27 28 28 27 25 24 22 20 19 18 17 16 15 13 12 11 11 10 9 8 7 6 5 3 2 3 3 4 4 5 5
60 58 57 57 56 55 55 54 54 54 55 53 48 43 40 38 34 31 30 29 27 29 32 35 38 37 34 33 32 30 29 28 28 28 28 28 27 26 24 23 21 21 19 18 17 15 14 12 12 11 10 9 9 8 7 5 4 4 4 5 5 5 6
61 59 58 57 56 55 55 54 53 53 54 53 51 46 41 38 37 37 37 37 34 35 37 36 37 37 35 34 34 33 31 30 29 29 29 28 28 27 26 25 24 23 22 21 19 17 16 15 13 12 12 11 10 10 9 7 6 5 5 5 6 6 6
62 61 59 58 56 55 54 54 53 52 51 50 50 50 47 43 41 42 42 39 35 36 38 34 32 34 36 35 34 34 33 31 30 30 30 29 28 28 27 26 25 24 23 23 22 20 19 17 16 15 14 13 13 12 10 9 8 6 5 5 6 6 7
65 63 61 59 58 56 55 54 54 52 50 49 48 49 49 48 46 46 46 43 38 37 38 36 33 35 37 35 34 33 32 31 29 28 29 30 30 29 28 28 27 25 24 24 24 23 22 20 19 18 16 16 15 14 13 12 10 8 7 6 6 6 7
68 65 64 62 60 58 57 55 55 53 51 50 48 48 49 50 50 50 48 46 44 41 41 43 43 41 39 36 33 31 30 28 27 26 27 29 30 31 31 30 29 27 26 26 25 25 24 23 21 20 19 19 18 17 16 14 12 10 9 7 6 7 7
70 68 66 65 63 61 59 58 57 55 53 51 49 49 49 51 53 53 50 48 47 44 44 47 48 45 42 38 34 30 27 25 25 26 26 27 29 31 32 32 31 30 29 27 26 26 25 25 24 23 22 21 20 19 18 17 15 13 11 9 8 8 8
72 71 69 67 65 63 62 60 59 57 55 53 51 50 50 51 52 53 52 51 49 47 46 47 48 47 44 41 35 30 26 25 25 26 26 27 28 30 32 33 33 32 31 30 28 27 26 27 26 26 25 24 23 23 21 20 18 16 14 12 11 10 10
76 74 71 69 68 66 64 63 61 60 57 56 54 52 51 52 52 52 51 51 51 49 47 47 48 48 46 41 35 29 27 27 26 26 27 27 28 29 30 33 33 33 33 32 31 30 29 29 29 28 28 27 26 26 25 24 22 19 17 15 14 13 13
79 77 75 73 70 69 67 65 64 62 60 58 56 55 54 53 52 51 50 50 49 48 47 47 47 47 47 43 35 30 30 31 32 32 32 31 31 30 29 31 33 34 34 34 33 33 32 31 31 31 30 30 30 29 28 27 24 22 20 18 17 16 15
82 80 79 77 74 72 70 68 67 65 63 61 59 57 56 55 54 53 51 50 49 47 47 47 46 46 47 45 38 31 31 34 37 40 40 36 33 31 29 29 31 33 35 34 33 33 33 33 33 33 32 32 32 31 30 29 27 25 23 21 20 19 18
86 84 82 80 78 76 74 72 69 68 67 64 62 60 59 57 56 55 54 52 50 48 48 47 45 45 47 46 40 34 35 39 41 43 42 36 31 29 29 28 29 30 31 32 33 34 35 35 35 34 33 33 33 33 32 30 28 26 24 23 22 21 20
90 88 86 84 82 80 78 76 73 72 70 68 66 63 62 60 58 57 56 54 53 52 50 48 46 45 46 47 44 39 40 44 45 43 40 35 31 31 33 32 31 31 30 29 33 37 38 38 37 36 36 35 34 34 33 31 30 28 25 24 23 23 22
94 92 90 88 85 84 82 80 78 75 74 72 70 67 65 63 61 60 59 58 56 55 53 51 49 47 46 49 50 47 44 46 46 44 41 39 37 37 37 35 35 37 38 37 39 43 43 42 41 40 39 37 36 35 34 33 31 29 27 25 24 23 23
97 95 93 91 89 87 85 83 81 79 77 76 74 71 68 66 64 63 61 60 59 57 56 54 53 51 51 53 55 53 50 49 48 46 45 44 42 38 36 36 38 41 44 47 49 48 45 44 43 41 39 39 37 36 36 34 33 31 29 27 26 25 26
99 98 96 94 92 90 88 86 84 83 81 79 77 75 73 70 68 66 64 63 62 61 59 58 56 55 55 57 57 56 55 53 51 49 49 48 44 39 36 38 42 44 45 47 48 47 43 42 41 39 39 39 38 37 37 36 34 33 32 30 29 28 29
101 100 99 97 95 93 92 90 88 86 84 82 81 79 76 74 71 69 67 66 65 64 63 61 60 58 57 59 59 58 58 57 54 53 52 51 49 46 43 44 47 48 46 46 46 45 43 42 41 39 38 38 38 38 37 37 36 35 34 33 32 31 31
103 102 102 100 98 97 95 93 91 89 87 85 84 82 80 77 75 72 71 69 68 67 66 65 63 62 60 60 61 61 61 59 58 56 55 53 52 50 47 47 50 50 49 47 47 46 45 44 43 41 38 36 37 38 37 38 37 35 35 34 33 33 32
104 104 103 103 102 100 98 96 94 93 91 89 87 86 83 81 79 76 74 72 71 70 69 68 66 66 63 62 62 64 65 63 61 60 58 55 54 54 51 51 53 53 50 48 48 48 48 48 46 43 39 36 36 36 37 37 37 35 34 34 33 33 33
105 105 104 104 104 103 101 100 98 96 95 93 91 89 87 85 82 80 77 75 74 73 72 71 69 68 67 65 64 65 67 67 64 61 60 58 57 58 58 57 57 56 52 48 46 48 51 51 49 46 43 39 36 36 37 37 35 33 32 32 32 32 33
107 107 106 105 105 104 104 103 102 100 98 96 94 92 90 88 86 84 81 79 77 75 74 73 72 71 70 69 67 66 68 70 68 64 62 62 61 61 62 63 61 59 57 53 51 51 53 53 50 47 45 42 39 39 38 37 35 32 30 30 31 32 33
110 109 108 107 106 105 105 105 104 103 101 99 97 95 93 91 89 87 86 83 81 79 77 75 75 74 73 72 71 70 69 71 71 68 66 66 65 65 66 66 64 62 61 58 55 54 54 54 51 48 47 45 42 40 39 37 34 30 26 26 30 33 34
113 111 110 109 108 107 107 106 106 105 104 102 100 98 96 95 93 91 89 87 85 83 81 79 77 76 75 75 74 74 72 72 73 72 70 69 68 67 68 69 68 67 64 60 57 55 55 55 52 50 49 47 43 40 39 37 34 31 30 32 35 36 36
115 114 113 112 111 110 109 108 107 106 105 104 103 101 99 98 96 95 93 91 89 87 85 83 80 79 78 77 77 77 76 75 75 75 74 74 72 68 68 69 70 69 66 61 58 57 56 55 54 52 51 48 45 42 42 42 42 42 42 41 38 37 38
118 117 116 115 114 112 112 111 109 108 107 106 105 103 102 100 99 98 96 95 93 91 89 87 84 82 81 80 79 79 79 79 78 77 77 77 76 72 69 69 70 69 67 63 60 59 58 56 55 54 53 50 47 46 47 50 50 46 42 39 37 39 42
119 119 119 118 117 116 114 113 112 111 110 109 107 106 104 103 102 101 99 98 96 94 92 90 88 86 84 83 82 82 82 82 81 80 79 79 79 77 74 72 70 69 68 66 63 60 59 58 56 55 55 52 51 51 53 53 50 45 43 42 41 44 46
120 120 121 120 120 119 118 116 115 114 113 111 110 109 107 106 105 103 102 100 98 96 95 93 92 90 88 87 86 85 85 85 84 84 82 81 80 80 79 77 74 71 69 69 67 64 62 60 58 58 57 55 55 55 55 53 49 47 48 47 45 48 50
121 121 121 121 121 121 121 120 119 117 116 115 114 112 110 109 108 107 105 104 102 100 98 96 95 93 91 90 89 88 88 87 87 87 86 84 83 82 81 80 79 76 73 72 70 67 65 63 61 61 60 60 59 59 57 55 52 51 51 51 51 50 49
123 123 122 122 122 122 122 122 122 121 120 119 117 116 114 113 111 110 109 107 105 103 101 99 97 96 95 93 92 91 90 90 90 89 89 88 87 85 83 82 81 80 78 76 74 71 68 66 65 65 64 64 63 61 59 57 55 54 53 54 54 52 48
125 125 124 124 124 124 124 124 123 123 123 122 121 120 119 117 115 114 112 111 109 107 105 103 101 99 98 96 95 94 93 92 92 92 92 91 90 89 87 84 83 83 83 81 78 75 73 71 69 69 68 66 65 63 61 59 58 57 56 56 56 55 52

ECMWFFLT1_250_spd_084.txt.gz
Wind_Speed
55 55 53 50 47 43 40 37 35 32 27 25 24 23 22 20 17 14 13 12 13 15 16 15 16 14 11 12 13 14 13 12 13 11 7 5 5 5 6 6 5 5 5 5 5 4 3 5 6 6 7 7 7 7 7 7 8 8 7 7 6 6 6
59 56 54 52 48 44 42 39 38 34 29 25 23 22 21 19 18 17 14 13 15 17 17 16 16 16 14 14 15 15 14 14 14 13 10 8 7 7 8 7 6 6 7 6 6 5 4 3 4 5 6 6 6 7 7 7 7 7 7 6 7 7 6
60 57 55 54 51 46 45 45 42 38 33 29 24 23 21 18 18 19 18 16 17 18 18 17 17 17 16 16 17 17 15 14 15 15 14 11 9 9 9 9 8 7 7 8 7 7 6 4 3 3 3 4 5 6 7 7 7 7 7 7 8 8 8
62 59 57 56 53 48 47 47 45 40 36 32 27 25 23 20 23 23 22 21 19 19 20 20 19 18 17 17 18 19 17 15 17 18 17 15 12 11 11 11 10 9 8 9 9 8 7 6 4 2 1 2 4 5 6 7 7 7 7 8 8 8 8
63 62 59 57 54 51 50 50 46 42 39 34 30 27 23 21 25 26 24 24 20 20 21 22 21 20 19 19 19 20 19 17 18 20 20 18 15 14 14 14 13 11 10 9 10 10 9 8 7 4 2 0 2 3 5 6 7 7 7 7 7 7 8
64 62 60 56 53 51 50 49 47 44 41 35 32 30 27 25 28 28 26 24 21 20 22 23 22 20 19 20 20 20 20 19 19 20 22 21 19 17 16 16 15 14 12 11 10 11 11 10 9 7 4 2 1 1 3 4 5 6 6 7 7 7 7
65 63 61 58 55 52 50 50 49 46 44 39 35 33 30 29 32 30 27 27 26 24 24 24 22 20 19 19 20 20 20 20 19 20 22 22 21 20 19 19 18 17 15 13 12 12 12 12 11 10 7 5 4 3 1 2 3 5 6 7 7 7 7
66 64 63 61 58 55 52 51 50 45 42 41 37 32 30 30 34 34 31 30 30 28 25 25 23 21 20 19 20 20 20 21 21 20 21 23 23 22 21 20 20 20 18 16 15 14 13 13 13 12 10 8 6 5 4 2 2 4 5 6 7 7 7
67 66 64 62 60 57 54 51 49 44 41 40 35 31 32 33 35 37 35 33 32 31 28 26 24 22 22 22 22 20 20 21 22 22 22 23 24 24 22 21 21 21 20 19 18 17 16 15 15 14 13 11 9 8 7 5 3 2 4 5 5 6 6
68 67 65 64 62 59 57 54 51 48 45 42 37 35 37 39 38 38 38 35 34 35 31 27 25 24 25 26 24 19 18 20 22 23 23 24 25 26 24 23 22 22 22 21 20 19 18 17 17 16 15 14 12 11 10 8 5 4 2 3 4 5 5
68 67 66 65 63 61 59 58 55 52 48 45 41 38 39 41 40 39 39 36 34 33 31 28 26 24 24 24 21 17 16 18 21 24 25 25 26 27 27 25 24 24 23 23 23 22 21 20 19 18 17 16 15 14 12 11 9 7 5 3 3 4 5
68 67 67 66 64 62 60 59 58 56 52 46 41 39 37 37 38 39 40 38 35 32 30 28 27 25 23 21 19 19 18 18 20 24 26 27 27 28 29 28 27 26 25 25 25 24 23 22 21 20 20 19 18 17 15 14 12 10 8 6 5 5 5
69 68 67 66 65 64 62 59 59 58 52 45 42 41 40 38 38 39 41 40 36 33 30 27 26 24 21 18 17 18 18 17 18 23 26 27 28 29 30 31 30 28 27 26 26 26 25 24 23 22 22 21 20 19 18 17 15 13 11 9 8 7 7
70 69 68 67 66 65 63 61 60 57 50 45 45 45 41 36 34 37 41 41 37 33 32 30 26 21 19 17 15 17 21 21 22 27 29 29 29 30 31 32 32 31 30 29 28 28 27 26 26 25 24 24 23 22 20 19 17 15 13 12 11 10 10
72 70 69 68 67 65 63 61 60 57 51 46 45 44 41 36 32 33 42 46 41 35 34 34 28 23 24 24 22 24 28 28 29 34 36 33 31 30 30 32 34 33 32 31 30 29 28 28 27 27 26 26 24 23 22 21 19 17 15 14 13 13 12
73 72 70 69 67 66 64 62 60 59 57 53 47 43 43 42 37 33 38 45 46 41 39 39 36 32 31 30 29 32 34 33 35 38 39 38 34 32 31 32 33 35 35 34 33 31 30 29 29 28 28 27 26 24 24 22 21 19 17 16 15 14 14
75 74 72 70 69 67 65 63 62 60 61 62 56 49 47 48 46 41 37 40 44 45 44 43 43 43 42 37 34 37 39 38 39 40 41 40 37 34 32 30 31 33 36 37 36 35 33 31 30 29 28 28 27 26 25 24 23 21 19 18 17 17 17
78 76 75 73 71 69 67 66 64 62 62 63 63 60 57 56 56 54 47 41 43 47 46 45 47 50 50 45 39 39 43 43 42 41 41 40 38 36 34 32 31 33 35 37 37 37 36 34 33 31 30 30 29 28 28 27 25 24 22 20 19 19 18
81 79 77 76 74 72 70 68 67 66 64 63 64 66 66 64 63 62 56 47 46 50 51 51 54 56 56 52 47 44 46 45 43 43 44 42 39 39 39 37 34 34 35 35 35 36 37 37 36 35 34 33 32 31 31 30 28 27 25 23 21 20 20
85 82 80 79 77 75 74 72 70 69 68 66 65 65 66 66 65 64 60 53 51 53 54 54 57 59 60 57 53 51 49 45 41 42 45 46 43 42 41 39 35 34 33 32 32 33 35 36 37 37 37 36 35 34 34 33 31 30 28 25 23 22 22
89 87 84 82 80 78 77 75 74 73 71 69 68 67 66 65 64 64 63 59 56 56 56 55 55 58 59 57 54 52 51 47 43 41 43 47 48 45 43 41 38 35 34 33 34 34 34 35 36 37 36 35 35 35 35 34 32 31 29 26 24 22 23
93 91 89 86 84 82 80 79 77 76 75 73 71 70 69 67 66 64 63 61 59 58 58 58 57 57 59 58 55 53 52 51 49 46 44 46 49 48 45 44 42 39 38 38 37 35 35 36 36 36 35 34 34 34 35 34 33 31 29 26 24 22 23
96 94 93 90 88 86 84 83 81 79 78 76 74 73 72 70 68 67 65 63 61 60 59 60 60 60 60 59 58 56 55 54 53 51 49 50 51 50 48 47 47 44 42 41 38 35 36 37 36 36 36 34 33 33 34 33 32 30 30 28 25 24 24
98 97 95 93 92 90 88 86 85 83 81 80 78 76 75 73 71 70 68 66 64 62 61 61 62 62 61 61 60 59 58 55 51 51 52 54 53 51 49 48 49 48 46 43 40 38 38 37 36 38 38 36 34 32 32 31 30 29 29 29 28 26 26
99 98 97 96 95 94 92 90 88 86 85 83 82 80 78 76 75 73 71 69 67 65 64 63 64 64 63 62 62 62 61 59 54 52 54 56 55 52 50 48 48 49 49 46 43 42 42 41 39 39 39 38 36 32 30 30 30 28 28 29 30 30 29
100 99 98 98 99 98 96 94 92 90 89 87 85 83 81 80 78 77 75 73 70 68 67 66 66 66 65 64 63 64 63 61 58 56 57 58 57 55 51 48 48 50 49 47 46 45 44 43 41 40 39 39 37 32 28 28 27 26 27 30 32 31 31
103 103 101 101 101 100 99 98 96 95 93 91 89 87 85 83 82 80 78 76 74 72 70 69 68 68 67 67 66 65 65 63 60 58 58 60 61 59 54 49 49 50 48 45 45 46 47 45 43 41 38 38 39 35 29 26 26 26 28 32 33 33 33
107 106 104 103 103 101 100 101 100 98 97 95 92 90 89 87 85 84 82 80 78 76 74 72 70 70 69 69 68 67 67 65 62 59 59 62 65 63 58 53 50 50 49 46 45 47 48 47 45 43 40 38 39 38 33 30 32 33 34 37 39 39 38
110 109 107 106 104 103 102 102 102 101 100 98 96 94 92 91 89 87 86 84 82 80 78 76 74 72 71 71 71 70 69 68 66 63 62 64 66 66 63 60 56 52 52 52 50 49 49 48 47 46 44 42 41 40 39 41 43 43 44 45 43 39 36
112 112 111 108 107 106 105 104 102 102 101 100 99 97 96 94 93 91 89 88 86 84 82 80 78 75 74 73 73 73 72 71 70 68 66 66 67 68 67 66 62 57 54 55 56 53 50 50 49 48 46 45 45 45 45 48 50 49 48 47 43 38 36
114 114 113 112 110 109 108 107 105 104 103 102 101 100 99 98 96 95 93 91 90 89 86 84 82 80 78 76 75 75 75 74 73 72 71 70 70 70 70 69 68 64 60 59 59 56 52 51 52 51 49 47 48 49 50 52 53 50 46 45 44 43 42
115 115 115 114 113 112 111 110 108 106 105 104 103 102 102 101 99 98 97 95 94 92 90 88 86 85 82 80 78 77 77 77 76 75 74 74 73 73 73 72 71 69 66 64 63 60 57 55 54 54 53 50 49 51 52 52 52 49 46 45 44 44 44
117 117 117 116 115 114 114 113 111 110 108 107 106 105 104 103 102 101 100 99 98 96 94 92 90 89 87 85 82 80 79 79 79 78 77 77 76 75 75 75 74 73 71 69 68 66 64 61 59 58 55 52 52 53 52 50 50 50 49 47 44 44 46
118 119 119 118 117 117 116 115 114 113 111 110 109 107 106 106 105 104 103 102 100 99 98 96 95 93 91 89 87 84 82 81 81 81 81 80 78 77 77 77 77 77 76 74 72 71 70 68 67 64 60 56 56 57 55 50 48 50 51 49 49 51 50
119 120 121 120 119 119 119 118 117 116 115 113 112 110 109 108 108 106 105 104 103 102 100 99 98 97 95 93 91 88 86 84 83 83 83 82 82 81 80 79 79 80 80 78 76 75 74 73 72 70 67 63 63 64 62 57 53 53 53 50 49 52 53
121 121 122 122 122 121 121 120 120 119 118 117 115 114 112 111 110 109 108 107 105 104 103 102 101 100 99 97 95 92 90 88 86 85 85 85 85 84 83 82 82 82 82 82 81 79 78 77 76 75 72 70 70 69 68 66 63 61 59 56 53 52 53
123 122 123 123 123 123 123 122 122 121 121 120 119 117 116 115 113 112 111 110 108 107 106 105 104 103 101 100 98 96 94 92 90 88 87 87 87 87 87 86 86 85 84 84 85 84 82 80 80 79 76 75 75 74 73 72 70 67 65 64 60 57 55
124 124 124 124 125 125 124 124 123 123 123 122 122 121 120 118 117 116 114 113 112 110 109 107 106 105 104 103 102 100 97 95 93 91 90 89 89 90 90 89 89 89 88 87 87 87 86 84 83 83 80 78 78 78 77 76 74 71 69 67 65 60 57

ECMWFFLT1_250_spd_087.txt.gz
Wind_Speed
51 48 43 40 41 41 39 38 37 35 32 29 26 21 18 18 19 19 17 16 16 16 14 12 11 10 11 13 14 13 10 9 11 13 13 12 11 11 10 8 7 6 6 5 5 5 5 5 6 6 7 7 8 8 8 8 9 10 11 11 11 11 12
56 54 51 45 43 41 41 42 41 38 33 28 25 23 20 19 19 17 17 18 20 21 18 14 12 11 11 13 15 16 13 10 11 14 16 15 14 14 14 12 11 10 9 8 8 7 6 6 5 5 6 6 7 7 7 8 9 9 10 10 10 11 12
56 53 54 54 50 47 45 44 42 39 33 27 26 26 22 19 19 18 18 19 20 22 21 16 12 11 11 13 15 17 15 12 11 14 17 17 16 15 16 15 14 13 12 11 10 9 8 7 6 5 5 5 6 6 7 7 8 8 8 9 9 10 11
54 49 49 54 54 49 43 40 39 38 35 32 33 33 28 24 22 21 20 20 20 22 21 19 15 13 12 13 14 17 17 15 13 14 16 18 17 17 17 17 16 15 15 14 13 12 11 9 7 6 5 4 5 5 5 6 6 7 8 8 9 9 10
51 49 50 54 54 50 44 39 38 38 37 38 36 34 33 30 26 24 22 22 23 24 24 21 20 16 14 14 14 16 17 17 16 15 16 18 19 18 18 19 18 17 16 15 15 14 13 11 9 7 6 5 4 3 3 4 5 6 6 7 7 8 8
49 46 50 55 55 53 52 48 45 42 41 40 35 34 35 32 29 28 25 23 25 28 27 22 20 18 15 14 16 17 18 17 17 17 16 18 20 20 19 20 20 18 17 17 16 16 15 14 12 10 7 6 5 3 2 2 3 4 5 6 6 7 7
56 50 50 56 58 57 55 53 52 49 46 45 40 37 36 33 30 30 27 24 24 28 29 23 19 18 16 17 19 19 19 19 18 18 17 17 20 22 21 20 21 20 19 18 18 17 17 16 14 12 10 8 7 5 3 1 1 2 3 4 5 5 6
66 62 57 58 59 58 55 52 53 52 49 47 43 40 38 34 31 29 28 25 23 25 29 26 21 19 19 21 22 22 22 22 20 19 18 18 20 22 23 21 21 21 20 19 19 18 18 17 16 15 13 11 9 7 6 4 2 1 1 2 3 4 5
70 69 66 62 60 59 55 53 54 53 49 47 44 41 39 34 30 28 28 27 25 24 29 30 26 23 24 25 25 25 25 24 22 21 20 19 19 21 23 23 22 22 21 21 20 19 18 18 18 17 15 14 12 10 8 6 5 3 2 2 2 3 3
72 71 70 67 63 61 59 57 58 58 54 49 44 41 38 34 32 30 29 29 27 26 29 30 28 27 27 28 28 27 27 27 26 24 23 22 20 20 23 24 23 23 22 22 22 21 19 18 18 18 17 16 15 12 10 9 7 6 5 4 4 4 3
74 72 71 70 66 63 59 55 55 58 58 53 46 41 38 35 32 30 31 31 27 24 26 27 26 26 27 30 31 29 29 30 29 26 24 24 22 21 23 25 26 25 24 23 23 22 21 19 18 18 18 18 17 14 12 11 10 9 8 7 6 6 5
75 74 72 70 68 65 62 56 54 56 59 58 53 48 44 39 34 31 33 32 26 23 25 27 27 29 30 33 33 31 31 32 31 27 24 25 24 23 22 24 26 27 26 24 23 23 22 21 19 19 18 18 18 16 15 13 12 11 10 9 9 9 8
76 75 74 72 70 68 66 64 62 60 60 61 59 54 51 47 42 38 36 33 29 28 29 29 31 34 35 35 35 33 32 31 30 27 24 24 24 23 23 23 25 27 28 26 25 24 24 23 21 20 20 19 19 18 16 15 14 13 12 11 11 11 11
77 76 75 74 72 70 68 67 66 62 59 61 62 57 53 51 46 43 40 36 33 33 32 31 33 36 37 37 37 34 31 29 28 26 25 25 23 23 24 24 24 26 28 29 28 27 26 25 24 23 22 21 20 19 18 17 16 15 14 13 12 13 13
78 77 76 75 73 71 69 68 68 65 60 60 62 59 56 53 49 46 44 41 37 36 36 34 34 36 39 40 39 36 32 29 27 26 27 27 26 25 25 25 26 27 28 29 30 29 29 28 28 27 26 25 23 22 20 19 18 17 15 15 14 14 14
80 78 77 76 74 72 70 68 68 68 66 64 63 61 58 56 52 50 49 45 40 38 37 36 36 37 39 41 40 37 34 31 28 27 28 29 29 28 27 27 27 27 27 29 30 30 30 30 30 29 29 27 25 24 23 21 19 18 17 16 16 15 16
81 80 79 77 75 73 72 70 69 68 68 67 66 64 61 58 55 54 54 51 46 43 41 40 40 40 39 39 39 38 36 33 30 29 30 31 31 30 30 30 29 28 27 28 28 30 31 31 31 31 30 28 27 26 25 23 21 19 19 18 17 17 17
81 80 79 78 77 75 73 72 70 68 67 65 65 64 62 59 57 57 55 52 50 49 47 45 45 44 39 37 39 40 40 38 35 33 34 34 33 32 32 32 32 31 30 28 27 29 31 32 33 33 31 30 29 28 27 26 23 22 21 20 19 18 18
82 81 80 79 78 77 76 74 72 70 68 66 65 65 63 60 59 59 56 53 52 51 50 50 51 49 42 37 37 41 45 44 41 38 37 36 34 34 35 35 35 35 33 30 29 29 31 32 33 34 34 33 32 31 30 29 27 25 24 23 22 21 21
86 84 83 81 79 78 78 76 75 74 72 70 68 68 66 63 61 60 56 54 54 53 51 53 54 53 49 45 42 43 46 46 44 41 39 38 36 35 36 36 36 36 35 34 32 31 31 32 33 34 35 34 34 33 32 32 30 28 27 25 25 25 24
90 88 86 83 81 79 78 78 77 76 74 72 70 70 69 65 63 62 58 55 56 56 54 55 57 56 55 53 50 48 46 45 44 41 39 38 38 36 36 37 37 37 36 36 35 34 33 32 33 34 34 35 35 34 34 34 33 31 30 28 26 26 26
92 91 89 87 85 82 79 78 77 76 75 73 72 71 71 68 65 64 62 59 59 61 60 59 60 60 59 58 55 53 49 45 43 41 39 37 37 36 36 38 39 38 37 37 37 37 36 35 34 33 33 34 35 35 36 35 34 33 32 30 28 28 28
94 92 90 90 89 86 83 80 78 77 76 75 73 72 72 71 67 66 65 63 63 64 64 63 61 61 61 59 58 56 54 50 47 45 43 40 39 39 39 41 42 41 39 39 39 39 39 38 36 34 33 34 34 34 35 35 34 34 35 35 33 31 30
95 94 93 92 91 89 87 85 82 80 79 77 76 75 74 73 70 68 67 68 68 67 66 65 63 62 60 57 55 55 56 57 55 53 49 45 43 43 43 45 47 45 42 42 42 41 41 41 39 37 35 35 35 35 35 35 35 36 39 39 37 34 32
96 97 98 97 94 92 91 89 87 85 83 80 79 77 76 76 74 71 69 70 73 73 71 69 67 66 64 60 56 54 56 59 60 58 56 53 51 50 48 47 48 47 45 45 45 45 44 44 42 40 39 38 37 37 36 35 37 39 41 41 37 34 32
100 99 99 99 97 95 94 93 92 90 87 84 82 80 79 78 77 75 73 72 74 77 79 77 74 72 71 69 64 60 58 60 62 62 62 60 60 61 59 57 55 52 49 48 47 46 46 46 44 43 42 41 40 39 38 38 39 41 43 42 37 33 33
104 103 102 100 98 97 97 96 95 94 91 88 86 84 83 82 81 79 78 76 75 77 80 82 81 79 77 76 72 68 65 64 64 65 65 64 64 65 66 65 62 58 54 52 50 47 47 49 47 45 45 44 43 42 42 42 43 43 44 42 36 33 34
107 107 105 102 100 99 99 99 98 96 94 92 90 89 87 86 85 83 82 81 79 78 79 80 82 81 79 78 76 73 71 69 68 67 68 67 66 66 66 66 64 60 57 57 55 52 51 52 52 50 49 48 47 47 46 46 46 45 44 42 38 36 37
110 108 106 105 104 103 101 99 98 97 96 95 94 93 92 90 88 87 86 85 84 82 81 80 81 81 80 78 76 74 73 72 71 71 70 71 70 69 67 67 66 64 61 60 59 57 56 56 55 54 55 55 54 52 51 49 48 47 44 43 42 41 41
111 109 107 106 106 107 105 101 98 97 97 98 98 97 96 94 92 91 89 89 88 86 84 83 82 82 81 80 78 76 75 73 73 73 73 73 73 72 71 69 68 67 65 63 61 59 58 59 58 56 57 59 58 57 55 52 51 50 47 45 44 44 45
112 111 109 108 108 108 107 104 102 100 99 100 101 100 99 98 97 95 93 93 91 90 88 87 86 85 84 82 81 79 78 76 75 74 75 75 74 74 73 72 70 69 68 67 64 61 60 61 60 59 59 60 60 59 57 54 52 52 51 49 47 47 48
113 112 112 111 112 111 110 109 107 105 103 102 102 102 101 101 100 99 97 97 95 94 92 91 90 88 87 86 84 83 81 79 77 76 76 76 76 76 75 74 73 71 70 69 68 66 64 63 64 63 62 61 61 61 59 57 54 53 52 51 50 49 48
113 113 112 112 112 113 112 112 111 110 108 107 106 104 103 103 102 102 101 100 99 97 96 95 94 93 91 90 88 86 85 83 81 79 78 78 78 78 77 77 75 74 73 72 71 70 68 67 67 68 66 63 62 62 62 60 58 55 53 53 53 51 50
114 114 114 113 112 112 112 112 113 113 112 111 109 108 107 106 105 104 104 103 103 101 100 99 98 97 95 94 92 90 88 87 85 83 82 80 80 80 80 79 78 77 76 75 73 72 71 70 70 71 70 67 64 63 64 64 61 58 56 55 54 54 54
116 116 116 116 115 115 114 113 113 113 114 114 113 112 111 110 108 107 106 106 105 105 104 103 102 101 99 98 96 94 92 91 89 88 86 84 83 82 82 81 81 80 80 79 77 75 74 73 73 73 74 73 70 66 66 67 65 62 59 57 56 57 58
117 118 118 118 118 118 117 115 114 113 114 115 115 115 114 113 112 110 109 108 107 107 106 106 105 104 103 102 100 98 97 95 94 92 91 89 87 85 84 83 83 83 82 82 81 79 77 77 76 76 76 77 76 72 69 69 68 66 63 60 59 60 60
118 119 119 120 120 120 120 119 118 117 116 116 116 116 116 115 114 113 112 111 110 109 108 108 108 107 107 105 104 103 101 100 98 97 95 93 92 90 88 86 86 85 85 84 84 83 81 80 80 79 78 79 80 78 74 73 72 70 67 65 63 62 62
118 119 120 121 121 121 121 121 121 121 121 120 119 118 118 118 118 117 116 115 113 112 111 110 110 109 109 108 107 106 105 104 103 101 99 98 96 94 92 90 89 88 88 87 86 86 85 84 84 83 82 81 82 81 79 78 76 74 71 69 67 66 64

ECMWFFLT1_250_spd_090.txt.gz
Wind_Speed
47 43 39 36 34 33 34 35 33 31 30 28 28 28 26 22 18 16 15 13 11 11 13 13 13 15 15 15 13 9 7 6 7 9 11 11 10 9 8 7 6 5 4 3 3 4 5 5 5 6 6 7 7 7 8 9 9 10 10 11 12 12 12
50 47 41 38 38 38 39 39 38 36 34 32 32 32 30 26 20 16 12 11 9 11 14 15 15 14 14 15 15 13 9 7 7 8 11 12 12 12 10 9 8 7 6 5 4 3 4 3 3 4 4 5 6 6 7 7 8 8 9 9 10 11 11
53 51 45 41 41 42 41 40 39 37 34 32 31 32 32 28 22 16 12 10 10 12 14 15 16 15 14 14 15 14 12 9 7 8 10 12 14 14 13 11 10 9 9 8 6 5 4 4 2 2 3 4 5 5 6 7 8 8 8 8 9 10 10
55 53 49 47 45 42 40 39 37 36 35 32 33 35 35 29 23 19 15 12 13 14 15 16 15 15 16 18 17 15 13 11 9 7 8 12 14 16 16 14 13 12 11 10 9 8 7 5 4 2 0 1 3 5 6 7 8 8 8 8 8 9 9
57 53 51 53 52 46 42 40 39 38 37 36 35 35 34 27 21 20 19 17 16 16 17 18 17 14 16 20 20 15 12 11 10 9 8 10 14 17 18 17 16 15 14 12 11 10 9 8 6 4 3 2 2 3 5 7 7 8 8 8 8 8 8
60 55 54 55 56 54 49 43 41 40 40 38 35 32 30 26 23 23 23 21 19 19 19 19 19 17 17 19 19 16 12 10 10 10 10 10 13 16 19 20 18 17 16 15 13 13 12 10 9 7 6 5 3 3 4 5 6 7 8 8 7 7 8
63 61 59 58 56 56 54 48 42 39 37 36 34 31 30 27 24 25 24 22 21 21 21 21 21 20 18 18 19 18 16 14 12 11 11 11 12 15 18 20 20 19 18 17 16 15 13 13 12 11 9 8 7 6 5 5 5 6 7 8 8 7 7
66 65 64 62 57 55 53 49 44 40 36 36 35 33 31 26 24 23 24 23 22 22 22 22 23 22 19 18 20 20 20 19 17 14 13 13 12 14 17 20 22 21 20 19 18 17 16 15 14 14 13 12 11 10 8 6 6 6 7 7 8 8 8
65 67 66 63 58 54 50 45 43 41 39 41 40 37 33 30 27 27 27 24 20 22 25 26 27 25 21 20 22 24 24 24 23 20 18 16 14 14 16 19 22 23 23 22 20 19 18 17 16 16 16 15 14 13 12 10 8 8 8 8 8 9 9
63 66 66 63 59 55 48 39 37 42 45 45 44 41 39 38 35 32 30 27 25 26 30 33 34 29 23 23 25 26 26 24 24 23 20 18 15 15 16 18 21 24 25 25 23 22 21 19 18 18 18 17 17 16 15 13 12 11 10 9 8 8 9
62 65 68 66 61 59 54 43 35 36 44 48 46 41 40 41 40 36 32 30 29 29 32 36 38 32 26 25 25 26 27 25 24 23 20 18 16 15 17 18 20 23 26 27 26 25 24 22 21 20 20 19 18 18 17 16 15 13 12 11 10 9 9
61 61 66 68 65 62 60 56 47 38 38 42 41 38 37 38 39 38 35 32 31 31 33 37 39 35 30 27 26 27 28 27 25 23 22 20 18 16 17 19 20 23 25 27 28 28 27 25 24 23 22 21 20 18 18 17 16 15 14 13 12 11 10
71 65 62 65 67 64 62 63 62 54 47 44 41 40 42 42 41 39 37 35 34 35 37 38 39 38 35 32 29 29 29 27 25 24 24 23 19 17 18 19 21 23 24 27 29 29 29 28 27 26 25 23 22 20 19 17 17 16 15 14 13 12 11
79 75 68 65 66 66 64 63 64 65 62 55 49 45 44 44 45 44 42 42 41 40 40 40 40 40 38 34 32 31 30 28 26 25 25 25 22 20 19 20 22 23 24 26 28 29 30 29 29 28 27 26 24 23 21 19 17 16 15 15 14 13 12
77 78 76 72 69 68 68 65 64 67 65 59 54 51 47 45 45 45 45 47 48 46 43 40 39 40 38 36 35 34 32 30 29 29 30 30 27 24 23 23 23 25 25 25 26 27 28 29 29 29 28 27 26 25 24 21 19 17 16 16 15 15 14
77 78 79 77 73 71 71 70 68 68 68 64 61 58 53 48 43 40 41 44 45 47 45 41 40 41 41 37 35 36 35 33 32 33 35 35 32 30 30 28 26 27 27 26 25 25 25 27 28 29 29 28 28 27 25 23 21 19 18 17 16 16 15
82 80 79 80 78 74 73 73 72 71 71 71 68 63 57 52 45 42 42 41 41 46 47 46 45 44 42 39 37 37 38 36 35 36 38 37 35 34 34 32 29 29 29 28 27 26 25 25 26 27 28 29 28 27 26 25 23 22 20 19 18 17 16
88 84 81 80 80 79 76 75 74 74 73 72 69 65 62 58 53 49 45 41 41 43 43 44 48 48 44 42 40 41 41 39 39 40 39 38 36 36 36 34 32 31 31 30 30 29 27 26 25 26 27 28 28 28 27 25 24 24 23 22 20 19 18
90 89 86 81 80 81 81 78 77 76 75 73 70 68 67 65 61 57 51 45 43 40 36 36 41 46 47 45 44 45 46 44 43 43 41 40 38 37 37 37 35 34 33 31 31 32 31 28 27 26 26 27 28 28 27 27 26 26 25 25 24 23 22
91 91 90 86 82 81 81 82 80 78 77 76 74 72 71 70 69 66 62 57 54 50 47 45 43 44 48 48 47 49 50 47 45 44 42 42 41 40 40 40 37 35 33 32 32 33 33 31 30 29 28 27 27 27 28 28 28 27 28 28 27 26 25
93 92 91 89 86 83 81 82 83 82 80 79 77 75 75 75 75 74 72 71 69 65 61 57 53 51 52 48 46 50 53 51 48 45 44 44 44 43 43 42 39 37 35 34 34 34 34 34 33 32 31 29 28 27 28 29 30 30 30 30 29 28 27
95 94 92 90 89 86 84 82 83 83 83 82 80 79 78 77 77 77 76 74 74 72 68 64 60 59 59 58 54 53 54 53 50 48 47 46 45 45 45 44 42 39 38 38 38 37 36 35 35 34 33 31 29 28 29 30 30 31 31 31 30 30 28
97 95 95 93 91 90 87 84 83 83 83 84 83 81 81 80 79 78 78 75 73 72 71 69 67 65 66 68 67 64 61 58 56 55 53 49 47 47 48 48 46 43 41 41 41 40 37 35 34 33 32 32 31 30 31 32 32 31 30 30 31 31 31
98 98 97 96 94 93 92 89 85 83 83 84 84 83 82 81 81 79 78 77 75 73 72 71 71 70 69 70 70 69 67 64 62 62 60 55 51 50 51 52 53 50 46 44 44 44 41 36 32 30 30 32 33 34 35 36 35 33 31 30 31 31 32
100 100 99 99 98 97 95 93 90 86 85 84 84 84 84 83 82 81 80 79 78 76 74 73 72 71 70 70 70 70 68 66 65 66 64 60 56 55 54 55 56 56 52 49 47 47 45 40 34 32 33 34 36 37 38 38 37 35 33 33 32 32 33
102 102 101 101 101 100 98 96 93 90 88 86 84 84 85 85 84 83 82 81 80 79 77 75 73 72 71 71 71 70 69 68 68 68 67 64 61 59 58 57 57 57 56 53 51 49 47 43 38 37 37 37 38 40 40 40 40 38 37 37 36 35 35
106 105 103 102 102 101 100 98 96 94 92 89 87 85 84 85 85 85 84 83 82 80 79 77 75 74 74 73 72 72 71 71 71 70 69 68 66 63 62 62 60 58 57 56 54 51 48 45 41 39 39 40 42 43 42 42 43 41 40 40 40 38 37
110 108 106 104 103 103 102 100 99 98 97 95 92 89 86 85 85 85 84 84 82 81 80 80 78 78 77 76 75 74 73 73 75 74 73 72 70 67 65 65 64 61 59 58 57 55 52 49 45 42 41 42 43 44 45 46 46 44 42 41 42 41 40
111 111 109 108 106 105 103 102 100 100 100 99 97 95 92 89 88 86 85 84 83 83 82 82 82 80 80 79 78 76 75 74 76 76 76 75 73 70 68 67 65 63 61 59 58 57 55 54 51 48 47 45 43 44 45 45 45 45 44 43 42 42 42
112 112 112 111 109 107 105 103 102 101 101 101 100 98 96 94 93 91 89 87 85 85 85 85 84 83 82 81 80 78 77 76 77 76 77 78 77 75 73 71 69 66 64 62 60 59 57 56 55 54 54 53 50 49 48 45 44 45 47 47 46 47 47
113 113 113 113 111 109 107 106 105 104 104 103 101 100 99 98 97 95 94 92 90 89 88 88 87 86 85 84 83 81 79 79 80 78 77 79 81 80 78 77 74 70 67 66 65 64 62 61 60 60 59 59 58 57 54 50 47 47 48 50 50 51 51
114 114 114 114 113 112 110 109 109 108 107 106 104 102 101 101 100 100 98 96 95 94 93 91 89 89 88 87 86 84 81 81 83 84 82 81 83 83 82 81 78 73 70 68 68 68 68 67 67 67 66 66 66 64 60 59 57 54 53 53 53 54 54
115 114 114 114 114 114 113 113 112 111 110 109 107 106 104 103 103 102 101 100 99 99 97 96 94 92 91 89 89 88 86 85 86 88 88 87 86 86 84 83 81 78 75 72 71 71 71 71 71 72 72 72 71 70 68 66 66 64 62 60 60 60 59
116 115 115 114 114 114 114 114 113 113 112 111 110 109 108 106 105 103 102 101 101 101 100 99 98 97 95 94 92 92 91 89 88 90 92 92 91 90 89 87 85 84 82 80 78 77 76 75 75 75 75 74 74 73 72 71 71 70 68 66 65 65 64
117 116 116 116 115 115 114 114 114 113 113 113 113 112 111 109 108 106 105 103 103 102 102 101 101 100 99 98 97 96 95 94 92 91 93 95 95 95 94 92 91 90 89 88 86 84 81 80 80 79 79 78 77 76 75 74 73 73 72 71 70 69 68
117 117 117 117 117 116 115 114 114 114 114 114 115 114 113 112 111 109 108 107 105 104 103 103 104 103 103 102 101 100 99 98 96 95 95 96 97 98 98 97 96 95 93 92 90 88 86 84 84 84 83 82 81 80 78 77 76 76 75 74 72 71 71
116 117 119 119 119 118 116 115 115 115 115 116 115 115 115 114 113 112 112 111 110 108 107 106 106 106 106 106 105 104 103 102 101 100 99 98 98 99 100 100 99 98 96 95 93 90 88 86 85 85 85 84 83 83 82 81 80 78 77 77 76 73 72
116 117 119 120 120 119 118 117 117 117 117 117 116 116 115 115 115 115 114 114 113 112 111 111 110 109 109 108 108 107 106 106 105 105 104 103 102 101 101 102 102 101 99 97 95 93 90 88 87 86 86 85 85 85 85 84 83 81 79 79 79 77 75

ECMWFFLT1_250_spd_093.txt.gz
Wind_Speed
43 41 40 38 36 32 26 23 22 23 25 26 25 24 22 20 20 19 18 16 13 11 10 10 10 11 11 11 10 10 10 10 11 11 11 11 11 11 10 10 9 9 8 7 6 5 5 6 7 8 9 10 11 11 11 11 11 11 10 11 11 12 12
47 45 44 41 40 38 34 29 26 27 29 29 29 28 25 22 21 21 21 21 18 15 11 10 11 11 11 10 10 10 10 9 11 11 11 11 12 12 12 11 10 10 10 8 8 7 6 6 6 7 8 9 10 11 11 12 11 11 11 12 12 12 12
50 49 48 45 43 42 40 36 33 33 34 34 33 31 28 26 24 23 23 23 21 18 14 11 11 12 12 10 9 12 12 9 9 11 11 11 11 12 12 12 12 11 11 10 9 9 8 7 7 6 7 8 9 10 11 12 12 12 12 13 13 13 13
54 52 50 48 46 44 43 40 37 36 35 35 34 33 32 30 28 25 23 23 22 20 16 14 12 12 13 11 9 10 14 12 9 8 9 9 11 12 12 13 13 12 12 11 11 10 10 9 9 8 7 7 8 8 10 11 12 13 14 14 14 14 14
58 55 52 50 49 47 45 42 40 39 38 37 35 35 35 33 29 26 24 22 21 19 18 17 15 15 14 13 9 8 12 13 9 6 7 8 9 12 12 14 14 14 13 13 12 12 11 11 11 10 9 9 8 8 9 11 12 13 14 15 15 15 15
60 59 56 52 50 50 48 45 43 43 41 39 38 37 36 34 31 28 24 23 22 21 20 19 18 17 16 15 13 9 10 11 9 7 8 8 9 12 13 14 15 15 15 14 14 13 13 12 12 12 12 12 11 10 10 11 11 13 14 15 16 16 16
61 60 59 55 52 51 51 50 48 46 44 41 39 37 35 33 31 29 26 25 24 22 21 21 20 19 18 18 16 12 10 11 11 12 12 11 12 13 13 14 15 16 16 16 15 15 15 14 13 13 14 15 15 13 12 12 12 12 14 15 16 17 17
61 60 58 56 53 52 52 52 51 49 47 43 36 32 31 30 30 30 30 28 26 24 22 22 21 21 21 19 16 14 12 12 13 15 16 16 17 16 15 14 14 15 16 17 17 16 16 16 15 14 14 15 16 16 14 13 13 13 14 15 16 17 18
62 60 58 56 54 53 53 52 51 49 47 44 38 32 30 30 30 32 32 30 27 24 23 22 22 23 22 18 16 15 14 13 14 16 17 18 18 18 17 15 15 15 16 17 17 17 17 17 17 16 15 15 16 16 16 15 14 14 14 14 15 16 17
62 60 58 56 55 55 55 54 52 48 45 45 43 40 37 34 32 33 34 32 29 25 24 23 22 24 25 22 19 17 16 15 16 16 18 19 19 19 18 16 15 14 15 16 17 18 18 18 18 17 17 16 16 16 16 16 14 14 14 14 14 14 15
63 61 59 57 57 57 56 55 53 49 46 46 46 45 44 40 38 38 38 36 34 30 28 26 24 24 27 26 24 22 20 19 17 17 19 20 20 20 19 18 16 15 15 15 16 17 19 19 19 18 18 18 17 16 16 15 14 14 13 13 13 13 12
63 62 60 59 59 59 58 57 54 49 47 47 45 44 43 41 42 42 41 39 37 32 29 29 27 26 27 29 28 25 23 21 18 18 20 21 22 22 21 19 18 17 17 15 15 16 18 19 19 19 19 18 17 17 16 15 14 13 13 12 12 12 11
64 61 61 61 60 60 61 59 55 51 47 43 40 40 42 43 45 46 44 41 37 32 30 31 31 29 28 31 32 28 24 22 21 21 22 22 23 24 23 20 19 19 18 17 16 16 17 18 20 20 20 19 18 17 17 16 15 13 13 12 12 11 11
67 62 62 63 62 61 61 59 57 56 52 44 40 42 44 46 47 47 45 40 35 30 28 31 33 33 31 31 34 33 28 25 25 25 24 24 24 25 24 23 22 21 20 20 18 17 17 18 20 21 21 20 18 18 17 17 16 15 13 13 12 11 11
69 63 61 63 65 64 62 58 57 59 59 55 51 49 47 45 45 44 43 39 34 31 32 35 36 35 33 32 33 34 32 30 30 29 28 26 26 26 25 25 26 24 22 22 21 20 19 19 20 20 21 21 20 19 18 18 17 16 15 14 13 12 11
71 68 63 61 63 64 63 60 58 59 62 61 57 55 52 47 42 41 40 37 35 35 37 38 38 36 35 34 33 34 35 35 34 32 31 31 31 29 28 28 28 27 26 25 23 22 21 21 21 20 20 20 21 21 20 20 19 18 17 16 15 14 12
74 73 69 64 61 62 63 61 59 60 63 62 57 56 58 51 42 41 40 35 34 36 38 39 39 37 36 33 33 35 37 38 37 35 34 34 34 33 32 32 31 30 28 27 26 25 24 23 23 22 20 20 21 21 21 21 21 21 20 18 17 15 14
77 74 72 68 64 63 63 63 62 61 63 65 60 58 62 58 49 45 44 40 36 34 36 39 38 36 35 35 35 36 36 36 37 37 36 36 36 36 35 34 34 32 30 29 30 29 29 27 26 24 22 21 21 21 21 21 22 22 22 21 19 18 17
80 77 74 70 67 66 66 66 65 63 64 69 68 62 62 63 58 50 45 45 42 36 34 36 34 32 33 35 37 38 38 37 34 34 36 37 37 37 36 35 34 33 32 32 32 32 32 31 28 27 25 23 23 23 22 22 22 23 23 23 22 21 20
82 80 77 73 69 67 68 69 69 67 66 70 75 72 67 65 65 59 51 49 48 42 37 36 34 32 31 31 34 36 36 35 34 34 35 36 37 37 36 36 36 35 35 34 33 33 34 33 31 28 27 25 24 25 25 24 23 23 24 24 23 23 23
84 84 83 81 75 70 68 69 71 72 71 71 74 77 76 72 70 68 64 60 59 55 49 44 42 40 36 35 36 36 35 34 37 38 35 32 35 37 37 37 36 36 36 35 34 34 35 34 32 30 29 28 27 27 27 27 26 25 25 24 24 24 24
88 87 87 88 86 80 75 72 71 73 76 76 75 75 77 76 75 75 74 72 70 68 64 57 53 50 49 46 43 39 37 36 39 41 37 32 33 36 36 38 39 39 38 36 35 36 35 34 34 34 33 33 32 30 30 30 30 29 28 26 24 23 22
92 92 92 92 93 91 87 82 77 74 75 79 80 78 77 77 77 77 78 77 75 73 70 66 61 57 57 57 53 47 45 43 43 45 43 39 38 37 34 34 36 39 40 38 36 38 38 36 36 37 37 37 36 35 32 31 32 32 31 29 27 25 23
95 96 96 97 97 96 94 91 88 84 80 79 80 81 80 80 79 79 79 79 79 78 75 72 69 63 60 62 62 58 55 54 53 51 47 43 43 43 40 36 35 38 41 39 37 38 39 38 38 39 39 39 40 39 36 34 34 34 33 32 29 28 27
98 98 99 100 100 100 99 97 95 94 91 87 84 83 82 82 82 82 81 81 81 81 80 79 77 72 66 64 65 65 64 63 62 58 52 48 47 47 45 41 38 39 41 41 39 37 38 38 38 40 40 40 41 42 40 38 37 35 34 33 31 30 30
99 100 101 102 102 102 102 101 100 98 97 95 93 90 88 86 84 83 83 83 83 83 83 83 84 81 75 69 66 66 67 67 64 60 57 55 55 54 52 49 46 44 44 44 43 40 39 40 41 42 42 40 40 42 43 43 41 39 37 36 35 34 34
101 101 102 102 103 103 103 103 103 102 101 100 98 96 94 92 90 87 85 85 85 85 85 85 86 85 82 77 73 70 69 67 65 64 63 63 63 62 62 60 59 55 51 48 47 45 44 45 45 45 44 42 41 42 44 46 45 43 41 39 38 38 37
104 103 103 103 104 104 104 104 104 104 103 103 102 100 97 95 94 92 90 88 87 87 87 87 87 87 85 83 81 79 76 73 72 73 74 74 72 69 67 67 67 65 62 58 55 53 52 51 50 48 47 46 45 46 48 49 48 47 46 43 41 39 38
108 107 106 105 105 105 104 104 104 104 104 104 103 103 101 99 97 96 95 93 91 89 88 88 88 88 87 86 84 85 85 84 83 83 83 82 80 76 73 73 73 72 71 69 67 65 61 59 57 53 50 50 50 51 53 53 51 50 50 48 45 43 41
110 109 108 107 107 106 106 105 105 105 105 104 104 104 103 102 100 98 97 97 96 94 91 90 89 89 89 89 88 88 89 90 90 90 89 87 84 81 78 77 76 75 74 73 73 73 70 67 64 62 59 58 57 56 56 56 55 54 53 52 50 48 45
110 110 109 109 108 108 108 107 106 106 105 105 105 105 105 104 103 102 100 99 98 97 95 93 91 90 90 91 92 91 91 91 91 91 90 88 86 84 81 79 77 76 75 75 75 76 75 72 70 69 68 66 64 63 61 61 60 59 57 57 56 54 51
109 110 110 110 110 110 110 110 109 108 107 106 106 106 106 106 105 105 104 103 101 100 98 97 95 93 92 93 93 93 93 93 92 92 90 89 87 86 84 82 80 78 77 77 77 77 77 75 74 73 73 72 70 69 68 67 65 63 62 63 63 60 58
109 110 111 111 112 112 112 112 111 110 109 108 108 107 107 107 107 107 107 106 105 104 102 101 99 97 95 94 94 94 95 94 94 93 92 91 89 88 87 85 83 80 79 79 79 78 78 78 76 76 75 76 75 74 73 72 70 67 66 67 67 66 64
112 111 112 112 113 113 113 113 114 113 113 112 111 110 109 109 109 109 109 108 108 107 106 105 103 102 100 98 97 96 96 96 96 95 95 93 92 90 89 88 86 84 82 81 81 81 80 80 79 79 77 76 77 77 77 75 74 71 69 69 69 68 67
116 115 114 113 113 113 113 114 114 115 115 115 114 113 112 111 110 110 109 109 110 109 109 108 107 106 105 103 102 100 99 98 97 97 97 96 95 94 92 91 90 87 86 85 84 84 83 83 82 81 80 78 77 78 78 77 77 75 73 71 71 70 69
119 118 117 116 114 113 113 114 115 116 116 117 117 116 115 115 114 113 112 111 111 111 111 111 111 110 109 107 106 104 103 101 100 99 99 98 98 97 96 94 93 91 89 88 88 87 86 85 84 83 83 82 81 81 81 81 80 78 77 75 74 72 71
120 120 120 119 118 116 115 115 115 117 118 118 118 118 117 117 116 116 115 114 113 113 113 113 112 112 111 110 109 108 106 105 103 102 100 99 99 99 98 97 95 94 93 92 91 90 89 88 87 86 85 85 85 85 86 86 86 85 82 80 77 75 73
120 121 121 121 121 120 120 119 118 118 119 119 119 119 119 118 118 118 118 117 116 116 115 115 114 113 113 111 110 110 109 108 107 105 103 102 101 100 99 99 98 97 96 95 95 94 93 91 90 90 88 87 87 87 88 89 90 90 89 86 82 79 77

ECMWFFLT1_250_spd_096.txt.gz
Wind_Speed
40 37 34 34 33 32 31 29 27 28 29 28 26 24 21 19 17 15 13 10 8 11 13 13 13 12 13 13 12 13 14 13 12 13 14 15 15 16 16 16 16 15 15 14 13 13 14 15 16 17 18 19 20 21 21 21 20 19 19 18 17 17 17
45 41 36 35 37 37 36 32 30 31 31 30 29 26 23 21 19 17 15 12 10 12 13 13 13 12 13 13 11 10 11 13 13 11 12 13 14 16 16 16 16 15 14 14 13 13 13 14 15 16 16 18 19 21 22 22 22 21 20 19 18 17 17
49 45 41 40 41 39 38 36 34 34 33 31 30 28 25 23 20 19 18 17 15 14 14 13 13 12 13 14 12 10 8 10 12 10 10 13 14 15 16 17 16 15 15 14 14 13 13 13 14 15 15 16 18 20 21 23 23 23 22 21 19 19 18
52 48 45 44 42 39 38 38 37 36 34 30 29 27 25 24 22 21 21 22 21 18 16 15 14 14 14 14 13 11 8 8 9 8 9 12 14 15 16 16 16 15 15 14 14 14 13 13 14 15 15 16 17 18 20 21 23 24 24 22 21 20 19
54 52 49 47 44 41 40 40 39 39 37 32 30 28 26 25 24 23 24 25 25 22 19 18 16 16 15 15 13 12 11 9 8 7 8 11 13 14 15 16 16 15 14 14 14 14 14 13 14 14 15 16 16 17 18 19 21 22 23 23 22 20 19
55 54 53 51 49 47 45 43 43 43 41 39 36 32 30 28 27 27 27 27 26 24 22 20 18 16 15 15 14 13 12 12 10 7 7 9 11 13 14 14 15 15 14 14 13 13 13 13 13 14 15 16 16 16 16 17 18 19 20 21 21 20 19
57 55 55 54 53 51 49 47 46 45 44 43 41 37 34 32 31 31 30 28 27 25 24 22 18 16 16 15 15 15 14 14 12 10 9 8 9 11 13 13 14 14 15 14 13 12 12 12 13 13 14 15 15 15 15 15 15 16 16 18 19 18 18
59 58 57 57 56 54 51 50 49 47 44 42 42 39 37 35 34 34 32 29 28 27 25 23 19 17 16 15 15 15 15 14 13 12 11 9 9 10 12 13 14 14 14 15 15 13 12 12 12 13 13 13 14 15 15 14 13 13 13 14 15 15 16
63 61 59 58 58 56 54 52 51 49 46 44 42 39 38 37 36 35 32 31 30 27 24 23 22 20 18 16 15 13 13 13 12 11 11 10 9 9 11 11 13 14 14 14 15 14 13 12 12 13 12 12 13 14 14 14 13 12 11 11 11 12 12
67 65 62 59 58 58 57 55 52 49 48 47 44 41 40 39 39 36 33 31 28 25 23 24 25 23 19 18 17 14 12 13 13 12 12 12 11 10 10 10 11 13 12 12 13 14 13 12 12 13 13 13 12 13 13 13 13 12 10 9 9 9 9
68 68 66 62 60 59 59 58 56 53 51 50 48 46 43 42 41 39 36 32 28 25 25 25 25 24 23 23 23 18 14 15 15 15 15 15 14 12 11 10 11 13 13 11 11 12 13 12 11 12 13 13 13 12 12 12 13 12 11 9 7 7 7
68 68 68 66 63 61 60 59 59 58 56 54 53 50 47 44 43 42 40 37 32 28 27 26 25 26 27 29 28 23 19 18 18 17 17 17 16 14 12 11 11 14 15 13 10 10 11 11 11 11 11 12 12 12 12 12 12 12 11 10 8 6 5
69 69 69 68 67 65 63 62 60 60 59 57 55 53 51 48 44 43 42 41 39 35 33 32 29 29 31 32 30 28 25 23 22 21 19 18 17 16 15 13 12 14 16 16 13 11 10 10 11 11 10 11 11 11 11 11 11 11 11 10 9 7 6
72 71 70 69 69 68 66 64 63 61 60 59 58 56 53 50 46 43 42 42 41 40 39 37 34 32 33 35 34 31 29 27 26 24 22 20 20 19 18 15 14 15 16 17 16 15 13 12 11 11 10 9 10 10 10 10 11 11 11 11 10 9 8
75 73 71 70 70 69 68 67 65 63 62 61 60 57 54 51 48 46 43 41 40 40 40 38 35 34 36 37 35 31 28 28 29 27 25 24 22 22 21 18 17 16 17 18 18 18 17 15 14 13 11 10 10 10 10 10 10 11 11 11 11 11 10
79 76 73 71 71 70 70 69 68 66 64 62 61 58 55 52 49 46 44 42 41 40 38 35 33 36 39 38 35 31 29 31 31 28 27 26 25 24 23 22 20 19 19 20 21 22 21 20 18 15 14 13 12 11 10 10 10 11 11 12 11 11 11
82 80 77 74 72 71 71 71 70 68 66 64 61 59 56 53 48 45 45 43 41 39 36 35 37 40 41 41 40 37 36 36 34 30 28 27 25 25 25 24 23 22 22 23 24 24 24 24 21 18 16 16 15 15 13 12 12 12 12 13 13 12 12
84 83 81 78 74 72 72 72 71 70 68 66 63 60 56 50 45 45 46 43 39 38 37 40 44 45 44 44 44 43 41 40 38 34 31 29 28 27 26 28 27 26 24 24 25 25 26 26 25 21 19 19 19 19 17 15 14 14 13 14 16 15 14
83 84 83 82 79 76 73 72 72 71 70 68 66 64 61 55 50 49 49 44 40 39 38 40 45 46 45 46 47 46 44 42 39 37 35 34 33 31 29 30 30 29 28 27 26 26 27 27 26 24 22 22 22 22 21 19 18 17 16 16 17 18 18
81 83 83 84 83 81 78 75 73 73 72 71 69 67 65 64 60 58 55 49 43 41 39 38 40 43 45 47 48 46 44 41 39 39 39 37 36 33 32 33 33 32 32 30 27 28 28 29 29 27 25 25 25 24 23 22 20 20 20 19 18 19 20
81 82 83 84 84 84 83 79 76 76 75 74 72 70 68 67 65 64 62 56 50 47 44 40 41 45 47 49 48 46 43 42 41 40 40 39 38 36 35 35 35 35 33 31 29 29 30 31 31 29 28 28 28 27 26 25 24 24 23 22 21 20 21
83 83 84 85 85 85 85 83 80 78 78 77 75 73 71 69 67 66 65 63 59 54 49 46 47 49 48 47 46 46 45 43 42 41 41 42 42 41 39 37 36 35 33 32 31 31 31 31 30 29 29 30 31 31 29 27 27 27 27 26 25 23 22
86 85 84 85 85 85 85 84 82 81 80 79 78 75 73 71 70 68 67 68 67 61 56 53 50 49 48 47 46 46 46 45 43 43 43 43 45 45 42 39 37 36 35 33 33 33 32 32 32 32 32 32 34 33 31 30 29 29 30 30 29 28 26
88 88 86 85 85 86 85 84 83 83 81 79 78 77 75 73 73 72 70 71 71 67 63 61 57 53 50 51 51 49 48 46 44 43 44 44 45 45 43 40 39 40 38 35 34 35 34 33 33 34 35 36 38 36 33 33 33 31 32 33 32 32 31
90 90 89 88 86 86 86 85 84 84 83 81 79 77 75 73 74 75 74 74 73 71 67 66 67 65 61 59 57 55 53 51 47 44 44 44 43 42 41 40 40 42 42 39 37 37 37 36 35 36 37 41 44 42 39 39 38 35 33 34 34 35 34
92 92 92 91 89 88 87 87 86 86 85 84 82 80 77 74 73 75 77 77 76 76 73 69 69 70 69 66 62 59 58 57 53 49 47 47 46 44 42 42 43 45 45 43 39 38 38 37 36 37 38 41 45 45 43 42 42 39 37 37 37 37 36
95 94 94 93 92 90 88 87 87 88 88 87 86 84 82 79 76 76 78 80 79 80 80 76 71 69 69 68 65 62 61 61 59 55 52 50 49 49 48 47 47 49 49 46 42 39 39 39 38 38 39 41 45 47 45 44 45 44 44 43 41 40 39
97 96 96 95 94 92 91 89 89 89 89 90 89 88 87 85 83 81 80 81 82 83 84 83 80 75 72 70 68 65 63 62 61 60 57 54 52 51 51 51 52 53 54 54 50 47 46 47 45 43 44 46 48 49 49 48 48 48 48 47 45 44 42
99 99 98 97 96 94 93 92 91 90 91 92 92 92 90 88 87 86 85 85 85 86 87 87 87 84 81 77 75 72 69 67 65 64 63 62 60 58 57 57 58 58 59 59 58 55 53 53 52 52 52 52 52 52 52 52 51 50 50 50 49 48 46
101 100 100 99 99 97 96 95 94 93 93 94 95 95 94 92 90 89 89 89 89 89 90 90 90 90 88 86 83 81 78 77 75 74 71 69 67 66 66 65 65 65 65 64 64 63 60 58 57 57 57 56 54 53 54 54 55 54 53 52 52 52 51
102 102 102 101 101 100 99 98 97 96 95 96 96 97 98 97 95 93 91 91 92 92 93 93 93 94 94 93 91 89 87 86 85 83 81 77 73 70 70 70 70 71 72 72 72 72 71 69 66 64 62 60 59 57 57 57 58 57 56 55 55 55 55
103 103 103 103 103 103 103 102 101 100 99 98 99 99 100 100 100 99 97 95 94 94 94 94 95 96 97 98 98 97 96 94 93 90 88 86 82 78 75 73 73 73 76 78 79 79 79 78 75 70 67 65 65 64 63 63 61 59 58 59 59 59 59
105 105 105 105 105 104 104 105 104 103 103 102 101 101 102 102 103 104 104 102 99 97 96 96 96 96 97 98 100 100 100 99 98 95 92 91 89 87 84 81 79 77 76 78 80 82 81 80 79 76 74 72 70 69 69 69 68 67 66 65 65 65 63
107 105 105 106 107 107 107 107 107 107 107 106 105 104 103 104 104 105 106 107 106 105 103 101 100 99 99 99 100 100 101 101 100 99 96 94 93 92 91 89 87 84 82 80 80 81 82 81 81 81 80 80 78 77 76 76 76 76 75 74 73 72 71
110 109 107 106 107 109 110 110 110 110 109 109 108 107 106 106 106 106 107 108 109 110 110 108 107 105 104 103 103 102 102 102 102 101 99 98 97 96 95 94 93 92 91 90 89 88 88 88 88 88 88 87 88 87 86 84 83 82 82 80 79 78 78
113 113 112 110 109 109 110 111 112 112 111 111 111 110 110 109 109 108 108 109 110 111 112 113 112 111 110 109 108 107 106 105 104 103 102 100 99 99 98 98 97 97 97 96 96 96 96 96 96 97 96 96 95 95 94 92 90 89 87 85 83 82 81
113 114 114 115 114 113 111 112 112 113 113 113 112 112 112 112 111 111 111 111 111 111 112 114 114 114 114 113 113 112 111 110 110 109 107 106 105 104 103 102 102 101 101 101 101 100 100 100 100 101 102 101 100 99 98 97 95 94 92 91 88 86 84
114 114 115 116 118 118 116 115 114 114 114 114 114 114 114 113 113 113 113 114 113 113 113 113 114 115 115 116 116 115 115 114 114 113 112 111 110 109 107 106 106 105 105 105 105 104 103 103 102 103 104 103 103 101 100 98 97 96 95 94 92 90 88

ECMWFFLT1_250_spd_099.txt.gz
Wind_Speed
42 41 39 36 34 33 31 29 29 27 26 24 23 22 21 19 18 16 14 10 8 6 4 5 6 7 9 11 13 13 12 11 11 13 16 17 16 15 14 14 14 14 14 15 15 16 16 17 18 20 21 24 25 26 25 24 23 22 21 20 20 20 20
43 41 39 38 36 34 33 32 31 30 28 26 25 23 23 22 21 19 16 13 11 9 6 4 6 7 9 10 11 12 12 11 10 10 13 15 15 15 14 13 13 12 13 14 14 14 15 16 17 17 19 21 22 24 24 24 23 22 21 20 20 20 20
44 41 39 38 37 36 36 34 32 31 30 29 27 25 24 24 24 22 20 16 14 13 11 6 6 8 9 10 10 11 11 11 10 8 10 13 14 15 14 14 13 12 12 12 12 13 14 15 16 16 17 18 19 21 22 23 22 21 21 20 20 20 20
46 43 40 38 38 36 35 35 34 33 33 32 29 26 26 27 27 26 23 20 17 16 15 11 8 9 10 10 10 10 10 10 10 8 8 11 12 13 14 14 15 14 13 11 11 12 12 14 15 16 16 17 17 18 19 20 21 20 19 19 19 19 19
48 46 42 40 40 34 30 33 35 34 35 34 31 29 29 30 30 29 26 21 19 18 17 14 12 11 11 11 10 10 10 10 10 9 8 10 11 11 12 14 15 16 15 13 11 11 11 12 14 15 16 16 16 16 17 17 18 18 18 18 18 18 18
52 50 46 42 42 36 29 31 37 38 37 36 35 33 32 33 32 31 27 22 19 19 17 15 14 14 14 12 10 9 9 9 10 9 8 8 9 8 10 12 13 15 16 16 13 11 11 11 12 14 15 16 16 16 15 15 15 16 16 16 16 16 16
56 54 50 45 43 41 36 34 38 41 40 39 38 36 35 36 35 33 29 25 22 20 17 16 15 16 17 15 11 10 9 9 8 7 6 6 6 6 7 9 10 12 13 15 15 13 11 11 11 12 13 15 15 15 15 14 13 13 13 14 15 15 14
60 57 55 51 47 45 41 37 39 42 44 43 41 39 38 38 37 34 31 28 26 24 21 18 18 18 19 18 14 11 9 9 7 7 7 5 4 5 6 7 8 9 10 11 13 13 12 11 10 10 11 13 14 14 14 13 13 12 11 11 12 13 13
63 61 59 57 54 50 46 42 41 44 46 45 42 39 39 40 39 36 33 31 30 29 26 23 21 20 19 18 17 14 10 10 9 8 7 6 5 6 6 6 6 7 8 9 9 11 11 10 10 9 9 10 11 12 12 12 12 11 10 9 10 11 11
65 65 64 61 58 56 54 49 46 45 46 46 44 42 42 43 42 39 36 35 33 31 29 26 23 21 19 17 19 17 12 11 11 10 10 10 9 9 7 6 4 4 6 7 8 8 9 9 9 8 8 8 8 9 10 10 10 10 9 8 8 8 8
67 66 67 66 62 61 60 58 53 50 49 47 45 46 46 46 46 44 41 39 36 34 32 28 25 22 20 19 20 19 15 14 14 13 13 14 14 13 11 8 6 5 4 5 7 8 8 7 7 7 6 6 6 7 8 8 8 8 7 7 7 6 6
70 68 67 68 67 64 64 63 61 59 57 53 50 50 50 49 48 47 45 43 40 37 34 30 26 24 23 23 22 20 18 19 18 17 17 17 17 16 14 12 10 8 7 6 7 8 8 8 7 7 6 5 4 4 5 6 6 6 6 5 5 4 4
73 72 69 68 69 68 66 65 64 63 62 60 56 55 54 53 51 49 48 46 43 39 36 32 29 27 26 26 25 23 21 22 22 22 22 21 19 19 18 17 15 12 10 9 8 9 9 10 8 7 7 6 4 3 3 3 3 4 4 3 3 3 2
74 74 73 70 69 69 68 67 65 64 63 62 60 59 58 56 54 51 49 47 43 40 37 34 31 30 29 28 27 26 24 23 23 23 24 25 25 23 21 19 18 16 14 13 11 10 11 11 11 9 7 7 6 5 2 1 1 1 2 2 1 0 1
78 76 75 73 71 70 70 69 68 66 65 64 62 61 60 58 56 53 51 48 44 41 38 35 35 35 34 32 32 31 30 28 27 27 27 27 27 27 25 22 20 19 17 16 14 13 13 14 14 13 11 9 8 7 6 4 2 2 2 2 1 1 2
84 81 79 77 75 74 73 72 71 69 68 66 65 64 63 61 57 55 53 51 47 44 40 38 38 38 37 37 37 37 36 34 32 30 29 28 28 29 28 24 22 21 20 18 17 17 17 17 17 16 15 14 12 10 9 7 6 5 5 5 4 3 3
87 86 84 82 79 77 76 75 74 73 72 70 68 66 65 64 60 58 56 53 49 46 42 40 42 42 40 40 40 39 39 37 33 31 31 30 30 31 30 26 23 22 21 21 20 19 20 19 19 20 19 18 16 14 11 10 10 9 8 7 6 6 5
87 88 87 85 82 80 78 78 78 77 75 73 71 69 67 65 64 62 60 56 53 48 44 44 47 45 41 40 40 40 40 38 35 33 32 31 32 34 34 30 26 25 25 23 22 22 22 23 22 23 23 22 20 18 15 13 13 13 12 11 9 9 8
84 86 87 87 85 82 80 79 78 78 76 75 73 72 70 68 66 65 63 61 57 52 48 48 50 48 44 41 40 40 40 38 37 37 36 34 34 37 38 36 32 30 29 27 25 24 24 24 25 26 26 26 24 23 20 18 16 16 16 15 13 12 11
82 83 86 87 87 85 82 80 80 78 77 75 74 73 72 70 69 67 65 63 60 56 53 52 52 51 48 45 43 42 40 39 38 40 40 38 37 38 40 40 38 36 33 31 30 28 26 26 28 28 29 29 28 26 24 22 21 19 19 18 18 17 14
82 82 83 85 87 87 86 84 82 80 78 77 75 74 73 72 71 69 67 65 64 61 60 59 56 53 50 48 46 44 42 40 39 40 40 40 39 40 41 42 42 42 39 36 33 31 30 29 30 30 30 31 30 29 27 26 25 23 22 21 20 20 19
84 83 82 83 84 87 88 88 86 83 81 79 78 76 75 74 73 72 70 68 66 64 62 60 58 55 52 48 46 44 42 41 41 42 42 41 41 43 45 44 44 45 44 40 36 34 33 32 31 32 32 32 31 30 30 30 29 27 26 25 24 22 21
86 85 84 83 82 84 86 89 89 87 85 82 80 78 78 76 75 74 73 71 69 67 63 59 57 56 54 49 47 45 44 43 44 44 44 43 42 43 43 44 44 46 46 44 39 37 36 34 34 35 34 33 32 31 31 31 31 30 28 27 26 26 24
87 87 86 85 84 83 84 86 88 89 88 86 83 81 80 78 77 75 74 73 72 71 68 63 58 58 57 54 51 49 48 48 48 46 44 43 42 43 43 42 43 44 46 46 42 39 37 37 38 38 38 37 35 33 32 31 32 33 32 29 28 27 26
89 88 88 87 86 85 84 84 86 87 89 89 87 84 82 81 79 77 76 75 74 72 72 68 63 60 60 58 55 52 51 52 52 51 49 47 46 46 44 43 41 41 43 45 45 42 41 41 41 40 40 42 41 37 34 35 36 35 34 33 31 30 29
91 91 90 89 88 87 86 85 85 85 87 88 89 88 86 84 82 80 78 77 76 74 73 72 68 64 63 61 59 56 54 53 54 54 53 53 53 52 50 47 44 43 44 47 48 47 46 46 45 43 42 44 44 41 38 39 38 36 36 36 35 35 34
93 92 92 91 90 89 88 87 85 85 85 86 88 89 90 88 86 84 81 79 78 77 76 75 73 69 66 64 62 61 59 57 57 57 56 56 56 56 56 54 51 49 48 48 49 51 50 49 49 48 47 47 47 43 41 41 40 38 37 38 39 40 40
93 94 93 93 92 91 90 89 87 86 85 85 86 88 90 90 90 88 86 83 81 80 79 78 77 76 73 69 67 66 64 62 62 63 62 60 59 58 59 60 59 58 55 52 51 52 52 52 52 52 53 53 52 48 46 46 45 42 39 40 43 46 45
94 95 95 94 94 94 93 91 90 89 87 86 85 85 87 89 90 91 90 87 85 84 82 81 80 80 79 77 74 72 70 66 66 67 67 66 65 64 64 64 64 65 63 59 56 56 56 56 55 55 56 56 55 53 52 52 51 50 46 45 48 51 50
93 96 96 96 95 95 95 94 93 92 90 89 87 86 86 86 88 89 90 91 90 88 86 85 83 82 82 81 79 78 76 73 71 70 70 71 70 68 68 70 69 69 68 65 62 61 61 60 60 59 58 58 58 58 58 57 56 56 53 50 51 53 53
95 96 96 97 97 96 96 96 95 94 93 92 91 89 88 87 87 87 89 90 91 91 90 89 88 86 84 83 82 81 81 80 78 75 73 72 73 73 72 72 73 72 71 68 65 64 64 63 63 63 62 62 63 62 61 60 60 58 57 56 57 57 56
98 98 98 99 99 99 98 98 98 97 96 95 94 92 91 90 88 88 88 89 90 91 92 91 91 90 89 87 86 84 83 83 84 83 79 75 75 75 75 75 75 75 73 70 67 65 66 65 65 65 65 65 65 64 63 62 61 59 59 61 62 61 59
99 100 100 100 100 101 101 100 100 100 99 98 97 96 95 93 92 91 90 89 90 91 91 92 91 91 90 89 89 88 88 86 85 87 87 84 81 79 78 78 77 77 76 74 70 67 67 67 68 68 68 67 66 66 65 64 63 61 61 63 64 64 63
101 101 101 101 102 102 102 102 102 102 101 101 100 99 98 97 96 95 93 92 92 92 92 93 92 91 91 90 89 89 91 91 89 89 90 90 89 87 85 83 82 81 79 78 76 73 70 70 70 71 71 70 68 67 67 67 66 65 64 64 65 65 65
103 103 103 103 103 103 104 104 104 104 104 103 103 102 102 101 99 98 97 96 95 94 94 94 94 94 93 92 91 90 91 93 94 93 91 91 92 92 91 89 88 86 85 83 82 80 78 76 74 74 75 74 73 72 71 71 71 70 69 69 68 68 68
105 106 106 106 106 106 106 106 106 106 106 106 106 105 105 104 103 102 101 100 99 97 96 96 96 96 96 95 95 94 94 94 96 97 97 95 93 93 94 93 91 90 89 87 86 85 83 81 79 78 78 79 79 78 77 76 75 75 75 75 75 74 74
107 107 108 108 107 108 108 109 109 109 108 108 108 108 107 107 106 105 104 103 102 101 100 99 98 98 98 98 98 98 98 97 97 99 101 101 99 96 95 95 94 93 92 91 89 88 87 86 85 83 82 82 81 81 80 80 79 79 80 80 80 80 80
108 108 109 109 109 110 110 110 111 111 111 110 110 109 109 109 108 108 108 107 106 105 103 102 101 101 101 101 101 101 102 101 100 100 101 104 105 104 101 99 97 96 95 95 94 93 91 90 89 88 87 86 84 83 82 82 82 82 83 83 84 84 85

ECMWFFLT1_250_spd_102.txt.gz
Wind_Speed
43 40 37 35 35 37 34 31 30 28 26 25 24 22 20 19 18 18 16 15 13 8 3 1 4 6 7 8 9 11 11 10 12 14 15 14 14 14 14 14 15 15 16 17 17 17 17 17 18 18 19 19 18 18 18 18 19 19 19 20 20 21 21
47 44 40 38 38 40 37 34 32 31 29 28 26 25 24 21 21 21 19 18 16 12 7 4 1 3 5 6 6 7 9 9 9 10 12 14 14 14 13 13 14 14 15 16 16 16 16 16 16 16 17 18 18 18 18 17 18 18 18 19 20 20 21
49 47 43 40 41 42 39 37 35 33 32 30 28 28 26 24 23 23 23 21 18 15 11 8 4 0 3 4 4 4 6 7 7 7 9 11 12 13 14 14 14 14 14 14 15 15 16 16 16 15 15 16 17 17 17 17 17 17 18 18 19 19 20
50 51 47 43 43 43 42 40 38 35 34 32 30 29 29 28 27 26 25 23 21 18 15 12 9 6 2 3 3 3 3 5 6 6 6 8 9 11 13 13 13 13 13 13 13 14 14 15 15 15 14 14 15 16 16 17 17 17 17 17 17 18 19
50 50 51 49 48 46 44 42 40 38 37 35 33 32 32 32 30 27 26 25 23 20 17 15 13 11 8 5 3 2 1 2 4 4 4 5 6 8 11 12 13 13 13 13 12 12 13 13 14 14 13 13 13 13 14 16 16 16 16 16 16 17 17
50 50 52 53 50 48 46 45 43 42 40 38 36 35 35 35 33 29 28 27 25 22 19 17 16 14 12 10 6 4 2 1 2 2 2 3 3 6 9 11 12 12 13 13 12 11 11 11 12 13 13 12 12 12 12 13 14 15 15 16 16 16 16
54 52 51 52 51 48 48 47 46 44 42 39 38 37 37 37 35 32 30 29 27 24 21 19 17 15 13 12 10 6 5 3 1 0 1 2 2 4 6 8 9 10 11 12 11 10 9 9 10 11 11 11 11 10 10 10 11 12 13 14 15 15 15
59 56 53 52 52 51 49 47 45 44 42 41 40 40 40 39 38 35 33 32 30 27 23 21 19 16 13 12 11 10 8 6 5 3 2 2 2 2 2 4 6 7 9 9 9 9 8 8 8 8 9 10 9 9 9 9 9 10 10 11 12 13 13
64 61 57 54 53 52 49 44 42 41 39 40 40 42 43 42 40 39 36 34 32 30 26 24 23 20 16 14 13 12 10 9 8 7 6 4 4 3 1 0 2 3 4 6 7 7 7 7 6 6 6 7 8 8 7 7 7 7 8 8 9 10 11
67 64 62 58 54 52 50 47 45 42 39 37 37 37 40 43 43 41 40 38 35 33 30 28 27 25 22 19 16 14 13 12 12 12 9 7 7 7 6 4 3 2 1 0 2 4 5 5 5 4 5 5 5 6 6 6 6 5 5 5 6 6 7
71 67 65 62 58 54 52 51 49 46 43 41 38 35 36 42 45 44 42 40 38 35 33 31 31 30 27 26 22 18 17 17 15 13 12 10 10 11 10 8 6 5 5 5 4 2 1 2 3 3 3 3 4 4 5 5 5 4 3 3 3 3 4
75 71 68 66 63 60 57 54 51 49 49 47 44 41 38 41 46 46 44 42 39 37 36 35 35 34 32 30 26 22 22 20 16 14 15 14 14 14 12 11 9 8 8 8 7 6 5 4 3 2 2 3 3 4 5 5 5 5 4 3 1 1 1
79 75 72 70 67 64 62 58 54 52 52 52 50 47 44 45 47 47 45 44 42 40 40 39 38 37 35 33 30 26 26 24 20 18 18 19 18 17 15 13 12 10 11 11 10 9 8 8 7 5 4 3 3 4 5 5 6 6 6 5 4 3 2
82 79 77 75 72 69 66 62 59 55 53 54 53 51 50 50 48 46 46 45 45 44 43 42 42 41 39 36 32 29 28 28 26 25 24 23 22 20 18 17 16 15 15 15 14 13 12 11 11 9 7 6 5 5 5 6 6 6 7 7 6 5 4
84 83 80 78 77 75 71 67 64 61 57 54 53 53 54 51 48 47 48 47 48 48 47 46 45 44 42 38 35 32 30 29 29 29 28 27 25 22 20 20 20 20 18 17 17 17 16 15 13 12 11 10 9 8 7 7 7 7 7 7 7 7 7
87 85 83 81 79 78 76 74 71 67 62 58 54 53 52 50 47 46 46 48 51 53 51 49 48 46 43 40 37 34 33 32 31 30 30 29 27 25 23 22 23 23 22 20 20 20 20 18 16 14 13 13 12 11 10 10 10 10 9 8 8 8 8
88 87 85 83 81 80 79 78 76 73 70 64 59 55 52 50 48 46 46 48 52 55 54 53 50 47 44 42 39 37 36 35 34 32 32 32 31 29 28 27 27 27 25 23 22 22 22 20 18 17 16 15 15 14 13 12 12 13 13 12 11 10 9
89 89 88 86 84 82 80 79 78 77 76 72 67 61 57 54 53 52 52 51 51 52 53 53 51 47 46 44 41 39 39 39 38 36 35 35 35 35 33 32 31 31 29 26 23 23 23 21 20 19 19 17 17 18 17 16 16 16 16 15 14 13 12
87 88 89 88 87 84 82 81 80 79 78 78 76 72 65 61 60 61 61 58 55 55 56 56 54 50 48 46 44 42 43 43 41 40 38 37 38 39 39 37 34 33 31 29 27 26 25 24 23 23 22 21 21 21 20 21 21 21 20 19 17 16 14
85 87 88 89 89 87 85 83 82 81 80 80 81 81 77 72 68 67 68 67 65 64 63 62 60 56 52 49 46 46 48 47 44 42 40 40 41 42 40 38 36 34 32 31 30 30 28 27 27 28 27 26 26 25 25 25 24 24 24 23 21 19 17
84 84 86 88 89 89 88 86 84 82 82 82 83 83 83 82 79 76 75 75 73 71 68 66 64 61 56 52 48 48 49 48 46 44 42 41 43 42 40 37 35 33 33 32 32 32 32 31 31 31 31 31 30 28 28 28 27 26 27 27 25 23 21
83 83 84 85 88 90 90 89 88 85 84 83 83 84 83 83 84 82 81 80 77 74 72 70 68 65 61 57 53 50 48 44 42 43 43 43 44 42 39 36 35 35 36 36 36 35 35 35 35 35 35 35 34 33 32 32 30 29 29 29 29 28 25
82 82 83 83 85 88 90 92 91 90 88 86 85 85 84 83 83 82 82 81 78 76 74 73 72 69 65 62 58 55 52 47 41 39 41 42 43 41 39 36 37 40 42 41 40 38 37 37 37 38 39 37 37 38 38 35 34 32 31 30 31 31 29
82 82 83 84 84 86 89 91 93 93 92 90 88 87 86 85 84 83 82 81 79 77 75 74 73 71 68 66 62 60 60 56 49 45 44 43 42 42 41 40 40 43 45 45 43 41 40 39 40 41 41 40 41 43 42 39 38 35 34 33 32 32 32
85 85 85 85 86 86 87 89 92 94 94 94 92 90 89 87 86 85 83 81 80 78 77 76 75 73 71 69 67 65 65 63 59 57 53 49 46 45 44 43 43 44 45 45 46 44 43 43 44 45 43 41 42 45 43 41 40 39 38 38 36 34 33
88 88 88 88 88 88 88 88 89 91 93 95 95 95 93 91 89 88 86 84 82 81 80 79 78 76 74 72 70 70 69 67 65 64 59 52 48 46 45 43 44 45 46 46 47 46 45 45 46 48 46 44 44 45 43 42 43 42 42 42 41 38 36
91 92 92 92 92 91 90 90 89 89 90 92 94 96 96 96 94 93 91 89 86 84 83 82 81 79 78 77 75 74 73 71 70 69 65 58 54 52 51 49 48 49 50 51 52 52 50 49 48 49 49 48 48 47 46 45 45 45 45 46 45 43 41
95 96 95 95 94 94 93 92 91 90 89 89 91 93 95 96 97 96 96 94 91 89 87 85 83 81 80 79 78 77 75 74 73 72 71 68 63 61 59 56 55 54 52 53 55 55 53 52 51 50 50 50 50 49 49 48 48 48 49 49 49 48 46
97 98 98 97 96 96 96 95 94 92 91 90 89 90 91 93 95 96 97 96 94 93 91 89 86 84 83 81 80 79 78 77 75 74 74 73 69 66 63 59 57 57 54 54 55 55 53 53 54 54 53 53 52 51 51 51 52 52 52 52 52 52 51
99 99 98 97 98 98 97 97 96 95 94 92 91 90 89 89 91 92 94 96 96 95 93 91 89 87 86 84 83 82 80 79 78 77 76 75 71 69 66 62 60 60 59 58 58 58 58 57 57 58 57 57 56 54 54 55 57 57 57 56 56 55 53
96 99 99 99 99 99 98 97 97 97 96 95 94 92 91 90 89 90 91 92 94 95 95 94 92 90 89 87 86 85 83 82 81 80 80 78 74 72 70 68 65 64 64 65 64 64 65 65 63 63 62 61 60 59 59 61 62 62 62 61 61 60 57
93 95 99 101 102 101 100 99 99 99 98 98 97 95 94 92 91 91 90 90 91 93 94 96 95 94 92 90 89 87 86 85 84 83 82 82 80 76 74 72 71 68 68 68 68 69 70 71 71 69 67 64 62 61 62 64 65 66 66 66 66 65 63
97 97 97 99 101 102 102 102 101 100 100 99 99 98 97 96 95 94 93 92 91 91 92 94 95 96 95 94 92 91 89 88 87 86 85 85 84 82 78 76 76 74 72 71 71 71 72 73 74 74 74 73 70 66 64 65 65 67 68 69 69 69 68
99 100 99 98 98 99 101 102 102 102 102 101 100 100 100 99 98 97 96 95 94 93 92 92 93 94 96 96 96 95 93 91 89 89 89 88 87 85 83 81 81 80 78 76 74 74 74 74 75 76 77 78 79 77 74 71 69 69 70 71 70 70 70
98 100 101 101 99 98 98 100 101 102 103 103 103 102 102 102 101 100 99 98 97 96 95 95 94 93 94 95 96 97 96 95 93 91 91 90 90 89 87 86 86 86 84 82 80 78 78 78 79 79 79 79 81 82 83 81 79 77 77 76 75 74 74
101 100 101 101 100 99 99 100 101 101 102 104 105 104 104 103 103 102 102 101 100 99 98 98 97 96 95 95 95 96 97 98 97 96 94 93 93 92 91 90 90 90 90 89 87 83 80 80 82 83 83 83 83 83 84 85 85 83 83 82 81 79 78
105 105 104 102 101 100 100 101 102 102 102 102 103 104 104 105 105 104 104 103 103 102 101 101 100 99 98 97 97 96 96 97 98 99 98 97 96 95 95 95 94 94 94 94 93 89 85 83 84 85 86 87 87 87 87 87 87 86 85 85 84 84 83
108 108 108 108 106 105 103 103 103 104 105 104 103 103 103 104 105 106 106 106 105 105 104 104 103 102 101 101 100 99 98 98 98 99 100 100 100 99 99 98 98 98 98 98 97 95 91 88 87 88 89 90 91 91 92 92 91 90 89 88 87 86 85

ECMWFFLT1_250_spd_105.txt.gz
Wind_Speed
45 42 42 42 41 37 35 31 28 28 27 26 25 23 21 20 19 17 15 13 11 7 3 2 2 4 6 7 9 8 8 9 10 9 9 10 10 9 9 9 10 11 12 12 13 14 15 17 18 19 19 19 19 19 19 19 20 21 22 22 22 23 23
48 47 46 44 41 38 37 34 32 31 29 28 28 26 23 22 21 20 18 17 15 11 6 4 2 1 3 5 6 6 6 6 7 9 10 10 10 9 9 9 9 10 10 11 11 11 12 14 15 17 18 18 18 18 18 18 19 20 21 21 21 22 23
50 50 49 45 42 39 37 37 36 35 32 31 31 28 26 25 24 24 22 20 18 15 10 7 5 3 1 3 3 4 4 4 5 6 8 9 9 9 8 8 9 9 8 10 9 9 10 11 13 14 15 16 17 17 17 17 18 19 19 19 20 21 22
50 51 50 46 43 40 38 36 38 39 36 33 32 30 29 28 27 26 25 23 21 18 14 10 9 7 4 0 1 1 1 2 3 4 5 6 8 9 8 7 8 8 7 8 8 7 8 9 10 11 12 13 15 15 16 16 17 18 17 18 19 20 21
49 52 51 47 43 42 40 37 37 40 39 36 34 32 31 31 30 28 27 25 24 22 18 14 12 11 9 6 3 1 1 1 2 2 3 4 6 8 9 7 7 7 7 6 6 6 6 7 7 9 10 11 12 13 14 14 15 16 16 16 16 16 18
52 53 53 49 46 45 44 41 38 39 41 39 37 35 34 33 32 30 29 28 26 25 21 17 15 12 12 12 9 5 3 1 2 1 2 3 4 5 7 8 7 7 7 6 5 4 4 4 5 6 7 8 9 10 11 12 13 14 14 15 15 14 14
58 55 54 53 51 49 47 45 42 40 42 41 39 38 37 36 34 33 31 30 29 28 25 21 18 15 13 14 13 10 6 4 3 2 2 4 4 3 3 5 5 6 6 5 4 3 2 2 3 4 5 5 6 7 8 9 10 11 11 12 13 13 13
63 58 56 55 55 53 51 49 47 45 44 44 42 41 40 38 37 36 33 32 32 31 29 25 21 18 16 15 14 12 10 8 6 5 5 5 5 5 4 2 2 2 3 3 3 2 2 1 2 2 3 4 4 5 6 6 7 8 8 9 11 11 11
65 62 57 57 56 54 53 51 50 49 48 47 46 45 44 42 41 39 36 35 34 33 32 29 25 21 19 17 16 15 13 11 10 10 9 7 7 7 5 4 3 1 1 1 1 2 2 2 2 3 4 5 5 5 5 5 5 6 6 7 8 9 9
61 61 58 59 57 53 53 51 49 52 53 52 51 49 46 45 43 41 39 38 37 35 34 33 29 25 22 20 19 18 16 13 12 12 12 10 10 9 7 6 5 4 4 3 3 2 3 4 4 4 5 6 7 7 7 6 5 4 5 5 6 6 7
60 58 58 62 60 54 53 53 51 55 58 56 53 51 48 46 45 44 43 42 40 38 37 36 34 30 26 25 23 21 19 16 14 14 14 13 12 12 10 9 7 7 7 6 5 5 4 4 5 5 6 6 7 8 8 8 8 6 5 5 5 5 5
64 62 61 63 65 59 55 55 55 57 59 57 55 53 50 48 47 47 46 45 43 41 39 39 37 35 32 29 28 26 24 20 17 17 17 15 14 15 13 12 10 9 9 9 8 7 7 6 6 6 6 6 6 7 7 8 10 10 8 7 6 5 5
66 67 66 65 67 64 58 56 58 60 60 58 56 53 50 49 49 49 48 46 44 43 41 41 40 38 37 34 32 30 29 27 23 22 21 18 16 17 17 15 14 12 11 11 10 9 9 10 9 8 7 7 7 7 6 7 9 11 11 10 9 8 7
67 66 68 68 69 69 64 59 59 61 61 59 57 53 51 50 50 49 48 46 46 46 45 44 43 42 41 39 36 33 32 31 29 27 25 23 20 20 20 19 17 16 15 14 13 12 11 11 12 11 10 9 8 7 7 7 8 10 11 11 11 11 9
76 70 69 69 70 72 70 65 62 61 60 59 57 54 52 51 50 49 48 47 47 47 47 47 47 46 45 43 40 36 33 32 32 30 28 27 25 24 24 23 21 20 19 18 17 15 14 13 14 14 13 12 11 10 9 8 9 9 10 11 12 12 12
84 80 75 72 71 72 71 69 65 61 59 59 57 54 53 52 51 50 48 47 48 47 46 46 48 49 49 46 43 38 35 34 34 33 31 30 29 28 28 27 26 24 23 21 19 18 16 16 16 16 16 15 14 13 12 12 11 11 11 11 11 12 14
88 86 84 80 77 75 72 71 68 62 59 59 58 56 55 53 52 52 51 49 48 47 45 44 47 50 51 48 45 41 38 36 35 36 35 33 31 32 32 31 30 29 27 24 21 19 19 20 19 19 19 19 18 17 16 15 15 14 14 14 13 12 13
90 89 88 87 85 81 77 76 73 66 59 58 59 60 58 56 55 55 54 51 48 45 45 46 48 50 50 48 47 45 41 39 38 39 39 37 34 33 34 34 33 32 30 28 25 23 23 24 24 22 22 22 22 20 18 17 17 16 16 16 16 15 15
92 91 91 90 89 86 83 82 81 76 68 63 63 64 61 58 58 59 57 55 50 47 47 48 49 50 49 48 50 49 45 42 42 42 42 40 37 35 36 36 35 34 33 31 30 28 28 28 28 26 24 24 24 22 20 20 20 19 18 18 18 18 18
93 93 92 91 91 89 87 85 85 84 80 72 69 68 65 62 61 61 60 59 56 52 51 51 51 51 50 51 53 51 47 45 46 45 44 43 40 38 39 39 37 36 35 34 34 34 34 33 32 31 29 27 25 24 23 24 25 24 23 22 21 20 20
93 93 93 92 92 91 90 88 87 87 87 81 75 72 71 69 65 63 62 61 59 58 57 56 55 54 53 52 54 51 46 44 47 48 47 48 46 42 41 41 41 39 38 38 37 37 37 36 35 34 33 30 28 26 27 28 29 28 27 26 26 24 23
91 92 92 92 92 92 91 91 90 89 89 87 82 77 76 75 73 68 65 63 61 60 61 60 58 56 55 53 51 49 45 44 47 49 46 45 45 43 41 41 43 43 42 42 41 39 37 35 35 36 35 34 32 30 30 31 31 29 30 30 29 28 28
90 90 91 91 92 91 91 92 92 91 91 90 88 84 80 80 79 75 71 68 64 61 62 62 60 57 56 54 51 48 47 46 47 49 45 40 39 40 41 42 44 45 45 45 43 40 36 34 36 37 36 36 35 32 32 33 32 32 33 33 31 30 31
89 89 89 90 90 91 91 92 93 94 93 93 92 90 87 85 84 81 78 75 71 67 65 64 63 60 59 58 54 52 52 49 47 49 48 41 37 37 38 39 44 47 47 45 44 40 36 36 39 40 38 38 38 36 35 36 36 36 37 35 33 33 34
88 88 88 88 88 89 91 92 93 94 95 96 95 94 92 90 89 87 84 81 79 76 72 69 67 65 64 63 61 59 57 55 52 54 52 47 42 40 38 38 42 45 45 44 43 40 39 39 41 41 40 40 41 41 41 41 40 39 39 37 36 37 37
90 89 89 89 88 89 90 91 93 94 95 97 98 98 97 95 94 93 91 88 86 85 81 77 73 71 69 69 67 64 62 61 60 60 61 59 55 51 49 49 48 45 41 40 41 41 41 42 42 41 42 42 43 45 46 44 42 41 40 39 39 40 41
91 91 91 91 91 90 91 91 92 94 95 96 98 99 99 99 97 97 97 96 94 92 90 86 82 78 76 75 73 70 68 67 67 66 66 67 67 66 63 61 59 54 46 40 40 42 44 44 44 44 45 45 47 49 48 47 47 46 44 43 43 43 43
91 92 93 93 93 93 92 92 93 94 95 96 97 99 100 101 101 100 99 99 98 98 97 94 91 87 84 81 80 79 77 76 75 74 72 69 70 73 72 68 65 64 59 51 46 45 47 48 47 48 48 49 50 50 50 50 50 51 50 49 49 49 47
90 92 94 94 94 94 95 96 96 96 96 96 97 98 100 101 102 102 101 100 100 100 100 99 98 96 93 89 87 85 84 83 82 82 81 78 75 76 77 73 69 68 67 63 57 53 52 52 51 52 53 53 53 52 50 50 51 52 53 54 54 54 51
91 92 93 94 95 95 96 98 99 99 99 98 98 98 99 100 101 102 103 103 102 101 100 100 100 99 99 98 95 92 90 88 87 86 85 84 83 82 81 78 74 71 70 70 68 66 64 61 59 59 59 58 58 55 52 52 53 53 54 56 57 56 55
96 94 94 94 95 96 97 99 100 101 101 101 101 100 99 100 100 101 102 103 103 103 103 102 101 101 101 102 102 100 98 96 95 93 91 90 88 87 85 82 79 77 75 73 73 74 73 69 65 65 64 62 61 60 59 59 59 58 59 61 61 60 59
100 98 96 95 95 96 97 99 101 103 104 103 103 102 101 100 100 101 101 102 103 104 104 104 104 103 103 103 103 104 104 102 101 100 98 96 94 91 89 85 82 81 80 77 76 76 76 74 69 67 66 65 63 63 64 64 64 64 65 68 67 66 64
100 101 101 99 98 98 98 100 102 104 104 104 103 102 102 102 101 101 102 102 102 103 104 105 105 105 105 105 104 104 104 103 103 101 100 98 96 93 90 88 86 85 83 81 80 79 79 78 76 73 71 70 68 67 68 68 68 67 68 70 69 68 68
93 97 100 102 103 102 102 102 103 104 104 104 103 103 103 103 103 103 102 102 103 102 103 103 105 106 107 107 106 105 104 103 102 102 100 99 97 95 93 91 89 89 87 86 85 83 82 82 82 81 80 80 78 75 73 73 72 70 68 68 67 67 68
89 91 94 99 103 105 105 105 105 104 104 104 104 104 104 104 104 104 103 103 103 103 103 103 103 104 105 107 108 108 108 106 105 103 102 101 100 98 97 95 93 92 91 90 88 87 87 86 86 86 86 86 84 80 77 75 74 74 72 71 70 69 69
93 92 91 94 98 101 104 105 105 105 105 105 105 105 105 105 105 104 104 104 104 103 103 104 104 104 104 105 106 107 108 109 109 108 106 104 103 101 100 99 97 96 95 94 92 91 90 89 89 89 89 88 87 84 81 78 76 76 76 76 76 76 75
98 98 97 96 96 98 100 102 103 104 106 107 107 107 106 106 105 105 105 106 105 105 105 104 105 104 104 104 105 105 106 107 108 109 109 108 107 106 105 104 102 101 100 98 97 96 94 93 92 92 92 91 89 87 84 82 81 79 78 77 77 79 80
99 100 101 101 101 102 103 103 102 101 102 105 107 108 108 107 106 106 106 106 107 107 107 107 106 106 106 106 106 105 106 106 106 107 108 108 109 109 108 107 106 105 104 102 101 100 98 97 96 95 94 94 92 90 88 87 86 85 83 80 77 77 79

ECMWFFLT1_250_spd_108.txt.gz
Wind_Speed
31 31 34 37 37 34 29 24 23 24 24 24 22 21 19 17 16 16 14 14 12 9 6 3 3 4 4 4 6 7 7 8 9 8 7 7 8 9 10 11 13 14 15 16 17 17 18 17 17 17 17 16 16 17 18 19 20 21 21 21 21 22 23
31 33 35 37 39 37 30 26 26 27 27 27 25 24 22 20 18 18 17 16 15 13 9 6 4 3 2 2 3 4 5 6 7 7 6 6 5 5 7 9 11 13 15 15 14 16 16 16 15 15 15 15 15 15 16 17 18 20 22 21 21 21 21
35 37 38 38 40 38 33 29 29 30 29 29 28 26 25 23 21 20 20 19 18 16 13 9 7 4 2 1 1 2 3 4 5 6 6 5 4 3 5 7 9 10 12 14 14 15 16 15 14 14 13 14 14 14 14 15 16 17 20 20 20 20 20
40 42 41 40 41 40 37 33 30 32 33 32 31 30 27 26 25 23 22 21 20 20 18 13 10 8 5 2 0 1 1 2 2 3 4 4 4 4 3 5 7 8 10 12 13 14 14 14 14 13 13 12 12 13 13 13 13 14 15 16 18 19 19
42 43 41 41 42 41 40 39 36 36 38 36 34 33 30 29 28 26 24 23 23 22 21 18 14 12 10 7 4 2 2 1 0 1 1 1 2 3 3 4 6 7 8 9 11 12 14 14 14 14 14 13 12 12 11 12 12 13 13 14 15 17 18
43 44 41 41 43 43 43 43 43 41 40 38 37 36 34 32 30 29 27 25 25 24 23 22 19 15 13 12 10 7 5 4 3 3 3 2 1 1 2 3 5 6 7 8 9 11 12 14 15 15 14 14 13 12 11 11 11 11 11 12 13 14 16
43 43 41 42 45 46 46 46 45 42 40 40 40 39 37 35 33 31 29 27 27 28 26 25 24 20 16 14 14 12 9 7 6 5 5 5 3 2 0 2 3 5 7 8 8 9 10 12 14 15 15 15 15 14 13 12 11 10 9 10 11 12 13
44 44 42 43 46 48 49 49 46 42 42 42 40 40 40 39 36 32 29 27 28 30 30 28 27 24 20 17 16 15 13 10 9 7 6 7 6 5 3 2 2 3 5 7 8 8 9 10 12 13 14 15 16 15 14 14 13 12 10 9 10 10 10
44 46 45 44 47 49 51 53 50 44 44 43 40 42 43 41 39 34 29 27 28 30 31 30 30 28 24 20 18 18 15 13 12 10 8 8 7 7 6 5 4 4 5 6 7 8 8 9 10 11 12 13 14 14 14 14 14 14 13 11 10 10 10
47 45 46 45 47 49 50 54 54 48 46 45 41 42 44 42 40 36 31 31 31 32 32 32 32 31 27 23 21 20 18 16 14 13 11 10 9 9 9 8 6 6 7 7 7 8 8 8 8 9 10 11 11 12 12 13 13 13 13 13 12 12 11
54 47 44 46 48 50 50 52 55 51 47 47 46 46 47 44 42 40 37 38 37 34 34 35 34 33 30 27 25 23 21 19 17 15 14 13 12 11 11 11 9 8 9 9 8 8 8 8 8 9 9 10 10 10 11 11 11 12 12 12 13 12 12
58 53 47 47 48 50 51 53 55 54 51 50 49 51 53 50 46 44 43 44 44 40 36 37 37 35 33 31 29 27 24 22 20 18 16 14 14 13 13 14 13 12 11 10 9 10 10 9 10 10 10 10 10 10 10 10 10 11 11 11 11 12 12
55 55 48 44 43 45 50 53 55 56 55 54 52 51 54 54 51 50 48 48 48 44 40 39 39 38 37 35 33 31 29 27 24 22 20 18 17 16 15 15 16 16 15 12 11 12 11 11 10 11 11 11 11 11 11 10 10 11 11 10 10 11 11
59 58 55 50 46 45 48 51 56 58 55 56 57 54 54 56 55 53 54 52 49 47 45 44 43 42 40 39 37 35 33 31 29 28 26 24 22 21 19 17 18 19 18 16 15 14 14 13 13 12 12 12 12 12 12 11 11 11 11 11 11 11 11
64 63 62 61 58 54 51 50 55 61 58 55 57 58 56 56 56 56 56 55 53 50 49 48 47 45 43 42 41 39 37 35 33 33 32 30 29 27 25 23 21 21 22 21 19 18 17 17 17 16 14 13 13 13 13 13 13 12 12 12 12 12 12
56 59 59 59 62 62 56 49 48 56 62 59 58 59 59 57 57 58 58 57 56 54 52 51 50 48 46 45 44 42 40 39 38 36 36 36 36 34 33 30 26 24 24 24 23 21 21 21 21 20 17 15 15 14 14 15 15 15 14 13 13 12 12
51 55 52 46 50 54 52 49 45 47 57 63 61 60 59 58 57 58 59 59 58 57 56 55 53 51 49 47 47 45 43 42 42 40 39 39 39 38 36 34 31 28 27 27 26 26 25 24 24 23 21 18 16 16 17 17 17 18 17 16 15 14 13
55 59 57 50 50 53 52 51 49 47 52 60 62 61 59 57 56 57 58 60 60 59 59 57 55 53 51 50 50 48 46 45 45 44 43 42 41 39 37 35 33 31 29 27 27 28 29 29 28 26 25 22 19 19 20 20 19 20 20 18 17 15 14
59 62 67 67 65 66 64 59 54 51 51 55 58 60 60 59 58 57 58 59 60 60 59 58 57 55 54 53 52 51 49 48 47 46 45 44 43 40 38 36 33 32 30 28 27 29 31 31 30 29 29 27 23 23 24 24 23 23 23 20 19 18 17
72 67 70 78 79 78 76 72 65 59 53 51 53 56 60 62 62 61 60 59 60 61 60 58 57 56 55 54 53 53 51 50 48 46 44 44 44 42 40 38 35 34 32 30 29 30 31 31 31 32 32 30 28 29 29 27 26 26 25 23 22 21 21
86 78 74 79 85 87 85 83 79 72 62 57 57 58 60 63 64 63 64 62 59 61 61 60 57 56 56 56 55 54 53 51 50 47 45 45 46 45 43 41 39 38 37 34 33 31 29 30 33 34 34 33 33 33 32 29 28 28 28 27 25 24 24
88 86 82 82 86 90 91 91 89 85 79 72 68 66 66 65 64 65 67 66 63 61 61 61 60 58 58 58 57 56 55 54 52 50 47 46 46 46 46 45 43 43 42 40 39 37 33 32 35 36 36 36 36 35 33 32 31 29 29 30 29 28 28
88 87 88 87 89 91 93 95 95 94 91 86 81 78 75 71 69 68 69 70 70 66 64 63 63 62 60 59 58 57 57 56 55 53 51 49 48 47 46 47 48 49 48 47 45 43 40 40 41 40 39 40 40 38 36 35 34 32 31 32 32 31 31
92 89 89 88 90 93 94 96 98 98 96 92 89 86 82 77 75 74 72 74 74 71 68 66 64 64 64 61 57 56 57 57 57 56 54 52 52 49 48 49 50 52 53 53 51 49 49 48 46 44 44 44 42 41 38 36 35 35 33 33 33 33 33
92 91 92 91 90 91 93 95 98 100 100 97 95 93 90 84 80 77 74 74 74 73 73 73 69 67 67 65 60 58 58 58 58 58 56 56 55 53 51 52 51 50 51 51 51 51 53 53 49 47 47 46 45 43 41 38 37 37 36 36 36 35 35
91 91 92 93 91 91 92 93 96 99 101 101 100 99 97 94 90 85 80 76 73 71 74 77 75 71 70 68 66 63 61 61 61 61 59 58 57 55 53 52 53 52 49 47 45 44 47 50 49 48 48 48 46 43 41 41 40 39 38 39 39 39 39
94 92 92 92 91 91 92 93 94 96 98 100 101 101 100 99 98 96 92 88 84 79 76 77 76 74 73 72 70 68 65 64 64 64 63 61 61 60 56 53 54 55 53 51 47 43 43 45 47 47 48 47 44 41 40 41 42 43 42 41 40 41 42
98 97 96 95 94 92 92 93 94 95 96 98 99 101 102 101 100 100 99 98 95 91 87 83 80 77 77 76 74 71 70 68 67 67 67 66 64 63 61 58 57 57 57 57 56 52 49 46 44 45 47 46 43 39 39 41 43 45 46 45 44 44 44
97 98 98 98 98 97 96 95 95 96 96 97 98 99 101 103 103 103 102 100 100 99 96 93 89 85 82 81 79 77 75 73 71 69 69 69 67 66 65 63 62 61 61 62 62 60 56 50 44 43 45 45 42 39 40 44 46 48 48 48 48 49 48
98 99 99 99 100 101 102 101 100 99 99 100 99 98 99 101 103 105 104 103 103 102 101 100 97 94 90 88 87 85 82 80 77 73 72 72 71 69 68 67 66 66 65 66 66 65 61 55 49 45 45 44 42 41 42 46 51 53 53 52 53 54 52
98 99 100 100 101 101 102 103 104 104 105 104 103 101 101 102 103 105 106 106 106 105 105 103 102 100 98 95 93 92 90 88 84 81 77 75 74 73 72 71 70 70 70 71 71 69 66 62 58 56 54 51 50 49 48 50 54 57 59 60 60 60 57
94 95 97 99 100 101 102 102 104 106 108 108 107 105 104 104 104 105 106 107 107 107 107 106 105 104 103 102 100 98 96 95 92 88 85 83 80 77 76 76 76 75 75 75 76 75 74 70 69 68 67 65 64 62 60 60 61 61 63 66 66 64 62
93 94 96 97 98 99 101 102 103 105 106 108 108 107 106 106 106 106 107 107 107 108 108 108 107 106 105 105 104 103 101 99 98 96 93 91 89 85 82 81 81 81 80 80 79 80 80 78 76 76 75 75 74 72 71 70 70 69 70 72 71 68 66
95 96 97 98 97 97 98 100 102 103 104 105 106 106 106 107 107 107 107 107 107 108 108 108 108 108 107 106 106 106 105 104 103 102 100 98 97 95 92 88 87 87 87 87 85 84 84 83 81 80 78 77 76 77 76 76 76 77 77 78 78 76 72
93 95 96 97 97 98 99 100 101 102 102 102 103 104 105 106 107 108 108 108 107 107 108 108 108 108 108 108 108 108 108 108 107 106 106 105 104 103 101 99 95 93 93 93 92 91 89 88 86 84 82 80 78 77 76 76 79 82 83 82 82 82 82
94 93 94 94 95 96 98 100 101 102 103 102 102 102 103 104 106 107 108 108 108 108 108 108 108 107 108 109 109 109 110 110 110 110 109 110 109 108 107 106 104 102 100 99 98 97 96 94 92 90 88 86 84 83 81 80 82 85 87 87 86 86 86
101 97 95 94 94 95 97 98 99 101 103 105 104 104 104 104 104 105 107 108 108 109 108 108 108 108 108 109 110 110 111 111 112 112 112 112 113 113 112 111 111 109 108 106 105 104 103 102 101 99 97 95 94 92 91 90 89 89 90 91 91 90 90
106 106 103 100 99 98 98 98 98 98 100 103 105 107 107 107 107 106 106 107 108 108 109 108 108 109 109 110 110 110 111 111 112 113 113 114 114 114 115 115 115 115 115 113 112 111 110 109 108 108 107 106 104 103 101 99 98 98 97 96 96 96 95

ECMWFFLT1_250_spd_111.txt.gz
Wind_Speed
33 30 30 31 34 34 30 26 25 24 23 22 20 18 15 14 13 13 13 13 12 11 7 5 5 6 7 6 6 6 7 8 9 11 11 11 12 13 15 17 18 18 18 19 19 19 18 17 16 16 16 17 17 19 20 21 21 21 21 22 23 25 27
37 33 31 30 32 34 32 29 28 27 25 23 22 20 17 16 15 15 15 15 15 14 11 7 5 6 6 6 5 5 5 5 7 8 9 10 10 11 13 15 16 17 17 18 19 19 18 18 17 15 15 15 15 16 17 19 20 20 20 21 22 24 26
38 36 33 32 32 32 31 31 32 29 27 25 24 21 19 18 18 18 18 17 17 16 14 11 8 6 6 6 5 5 5 4 4 5 7 8 8 9 11 13 14 15 16 17 18 19 18 18 17 17 15 15 15 15 15 16 17 19 19 19 21 22 24
36 35 35 34 33 31 30 32 34 33 29 26 24 22 21 21 21 21 20 19 18 18 17 15 12 9 8 8 6 5 5 5 4 3 3 5 6 7 9 10 11 13 15 16 16 17 18 18 18 18 17 16 15 15 15 15 15 17 18 19 19 20 21
35 35 35 34 33 32 32 33 35 36 32 26 24 25 25 24 24 23 23 22 21 20 20 19 17 13 10 10 9 7 6 6 5 5 4 3 4 5 6 8 9 11 13 14 14 15 16 17 17 17 18 17 16 16 16 15 15 15 17 18 18 19 20
38 39 37 34 33 33 34 35 36 37 33 28 26 27 28 27 27 26 25 24 24 23 22 22 21 19 15 12 12 11 10 8 7 6 6 5 3 3 4 6 7 9 10 11 12 13 14 15 15 15 16 17 17 17 17 16 16 15 15 16 17 18 18
40 41 39 37 36 36 37 38 39 39 36 31 29 30 30 30 31 30 28 27 27 26 25 24 24 24 21 16 14 14 13 11 10 8 8 7 6 5 4 5 6 7 8 9 10 11 12 13 13 13 13 15 15 16 17 17 17 16 16 16 16 16 16
39 40 39 38 38 36 37 40 40 41 39 35 33 33 32 33 34 34 31 29 29 29 28 27 26 27 27 23 19 17 16 14 12 11 9 9 9 7 6 6 6 7 7 8 8 9 10 11 12 12 11 12 13 14 14 15 16 16 16 16 16 16 16
40 42 39 39 37 33 34 39 40 40 40 38 36 35 34 36 38 37 34 32 31 31 30 29 28 28 30 29 25 21 18 16 15 14 12 11 10 10 9 8 8 7 7 8 8 8 8 9 10 11 11 11 11 12 12 13 14 14 15 16 16 16 16
42 44 41 39 39 34 33 38 39 39 40 39 38 37 37 39 40 37 35 34 34 33 32 31 30 30 31 32 29 24 21 19 17 16 15 14 13 12 12 11 10 9 8 8 8 8 8 8 8 9 10 10 10 11 11 10 11 12 13 14 15 15 16
44 44 42 42 41 36 32 35 36 37 39 39 39 40 40 42 42 40 38 36 35 35 34 33 33 33 33 32 29 26 22 20 20 18 17 17 16 15 15 13 13 12 11 10 10 9 9 9 8 8 8 9 10 10 10 9 9 10 11 12 12 14 14
45 45 43 42 44 40 33 32 33 35 38 39 40 42 43 44 45 44 42 39 37 36 36 36 36 35 34 32 29 26 23 21 21 21 21 20 19 18 17 17 16 15 15 14 13 12 10 10 10 9 8 8 9 9 9 9 9 9 9 10 10 12 12
46 44 40 37 40 41 35 30 30 32 36 39 42 44 46 47 46 46 45 42 40 38 38 38 38 36 35 33 30 27 26 24 23 24 24 23 22 21 20 19 18 17 17 18 17 15 13 12 12 11 10 9 9 9 9 9 9 9 9 9 9 10 11
47 44 40 35 36 39 37 34 33 35 36 38 41 44 48 49 48 48 48 46 42 41 41 41 41 39 37 37 36 33 31 28 27 27 27 26 25 24 23 22 21 19 19 19 19 19 18 16 15 14 13 12 12 11 10 9 10 10 10 11 11 10 10
53 48 45 42 40 40 40 41 42 41 39 40 40 42 45 47 47 49 50 49 46 44 45 46 46 45 43 41 42 42 39 35 32 30 30 30 30 29 27 26 25 24 22 21 20 21 21 21 20 18 17 16 15 14 12 10 10 10 10 11 11 11 11
63 59 54 48 44 42 43 44 47 46 43 44 45 43 41 42 45 47 49 50 50 49 49 50 50 49 48 47 47 48 45 42 38 35 33 34 34 33 32 31 30 29 28 26 24 23 23 24 24 23 22 21 19 17 15 13 11 11 11 12 12 12 11
68 68 63 54 46 43 44 46 49 50 47 47 48 46 40 37 40 45 48 49 51 51 51 52 54 53 52 52 51 50 48 45 43 41 38 36 37 37 36 35 34 34 34 33 31 29 27 27 26 25 26 26 25 22 19 16 14 13 13 13 14 14 14
68 66 64 59 53 48 45 43 44 50 51 50 51 51 44 38 38 43 48 50 53 55 54 53 56 58 57 57 56 54 51 49 47 46 44 41 40 40 40 39 38 37 36 36 34 33 32 31 29 28 28 29 30 28 23 20 19 16 15 15 14 15 16
69 64 59 57 57 55 50 44 40 45 51 54 56 57 53 48 46 45 47 50 52 56 57 58 60 62 61 61 62 59 57 54 52 50 48 45 43 43 43 42 41 40 39 37 35 34 34 33 31 31 30 30 31 31 28 24 23 22 19 18 17 16 17
69 65 59 53 55 57 56 53 50 52 56 58 59 60 56 52 52 50 49 50 50 51 55 58 61 64 64 64 64 63 60 58 56 55 52 49 47 47 46 45 43 43 42 40 38 37 36 35 33 31 30 30 30 31 29 27 27 26 25 22 21 19 19
69 67 63 59 59 59 58 59 60 61 64 65 63 61 58 54 53 53 53 53 54 54 52 50 54 62 66 66 66 66 63 60 60 58 56 53 51 50 49 48 47 45 44 43 41 40 38 36 34 31 30 31 31 31 31 30 30 29 29 27 25 23 23
64 65 66 66 63 57 54 57 62 65 68 71 71 68 64 61 59 59 57 56 57 58 50 43 49 61 67 68 67 66 65 63 62 61 59 57 55 53 52 51 49 48 47 45 43 43 41 39 36 34 33 33 34 33 32 32 32 31 31 30 28 28 27
62 65 69 68 63 57 53 50 53 59 62 64 68 70 66 62 62 65 64 61 61 60 52 46 50 59 65 68 67 66 65 64 64 63 62 60 58 56 55 54 52 51 49 47 46 46 45 42 40 38 36 36 37 37 36 36 35 34 34 33 32 32 32
68 67 69 67 62 61 58 50 45 47 50 52 57 62 62 61 61 64 67 66 65 64 59 54 56 60 63 65 66 65 65 65 66 65 63 63 61 59 58 56 54 53 53 50 48 48 47 46 45 43 41 39 40 40 40 41 41 40 40 39 37 36 36
80 76 74 71 65 62 61 59 54 51 50 51 55 60 62 62 62 64 67 69 70 69 65 59 58 61 65 65 64 65 65 65 66 66 64 63 62 61 60 58 55 55 56 54 51 49 49 49 48 47 46 44 44 44 44 44 45 46 47 47 45 43 42
89 87 85 82 76 69 66 67 69 66 59 57 61 67 68 65 64 66 69 72 73 73 69 62 58 61 68 68 64 65 67 66 65 65 64 64 63 62 61 60 58 57 57 57 54 51 50 50 50 49 49 49 48 48 49 49 51 52 53 53 52 50 47
92 94 93 92 90 85 80 78 78 77 72 67 68 73 76 75 72 69 70 73 74 72 72 69 63 62 69 72 68 66 67 67 67 66 65 64 65 64 63 61 60 59 59 58 57 55 52 52 51 50 50 50 49 49 48 49 50 52 52 52 54 53 50
92 95 97 99 99 97 94 91 90 89 86 82 79 78 79 83 83 80 77 77 77 73 72 72 70 67 68 70 71 70 68 67 67 67 67 66 65 66 66 65 63 63 61 60 60 58 56 55 54 51 49 50 50 49 49 49 49 49 48 48 51 54 52
87 93 98 101 103 102 101 100 99 98 97 96 94 89 86 85 88 89 87 85 84 81 77 75 75 73 70 68 70 73 72 70 68 68 69 68 67 66 66 66 66 65 64 63 62 62 62 61 59 56 54 54 54 52 52 52 52 50 48 47 50 53 54
81 88 95 100 104 105 105 104 104 104 105 104 103 100 96 93 91 92 92 91 90 90 87 84 81 79 77 75 74 74 74 73 72 71 71 72 71 69 68 67 66 65 65 65 64 64 65 66 65 63 61 60 58 57 56 55 55 53 52 51 52 54 55
82 84 90 97 102 105 106 107 108 108 109 109 108 105 103 101 99 98 97 96 95 94 95 94 92 90 90 91 91 87 84 82 79 77 76 76 76 75 73 70 69 68 67 66 66 67 68 68 68 68 66 63 61 60 60 59 58 58 57 56 56 58 59
90 88 89 94 100 104 106 107 109 110 111 111 111 110 109 107 106 105 103 102 100 99 99 99 99 99 100 101 102 99 97 95 91 85 82 81 81 81 79 76 74 73 71 69 68 68 69 70 71 70 70 68 65 64 64 63 64 64 65 64 62 62 62
95 94 93 94 97 102 106 107 108 109 109 109 110 111 112 112 111 110 109 107 106 104 103 103 103 104 104 104 105 104 102 101 98 93 89 87 86 86 85 81 79 79 78 75 72 70 70 71 73 74 74 73 71 70 69 68 68 69 71 71 70 68 66
97 95 96 96 97 100 103 106 108 109 108 107 108 110 112 113 113 113 112 112 111 109 108 106 106 106 106 106 107 107 106 104 101 98 96 94 91 90 90 87 84 82 82 82 80 77 74 73 73 75 77 78 77 75 73 72 72 73 73 74 75 74 72
102 100 98 98 99 100 101 103 105 108 109 109 108 109 110 111 112 112 111 111 112 112 110 109 108 107 107 107 107 108 109 108 105 101 100 100 97 95 94 94 91 89 88 88 87 86 84 82 80 78 78 80 80 79 77 76 76 76 77 77 78 78 77
104 105 104 103 102 103 102 101 101 105 108 111 112 112 111 111 111 112 111 111 111 112 111 110 110 110 108 108 107 108 109 110 108 105 103 104 103 101 99 99 98 97 96 94 93 93 94 92 91 89 86 84 83 82 81 80 79 79 79 80 80 81 81
105 106 107 107 107 107 107 105 103 102 104 107 111 113 115 114 114 113 112 112 112 113 112 111 111 112 111 110 109 109 110 110 109 107 106 105 106 105 104 104 104 104 103 101 100 100 100 100 99 98 96 94 91 88 86 85 84 83 83 84 84 85 84
107 107 107 107 109 109 109 109 108 107 105 105 107 110 113 116 116 116 115 114 114 114 115 114 113 113 113 113 113 113 113 112 112 111 109 108 107 106 106 107 108 108 108 107 106 106 106 105 105 104 104 103 101 98 95 92 90 89 89 89 89 89 89

ECMWFFLT1_250_spd_114.txt.gz
Wind_Speed
33 31 31 28 27 27 28 28 27 24 22 21 19 18 17 14 13 10 8 7 7 8 8 8 8 9 10 10 11 12 11 11 11 12 14 15 16 17 18 19 20 21 22 23 24 24 24 24 23 23 23 23 23 24 26 28 29 31 32 32 31 29 29
36 33 32 29 27 28 28 27 28 26 23 22 21 20 19 17 15 12 10 8 8 9 10 9 8 8 8 9 9 10 10 10 9 9 10 12 14 15 16 17 18 18 19 20 22 23 24 24 24 24 24 23 23 23 24 25 27 29 30 31 30 28 26
38 35 32 29 28 28 27 26 28 28 26 24 23 22 21 20 18 15 12 10 9 10 11 11 10 10 9 9 8 9 9 10 9 8 8 9 11 12 13 14 16 16 17 18 19 20 21 22 23 24 24 24 23 23 22 23 24 26 27 29 29 28 26
39 36 34 30 29 28 28 28 29 31 30 26 24 24 23 22 20 18 15 13 11 11 12 12 12 12 12 10 9 9 8 9 9 9 8 7 8 9 10 11 13 14 15 15 16 17 18 19 21 22 22 23 23 23 22 22 23 23 24 26 27 27 26
39 37 36 32 30 29 29 30 31 33 33 29 25 25 25 23 22 21 18 15 13 13 14 14 14 14 14 14 12 11 9 8 9 9 9 8 7 7 8 9 10 11 12 13 14 14 15 16 17 19 20 21 22 22 22 22 22 22 22 22 23 25 24
40 38 38 36 33 30 29 30 31 32 33 31 28 27 27 26 24 22 20 17 16 16 16 16 16 16 16 16 15 14 12 10 9 9 9 9 9 7 6 7 8 8 9 10 11 12 13 14 15 16 17 18 19 20 21 22 22 21 21 20 20 21 21
42 39 38 37 35 33 30 30 30 30 31 31 30 30 30 30 27 24 20 19 19 19 19 19 19 18 18 18 18 17 16 14 12 11 10 10 10 9 7 7 7 7 7 7 9 10 11 12 13 13 14 15 16 17 19 20 20 20 20 19 18 18 18
44 39 37 36 36 35 34 32 30 30 31 32 32 32 31 32 31 28 23 21 22 23 23 23 22 21 20 19 19 20 19 18 16 15 13 12 12 11 10 9 8 8 7 6 7 7 9 10 11 12 13 13 14 14 16 17 18 18 19 18 18 16 15
45 40 36 35 35 33 33 32 30 30 31 31 32 31 32 34 35 32 28 25 25 26 27 26 25 25 23 22 22 22 22 22 21 20 18 15 14 13 12 11 10 10 8 8 7 7 6 7 9 10 11 11 12 12 13 14 14 15 16 17 17 16 15
46 40 35 33 33 32 31 31 30 30 30 30 30 31 33 36 38 35 32 29 27 28 30 29 28 27 26 25 25 24 24 25 25 23 21 19 17 16 15 14 13 12 11 10 9 9 8 7 7 8 9 10 11 11 11 11 12 12 13 14 14 14 14
47 42 36 33 32 33 32 32 32 32 32 31 32 33 35 38 40 38 35 32 29 30 31 31 30 29 28 28 28 27 26 26 27 27 24 23 21 19 17 16 15 15 15 14 12 11 10 9 8 8 8 9 10 11 11 10 10 10 10 10 11 11 11
48 44 40 37 36 35 35 36 38 38 37 36 36 38 40 41 41 40 38 34 32 32 32 32 32 31 29 29 29 30 29 28 29 28 26 25 23 21 19 17 16 16 16 16 15 13 12 11 11 10 10 10 10 11 11 11 9 9 8 7 7 8 7
51 47 44 43 41 40 40 41 43 43 40 37 37 39 41 41 40 40 39 38 36 35 34 34 35 35 33 32 32 33 33 32 31 29 28 27 25 23 21 19 18 17 17 17 16 15 14 13 12 12 11 12 12 11 11 12 11 9 8 7 6 6 5
55 51 47 45 43 42 43 43 43 42 40 37 35 36 36 36 37 38 38 39 40 39 38 38 38 39 39 37 36 35 36 36 34 31 31 30 28 26 24 21 19 19 19 19 18 17 17 15 14 13 13 14 14 13 12 12 12 11 10 9 8 7 6
58 56 53 50 46 44 45 45 41 40 41 37 33 32 32 32 33 36 39 40 41 41 41 41 42 45 46 43 41 39 38 39 38 34 33 32 30 27 25 22 22 21 21 21 21 20 20 19 18 16 16 16 17 16 15 14 13 13 13 12 9 9 9
59 59 58 56 52 48 47 46 43 40 40 38 33 31 33 33 34 35 37 40 41 40 38 38 43 49 50 47 45 42 40 42 42 38 35 34 34 32 29 27 25 24 24 24 24 24 24 24 23 21 20 20 20 19 19 18 17 17 16 15 13 11 11
58 61 62 60 55 51 49 47 44 42 40 39 38 38 37 36 36 37 38 39 41 41 40 41 45 49 50 50 50 47 44 44 44 41 38 38 38 39 38 35 32 29 26 26 27 27 28 29 28 26 25 24 23 22 22 22 22 21 19 19 18 17 15
59 60 63 63 58 53 51 49 45 43 41 39 41 45 44 41 40 42 42 41 41 43 45 48 50 51 50 49 49 48 46 46 46 44 42 42 42 43 43 41 38 35 30 28 29 30 30 31 30 29 28 27 26 25 25 25 25 24 23 22 21 21 19
61 60 62 63 61 55 52 50 49 48 46 42 40 43 44 43 44 44 44 43 43 43 46 48 51 53 52 50 48 45 43 44 45 44 44 45 47 48 47 45 43 40 36 33 33 33 33 33 32 32 31 30 29 27 27 27 27 26 25 24 23 24 24
64 63 61 59 60 59 56 52 50 52 53 48 43 41 41 42 46 46 45 45 45 45 46 47 48 48 50 52 53 49 44 42 42 43 45 47 49 50 49 48 47 44 41 38 37 36 36 36 36 35 34 33 31 31 29 27 26 26 26 25 24 26 27
68 67 66 61 57 59 60 58 54 52 54 52 45 40 38 39 44 47 46 44 45 49 50 48 45 44 44 47 53 55 52 48 46 46 49 51 52 52 51 50 49 48 46 43 41 40 39 39 39 38 38 36 35 34 32 29 27 27 27 26 27 28 29
72 70 72 69 61 56 56 60 59 54 52 52 49 44 42 41 42 44 44 42 43 48 51 50 47 48 49 48 49 52 52 49 49 49 48 50 51 52 53 54 54 53 52 48 46 45 43 42 42 41 42 41 40 38 36 32 30 29 29 29 30 31 31
78 75 74 74 71 64 56 55 60 61 55 52 52 49 47 47 45 43 44 47 50 50 50 50 47 47 53 57 55 53 51 48 47 47 48 51 53 52 53 56 57 58 57 53 50 50 47 45 44 45 45 45 44 42 39 36 35 34 34 33 33 33 33
83 80 77 75 74 73 68 61 61 65 63 58 55 53 51 51 50 48 48 51 54 52 47 46 45 46 54 61 60 58 58 55 52 50 51 55 58 58 60 64 65 63 61 58 54 52 50 47 45 47 49 48 46 44 42 39 38 38 38 38 37 37 37
85 84 81 77 73 70 70 68 67 68 68 63 57 54 54 55 54 54 52 50 52 53 49 47 49 52 57 60 61 61 62 60 57 55 53 52 55 59 61 65 67 65 61 59 56 53 50 47 45 48 50 49 45 44 43 41 41 41 41 41 41 40 41
84 86 84 83 79 71 67 68 68 69 70 67 62 57 56 56 56 58 59 57 57 59 57 56 59 62 62 63 62 63 64 65 63 61 58 54 54 57 59 60 64 65 62 59 56 51 47 45 46 49 50 47 43 41 41 41 41 42 43 43 43 44 45
82 85 86 87 87 83 77 74 71 69 69 70 69 67 65 64 63 62 63 65 66 65 65 66 68 69 69 70 69 66 68 71 72 70 67 60 56 60 62 62 64 67 65 61 56 51 47 46 48 50 51 50 48 47 47 45 42 40 40 41 43 46 48
83 83 84 87 89 89 88 85 80 77 75 73 74 77 78 77 75 70 69 72 74 73 74 75 75 74 73 74 74 72 71 74 76 75 73 66 58 60 65 65 64 67 68 66 62 58 56 54 54 54 54 53 52 52 52 51 48 45 42 41 43 47 50
84 84 84 85 87 89 88 87 85 85 85 82 81 84 86 84 82 80 77 75 77 79 82 83 83 82 79 77 78 77 75 76 76 76 76 71 62 60 64 65 64 65 68 68 67 64 62 61 60 59 59 57 56 54 54 53 53 54 53 52 52 53 54
81 84 85 84 85 88 89 88 87 88 89 88 88 90 90 87 86 86 84 80 76 77 81 85 87 88 86 84 83 82 80 79 78 76 76 75 69 64 64 67 67 66 65 65 65 64 64 64 63 62 61 60 60 60 60 59 59 60 61 61 61 59 58
82 85 86 83 83 86 89 90 91 91 91 90 90 92 93 92 90 89 88 84 80 76 77 80 84 86 87 87 87 87 85 83 81 80 78 78 76 70 67 68 70 70 68 67 66 64 63 62 63 63 63 63 63 63 64 64 64 63 64 64 64 63 61
85 87 88 86 83 82 86 91 95 96 95 93 93 92 94 97 97 95 91 88 84 80 78 79 80 83 85 86 88 88 87 84 84 83 82 81 79 75 72 71 72 72 71 71 70 69 66 63 62 62 62 64 65 65 66 66 66 66 66 66 67 67 65
87 90 92 92 88 84 85 90 96 99 99 97 95 94 94 96 100 102 100 95 89 84 81 80 80 81 83 85 87 88 87 86 85 84 84 83 82 79 75 74 74 74 74 74 74 73 72 70 67 65 64 65 66 67 68 68 68 69 69 68 69 70 69
88 91 93 95 94 91 89 90 95 101 103 102 100 98 97 97 99 103 105 101 96 91 87 84 82 82 82 82 84 87 88 88 87 85 84 84 84 83 81 79 77 77 78 77 77 76 75 74 73 72 70 69 69 70 71 71 71 71 72 71 70 71 71
91 92 94 96 97 96 95 95 96 100 104 106 105 103 101 100 100 103 105 103 98 95 93 90 88 88 87 85 85 85 87 88 89 88 86 84 84 84 84 83 83 82 82 82 81 81 79 78 76 75 74 73 73 73 74 74 74 73 73 72 72 72 72
94 95 96 97 98 99 99 99 100 101 104 106 107 107 106 106 104 104 106 104 100 98 97 95 93 93 94 93 92 90 89 89 90 91 90 88 87 86 86 86 85 86 87 87 87 86 85 84 83 81 80 79 78 77 76 77 78 77 76 74 73 73 73
95 96 97 98 100 101 101 101 102 104 105 108 109 110 110 111 110 109 109 109 107 104 103 101 98 97 97 97 98 97 96 95 94 94 94 93 92 93 93 92 90 89 90 91 92 92 91 91 90 89 88 87 86 84 83 82 82 82 82 80 78 76 75
101 99 99 99 101 103 104 104 104 105 107 109 111 112 113 114 115 114 113 114 114 113 112 110 108 106 104 103 102 102 102 102 101 101 100 100 99 100 100 100 99 97 96 97 97 97 97 98 98 98 97 96 95 94 93 92 90 89 89 88 87 85 82

ECMWFFLT1_250_spd_117.txt.gz
Wind_Speed
36 34 30 29 29 28 28 27 26 25 23 21 19 17 15 13 11 9 8 6 4 4 5 7 8 10 11 12 12 13 13 13 12 13 15 16 17 18 19 21 21 22 23 24 25 26 27 27 27 26 26 27 27 28 28 28 26 25 25 25 25 26 27
37 35 32 29 28 28 28 28 28 27 25 23 20 19 17 15 14 12 10 8 6 4 4 6 7 9 9 10 10 11 12 12 12 11 11 13 14 15 17 18 19 20 20 21 22 24 25 26 27 26 26 26 25 25 26 27 26 25 24 23 23 24 25
38 36 33 30 27 27 29 30 30 29 27 25 23 21 19 18 16 14 12 11 9 6 5 5 7 8 9 9 9 10 10 11 11 11 11 10 11 12 14 15 16 18 19 19 20 21 22 23 24 25 25 25 25 24 24 24 25 24 23 23 23 23 23
41 38 35 31 28 28 30 31 32 31 29 27 25 23 22 20 18 16 15 13 11 9 7 6 6 8 9 9 9 9 9 9 10 11 11 10 9 9 10 12 14 15 16 17 18 18 20 21 21 23 24 24 24 24 23 22 22 22 21 21 21 21 21
44 41 36 32 30 29 30 31 33 32 31 29 27 24 23 22 20 18 17 16 14 13 10 8 8 8 9 10 10 9 9 8 8 9 10 11 11 9 8 9 10 12 13 14 16 16 17 18 19 19 20 21 22 23 22 22 21 20 19 18 18 18 18
46 44 39 35 33 31 31 32 33 32 32 30 27 25 25 25 22 20 19 18 17 16 14 12 11 10 11 11 11 11 11 9 9 9 9 10 11 10 9 8 8 9 10 11 13 14 15 16 17 17 18 18 19 20 21 21 20 19 18 17 16 15 14
47 45 43 39 36 33 32 32 32 31 32 31 28 27 28 28 26 23 21 20 20 18 17 15 14 13 14 14 13 13 13 13 11 11 10 10 11 11 10 9 8 8 8 9 10 11 13 14 15 15 16 16 16 17 17 18 18 18 18 17 15 14 13
47 46 45 43 39 34 32 33 31 30 30 30 30 30 30 29 29 25 22 22 22 21 19 18 17 16 17 17 17 16 15 15 14 13 13 13 12 13 12 12 10 9 8 7 8 8 10 11 12 14 14 15 15 15 15 15 15 16 16 16 15 15 14
48 47 44 42 40 36 34 33 32 30 30 30 30 31 30 30 30 28 24 24 25 24 23 22 20 19 19 20 20 19 19 18 17 15 15 15 14 13 14 13 12 11 10 8 7 6 6 7 9 11 12 13 14 13 13 12 12 12 13 13 14 13 13
51 49 46 43 41 39 37 35 34 33 33 31 29 30 29 29 29 29 28 26 26 27 28 28 26 23 22 22 22 22 22 21 19 17 16 17 17 16 15 15 15 14 12 11 9 7 6 4 5 7 8 10 11 12 12 11 10 10 10 10 11 11 12
53 50 47 44 42 41 39 36 36 37 37 32 29 28 28 28 29 29 29 28 26 28 30 32 31 28 26 24 24 25 25 24 22 20 18 19 19 19 18 16 15 15 15 14 12 10 8 6 4 3 5 6 7 8 9 10 10 9 8 8 8 8 9
52 49 46 45 44 42 41 38 38 40 38 33 29 27 27 27 27 29 30 28 28 29 32 34 34 33 30 27 26 26 26 25 24 23 21 20 20 21 20 18 17 17 17 17 15 13 10 9 7 6 5 6 7 7 7 9 9 9 8 7 6 7 7
48 45 45 45 45 44 43 41 40 40 38 34 31 29 29 29 30 31 31 30 30 33 36 37 38 36 34 32 29 27 26 27 26 25 23 22 21 22 23 23 21 19 19 19 18 16 14 12 10 9 8 8 8 9 9 10 10 10 9 7 7 6 6
45 42 44 45 44 44 45 43 42 40 38 36 34 32 33 34 35 35 35 34 34 37 39 40 41 41 39 37 33 29 28 29 29 28 26 25 23 22 25 26 25 23 21 21 20 18 16 15 14 13 11 10 9 9 11 12 13 13 12 10 9 8 7
49 46 48 49 45 43 44 43 40 40 39 37 36 35 35 36 37 36 36 36 36 38 40 41 41 42 41 40 36 32 30 32 32 30 29 28 26 25 26 27 28 27 24 22 22 21 19 18 17 16 15 14 13 13 14 15 15 15 15 14 13 12 10
56 53 53 53 49 43 39 38 38 39 40 40 39 38 38 38 39 38 37 38 38 38 39 40 41 41 41 39 35 32 32 34 33 31 30 30 30 30 29 28 30 30 28 25 24 22 20 19 19 19 19 18 17 17 17 18 18 17 17 17 16 15 14
59 56 53 53 51 46 40 38 39 40 41 41 40 40 41 41 42 41 41 42 41 40 40 40 40 40 40 38 34 32 35 35 32 30 27 27 30 33 33 32 31 32 32 30 28 25 23 22 21 21 21 21 21 21 21 20 21 19 18 18 18 18 18
63 59 56 52 51 51 48 42 39 41 42 42 42 42 43 44 44 43 44 44 42 40 41 41 41 40 39 39 36 35 36 36 32 29 26 26 30 34 36 36 35 35 36 34 33 32 30 27 25 24 23 22 22 24 24 24 23 22 21 20 20 20 19
71 65 60 56 53 55 56 48 41 40 42 42 43 44 43 44 44 44 44 45 43 42 43 44 43 42 41 41 41 38 38 36 35 34 32 32 34 35 36 37 38 38 39 39 38 36 34 32 30 28 27 26 25 26 27 27 27 25 24 23 23 22 21
77 73 67 61 55 55 59 57 50 44 42 40 41 43 43 43 44 45 47 49 47 46 46 45 45 43 41 42 44 42 41 41 40 42 43 41 39 39 39 39 39 38 38 41 41 40 39 36 34 33 32 31 30 29 30 30 30 29 28 27 27 26 24
78 77 74 69 63 59 58 59 58 52 44 41 42 44 45 46 48 48 49 50 49 47 47 46 46 45 43 44 44 43 45 45 44 47 51 49 47 46 45 43 42 41 40 40 40 39 39 39 39 38 37 36 35 35 34 32 32 32 32 32 31 30 29
77 77 76 72 70 68 63 60 59 56 48 42 42 44 45 49 52 49 46 46 47 48 47 46 47 47 47 47 47 46 47 47 46 49 54 55 53 52 49 46 44 44 43 41 38 37 35 35 38 41 41 39 38 38 37 36 34 35 36 36 35 35 33
79 79 77 72 69 70 70 66 62 57 51 45 43 42 43 48 53 51 45 43 45 47 47 48 48 49 49 49 49 49 49 48 48 51 54 56 55 54 52 48 46 45 44 40 38 37 34 33 36 41 41 41 40 40 40 40 40 40 41 40 39 38 37
81 81 81 78 71 67 68 69 67 62 56 51 48 45 43 44 48 48 43 39 41 45 48 50 52 52 51 49 47 48 50 50 51 53 55 57 56 52 49 47 47 47 45 42 39 39 41 43 46 47 46 44 42 41 41 42 43 43 42 40 40 39 38
83 83 83 81 76 70 67 68 69 68 63 58 56 54 50 46 45 44 41 38 39 44 47 49 51 53 52 49 46 46 48 49 50 50 51 55 55 51 46 44 46 47 47 44 43 44 48 51 52 53 51 48 45 43 44 45 46 45 43 42 41 41 40
82 83 84 84 80 76 73 71 71 73 71 65 60 60 60 58 54 51 48 44 43 45 47 48 49 51 52 52 52 52 51 51 51 49 49 51 52 52 48 45 46 49 50 49 48 49 54 56 53 51 50 50 50 49 46 45 46 46 43 42 42 41 39
80 81 84 87 85 80 80 79 76 75 76 73 66 63 63 63 62 60 58 55 52 52 53 52 52 53 54 57 58 58 56 55 56 56 55 55 55 56 55 51 49 50 52 53 53 52 55 58 56 54 54 54 54 53 47 43 46 45 41 38 37 37 38
81 81 81 84 87 85 84 86 84 80 78 76 72 68 66 65 64 64 65 63 61 60 59 58 58 58 59 62 64 64 63 62 61 61 61 60 59 60 63 61 57 55 55 56 57 57 58 59 59 58 57 56 55 55 51 49 49 48 46 43 39 37 37
80 83 83 82 85 86 86 88 90 88 83 78 74 72 72 70 66 64 64 65 65 66 65 64 63 63 63 65 68 71 72 70 66 65 65 64 61 61 64 66 66 64 62 62 63 64 65 65 63 60 57 56 56 57 58 58 57 56 54 52 47 44 42
79 84 87 86 85 87 87 88 91 93 91 86 80 77 77 76 72 69 68 68 68 70 70 68 67 67 66 66 68 72 75 75 73 71 70 69 66 63 63 65 66 65 64 64 65 66 67 68 68 65 62 61 61 62 63 64 64 63 60 57 53 51 50
80 83 87 88 87 87 88 88 91 94 95 92 88 84 82 80 78 77 76 76 75 75 75 73 72 71 70 70 72 73 74 76 77 76 75 73 71 69 68 66 65 63 62 62 65 66 67 67 68 68 67 65 65 66 66 66 66 65 64 62 59 57 56
82 82 85 88 88 87 87 88 90 93 97 96 93 90 89 87 84 81 80 82 83 81 79 79 78 76 75 76 77 77 75 75 76 77 77 75 74 74 73 71 68 66 64 64 66 67 66 66 67 68 68 68 68 68 68 68 68 68 67 66 66 65 64
85 84 85 87 88 88 87 87 89 92 96 99 98 95 93 92 91 87 84 85 86 85 83 82 82 82 80 80 82 83 81 79 78 78 77 77 77 78 77 74 72 70 69 70 70 71 70 69 68 68 68 68 69 70 69 68 68 70 70 70 70 69 68
86 86 87 88 90 90 88 88 89 90 93 97 101 102 99 97 96 95 92 90 91 91 89 87 85 84 83 82 84 86 87 86 85 83 82 81 81 81 81 80 78 77 76 75 76 76 76 75 74 73 72 70 70 70 71 70 70 70 71 73 73 72 72
87 88 87 87 89 92 92 91 91 92 92 93 97 101 104 103 102 101 99 98 97 98 98 96 93 90 87 84 84 86 88 89 90 89 88 86 85 84 84 84 84 83 82 81 80 80 80 80 79 79 79 78 75 73 72 72 71 71 71 73 74 74 73
89 88 88 88 87 89 92 93 94 94 95 95 95 98 102 105 106 106 105 104 103 103 103 103 102 99 95 91 88 87 87 89 90 92 92 92 92 91 90 89 88 88 87 88 88 87 88 87 87 86 85 84 83 80 77 76 75 74 73 72 72 71 70
93 91 91 90 89 88 89 92 93 95 96 98 98 99 101 104 106 107 108 108 107 107 106 106 106 106 103 99 96 93 92 91 91 92 93 94 96 97 97 96 95 95 96 97 97 97 97 97 97 96 94 93 91 88 85 82 81 81 80 78 76 74 74
98 96 95 94 93 91 89 90 91 93 95 97 98 100 101 103 105 107 109 110 111 111 110 110 109 109 108 105 103 101 100 99 98 97 97 97 97 98 99 100 100 101 101 102 102 102 102 102 102 102 101 100 99 97 94 91 88 86 86 86 84 83 82